<?xml version="1.0" encoding="UTF-8" standalone="no" ?>
<gpx xmlns="http://www.topografix.com/GPX/1/1" xmlns:xsi="http://www.w3.org/2001/XMLSchema-instance" xsi:schemaLocation="http://www.topografix.com/GPX/1/1 http://www.topografix.com/GPX/1/1/gpx.xsd" version="1.1" creator="VisuGPX - https://www.visugpx.com">
  <metadata>
    <name>Grabels / plateau de juvignac / la goule</name>
    <desc><![CDATA[Grabels, plateau de Juvignac, la goule]]></desc>
  </metadata>
  <trk>
    <name><![CDATA[Grabels / plateau de juvignac / la goule_1]]></name>
    <trkseg>
      <trkpt lat="43.63759" lon="3.8286">
        <ele>127.5</ele>
        <time>2015-11-18T11:22:37Z</time>
      </trkpt>
      <trkpt lat="43.63758" lon="3.8286">
        <ele>126</ele>
        <time>2015-11-18T11:22:40Z</time>
      </trkpt>
      <trkpt lat="43.63758" lon="3.8286">
        <ele>125.5</ele>
        <time>2015-11-18T11:22:41Z</time>
      </trkpt>
      <trkpt lat="43.63757" lon="3.8286">
        <ele>125.5</ele>
        <time>2015-11-18T11:22:42Z</time>
      </trkpt>
      <trkpt lat="43.63758" lon="3.8286">
        <ele>124.5</ele>
        <time>2015-11-18T11:22:46Z</time>
      </trkpt>
      <trkpt lat="43.6376" lon="3.82861">
        <ele>125</ele>
        <time>2015-11-18T11:22:49Z</time>
      </trkpt>
      <trkpt lat="43.6376" lon="3.82861">
        <ele>125</ele>
        <time>2015-11-18T11:22:53Z</time>
      </trkpt>
      <trkpt lat="43.63762" lon="3.82863">
        <ele>126.5</ele>
        <time>2015-11-18T11:23:01Z</time>
      </trkpt>
      <trkpt lat="43.63762" lon="3.82864">
        <ele>127.5</ele>
        <time>2015-11-18T11:23:04Z</time>
      </trkpt>
      <trkpt lat="43.63762" lon="3.82864">
        <ele>127.5</ele>
        <time>2015-11-18T11:23:06Z</time>
      </trkpt>
      <trkpt lat="43.63764" lon="3.82864">
        <ele>129</ele>
        <time>2015-11-18T11:23:15Z</time>
      </trkpt>
      <trkpt lat="43.63764" lon="3.82864">
        <ele>129</ele>
        <time>2015-11-18T11:23:16Z</time>
      </trkpt>
      <trkpt lat="43.63764" lon="3.82863">
        <ele>129.5</ele>
        <time>2015-11-18T11:23:17Z</time>
      </trkpt>
      <trkpt lat="43.63763" lon="3.82863">
        <ele>129</ele>
        <time>2015-11-18T11:23:18Z</time>
      </trkpt>
      <trkpt lat="43.63765" lon="3.82861">
        <ele>127.5</ele>
        <time>2015-11-18T11:23:28Z</time>
      </trkpt>
      <trkpt lat="43.63765" lon="3.8286">
        <ele>127</ele>
        <time>2015-11-18T11:23:29Z</time>
      </trkpt>
      <trkpt lat="43.63767" lon="3.82859">
        <ele>128</ele>
        <time>2015-11-18T11:23:30Z</time>
      </trkpt>
      <trkpt lat="43.63768" lon="3.82859">
        <ele>128</ele>
        <time>2015-11-18T11:23:31Z</time>
      </trkpt>
      <trkpt lat="43.63769" lon="3.82858">
        <ele>128.5</ele>
        <time>2015-11-18T11:23:32Z</time>
      </trkpt>
      <trkpt lat="43.63769" lon="3.82857">
        <ele>128.5</ele>
        <time>2015-11-18T11:23:33Z</time>
      </trkpt>
      <trkpt lat="43.6377" lon="3.82856">
        <ele>129</ele>
        <time>2015-11-18T11:23:34Z</time>
      </trkpt>
      <trkpt lat="43.6377" lon="3.82856">
        <ele>129</ele>
        <time>2015-11-18T11:23:35Z</time>
      </trkpt>
      <trkpt lat="43.6377" lon="3.82856">
        <ele>129</ele>
        <time>2015-11-18T11:23:36Z</time>
      </trkpt>
      <trkpt lat="43.63773" lon="3.82855">
        <ele>131</ele>
        <time>2015-11-18T11:23:42Z</time>
      </trkpt>
      <trkpt lat="43.63774" lon="3.82854">
        <ele>131.5</ele>
        <time>2015-11-18T11:23:43Z</time>
      </trkpt>
      <trkpt lat="43.63774" lon="3.82854">
        <ele>132</ele>
        <time>2015-11-18T11:23:44Z</time>
      </trkpt>
      <trkpt lat="43.63775" lon="3.82854">
        <ele>132.5</ele>
        <time>2015-11-18T11:23:45Z</time>
      </trkpt>
      <trkpt lat="43.63775" lon="3.82853">
        <ele>131.5</ele>
        <time>2015-11-18T11:24:14Z</time>
      </trkpt>
      <trkpt lat="43.63775" lon="3.82853">
        <ele>131.5</ele>
        <time>2015-11-18T11:24:15Z</time>
      </trkpt>
      <trkpt lat="43.63774" lon="3.82853">
        <ele>131.5</ele>
        <time>2015-11-18T11:24:17Z</time>
      </trkpt>
      <trkpt lat="43.63774" lon="3.82853">
        <ele>131</ele>
        <time>2015-11-18T11:24:18Z</time>
      </trkpt>
      <trkpt lat="43.63773" lon="3.82854">
        <ele>130.5</ele>
        <time>2015-11-18T11:24:19Z</time>
      </trkpt>
      <trkpt lat="43.63773" lon="3.82854">
        <ele>129.5</ele>
        <time>2015-11-18T11:24:20Z</time>
      </trkpt>
      <trkpt lat="43.63773" lon="3.82853">
        <ele>129.5</ele>
        <time>2015-11-18T11:24:21Z</time>
      </trkpt>
      <trkpt lat="43.63774" lon="3.82852">
        <ele>131</ele>
        <time>2015-11-18T11:24:23Z</time>
      </trkpt>
      <trkpt lat="43.63774" lon="3.82852">
        <ele>131</ele>
        <time>2015-11-18T11:24:25Z</time>
      </trkpt>
      <trkpt lat="43.63776" lon="3.82851">
        <ele>131.5</ele>
        <time>2015-11-18T11:24:33Z</time>
      </trkpt>
      <trkpt lat="43.63775" lon="3.82851">
        <ele>131</ele>
        <time>2015-11-18T11:24:36Z</time>
      </trkpt>
      <trkpt lat="43.63774" lon="3.82851">
        <ele>130.5</ele>
        <time>2015-11-18T11:24:39Z</time>
      </trkpt>
      <trkpt lat="43.63773" lon="3.8285">
        <ele>130</ele>
        <time>2015-11-18T11:24:55Z</time>
      </trkpt>
      <trkpt lat="43.63772" lon="3.8285">
        <ele>130</ele>
        <time>2015-11-18T11:24:56Z</time>
      </trkpt>
      <trkpt lat="43.63776" lon="3.82851">
        <ele>132.5</ele>
        <time>2015-11-18T11:24:58Z</time>
      </trkpt>
      <trkpt lat="43.63776" lon="3.82852">
        <ele>132.5</ele>
        <time>2015-11-18T11:24:59Z</time>
      </trkpt>
      <trkpt lat="43.63776" lon="3.82853">
        <ele>133</ele>
        <time>2015-11-18T11:25:00Z</time>
      </trkpt>
      <trkpt lat="43.63775" lon="3.82854">
        <ele>133</ele>
        <time>2015-11-18T11:25:01Z</time>
      </trkpt>
      <trkpt lat="43.63776" lon="3.82854">
        <ele>133</ele>
        <time>2015-11-18T11:25:02Z</time>
      </trkpt>
      <trkpt lat="43.63775" lon="3.82855">
        <ele>133.5</ele>
        <time>2015-11-18T11:25:03Z</time>
      </trkpt>
      <trkpt lat="43.63776" lon="3.82856">
        <ele>134</ele>
        <time>2015-11-18T11:25:04Z</time>
      </trkpt>
      <trkpt lat="43.63776" lon="3.82856">
        <ele>134</ele>
        <time>2015-11-18T11:25:05Z</time>
      </trkpt>
      <trkpt lat="43.63776" lon="3.82856">
        <ele>133.5</ele>
        <time>2015-11-18T11:25:06Z</time>
      </trkpt>
      <trkpt lat="43.63777" lon="3.82855">
        <ele>133.5</ele>
        <time>2015-11-18T11:25:07Z</time>
      </trkpt>
      <trkpt lat="43.63779" lon="3.82854">
        <ele>133</ele>
        <time>2015-11-18T11:25:08Z</time>
      </trkpt>
      <trkpt lat="43.63781" lon="3.82852">
        <ele>133</ele>
        <time>2015-11-18T11:25:09Z</time>
      </trkpt>
      <trkpt lat="43.63782" lon="3.8285">
        <ele>133</ele>
        <time>2015-11-18T11:25:10Z</time>
      </trkpt>
      <trkpt lat="43.63778" lon="3.82838">
        <ele>133</ele>
        <time>2015-11-18T11:25:12Z</time>
      </trkpt>
      <trkpt lat="43.63777" lon="3.82834">
        <ele>132.5</ele>
        <time>2015-11-18T11:25:13Z</time>
      </trkpt>
      <trkpt lat="43.63775" lon="3.8283">
        <ele>132</ele>
        <time>2015-11-18T11:25:14Z</time>
      </trkpt>
      <trkpt lat="43.63772" lon="3.82825">
        <ele>133</ele>
        <time>2015-11-18T11:25:15Z</time>
      </trkpt>
      <trkpt lat="43.63771" lon="3.82819">
        <ele>133.5</ele>
        <time>2015-11-18T11:25:16Z</time>
      </trkpt>
      <trkpt lat="43.63771" lon="3.82814">
        <ele>135</ele>
        <time>2015-11-18T11:25:17Z</time>
      </trkpt>
      <trkpt lat="43.63773" lon="3.82811">
        <ele>135.5</ele>
        <time>2015-11-18T11:25:18Z</time>
      </trkpt>
      <trkpt lat="43.63774" lon="3.82809">
        <ele>137</ele>
        <time>2015-11-18T11:25:19Z</time>
      </trkpt>
      <trkpt lat="43.63775" lon="3.82807">
        <ele>139.5</ele>
        <time>2015-11-18T11:25:20Z</time>
      </trkpt>
      <trkpt lat="43.63777" lon="3.82805">
        <ele>141.5</ele>
        <time>2015-11-18T11:25:21Z</time>
      </trkpt>
      <trkpt lat="43.63779" lon="3.82803">
        <ele>142.5</ele>
        <time>2015-11-18T11:25:22Z</time>
      </trkpt>
      <trkpt lat="43.63781" lon="3.82802">
        <ele>142.5</ele>
        <time>2015-11-18T11:25:23Z</time>
      </trkpt>
      <trkpt lat="43.63784" lon="3.82802">
        <ele>142.5</ele>
        <time>2015-11-18T11:25:24Z</time>
      </trkpt>
      <trkpt lat="43.63787" lon="3.828">
        <ele>142</ele>
        <time>2015-11-18T11:25:25Z</time>
      </trkpt>
      <trkpt lat="43.63789" lon="3.82799">
        <ele>141.5</ele>
        <time>2015-11-18T11:25:26Z</time>
      </trkpt>
      <trkpt lat="43.63792" lon="3.82797">
        <ele>140.5</ele>
        <time>2015-11-18T11:25:27Z</time>
      </trkpt>
      <trkpt lat="43.63795" lon="3.82796">
        <ele>139.5</ele>
        <time>2015-11-18T11:25:28Z</time>
      </trkpt>
      <trkpt lat="43.63799" lon="3.82795">
        <ele>139</ele>
        <time>2015-11-18T11:25:29Z</time>
      </trkpt>
      <trkpt lat="43.63802" lon="3.82794">
        <ele>138</ele>
        <time>2015-11-18T11:25:30Z</time>
      </trkpt>
      <trkpt lat="43.63806" lon="3.82793">
        <ele>137</ele>
        <time>2015-11-18T11:25:31Z</time>
      </trkpt>
      <trkpt lat="43.63809" lon="3.82792">
        <ele>136</ele>
        <time>2015-11-18T11:25:32Z</time>
      </trkpt>
      <trkpt lat="43.63812" lon="3.82792">
        <ele>135.5</ele>
        <time>2015-11-18T11:25:33Z</time>
      </trkpt>
      <trkpt lat="43.63816" lon="3.82791">
        <ele>135</ele>
        <time>2015-11-18T11:25:34Z</time>
      </trkpt>
      <trkpt lat="43.63819" lon="3.8279">
        <ele>135</ele>
        <time>2015-11-18T11:25:35Z</time>
      </trkpt>
      <trkpt lat="43.63822" lon="3.82789">
        <ele>134.5</ele>
        <time>2015-11-18T11:25:36Z</time>
      </trkpt>
      <trkpt lat="43.63825" lon="3.82789">
        <ele>134.5</ele>
        <time>2015-11-18T11:25:37Z</time>
      </trkpt>
      <trkpt lat="43.63829" lon="3.8279">
        <ele>134.5</ele>
        <time>2015-11-18T11:25:38Z</time>
      </trkpt>
      <trkpt lat="43.63832" lon="3.82792">
        <ele>134</ele>
        <time>2015-11-18T11:25:39Z</time>
      </trkpt>
      <trkpt lat="43.63836" lon="3.82794">
        <ele>132.5</ele>
        <time>2015-11-18T11:25:40Z</time>
      </trkpt>
      <trkpt lat="43.6384" lon="3.82794">
        <ele>131.5</ele>
        <time>2015-11-18T11:25:41Z</time>
      </trkpt>
      <trkpt lat="43.63845" lon="3.82793">
        <ele>131.5</ele>
        <time>2015-11-18T11:25:42Z</time>
      </trkpt>
      <trkpt lat="43.63849" lon="3.82792">
        <ele>131.5</ele>
        <time>2015-11-18T11:25:43Z</time>
      </trkpt>
      <trkpt lat="43.63853" lon="3.8279">
        <ele>131.5</ele>
        <time>2015-11-18T11:25:44Z</time>
      </trkpt>
      <trkpt lat="43.63857" lon="3.82787">
        <ele>131</ele>
        <time>2015-11-18T11:25:45Z</time>
      </trkpt>
      <trkpt lat="43.63861" lon="3.82784">
        <ele>131</ele>
        <time>2015-11-18T11:25:46Z</time>
      </trkpt>
      <trkpt lat="43.63865" lon="3.82781">
        <ele>130.5</ele>
        <time>2015-11-18T11:25:47Z</time>
      </trkpt>
      <trkpt lat="43.63868" lon="3.82778">
        <ele>130.5</ele>
        <time>2015-11-18T11:25:48Z</time>
      </trkpt>
      <trkpt lat="43.63869" lon="3.82772">
        <ele>130</ele>
        <time>2015-11-18T11:25:49Z</time>
      </trkpt>
      <trkpt lat="43.63872" lon="3.82769">
        <ele>130.5</ele>
        <time>2015-11-18T11:25:50Z</time>
      </trkpt>
      <trkpt lat="43.63876" lon="3.82772">
        <ele>129</ele>
        <time>2015-11-18T11:25:51Z</time>
      </trkpt>
      <trkpt lat="43.6388" lon="3.82786">
        <ele>128.5</ele>
        <time>2015-11-18T11:25:53Z</time>
      </trkpt>
      <trkpt lat="43.63881" lon="3.8279">
        <ele>128.5</ele>
        <time>2015-11-18T11:25:54Z</time>
      </trkpt>
      <trkpt lat="43.63882" lon="3.82794">
        <ele>128</ele>
        <time>2015-11-18T11:25:55Z</time>
      </trkpt>
      <trkpt lat="43.63883" lon="3.82799">
        <ele>128.5</ele>
        <time>2015-11-18T11:25:56Z</time>
      </trkpt>
      <trkpt lat="43.63885" lon="3.82802">
        <ele>128.5</ele>
        <time>2015-11-18T11:25:57Z</time>
      </trkpt>
      <trkpt lat="43.63887" lon="3.82805">
        <ele>128.5</ele>
        <time>2015-11-18T11:25:58Z</time>
      </trkpt>
      <trkpt lat="43.6389" lon="3.82807">
        <ele>128.5</ele>
        <time>2015-11-18T11:25:59Z</time>
      </trkpt>
      <trkpt lat="43.63894" lon="3.82807">
        <ele>127.5</ele>
        <time>2015-11-18T11:26:00Z</time>
      </trkpt>
      <trkpt lat="43.63898" lon="3.82807">
        <ele>128</ele>
        <time>2015-11-18T11:26:01Z</time>
      </trkpt>
      <trkpt lat="43.63901" lon="3.8281">
        <ele>127</ele>
        <time>2015-11-18T11:26:02Z</time>
      </trkpt>
      <trkpt lat="43.63904" lon="3.82813">
        <ele>126</ele>
        <time>2015-11-18T11:26:03Z</time>
      </trkpt>
      <trkpt lat="43.63907" lon="3.82815">
        <ele>126</ele>
        <time>2015-11-18T11:26:04Z</time>
      </trkpt>
      <trkpt lat="43.63909" lon="3.82818">
        <ele>128</ele>
        <time>2015-11-18T11:26:05Z</time>
      </trkpt>
      <trkpt lat="43.63911" lon="3.82823">
        <ele>128</ele>
        <time>2015-11-18T11:26:06Z</time>
      </trkpt>
      <trkpt lat="43.63912" lon="3.82826">
        <ele>128</ele>
        <time>2015-11-18T11:26:07Z</time>
      </trkpt>
      <trkpt lat="43.63914" lon="3.82827">
        <ele>126.5</ele>
        <time>2015-11-18T11:26:08Z</time>
      </trkpt>
      <trkpt lat="43.63916" lon="3.82825">
        <ele>127.5</ele>
        <time>2015-11-18T11:26:09Z</time>
      </trkpt>
      <trkpt lat="43.63922" lon="3.82826">
        <ele>130.5</ele>
        <time>2015-11-18T11:26:22Z</time>
      </trkpt>
      <trkpt lat="43.63924" lon="3.82825">
        <ele>131</ele>
        <time>2015-11-18T11:26:23Z</time>
      </trkpt>
      <trkpt lat="43.63927" lon="3.82824">
        <ele>132</ele>
        <time>2015-11-18T11:26:24Z</time>
      </trkpt>
      <trkpt lat="43.63929" lon="3.82823">
        <ele>132</ele>
        <time>2015-11-18T11:26:25Z</time>
      </trkpt>
      <trkpt lat="43.63932" lon="3.8282">
        <ele>132.5</ele>
        <time>2015-11-18T11:26:26Z</time>
      </trkpt>
      <trkpt lat="43.63935" lon="3.82818">
        <ele>134</ele>
        <time>2015-11-18T11:26:27Z</time>
      </trkpt>
      <trkpt lat="43.63938" lon="3.82817">
        <ele>134.5</ele>
        <time>2015-11-18T11:26:28Z</time>
      </trkpt>
      <trkpt lat="43.6394" lon="3.82816">
        <ele>135</ele>
        <time>2015-11-18T11:26:29Z</time>
      </trkpt>
      <trkpt lat="43.63944" lon="3.82816">
        <ele>134.5</ele>
        <time>2015-11-18T11:26:30Z</time>
      </trkpt>
      <trkpt lat="43.63947" lon="3.82815">
        <ele>134.5</ele>
        <time>2015-11-18T11:26:31Z</time>
      </trkpt>
      <trkpt lat="43.6395" lon="3.82813">
        <ele>134.5</ele>
        <time>2015-11-18T11:26:32Z</time>
      </trkpt>
      <trkpt lat="43.63949" lon="3.82808">
        <ele>133</ele>
        <time>2015-11-18T11:26:33Z</time>
      </trkpt>
      <trkpt lat="43.63951" lon="3.82803">
        <ele>135.5</ele>
        <time>2015-11-18T11:26:35Z</time>
      </trkpt>
      <trkpt lat="43.63954" lon="3.82802">
        <ele>137</ele>
        <time>2015-11-18T11:26:36Z</time>
      </trkpt>
      <trkpt lat="43.63956" lon="3.828">
        <ele>137</ele>
        <time>2015-11-18T11:26:37Z</time>
      </trkpt>
      <trkpt lat="43.63958" lon="3.82799">
        <ele>137.5</ele>
        <time>2015-11-18T11:26:38Z</time>
      </trkpt>
      <trkpt lat="43.63959" lon="3.82797">
        <ele>138.5</ele>
        <time>2015-11-18T11:26:39Z</time>
      </trkpt>
      <trkpt lat="43.63961" lon="3.82794">
        <ele>138.5</ele>
        <time>2015-11-18T11:26:40Z</time>
      </trkpt>
      <trkpt lat="43.63964" lon="3.82792">
        <ele>138.5</ele>
        <time>2015-11-18T11:26:41Z</time>
      </trkpt>
      <trkpt lat="43.63966" lon="3.82791">
        <ele>139.5</ele>
        <time>2015-11-18T11:26:42Z</time>
      </trkpt>
      <trkpt lat="43.63969" lon="3.8279">
        <ele>139.5</ele>
        <time>2015-11-18T11:26:43Z</time>
      </trkpt>
      <trkpt lat="43.63972" lon="3.8279">
        <ele>140.5</ele>
        <time>2015-11-18T11:26:44Z</time>
      </trkpt>
      <trkpt lat="43.63976" lon="3.8279">
        <ele>140.5</ele>
        <time>2015-11-18T11:26:45Z</time>
      </trkpt>
      <trkpt lat="43.63979" lon="3.82789">
        <ele>141</ele>
        <time>2015-11-18T11:26:46Z</time>
      </trkpt>
      <trkpt lat="43.63982" lon="3.82788">
        <ele>140</ele>
        <time>2015-11-18T11:26:47Z</time>
      </trkpt>
      <trkpt lat="43.63985" lon="3.82788">
        <ele>140.5</ele>
        <time>2015-11-18T11:26:48Z</time>
      </trkpt>
      <trkpt lat="43.63988" lon="3.82787">
        <ele>141</ele>
        <time>2015-11-18T11:26:49Z</time>
      </trkpt>
      <trkpt lat="43.63991" lon="3.82786">
        <ele>140.5</ele>
        <time>2015-11-18T11:26:50Z</time>
      </trkpt>
      <trkpt lat="43.63993" lon="3.82784">
        <ele>141</ele>
        <time>2015-11-18T11:26:51Z</time>
      </trkpt>
      <trkpt lat="43.63996" lon="3.82781">
        <ele>141.5</ele>
        <time>2015-11-18T11:26:52Z</time>
      </trkpt>
      <trkpt lat="43.63998" lon="3.82777">
        <ele>143</ele>
        <time>2015-11-18T11:26:53Z</time>
      </trkpt>
      <trkpt lat="43.64" lon="3.82764">
        <ele>142</ele>
        <time>2015-11-18T11:26:55Z</time>
      </trkpt>
      <trkpt lat="43.64003" lon="3.82763">
        <ele>142</ele>
        <time>2015-11-18T11:26:56Z</time>
      </trkpt>
      <trkpt lat="43.64006" lon="3.82761">
        <ele>141.5</ele>
        <time>2015-11-18T11:26:57Z</time>
      </trkpt>
      <trkpt lat="43.64009" lon="3.82759">
        <ele>141</ele>
        <time>2015-11-18T11:26:58Z</time>
      </trkpt>
      <trkpt lat="43.64012" lon="3.82758">
        <ele>141</ele>
        <time>2015-11-18T11:26:59Z</time>
      </trkpt>
      <trkpt lat="43.64015" lon="3.82756">
        <ele>141</ele>
        <time>2015-11-18T11:27:00Z</time>
      </trkpt>
      <trkpt lat="43.64019" lon="3.82754">
        <ele>140.5</ele>
        <time>2015-11-18T11:27:01Z</time>
      </trkpt>
      <trkpt lat="43.64022" lon="3.82753">
        <ele>140</ele>
        <time>2015-11-18T11:27:02Z</time>
      </trkpt>
      <trkpt lat="43.64025" lon="3.82751">
        <ele>140.5</ele>
        <time>2015-11-18T11:27:03Z</time>
      </trkpt>
      <trkpt lat="43.64028" lon="3.82748">
        <ele>141</ele>
        <time>2015-11-18T11:27:04Z</time>
      </trkpt>
      <trkpt lat="43.6403" lon="3.82745">
        <ele>141</ele>
        <time>2015-11-18T11:27:05Z</time>
      </trkpt>
      <trkpt lat="43.64034" lon="3.82743">
        <ele>140</ele>
        <time>2015-11-18T11:27:06Z</time>
      </trkpt>
      <trkpt lat="43.64037" lon="3.8274">
        <ele>140.5</ele>
        <time>2015-11-18T11:27:07Z</time>
      </trkpt>
      <trkpt lat="43.64039" lon="3.82737">
        <ele>139.5</ele>
        <time>2015-11-18T11:27:08Z</time>
      </trkpt>
      <trkpt lat="43.64042" lon="3.82734">
        <ele>139.5</ele>
        <time>2015-11-18T11:27:09Z</time>
      </trkpt>
      <trkpt lat="43.64045" lon="3.82732">
        <ele>139.5</ele>
        <time>2015-11-18T11:27:10Z</time>
      </trkpt>
      <trkpt lat="43.64047" lon="3.82729">
        <ele>139.5</ele>
        <time>2015-11-18T11:27:11Z</time>
      </trkpt>
      <trkpt lat="43.6405" lon="3.82726">
        <ele>139.5</ele>
        <time>2015-11-18T11:27:12Z</time>
      </trkpt>
      <trkpt lat="43.64052" lon="3.82723">
        <ele>140</ele>
        <time>2015-11-18T11:27:13Z</time>
      </trkpt>
      <trkpt lat="43.64055" lon="3.8272">
        <ele>140</ele>
        <time>2015-11-18T11:27:14Z</time>
      </trkpt>
      <trkpt lat="43.64059" lon="3.82718">
        <ele>141</ele>
        <time>2015-11-18T11:27:15Z</time>
      </trkpt>
      <trkpt lat="43.64063" lon="3.82717">
        <ele>141.5</ele>
        <time>2015-11-18T11:27:16Z</time>
      </trkpt>
      <trkpt lat="43.64066" lon="3.82715">
        <ele>142</ele>
        <time>2015-11-18T11:27:17Z</time>
      </trkpt>
      <trkpt lat="43.64069" lon="3.82713">
        <ele>141.5</ele>
        <time>2015-11-18T11:27:18Z</time>
      </trkpt>
      <trkpt lat="43.64073" lon="3.82712">
        <ele>141</ele>
        <time>2015-11-18T11:27:19Z</time>
      </trkpt>
      <trkpt lat="43.64076" lon="3.8271">
        <ele>141</ele>
        <time>2015-11-18T11:27:20Z</time>
      </trkpt>
      <trkpt lat="43.64079" lon="3.82708">
        <ele>140.5</ele>
        <time>2015-11-18T11:27:21Z</time>
      </trkpt>
      <trkpt lat="43.64083" lon="3.82706">
        <ele>141</ele>
        <time>2015-11-18T11:27:22Z</time>
      </trkpt>
      <trkpt lat="43.64085" lon="3.82703">
        <ele>141.5</ele>
        <time>2015-11-18T11:27:23Z</time>
      </trkpt>
      <trkpt lat="43.64087" lon="3.82699">
        <ele>142</ele>
        <time>2015-11-18T11:27:24Z</time>
      </trkpt>
      <trkpt lat="43.6409" lon="3.82696">
        <ele>142</ele>
        <time>2015-11-18T11:27:25Z</time>
      </trkpt>
      <trkpt lat="43.64092" lon="3.82694">
        <ele>142</ele>
        <time>2015-11-18T11:27:26Z</time>
      </trkpt>
      <trkpt lat="43.64095" lon="3.82691">
        <ele>142.5</ele>
        <time>2015-11-18T11:27:26Z</time>
      </trkpt>
      <trkpt lat="43.64097" lon="3.82687">
        <ele>143.5</ele>
        <time>2015-11-18T11:27:27Z</time>
      </trkpt>
      <trkpt lat="43.641" lon="3.82684">
        <ele>144</ele>
        <time>2015-11-18T11:27:28Z</time>
      </trkpt>
      <trkpt lat="43.64102" lon="3.82681">
        <ele>144.5</ele>
        <time>2015-11-18T11:27:29Z</time>
      </trkpt>
      <trkpt lat="43.64104" lon="3.82678">
        <ele>145.5</ele>
        <time>2015-11-18T11:27:30Z</time>
      </trkpt>
      <trkpt lat="43.64107" lon="3.82676">
        <ele>146</ele>
        <time>2015-11-18T11:27:31Z</time>
      </trkpt>
      <trkpt lat="43.64109" lon="3.82673">
        <ele>146.5</ele>
        <time>2015-11-18T11:27:32Z</time>
      </trkpt>
      <trkpt lat="43.64112" lon="3.82671">
        <ele>147</ele>
        <time>2015-11-18T11:27:33Z</time>
      </trkpt>
      <trkpt lat="43.64114" lon="3.82668">
        <ele>147.5</ele>
        <time>2015-11-18T11:27:34Z</time>
      </trkpt>
      <trkpt lat="43.64117" lon="3.82665">
        <ele>147.5</ele>
        <time>2015-11-18T11:27:35Z</time>
      </trkpt>
      <trkpt lat="43.6412" lon="3.82662">
        <ele>147.5</ele>
        <time>2015-11-18T11:27:36Z</time>
      </trkpt>
      <trkpt lat="43.64123" lon="3.82659">
        <ele>148.5</ele>
        <time>2015-11-18T11:27:37Z</time>
      </trkpt>
      <trkpt lat="43.64125" lon="3.82656">
        <ele>148.5</ele>
        <time>2015-11-18T11:27:38Z</time>
      </trkpt>
      <trkpt lat="43.64128" lon="3.82654">
        <ele>149</ele>
        <time>2015-11-18T11:27:39Z</time>
      </trkpt>
      <trkpt lat="43.6413" lon="3.82651">
        <ele>149.5</ele>
        <time>2015-11-18T11:27:40Z</time>
      </trkpt>
      <trkpt lat="43.64132" lon="3.82648">
        <ele>150</ele>
        <time>2015-11-18T11:27:41Z</time>
      </trkpt>
      <trkpt lat="43.64135" lon="3.82646">
        <ele>150.5</ele>
        <time>2015-11-18T11:27:42Z</time>
      </trkpt>
      <trkpt lat="43.64137" lon="3.82642">
        <ele>151</ele>
        <time>2015-11-18T11:27:43Z</time>
      </trkpt>
      <trkpt lat="43.64139" lon="3.8264">
        <ele>151</ele>
        <time>2015-11-18T11:27:44Z</time>
      </trkpt>
      <trkpt lat="43.64142" lon="3.82637">
        <ele>151.5</ele>
        <time>2015-11-18T11:27:45Z</time>
      </trkpt>
      <trkpt lat="43.64144" lon="3.82634">
        <ele>151.5</ele>
        <time>2015-11-18T11:27:46Z</time>
      </trkpt>
      <trkpt lat="43.64147" lon="3.82631">
        <ele>151.5</ele>
        <time>2015-11-18T11:27:47Z</time>
      </trkpt>
      <trkpt lat="43.64149" lon="3.82628">
        <ele>151.5</ele>
        <time>2015-11-18T11:27:48Z</time>
      </trkpt>
      <trkpt lat="43.64151" lon="3.82625">
        <ele>151.5</ele>
        <time>2015-11-18T11:27:49Z</time>
      </trkpt>
      <trkpt lat="43.64153" lon="3.82621">
        <ele>151.5</ele>
        <time>2015-11-18T11:27:50Z</time>
      </trkpt>
      <trkpt lat="43.64156" lon="3.82618">
        <ele>152</ele>
        <time>2015-11-18T11:27:51Z</time>
      </trkpt>
      <trkpt lat="43.64158" lon="3.82614">
        <ele>151.5</ele>
        <time>2015-11-18T11:27:52Z</time>
      </trkpt>
      <trkpt lat="43.64161" lon="3.82611">
        <ele>152</ele>
        <time>2015-11-18T11:27:53Z</time>
      </trkpt>
      <trkpt lat="43.64163" lon="3.82608">
        <ele>152.5</ele>
        <time>2015-11-18T11:27:54Z</time>
      </trkpt>
      <trkpt lat="43.64165" lon="3.82605">
        <ele>152.5</ele>
        <time>2015-11-18T11:27:55Z</time>
      </trkpt>
      <trkpt lat="43.64168" lon="3.82602">
        <ele>153</ele>
        <time>2015-11-18T11:27:56Z</time>
      </trkpt>
      <trkpt lat="43.64171" lon="3.82599">
        <ele>152.5</ele>
        <time>2015-11-18T11:27:57Z</time>
      </trkpt>
      <trkpt lat="43.64173" lon="3.82595">
        <ele>152.5</ele>
        <time>2015-11-18T11:27:58Z</time>
      </trkpt>
      <trkpt lat="43.64176" lon="3.82592">
        <ele>152.5</ele>
        <time>2015-11-18T11:27:59Z</time>
      </trkpt>
      <trkpt lat="43.64179" lon="3.82589">
        <ele>152.5</ele>
        <time>2015-11-18T11:28:00Z</time>
      </trkpt>
      <trkpt lat="43.64181" lon="3.82585">
        <ele>152</ele>
        <time>2015-11-18T11:28:01Z</time>
      </trkpt>
      <trkpt lat="43.64184" lon="3.82582">
        <ele>151.5</ele>
        <time>2015-11-18T11:28:02Z</time>
      </trkpt>
      <trkpt lat="43.64186" lon="3.82579">
        <ele>151.5</ele>
        <time>2015-11-18T11:28:03Z</time>
      </trkpt>
      <trkpt lat="43.64189" lon="3.82576">
        <ele>151.5</ele>
        <time>2015-11-18T11:28:04Z</time>
      </trkpt>
      <trkpt lat="43.64191" lon="3.82572">
        <ele>152</ele>
        <time>2015-11-18T11:28:05Z</time>
      </trkpt>
      <trkpt lat="43.64194" lon="3.82569">
        <ele>152</ele>
        <time>2015-11-18T11:28:06Z</time>
      </trkpt>
      <trkpt lat="43.64196" lon="3.82566">
        <ele>152.5</ele>
        <time>2015-11-18T11:28:07Z</time>
      </trkpt>
      <trkpt lat="43.64199" lon="3.82563">
        <ele>153</ele>
        <time>2015-11-18T11:28:08Z</time>
      </trkpt>
      <trkpt lat="43.64201" lon="3.82559">
        <ele>152</ele>
        <time>2015-11-18T11:28:09Z</time>
      </trkpt>
      <trkpt lat="43.64202" lon="3.82555">
        <ele>152</ele>
        <time>2015-11-18T11:28:10Z</time>
      </trkpt>
      <trkpt lat="43.64204" lon="3.82552">
        <ele>152</ele>
        <time>2015-11-18T11:28:11Z</time>
      </trkpt>
      <trkpt lat="43.64205" lon="3.82548">
        <ele>152.5</ele>
        <time>2015-11-18T11:28:12Z</time>
      </trkpt>
      <trkpt lat="43.64207" lon="3.82544">
        <ele>152.5</ele>
        <time>2015-11-18T11:28:13Z</time>
      </trkpt>
      <trkpt lat="43.64208" lon="3.8254">
        <ele>153</ele>
        <time>2015-11-18T11:28:14Z</time>
      </trkpt>
      <trkpt lat="43.64209" lon="3.82535">
        <ele>153</ele>
        <time>2015-11-18T11:28:15Z</time>
      </trkpt>
      <trkpt lat="43.6421" lon="3.8253">
        <ele>152.5</ele>
        <time>2015-11-18T11:28:16Z</time>
      </trkpt>
      <trkpt lat="43.64212" lon="3.82527">
        <ele>152.5</ele>
        <time>2015-11-18T11:28:17Z</time>
      </trkpt>
      <trkpt lat="43.64214" lon="3.82523">
        <ele>152</ele>
        <time>2015-11-18T11:28:18Z</time>
      </trkpt>
      <trkpt lat="43.64216" lon="3.82519">
        <ele>151</ele>
        <time>2015-11-18T11:28:19Z</time>
      </trkpt>
      <trkpt lat="43.64218" lon="3.82515">
        <ele>150</ele>
        <time>2015-11-18T11:28:20Z</time>
      </trkpt>
      <trkpt lat="43.6422" lon="3.82512">
        <ele>150</ele>
        <time>2015-11-18T11:28:21Z</time>
      </trkpt>
      <trkpt lat="43.64221" lon="3.82507">
        <ele>150.5</ele>
        <time>2015-11-18T11:28:22Z</time>
      </trkpt>
      <trkpt lat="43.64223" lon="3.82504">
        <ele>151.5</ele>
        <time>2015-11-18T11:28:23Z</time>
      </trkpt>
      <trkpt lat="43.64227" lon="3.82501">
        <ele>150</ele>
        <time>2015-11-18T11:28:24Z</time>
      </trkpt>
      <trkpt lat="43.6423" lon="3.82497">
        <ele>150.5</ele>
        <time>2015-11-18T11:28:25Z</time>
      </trkpt>
      <trkpt lat="43.64232" lon="3.82493">
        <ele>151.5</ele>
        <time>2015-11-18T11:28:26Z</time>
      </trkpt>
      <trkpt lat="43.64234" lon="3.8249">
        <ele>152.5</ele>
        <time>2015-11-18T11:28:27Z</time>
      </trkpt>
      <trkpt lat="43.64236" lon="3.82485">
        <ele>152.5</ele>
        <time>2015-11-18T11:28:28Z</time>
      </trkpt>
      <trkpt lat="43.64238" lon="3.82481">
        <ele>152.5</ele>
        <time>2015-11-18T11:28:29Z</time>
      </trkpt>
      <trkpt lat="43.64238" lon="3.82475">
        <ele>152.5</ele>
        <time>2015-11-18T11:28:30Z</time>
      </trkpt>
      <trkpt lat="43.6424" lon="3.82471">
        <ele>152.5</ele>
        <time>2015-11-18T11:28:31Z</time>
      </trkpt>
      <trkpt lat="43.64241" lon="3.82466">
        <ele>151.5</ele>
        <time>2015-11-18T11:28:32Z</time>
      </trkpt>
      <trkpt lat="43.64243" lon="3.82462">
        <ele>151.5</ele>
        <time>2015-11-18T11:28:33Z</time>
      </trkpt>
      <trkpt lat="43.64244" lon="3.82458">
        <ele>150</ele>
        <time>2015-11-18T11:28:34Z</time>
      </trkpt>
      <trkpt lat="43.64246" lon="3.82455">
        <ele>149.5</ele>
        <time>2015-11-18T11:28:35Z</time>
      </trkpt>
      <trkpt lat="43.64248" lon="3.82452">
        <ele>151.5</ele>
        <time>2015-11-18T11:28:36Z</time>
      </trkpt>
      <trkpt lat="43.64248" lon="3.82446">
        <ele>151.5</ele>
        <time>2015-11-18T11:28:37Z</time>
      </trkpt>
      <trkpt lat="43.64249" lon="3.8244">
        <ele>151.5</ele>
        <time>2015-11-18T11:28:38Z</time>
      </trkpt>
      <trkpt lat="43.64251" lon="3.82436">
        <ele>152.5</ele>
        <time>2015-11-18T11:28:39Z</time>
      </trkpt>
      <trkpt lat="43.64253" lon="3.82432">
        <ele>152.5</ele>
        <time>2015-11-18T11:28:40Z</time>
      </trkpt>
      <trkpt lat="43.64255" lon="3.82427">
        <ele>152</ele>
        <time>2015-11-18T11:28:41Z</time>
      </trkpt>
      <trkpt lat="43.64258" lon="3.82425">
        <ele>152</ele>
        <time>2015-11-18T11:28:42Z</time>
      </trkpt>
      <trkpt lat="43.64259" lon="3.82421">
        <ele>152</ele>
        <time>2015-11-18T11:28:43Z</time>
      </trkpt>
      <trkpt lat="43.64261" lon="3.82418">
        <ele>152</ele>
        <time>2015-11-18T11:28:44Z</time>
      </trkpt>
      <trkpt lat="43.64264" lon="3.82415">
        <ele>151</ele>
        <time>2015-11-18T11:28:45Z</time>
      </trkpt>
      <trkpt lat="43.64266" lon="3.82411">
        <ele>151.5</ele>
        <time>2015-11-18T11:28:46Z</time>
      </trkpt>
      <trkpt lat="43.64269" lon="3.82408">
        <ele>151.5</ele>
        <time>2015-11-18T11:28:47Z</time>
      </trkpt>
      <trkpt lat="43.64271" lon="3.82406">
        <ele>153</ele>
        <time>2015-11-18T11:28:48Z</time>
      </trkpt>
      <trkpt lat="43.64275" lon="3.82403">
        <ele>152.5</ele>
        <time>2015-11-18T11:28:49Z</time>
      </trkpt>
      <trkpt lat="43.64277" lon="3.82399">
        <ele>153.5</ele>
        <time>2015-11-18T11:28:50Z</time>
      </trkpt>
      <trkpt lat="43.6428" lon="3.82395">
        <ele>153.5</ele>
        <time>2015-11-18T11:28:51Z</time>
      </trkpt>
      <trkpt lat="43.64283" lon="3.82391">
        <ele>151</ele>
        <time>2015-11-18T11:28:52Z</time>
      </trkpt>
      <trkpt lat="43.64286" lon="3.82389">
        <ele>149</ele>
        <time>2015-11-18T11:28:53Z</time>
      </trkpt>
      <trkpt lat="43.64288" lon="3.82387">
        <ele>148.5</ele>
        <time>2015-11-18T11:28:54Z</time>
      </trkpt>
      <trkpt lat="43.64291" lon="3.82387">
        <ele>147</ele>
        <time>2015-11-18T11:28:55Z</time>
      </trkpt>
      <trkpt lat="43.64294" lon="3.82384">
        <ele>146.5</ele>
        <time>2015-11-18T11:28:56Z</time>
      </trkpt>
      <trkpt lat="43.64294" lon="3.82379">
        <ele>147.5</ele>
        <time>2015-11-18T11:28:57Z</time>
      </trkpt>
      <trkpt lat="43.64294" lon="3.82374">
        <ele>147.5</ele>
        <time>2015-11-18T11:28:58Z</time>
      </trkpt>
      <trkpt lat="43.64296" lon="3.82371">
        <ele>147.5</ele>
        <time>2015-11-18T11:28:59Z</time>
      </trkpt>
      <trkpt lat="43.64297" lon="3.82367">
        <ele>147</ele>
        <time>2015-11-18T11:29:00Z</time>
      </trkpt>
      <trkpt lat="43.64298" lon="3.82363">
        <ele>147.5</ele>
        <time>2015-11-18T11:29:01Z</time>
      </trkpt>
      <trkpt lat="43.64299" lon="3.82359">
        <ele>147.5</ele>
        <time>2015-11-18T11:29:02Z</time>
      </trkpt>
      <trkpt lat="43.643" lon="3.82354">
        <ele>147.5</ele>
        <time>2015-11-18T11:29:03Z</time>
      </trkpt>
      <trkpt lat="43.64302" lon="3.8235">
        <ele>147.5</ele>
        <time>2015-11-18T11:29:04Z</time>
      </trkpt>
      <trkpt lat="43.64304" lon="3.82345">
        <ele>147</ele>
        <time>2015-11-18T11:29:05Z</time>
      </trkpt>
      <trkpt lat="43.64306" lon="3.82341">
        <ele>147</ele>
        <time>2015-11-18T11:29:06Z</time>
      </trkpt>
      <trkpt lat="43.64308" lon="3.82337">
        <ele>147.5</ele>
        <time>2015-11-18T11:29:07Z</time>
      </trkpt>
      <trkpt lat="43.64311" lon="3.82334">
        <ele>147</ele>
        <time>2015-11-18T11:29:08Z</time>
      </trkpt>
      <trkpt lat="43.64313" lon="3.82329">
        <ele>147.5</ele>
        <time>2015-11-18T11:29:09Z</time>
      </trkpt>
      <trkpt lat="43.64314" lon="3.82324">
        <ele>147</ele>
        <time>2015-11-18T11:29:10Z</time>
      </trkpt>
      <trkpt lat="43.64316" lon="3.82319">
        <ele>147.5</ele>
        <time>2015-11-18T11:29:11Z</time>
      </trkpt>
      <trkpt lat="43.64317" lon="3.82313">
        <ele>149</ele>
        <time>2015-11-18T11:29:12Z</time>
      </trkpt>
      <trkpt lat="43.64319" lon="3.82309">
        <ele>150.5</ele>
        <time>2015-11-18T11:29:13Z</time>
      </trkpt>
      <trkpt lat="43.6432" lon="3.82305">
        <ele>151.5</ele>
        <time>2015-11-18T11:29:14Z</time>
      </trkpt>
      <trkpt lat="43.64322" lon="3.82301">
        <ele>152</ele>
        <time>2015-11-18T11:29:15Z</time>
      </trkpt>
      <trkpt lat="43.64324" lon="3.82298">
        <ele>152</ele>
        <time>2015-11-18T11:29:16Z</time>
      </trkpt>
      <trkpt lat="43.64325" lon="3.82292">
        <ele>153</ele>
        <time>2015-11-18T11:29:17Z</time>
      </trkpt>
      <trkpt lat="43.64327" lon="3.82289">
        <ele>153</ele>
        <time>2015-11-18T11:29:18Z</time>
      </trkpt>
      <trkpt lat="43.64328" lon="3.82284">
        <ele>152.5</ele>
        <time>2015-11-18T11:29:19Z</time>
      </trkpt>
      <trkpt lat="43.64329" lon="3.8228">
        <ele>152</ele>
        <time>2015-11-18T11:29:20Z</time>
      </trkpt>
      <trkpt lat="43.64331" lon="3.82275">
        <ele>151.5</ele>
        <time>2015-11-18T11:29:21Z</time>
      </trkpt>
      <trkpt lat="43.64332" lon="3.8227">
        <ele>151</ele>
        <time>2015-11-18T11:29:22Z</time>
      </trkpt>
      <trkpt lat="43.64335" lon="3.82267">
        <ele>151</ele>
        <time>2015-11-18T11:29:23Z</time>
      </trkpt>
      <trkpt lat="43.64338" lon="3.82264">
        <ele>150</ele>
        <time>2015-11-18T11:29:24Z</time>
      </trkpt>
      <trkpt lat="43.64341" lon="3.82261">
        <ele>149.5</ele>
        <time>2015-11-18T11:29:25Z</time>
      </trkpt>
      <trkpt lat="43.64345" lon="3.82258">
        <ele>148</ele>
        <time>2015-11-18T11:29:26Z</time>
      </trkpt>
      <trkpt lat="43.64349" lon="3.82257">
        <ele>147.5</ele>
        <time>2015-11-18T11:29:27Z</time>
      </trkpt>
      <trkpt lat="43.64353" lon="3.82259">
        <ele>147</ele>
        <time>2015-11-18T11:29:28Z</time>
      </trkpt>
      <trkpt lat="43.64356" lon="3.82257">
        <ele>147.5</ele>
        <time>2015-11-18T11:29:30Z</time>
      </trkpt>
      <trkpt lat="43.64357" lon="3.82254">
        <ele>147.5</ele>
        <time>2015-11-18T11:29:31Z</time>
      </trkpt>
      <trkpt lat="43.64357" lon="3.8225">
        <ele>149</ele>
        <time>2015-11-18T11:29:32Z</time>
      </trkpt>
      <trkpt lat="43.64357" lon="3.82247">
        <ele>147.5</ele>
        <time>2015-11-18T11:29:33Z</time>
      </trkpt>
      <trkpt lat="43.64356" lon="3.82245">
        <ele>148</ele>
        <time>2015-11-18T11:29:34Z</time>
      </trkpt>
      <trkpt lat="43.64355" lon="3.8224">
        <ele>147.5</ele>
        <time>2015-11-18T11:29:35Z</time>
      </trkpt>
      <trkpt lat="43.64352" lon="3.8223">
        <ele>149</ele>
        <time>2015-11-18T11:29:37Z</time>
      </trkpt>
      <trkpt lat="43.64351" lon="3.82225">
        <ele>149.5</ele>
        <time>2015-11-18T11:29:38Z</time>
      </trkpt>
      <trkpt lat="43.6435" lon="3.8222">
        <ele>150</ele>
        <time>2015-11-18T11:29:39Z</time>
      </trkpt>
      <trkpt lat="43.64351" lon="3.82217">
        <ele>148.5</ele>
        <time>2015-11-18T11:29:40Z</time>
      </trkpt>
      <trkpt lat="43.6435" lon="3.82211">
        <ele>148</ele>
        <time>2015-11-18T11:29:41Z</time>
      </trkpt>
      <trkpt lat="43.64348" lon="3.82206">
        <ele>147.5</ele>
        <time>2015-11-18T11:29:42Z</time>
      </trkpt>
      <trkpt lat="43.64346" lon="3.82204">
        <ele>147</ele>
        <time>2015-11-18T11:29:43Z</time>
      </trkpt>
      <trkpt lat="43.64343" lon="3.82203">
        <ele>147</ele>
        <time>2015-11-18T11:29:44Z</time>
      </trkpt>
      <trkpt lat="43.64341" lon="3.82201">
        <ele>146.5</ele>
        <time>2015-11-18T11:29:46Z</time>
      </trkpt>
      <trkpt lat="43.64339" lon="3.822">
        <ele>147</ele>
        <time>2015-11-18T11:29:47Z</time>
      </trkpt>
      <trkpt lat="43.64338" lon="3.82199">
        <ele>147.5</ele>
        <time>2015-11-18T11:29:48Z</time>
      </trkpt>
      <trkpt lat="43.64337" lon="3.82198">
        <ele>148.5</ele>
        <time>2015-11-18T11:29:49Z</time>
      </trkpt>
      <trkpt lat="43.64335" lon="3.8219">
        <ele>151.5</ele>
        <time>2015-11-18T11:29:51Z</time>
      </trkpt>
      <trkpt lat="43.64334" lon="3.82187">
        <ele>151.5</ele>
        <time>2015-11-18T11:29:52Z</time>
      </trkpt>
      <trkpt lat="43.64334" lon="3.82186">
        <ele>154</ele>
        <time>2015-11-18T11:29:53Z</time>
      </trkpt>
      <trkpt lat="43.64333" lon="3.82185">
        <ele>157</ele>
        <time>2015-11-18T11:29:54Z</time>
      </trkpt>
      <trkpt lat="43.64332" lon="3.82184">
        <ele>159</ele>
        <time>2015-11-18T11:29:55Z</time>
      </trkpt>
      <trkpt lat="43.64331" lon="3.82184">
        <ele>161.5</ele>
        <time>2015-11-18T11:29:56Z</time>
      </trkpt>
      <trkpt lat="43.6433" lon="3.82185">
        <ele>161.5</ele>
        <time>2015-11-18T11:29:57Z</time>
      </trkpt>
      <trkpt lat="43.64331" lon="3.8218">
        <ele>163</ele>
        <time>2015-11-18T11:29:58Z</time>
      </trkpt>
      <trkpt lat="43.6433" lon="3.82175">
        <ele>162.5</ele>
        <time>2015-11-18T11:29:59Z</time>
      </trkpt>
      <trkpt lat="43.64329" lon="3.82169">
        <ele>163</ele>
        <time>2015-11-18T11:30:00Z</time>
      </trkpt>
      <trkpt lat="43.64328" lon="3.82165">
        <ele>161</ele>
        <time>2015-11-18T11:30:01Z</time>
      </trkpt>
      <trkpt lat="43.64326" lon="3.82159">
        <ele>161</ele>
        <time>2015-11-18T11:30:02Z</time>
      </trkpt>
      <trkpt lat="43.64324" lon="3.82155">
        <ele>162.5</ele>
        <time>2015-11-18T11:30:03Z</time>
      </trkpt>
      <trkpt lat="43.64324" lon="3.82142">
        <ele>163.5</ele>
        <time>2015-11-18T11:30:05Z</time>
      </trkpt>
      <trkpt lat="43.64324" lon="3.8214">
        <ele>163.5</ele>
        <time>2015-11-18T11:30:06Z</time>
      </trkpt>
      <trkpt lat="43.64324" lon="3.82136">
        <ele>163.5</ele>
        <time>2015-11-18T11:30:07Z</time>
      </trkpt>
      <trkpt lat="43.64324" lon="3.82131">
        <ele>164</ele>
        <time>2015-11-18T11:30:08Z</time>
      </trkpt>
      <trkpt lat="43.64324" lon="3.82127">
        <ele>163</ele>
        <time>2015-11-18T11:30:09Z</time>
      </trkpt>
      <trkpt lat="43.64321" lon="3.82123">
        <ele>163.5</ele>
        <time>2015-11-18T11:30:10Z</time>
      </trkpt>
      <trkpt lat="43.6432" lon="3.82118">
        <ele>164.5</ele>
        <time>2015-11-18T11:30:11Z</time>
      </trkpt>
      <trkpt lat="43.64318" lon="3.82115">
        <ele>164.5</ele>
        <time>2015-11-18T11:30:12Z</time>
      </trkpt>
      <trkpt lat="43.6432" lon="3.82109">
        <ele>164.5</ele>
        <time>2015-11-18T11:30:13Z</time>
      </trkpt>
      <trkpt lat="43.6432" lon="3.82105">
        <ele>164</ele>
        <time>2015-11-18T11:30:14Z</time>
      </trkpt>
      <trkpt lat="43.64319" lon="3.821">
        <ele>164</ele>
        <time>2015-11-18T11:30:15Z</time>
      </trkpt>
      <trkpt lat="43.64319" lon="3.82095">
        <ele>165.5</ele>
        <time>2015-11-18T11:30:16Z</time>
      </trkpt>
      <trkpt lat="43.6432" lon="3.82093">
        <ele>165</ele>
        <time>2015-11-18T11:30:17Z</time>
      </trkpt>
      <trkpt lat="43.64323" lon="3.82083">
        <ele>163</ele>
        <time>2015-11-18T11:30:19Z</time>
      </trkpt>
      <trkpt lat="43.64325" lon="3.8208">
        <ele>161.5</ele>
        <time>2015-11-18T11:30:20Z</time>
      </trkpt>
      <trkpt lat="43.64327" lon="3.82071">
        <ele>162</ele>
        <time>2015-11-18T11:30:22Z</time>
      </trkpt>
      <trkpt lat="43.64329" lon="3.82068">
        <ele>162</ele>
        <time>2015-11-18T11:30:23Z</time>
      </trkpt>
      <trkpt lat="43.64331" lon="3.82066">
        <ele>162.5</ele>
        <time>2015-11-18T11:30:24Z</time>
      </trkpt>
      <trkpt lat="43.64332" lon="3.82063">
        <ele>163</ele>
        <time>2015-11-18T11:30:25Z</time>
      </trkpt>
      <trkpt lat="43.64333" lon="3.82061">
        <ele>162.5</ele>
        <time>2015-11-18T11:30:26Z</time>
      </trkpt>
      <trkpt lat="43.64335" lon="3.82058">
        <ele>162.5</ele>
        <time>2015-11-18T11:30:27Z</time>
      </trkpt>
      <trkpt lat="43.64339" lon="3.82049">
        <ele>160.5</ele>
        <time>2015-11-18T11:30:29Z</time>
      </trkpt>
      <trkpt lat="43.64341" lon="3.82046">
        <ele>160</ele>
        <time>2015-11-18T11:30:30Z</time>
      </trkpt>
      <trkpt lat="43.64344" lon="3.82043">
        <ele>159.5</ele>
        <time>2015-11-18T11:30:31Z</time>
      </trkpt>
      <trkpt lat="43.64345" lon="3.82038">
        <ele>159</ele>
        <time>2015-11-18T11:30:32Z</time>
      </trkpt>
      <trkpt lat="43.64346" lon="3.82035">
        <ele>158.5</ele>
        <time>2015-11-18T11:30:33Z</time>
      </trkpt>
      <trkpt lat="43.64348" lon="3.82032">
        <ele>158</ele>
        <time>2015-11-18T11:30:34Z</time>
      </trkpt>
      <trkpt lat="43.6435" lon="3.82029">
        <ele>157.5</ele>
        <time>2015-11-18T11:30:35Z</time>
      </trkpt>
      <trkpt lat="43.64351" lon="3.82025">
        <ele>157</ele>
        <time>2015-11-18T11:30:36Z</time>
      </trkpt>
      <trkpt lat="43.64353" lon="3.82021">
        <ele>156</ele>
        <time>2015-11-18T11:30:37Z</time>
      </trkpt>
      <trkpt lat="43.64354" lon="3.82018">
        <ele>157.5</ele>
        <time>2015-11-18T11:30:38Z</time>
      </trkpt>
      <trkpt lat="43.64356" lon="3.82014">
        <ele>157.5</ele>
        <time>2015-11-18T11:30:39Z</time>
      </trkpt>
      <trkpt lat="43.64359" lon="3.82011">
        <ele>157.5</ele>
        <time>2015-11-18T11:30:40Z</time>
      </trkpt>
      <trkpt lat="43.64362" lon="3.82008">
        <ele>157.5</ele>
        <time>2015-11-18T11:30:41Z</time>
      </trkpt>
      <trkpt lat="43.64364" lon="3.82004">
        <ele>158</ele>
        <time>2015-11-18T11:30:42Z</time>
      </trkpt>
      <trkpt lat="43.64366" lon="3.81999">
        <ele>158</ele>
        <time>2015-11-18T11:30:43Z</time>
      </trkpt>
      <trkpt lat="43.64367" lon="3.81994">
        <ele>158.5</ele>
        <time>2015-11-18T11:30:44Z</time>
      </trkpt>
      <trkpt lat="43.64369" lon="3.8199">
        <ele>158</ele>
        <time>2015-11-18T11:30:45Z</time>
      </trkpt>
      <trkpt lat="43.64369" lon="3.81984">
        <ele>158</ele>
        <time>2015-11-18T11:30:46Z</time>
      </trkpt>
      <trkpt lat="43.64369" lon="3.8198">
        <ele>157.5</ele>
        <time>2015-11-18T11:30:47Z</time>
      </trkpt>
      <trkpt lat="43.6437" lon="3.81977">
        <ele>156</ele>
        <time>2015-11-18T11:30:48Z</time>
      </trkpt>
      <trkpt lat="43.64369" lon="3.81966">
        <ele>155.5</ele>
        <time>2015-11-18T11:30:49Z</time>
      </trkpt>
      <trkpt lat="43.64371" lon="3.81963">
        <ele>155</ele>
        <time>2015-11-18T11:30:50Z</time>
      </trkpt>
      <trkpt lat="43.64373" lon="3.81959">
        <ele>155.5</ele>
        <time>2015-11-18T11:30:51Z</time>
      </trkpt>
      <trkpt lat="43.64375" lon="3.81954">
        <ele>155</ele>
        <time>2015-11-18T11:30:52Z</time>
      </trkpt>
      <trkpt lat="43.64378" lon="3.8195">
        <ele>155</ele>
        <time>2015-11-18T11:30:53Z</time>
      </trkpt>
      <trkpt lat="43.64381" lon="3.81946">
        <ele>156</ele>
        <time>2015-11-18T11:30:54Z</time>
      </trkpt>
      <trkpt lat="43.64383" lon="3.81942">
        <ele>156</ele>
        <time>2015-11-18T11:30:55Z</time>
      </trkpt>
      <trkpt lat="43.64384" lon="3.81938">
        <ele>156.5</ele>
        <time>2015-11-18T11:30:56Z</time>
      </trkpt>
      <trkpt lat="43.64385" lon="3.81936">
        <ele>156.5</ele>
        <time>2015-11-18T11:30:57Z</time>
      </trkpt>
      <trkpt lat="43.64385" lon="3.81934">
        <ele>157.5</ele>
        <time>2015-11-18T11:30:58Z</time>
      </trkpt>
      <trkpt lat="43.64385" lon="3.8193">
        <ele>160</ele>
        <time>2015-11-18T11:30:59Z</time>
      </trkpt>
      <trkpt lat="43.64383" lon="3.81921">
        <ele>163</ele>
        <time>2015-11-18T11:31:01Z</time>
      </trkpt>
      <trkpt lat="43.64384" lon="3.81919">
        <ele>165</ele>
        <time>2015-11-18T11:31:02Z</time>
      </trkpt>
      <trkpt lat="43.64385" lon="3.81915">
        <ele>165</ele>
        <time>2015-11-18T11:31:03Z</time>
      </trkpt>
      <trkpt lat="43.64386" lon="3.81912">
        <ele>166</ele>
        <time>2015-11-18T11:31:04Z</time>
      </trkpt>
      <trkpt lat="43.64388" lon="3.81909">
        <ele>166.5</ele>
        <time>2015-11-18T11:31:05Z</time>
      </trkpt>
      <trkpt lat="43.64389" lon="3.81906">
        <ele>166</ele>
        <time>2015-11-18T11:31:06Z</time>
      </trkpt>
      <trkpt lat="43.64391" lon="3.81903">
        <ele>165.5</ele>
        <time>2015-11-18T11:31:07Z</time>
      </trkpt>
      <trkpt lat="43.64392" lon="3.81899">
        <ele>165.5</ele>
        <time>2015-11-18T11:31:08Z</time>
      </trkpt>
      <trkpt lat="43.64393" lon="3.81896">
        <ele>166.5</ele>
        <time>2015-11-18T11:31:09Z</time>
      </trkpt>
      <trkpt lat="43.64395" lon="3.81895">
        <ele>168.5</ele>
        <time>2015-11-18T11:31:10Z</time>
      </trkpt>
      <trkpt lat="43.64395" lon="3.81894">
        <ele>169.5</ele>
        <time>2015-11-18T11:31:11Z</time>
      </trkpt>
      <trkpt lat="43.64396" lon="3.81891">
        <ele>169.5</ele>
        <time>2015-11-18T11:31:12Z</time>
      </trkpt>
      <trkpt lat="43.64397" lon="3.81888">
        <ele>169</ele>
        <time>2015-11-18T11:31:13Z</time>
      </trkpt>
      <trkpt lat="43.64398" lon="3.81885">
        <ele>167.5</ele>
        <time>2015-11-18T11:31:14Z</time>
      </trkpt>
      <trkpt lat="43.64397" lon="3.81881">
        <ele>168</ele>
        <time>2015-11-18T11:31:15Z</time>
      </trkpt>
      <trkpt lat="43.64397" lon="3.81877">
        <ele>168.5</ele>
        <time>2015-11-18T11:31:16Z</time>
      </trkpt>
      <trkpt lat="43.64398" lon="3.81876">
        <ele>169</ele>
        <time>2015-11-18T11:31:17Z</time>
      </trkpt>
      <trkpt lat="43.64399" lon="3.81875">
        <ele>168.5</ele>
        <time>2015-11-18T11:31:18Z</time>
      </trkpt>
      <trkpt lat="43.64402" lon="3.81875">
        <ele>169</ele>
        <time>2015-11-18T11:31:19Z</time>
      </trkpt>
      <trkpt lat="43.64402" lon="3.81873">
        <ele>168.5</ele>
        <time>2015-11-18T11:31:20Z</time>
      </trkpt>
      <trkpt lat="43.64403" lon="3.81872">
        <ele>167</ele>
        <time>2015-11-18T11:31:21Z</time>
      </trkpt>
      <trkpt lat="43.64403" lon="3.81869">
        <ele>167</ele>
        <time>2015-11-18T11:31:22Z</time>
      </trkpt>
      <trkpt lat="43.64403" lon="3.81867">
        <ele>168</ele>
        <time>2015-11-18T11:31:23Z</time>
      </trkpt>
      <trkpt lat="43.64403" lon="3.81864">
        <ele>170</ele>
        <time>2015-11-18T11:31:24Z</time>
      </trkpt>
      <trkpt lat="43.64403" lon="3.8186">
        <ele>170</ele>
        <time>2015-11-18T11:31:25Z</time>
      </trkpt>
      <trkpt lat="43.64403" lon="3.81856">
        <ele>170</ele>
        <time>2015-11-18T11:31:26Z</time>
      </trkpt>
      <trkpt lat="43.64404" lon="3.81853">
        <ele>170.5</ele>
        <time>2015-11-18T11:31:27Z</time>
      </trkpt>
      <trkpt lat="43.64404" lon="3.81849">
        <ele>171</ele>
        <time>2015-11-18T11:31:28Z</time>
      </trkpt>
      <trkpt lat="43.64404" lon="3.81845">
        <ele>171</ele>
        <time>2015-11-18T11:31:29Z</time>
      </trkpt>
      <trkpt lat="43.64404" lon="3.81842">
        <ele>171.5</ele>
        <time>2015-11-18T11:31:30Z</time>
      </trkpt>
      <trkpt lat="43.64404" lon="3.8184">
        <ele>171</ele>
        <time>2015-11-18T11:31:31Z</time>
      </trkpt>
      <trkpt lat="43.64404" lon="3.81836">
        <ele>172.5</ele>
        <time>2015-11-18T11:31:32Z</time>
      </trkpt>
      <trkpt lat="43.64405" lon="3.81831">
        <ele>174</ele>
        <time>2015-11-18T11:31:33Z</time>
      </trkpt>
      <trkpt lat="43.64408" lon="3.81826">
        <ele>172.5</ele>
        <time>2015-11-18T11:31:34Z</time>
      </trkpt>
      <trkpt lat="43.64409" lon="3.8182">
        <ele>173.5</ele>
        <time>2015-11-18T11:31:35Z</time>
      </trkpt>
      <trkpt lat="43.64411" lon="3.81819">
        <ele>174</ele>
        <time>2015-11-18T11:31:36Z</time>
      </trkpt>
      <trkpt lat="43.64409" lon="3.81815">
        <ele>176.5</ele>
        <time>2015-11-18T11:31:37Z</time>
      </trkpt>
      <trkpt lat="43.6441" lon="3.8181">
        <ele>177</ele>
        <time>2015-11-18T11:31:39Z</time>
      </trkpt>
      <trkpt lat="43.64411" lon="3.81806">
        <ele>178.5</ele>
        <time>2015-11-18T11:31:40Z</time>
      </trkpt>
      <trkpt lat="43.6441" lon="3.81802">
        <ele>179.5</ele>
        <time>2015-11-18T11:31:41Z</time>
      </trkpt>
      <trkpt lat="43.64408" lon="3.81799">
        <ele>180.5</ele>
        <time>2015-11-18T11:31:42Z</time>
      </trkpt>
      <trkpt lat="43.64407" lon="3.81797">
        <ele>179.5</ele>
        <time>2015-11-18T11:31:43Z</time>
      </trkpt>
      <trkpt lat="43.64406" lon="3.81795">
        <ele>179.5</ele>
        <time>2015-11-18T11:31:44Z</time>
      </trkpt>
      <trkpt lat="43.64405" lon="3.81792">
        <ele>180</ele>
        <time>2015-11-18T11:31:45Z</time>
      </trkpt>
      <trkpt lat="43.64404" lon="3.8179">
        <ele>180.5</ele>
        <time>2015-11-18T11:31:46Z</time>
      </trkpt>
      <trkpt lat="43.64402" lon="3.81786">
        <ele>180.5</ele>
        <time>2015-11-18T11:31:47Z</time>
      </trkpt>
      <trkpt lat="43.644" lon="3.81784">
        <ele>180.5</ele>
        <time>2015-11-18T11:31:48Z</time>
      </trkpt>
      <trkpt lat="43.64399" lon="3.81778">
        <ele>179.5</ele>
        <time>2015-11-18T11:31:49Z</time>
      </trkpt>
      <trkpt lat="43.64398" lon="3.81778">
        <ele>179</ele>
        <time>2015-11-18T11:31:51Z</time>
      </trkpt>
      <trkpt lat="43.64397" lon="3.81774">
        <ele>178.5</ele>
        <time>2015-11-18T11:31:52Z</time>
      </trkpt>
      <trkpt lat="43.64396" lon="3.81771">
        <ele>178.5</ele>
        <time>2015-11-18T11:31:53Z</time>
      </trkpt>
      <trkpt lat="43.64394" lon="3.81768">
        <ele>179</ele>
        <time>2015-11-18T11:31:54Z</time>
      </trkpt>
      <trkpt lat="43.64393" lon="3.81764">
        <ele>179</ele>
        <time>2015-11-18T11:31:55Z</time>
      </trkpt>
      <trkpt lat="43.64391" lon="3.81761">
        <ele>178.5</ele>
        <time>2015-11-18T11:31:56Z</time>
      </trkpt>
      <trkpt lat="43.6439" lon="3.81758">
        <ele>178.5</ele>
        <time>2015-11-18T11:31:57Z</time>
      </trkpt>
      <trkpt lat="43.64388" lon="3.81755">
        <ele>178</ele>
        <time>2015-11-18T11:31:58Z</time>
      </trkpt>
      <trkpt lat="43.64387" lon="3.81751">
        <ele>177</ele>
        <time>2015-11-18T11:31:59Z</time>
      </trkpt>
      <trkpt lat="43.64385" lon="3.81748">
        <ele>177</ele>
        <time>2015-11-18T11:32:00Z</time>
      </trkpt>
      <trkpt lat="43.64384" lon="3.81744">
        <ele>176.5</ele>
        <time>2015-11-18T11:32:01Z</time>
      </trkpt>
      <trkpt lat="43.64382" lon="3.8174">
        <ele>177</ele>
        <time>2015-11-18T11:32:02Z</time>
      </trkpt>
      <trkpt lat="43.64381" lon="3.81738">
        <ele>177</ele>
        <time>2015-11-18T11:32:03Z</time>
      </trkpt>
      <trkpt lat="43.64379" lon="3.81735">
        <ele>176.5</ele>
        <time>2015-11-18T11:32:04Z</time>
      </trkpt>
      <trkpt lat="43.64377" lon="3.81731">
        <ele>177.5</ele>
        <time>2015-11-18T11:32:05Z</time>
      </trkpt>
      <trkpt lat="43.64376" lon="3.81728">
        <ele>177.5</ele>
        <time>2015-11-18T11:32:06Z</time>
      </trkpt>
      <trkpt lat="43.64375" lon="3.81725">
        <ele>175</ele>
        <time>2015-11-18T11:32:07Z</time>
      </trkpt>
      <trkpt lat="43.64375" lon="3.81722">
        <ele>175</ele>
        <time>2015-11-18T11:32:08Z</time>
      </trkpt>
      <trkpt lat="43.64374" lon="3.81719">
        <ele>174.5</ele>
        <time>2015-11-18T11:32:09Z</time>
      </trkpt>
      <trkpt lat="43.64375" lon="3.81716">
        <ele>174</ele>
        <time>2015-11-18T11:32:10Z</time>
      </trkpt>
      <trkpt lat="43.64377" lon="3.81713">
        <ele>173.5</ele>
        <time>2015-11-18T11:32:11Z</time>
      </trkpt>
      <trkpt lat="43.64378" lon="3.8171">
        <ele>172.5</ele>
        <time>2015-11-18T11:32:12Z</time>
      </trkpt>
      <trkpt lat="43.64379" lon="3.81706">
        <ele>172.5</ele>
        <time>2015-11-18T11:32:13Z</time>
      </trkpt>
      <trkpt lat="43.6438" lon="3.81704">
        <ele>172</ele>
        <time>2015-11-18T11:32:14Z</time>
      </trkpt>
      <trkpt lat="43.64381" lon="3.81701">
        <ele>172.5</ele>
        <time>2015-11-18T11:32:15Z</time>
      </trkpt>
      <trkpt lat="43.64382" lon="3.81699">
        <ele>172.5</ele>
        <time>2015-11-18T11:32:16Z</time>
      </trkpt>
      <trkpt lat="43.64381" lon="3.81697">
        <ele>173.5</ele>
        <time>2015-11-18T11:32:17Z</time>
      </trkpt>
      <trkpt lat="43.64382" lon="3.81696">
        <ele>172.5</ele>
        <time>2015-11-18T11:32:18Z</time>
      </trkpt>
      <trkpt lat="43.64382" lon="3.81694">
        <ele>173</ele>
        <time>2015-11-18T11:32:19Z</time>
      </trkpt>
      <trkpt lat="43.64383" lon="3.81694">
        <ele>173</ele>
        <time>2015-11-18T11:32:20Z</time>
      </trkpt>
      <trkpt lat="43.64383" lon="3.81692">
        <ele>173</ele>
        <time>2015-11-18T11:32:21Z</time>
      </trkpt>
      <trkpt lat="43.64383" lon="3.8169">
        <ele>173.5</ele>
        <time>2015-11-18T11:32:22Z</time>
      </trkpt>
      <trkpt lat="43.64384" lon="3.81689">
        <ele>172.5</ele>
        <time>2015-11-18T11:32:23Z</time>
      </trkpt>
      <trkpt lat="43.64384" lon="3.81687">
        <ele>172.5</ele>
        <time>2015-11-18T11:32:24Z</time>
      </trkpt>
      <trkpt lat="43.64383" lon="3.81685">
        <ele>172.5</ele>
        <time>2015-11-18T11:32:25Z</time>
      </trkpt>
      <trkpt lat="43.64383" lon="3.81684">
        <ele>172</ele>
        <time>2015-11-18T11:32:26Z</time>
      </trkpt>
      <trkpt lat="43.64385" lon="3.81684">
        <ele>171</ele>
        <time>2015-11-18T11:32:27Z</time>
      </trkpt>
      <trkpt lat="43.64386" lon="3.81683">
        <ele>171</ele>
        <time>2015-11-18T11:32:28Z</time>
      </trkpt>
      <trkpt lat="43.64386" lon="3.81681">
        <ele>170.5</ele>
        <time>2015-11-18T11:32:29Z</time>
      </trkpt>
      <trkpt lat="43.64387" lon="3.81674">
        <ele>169.5</ele>
        <time>2015-11-18T11:32:31Z</time>
      </trkpt>
      <trkpt lat="43.64388" lon="3.81671">
        <ele>169.5</ele>
        <time>2015-11-18T11:32:32Z</time>
      </trkpt>
      <trkpt lat="43.6439" lon="3.81669">
        <ele>168.5</ele>
        <time>2015-11-18T11:32:33Z</time>
      </trkpt>
      <trkpt lat="43.64391" lon="3.81668">
        <ele>167</ele>
        <time>2015-11-18T11:32:34Z</time>
      </trkpt>
      <trkpt lat="43.64393" lon="3.81666">
        <ele>166</ele>
        <time>2015-11-18T11:32:35Z</time>
      </trkpt>
      <trkpt lat="43.64395" lon="3.81665">
        <ele>165</ele>
        <time>2015-11-18T11:32:36Z</time>
      </trkpt>
      <trkpt lat="43.64397" lon="3.81662">
        <ele>164</ele>
        <time>2015-11-18T11:32:37Z</time>
      </trkpt>
      <trkpt lat="43.64397" lon="3.81659">
        <ele>163</ele>
        <time>2015-11-18T11:32:38Z</time>
      </trkpt>
      <trkpt lat="43.64398" lon="3.81655">
        <ele>162.5</ele>
        <time>2015-11-18T11:32:39Z</time>
      </trkpt>
      <trkpt lat="43.64398" lon="3.81652">
        <ele>162</ele>
        <time>2015-11-18T11:32:40Z</time>
      </trkpt>
      <trkpt lat="43.64398" lon="3.81649">
        <ele>162</ele>
        <time>2015-11-18T11:32:41Z</time>
      </trkpt>
      <trkpt lat="43.64397" lon="3.81646">
        <ele>162</ele>
        <time>2015-11-18T11:32:42Z</time>
      </trkpt>
      <trkpt lat="43.64397" lon="3.81644">
        <ele>161.5</ele>
        <time>2015-11-18T11:32:43Z</time>
      </trkpt>
      <trkpt lat="43.64398" lon="3.81642">
        <ele>160.5</ele>
        <time>2015-11-18T11:32:44Z</time>
      </trkpt>
      <trkpt lat="43.64399" lon="3.81639">
        <ele>160</ele>
        <time>2015-11-18T11:32:45Z</time>
      </trkpt>
      <trkpt lat="43.644" lon="3.81636">
        <ele>159.5</ele>
        <time>2015-11-18T11:32:46Z</time>
      </trkpt>
      <trkpt lat="43.64401" lon="3.81633">
        <ele>157.5</ele>
        <time>2015-11-18T11:32:47Z</time>
      </trkpt>
      <trkpt lat="43.64402" lon="3.8163">
        <ele>158.5</ele>
        <time>2015-11-18T11:32:48Z</time>
      </trkpt>
      <trkpt lat="43.64403" lon="3.81627">
        <ele>158.5</ele>
        <time>2015-11-18T11:32:49Z</time>
      </trkpt>
      <trkpt lat="43.64403" lon="3.81624">
        <ele>157.5</ele>
        <time>2015-11-18T11:32:50Z</time>
      </trkpt>
      <trkpt lat="43.64404" lon="3.81622">
        <ele>156.5</ele>
        <time>2015-11-18T11:32:51Z</time>
      </trkpt>
      <trkpt lat="43.64406" lon="3.8162">
        <ele>156</ele>
        <time>2015-11-18T11:32:52Z</time>
      </trkpt>
      <trkpt lat="43.64407" lon="3.81618">
        <ele>154.5</ele>
        <time>2015-11-18T11:32:53Z</time>
      </trkpt>
      <trkpt lat="43.64409" lon="3.81615">
        <ele>153.5</ele>
        <time>2015-11-18T11:32:54Z</time>
      </trkpt>
      <trkpt lat="43.6441" lon="3.81612">
        <ele>152.5</ele>
        <time>2015-11-18T11:32:55Z</time>
      </trkpt>
      <trkpt lat="43.64411" lon="3.81607">
        <ele>152.5</ele>
        <time>2015-11-18T11:32:56Z</time>
      </trkpt>
      <trkpt lat="43.64412" lon="3.81603">
        <ele>151</ele>
        <time>2015-11-18T11:32:57Z</time>
      </trkpt>
      <trkpt lat="43.64414" lon="3.816">
        <ele>151</ele>
        <time>2015-11-18T11:32:58Z</time>
      </trkpt>
      <trkpt lat="43.64416" lon="3.81597">
        <ele>151</ele>
        <time>2015-11-18T11:32:59Z</time>
      </trkpt>
      <trkpt lat="43.64415" lon="3.81594">
        <ele>150.5</ele>
        <time>2015-11-18T11:33:00Z</time>
      </trkpt>
      <trkpt lat="43.64417" lon="3.81592">
        <ele>150.5</ele>
        <time>2015-11-18T11:33:01Z</time>
      </trkpt>
      <trkpt lat="43.64418" lon="3.8159">
        <ele>150</ele>
        <time>2015-11-18T11:33:02Z</time>
      </trkpt>
      <trkpt lat="43.64419" lon="3.8159">
        <ele>149.5</ele>
        <time>2015-11-18T11:33:03Z</time>
      </trkpt>
      <trkpt lat="43.64419" lon="3.81588">
        <ele>148.5</ele>
        <time>2015-11-18T11:33:04Z</time>
      </trkpt>
      <trkpt lat="43.64422" lon="3.81587">
        <ele>150</ele>
        <time>2015-11-18T11:33:05Z</time>
      </trkpt>
      <trkpt lat="43.64423" lon="3.81585">
        <ele>150</ele>
        <time>2015-11-18T11:33:06Z</time>
      </trkpt>
      <trkpt lat="43.64424" lon="3.81583">
        <ele>150</ele>
        <time>2015-11-18T11:33:07Z</time>
      </trkpt>
      <trkpt lat="43.64425" lon="3.8158">
        <ele>151.5</ele>
        <time>2015-11-18T11:33:08Z</time>
      </trkpt>
      <trkpt lat="43.64425" lon="3.81568">
        <ele>152</ele>
        <time>2015-11-18T11:33:10Z</time>
      </trkpt>
      <trkpt lat="43.64426" lon="3.81564">
        <ele>151.5</ele>
        <time>2015-11-18T11:33:11Z</time>
      </trkpt>
      <trkpt lat="43.64427" lon="3.81561">
        <ele>151.5</ele>
        <time>2015-11-18T11:33:12Z</time>
      </trkpt>
      <trkpt lat="43.64428" lon="3.81558">
        <ele>152.5</ele>
        <time>2015-11-18T11:33:13Z</time>
      </trkpt>
      <trkpt lat="43.64428" lon="3.81546">
        <ele>151.5</ele>
        <time>2015-11-18T11:33:15Z</time>
      </trkpt>
      <trkpt lat="43.64428" lon="3.81541">
        <ele>150</ele>
        <time>2015-11-18T11:33:17Z</time>
      </trkpt>
      <trkpt lat="43.64428" lon="3.81542">
        <ele>148</ele>
        <time>2015-11-18T11:33:18Z</time>
      </trkpt>
      <trkpt lat="43.64428" lon="3.81543">
        <ele>147</ele>
        <time>2015-11-18T11:33:19Z</time>
      </trkpt>
      <trkpt lat="43.64426" lon="3.81541">
        <ele>146</ele>
        <time>2015-11-18T11:33:20Z</time>
      </trkpt>
      <trkpt lat="43.64425" lon="3.81539">
        <ele>146</ele>
        <time>2015-11-18T11:33:21Z</time>
      </trkpt>
      <trkpt lat="43.64424" lon="3.81537">
        <ele>145.5</ele>
        <time>2015-11-18T11:33:22Z</time>
      </trkpt>
      <trkpt lat="43.64423" lon="3.81536">
        <ele>146.5</ele>
        <time>2015-11-18T11:33:23Z</time>
      </trkpt>
      <trkpt lat="43.64422" lon="3.81535">
        <ele>147</ele>
        <time>2015-11-18T11:33:24Z</time>
      </trkpt>
      <trkpt lat="43.64421" lon="3.81535">
        <ele>148.5</ele>
        <time>2015-11-18T11:33:25Z</time>
      </trkpt>
      <trkpt lat="43.64421" lon="3.81535">
        <ele>150.5</ele>
        <time>2015-11-18T11:33:26Z</time>
      </trkpt>
      <trkpt lat="43.64421" lon="3.81536">
        <ele>150</ele>
        <time>2015-11-18T11:33:27Z</time>
      </trkpt>
      <trkpt lat="43.64421" lon="3.81536">
        <ele>148.5</ele>
        <time>2015-11-18T11:33:28Z</time>
      </trkpt>
      <trkpt lat="43.6442" lon="3.81536">
        <ele>145.5</ele>
        <time>2015-11-18T11:33:29Z</time>
      </trkpt>
      <trkpt lat="43.64419" lon="3.81536">
        <ele>143</ele>
        <time>2015-11-18T11:33:30Z</time>
      </trkpt>
      <trkpt lat="43.64419" lon="3.81535">
        <ele>141.5</ele>
        <time>2015-11-18T11:33:31Z</time>
      </trkpt>
      <trkpt lat="43.64418" lon="3.81534">
        <ele>141</ele>
        <time>2015-11-18T11:33:32Z</time>
      </trkpt>
      <trkpt lat="43.64418" lon="3.81535">
        <ele>141</ele>
        <time>2015-11-18T11:33:33Z</time>
      </trkpt>
      <trkpt lat="43.64418" lon="3.81533">
        <ele>142.5</ele>
        <time>2015-11-18T11:33:34Z</time>
      </trkpt>
      <trkpt lat="43.64418" lon="3.81533">
        <ele>143</ele>
        <time>2015-11-18T11:33:35Z</time>
      </trkpt>
      <trkpt lat="43.64416" lon="3.81531">
        <ele>144.5</ele>
        <time>2015-11-18T11:33:36Z</time>
      </trkpt>
      <trkpt lat="43.64414" lon="3.81526">
        <ele>145</ele>
        <time>2015-11-18T11:33:37Z</time>
      </trkpt>
      <trkpt lat="43.64413" lon="3.81529">
        <ele>146</ele>
        <time>2015-11-18T11:33:38Z</time>
      </trkpt>
      <trkpt lat="43.64408" lon="3.81519">
        <ele>147.5</ele>
        <time>2015-11-18T11:33:40Z</time>
      </trkpt>
      <trkpt lat="43.64406" lon="3.81514">
        <ele>148.5</ele>
        <time>2015-11-18T11:33:42Z</time>
      </trkpt>
      <trkpt lat="43.64405" lon="3.81512">
        <ele>149.5</ele>
        <time>2015-11-18T11:33:43Z</time>
      </trkpt>
      <trkpt lat="43.64404" lon="3.8151">
        <ele>150.5</ele>
        <time>2015-11-18T11:33:44Z</time>
      </trkpt>
      <trkpt lat="43.64403" lon="3.81508">
        <ele>151.5</ele>
        <time>2015-11-18T11:33:45Z</time>
      </trkpt>
      <trkpt lat="43.64402" lon="3.81506">
        <ele>151.5</ele>
        <time>2015-11-18T11:33:46Z</time>
      </trkpt>
      <trkpt lat="43.64401" lon="3.81504">
        <ele>151.5</ele>
        <time>2015-11-18T11:33:47Z</time>
      </trkpt>
      <trkpt lat="43.644" lon="3.81502">
        <ele>152</ele>
        <time>2015-11-18T11:33:48Z</time>
      </trkpt>
      <trkpt lat="43.64399" lon="3.81499">
        <ele>152</ele>
        <time>2015-11-18T11:33:49Z</time>
      </trkpt>
      <trkpt lat="43.64398" lon="3.81498">
        <ele>153</ele>
        <time>2015-11-18T11:33:50Z</time>
      </trkpt>
      <trkpt lat="43.64396" lon="3.81496">
        <ele>153</ele>
        <time>2015-11-18T11:33:51Z</time>
      </trkpt>
      <trkpt lat="43.64395" lon="3.81495">
        <ele>153.5</ele>
        <time>2015-11-18T11:33:52Z</time>
      </trkpt>
      <trkpt lat="43.64394" lon="3.81493">
        <ele>153.5</ele>
        <time>2015-11-18T11:33:53Z</time>
      </trkpt>
      <trkpt lat="43.64393" lon="3.81492">
        <ele>154</ele>
        <time>2015-11-18T11:33:54Z</time>
      </trkpt>
      <trkpt lat="43.64392" lon="3.81492">
        <ele>153.5</ele>
        <time>2015-11-18T11:33:55Z</time>
      </trkpt>
      <trkpt lat="43.64391" lon="3.8149">
        <ele>152.5</ele>
        <time>2015-11-18T11:33:56Z</time>
      </trkpt>
      <trkpt lat="43.6439" lon="3.81487">
        <ele>152.5</ele>
        <time>2015-11-18T11:33:57Z</time>
      </trkpt>
      <trkpt lat="43.64389" lon="3.81483">
        <ele>151.5</ele>
        <time>2015-11-18T11:33:58Z</time>
      </trkpt>
      <trkpt lat="43.64389" lon="3.81481">
        <ele>150.5</ele>
        <time>2015-11-18T11:33:59Z</time>
      </trkpt>
      <trkpt lat="43.64389" lon="3.81479">
        <ele>151.5</ele>
        <time>2015-11-18T11:34:00Z</time>
      </trkpt>
      <trkpt lat="43.64388" lon="3.81472">
        <ele>147</ele>
        <time>2015-11-18T11:34:02Z</time>
      </trkpt>
      <trkpt lat="43.64388" lon="3.81469">
        <ele>146</ele>
        <time>2015-11-18T11:34:03Z</time>
      </trkpt>
      <trkpt lat="43.64388" lon="3.81467">
        <ele>145.5</ele>
        <time>2015-11-18T11:34:04Z</time>
      </trkpt>
      <trkpt lat="43.64388" lon="3.81464">
        <ele>146</ele>
        <time>2015-11-18T11:34:05Z</time>
      </trkpt>
      <trkpt lat="43.64388" lon="3.81463">
        <ele>146</ele>
        <time>2015-11-18T11:34:06Z</time>
      </trkpt>
      <trkpt lat="43.64384" lon="3.81463">
        <ele>145.5</ele>
        <time>2015-11-18T11:34:07Z</time>
      </trkpt>
      <trkpt lat="43.64384" lon="3.81464">
        <ele>146</ele>
        <time>2015-11-18T11:34:09Z</time>
      </trkpt>
      <trkpt lat="43.64384" lon="3.81461">
        <ele>146.5</ele>
        <time>2015-11-18T11:34:10Z</time>
      </trkpt>
      <trkpt lat="43.64383" lon="3.81453">
        <ele>147.5</ele>
        <time>2015-11-18T11:34:12Z</time>
      </trkpt>
      <trkpt lat="43.6438" lon="3.81449">
        <ele>148.5</ele>
        <time>2015-11-18T11:34:13Z</time>
      </trkpt>
      <trkpt lat="43.64377" lon="3.81446">
        <ele>149</ele>
        <time>2015-11-18T11:34:14Z</time>
      </trkpt>
      <trkpt lat="43.64375" lon="3.81442">
        <ele>150</ele>
        <time>2015-11-18T11:34:15Z</time>
      </trkpt>
      <trkpt lat="43.64368" lon="3.81436">
        <ele>151.5</ele>
        <time>2015-11-18T11:34:17Z</time>
      </trkpt>
      <trkpt lat="43.64366" lon="3.8143">
        <ele>156</ele>
        <time>2015-11-18T11:34:19Z</time>
      </trkpt>
      <trkpt lat="43.64365" lon="3.81427">
        <ele>156</ele>
        <time>2015-11-18T11:34:20Z</time>
      </trkpt>
      <trkpt lat="43.64364" lon="3.81425">
        <ele>155.5</ele>
        <time>2015-11-18T11:34:21Z</time>
      </trkpt>
      <trkpt lat="43.64363" lon="3.81423">
        <ele>155.5</ele>
        <time>2015-11-18T11:34:22Z</time>
      </trkpt>
      <trkpt lat="43.6436" lon="3.81421">
        <ele>154.5</ele>
        <time>2015-11-18T11:34:23Z</time>
      </trkpt>
      <trkpt lat="43.64359" lon="3.8142">
        <ele>153.5</ele>
        <time>2015-11-18T11:34:24Z</time>
      </trkpt>
      <trkpt lat="43.64356" lon="3.81411">
        <ele>155.5</ele>
        <time>2015-11-18T11:34:26Z</time>
      </trkpt>
      <trkpt lat="43.64354" lon="3.81408">
        <ele>155</ele>
        <time>2015-11-18T11:34:27Z</time>
      </trkpt>
      <trkpt lat="43.64347" lon="3.81388">
        <ele>155.5</ele>
        <time>2015-11-18T11:34:32Z</time>
      </trkpt>
      <trkpt lat="43.64345" lon="3.81386">
        <ele>156</ele>
        <time>2015-11-18T11:34:33Z</time>
      </trkpt>
      <trkpt lat="43.64344" lon="3.81383">
        <ele>156</ele>
        <time>2015-11-18T11:34:34Z</time>
      </trkpt>
      <trkpt lat="43.64343" lon="3.8138">
        <ele>156.5</ele>
        <time>2015-11-18T11:34:35Z</time>
      </trkpt>
      <trkpt lat="43.64342" lon="3.81377">
        <ele>158.5</ele>
        <time>2015-11-18T11:34:36Z</time>
      </trkpt>
      <trkpt lat="43.64342" lon="3.81366">
        <ele>156.5</ele>
        <time>2015-11-18T11:34:38Z</time>
      </trkpt>
      <trkpt lat="43.64341" lon="3.81363">
        <ele>156.5</ele>
        <time>2015-11-18T11:34:39Z</time>
      </trkpt>
      <trkpt lat="43.6434" lon="3.81361">
        <ele>157</ele>
        <time>2015-11-18T11:34:40Z</time>
      </trkpt>
      <trkpt lat="43.64339" lon="3.81357">
        <ele>155</ele>
        <time>2015-11-18T11:34:41Z</time>
      </trkpt>
      <trkpt lat="43.64338" lon="3.81355">
        <ele>154</ele>
        <time>2015-11-18T11:34:42Z</time>
      </trkpt>
      <trkpt lat="43.64338" lon="3.81352">
        <ele>153.5</ele>
        <time>2015-11-18T11:34:43Z</time>
      </trkpt>
      <trkpt lat="43.64337" lon="3.8135">
        <ele>154.5</ele>
        <time>2015-11-18T11:34:44Z</time>
      </trkpt>
      <trkpt lat="43.64336" lon="3.81347">
        <ele>153.5</ele>
        <time>2015-11-18T11:34:45Z</time>
      </trkpt>
      <trkpt lat="43.64335" lon="3.81344">
        <ele>150</ele>
        <time>2015-11-18T11:34:46Z</time>
      </trkpt>
      <trkpt lat="43.64334" lon="3.8134">
        <ele>148</ele>
        <time>2015-11-18T11:34:47Z</time>
      </trkpt>
      <trkpt lat="43.64333" lon="3.81339">
        <ele>145.5</ele>
        <time>2015-11-18T11:34:48Z</time>
      </trkpt>
      <trkpt lat="43.64332" lon="3.81337">
        <ele>142</ele>
        <time>2015-11-18T11:34:49Z</time>
      </trkpt>
      <trkpt lat="43.6433" lon="3.81334">
        <ele>141.5</ele>
        <time>2015-11-18T11:34:50Z</time>
      </trkpt>
      <trkpt lat="43.6433" lon="3.81332">
        <ele>141.5</ele>
        <time>2015-11-18T11:34:51Z</time>
      </trkpt>
      <trkpt lat="43.64328" lon="3.81329">
        <ele>142.5</ele>
        <time>2015-11-18T11:34:52Z</time>
      </trkpt>
      <trkpt lat="43.64327" lon="3.81327">
        <ele>144</ele>
        <time>2015-11-18T11:34:53Z</time>
      </trkpt>
      <trkpt lat="43.64325" lon="3.81322">
        <ele>143</ele>
        <time>2015-11-18T11:34:54Z</time>
      </trkpt>
      <trkpt lat="43.64324" lon="3.8132">
        <ele>141.5</ele>
        <time>2015-11-18T11:34:55Z</time>
      </trkpt>
      <trkpt lat="43.64321" lon="3.81319">
        <ele>140.5</ele>
        <time>2015-11-18T11:34:56Z</time>
      </trkpt>
      <trkpt lat="43.64319" lon="3.81319">
        <ele>140</ele>
        <time>2015-11-18T11:34:57Z</time>
      </trkpt>
      <trkpt lat="43.64318" lon="3.81314">
        <ele>137.5</ele>
        <time>2015-11-18T11:34:58Z</time>
      </trkpt>
      <trkpt lat="43.64318" lon="3.81311">
        <ele>137.5</ele>
        <time>2015-11-18T11:34:59Z</time>
      </trkpt>
      <trkpt lat="43.64317" lon="3.81309">
        <ele>138</ele>
        <time>2015-11-18T11:35:00Z</time>
      </trkpt>
      <trkpt lat="43.64315" lon="3.8131">
        <ele>137</ele>
        <time>2015-11-18T11:35:01Z</time>
      </trkpt>
      <trkpt lat="43.64311" lon="3.81304">
        <ele>138.5</ele>
        <time>2015-11-18T11:35:03Z</time>
      </trkpt>
      <trkpt lat="43.6431" lon="3.81301">
        <ele>138.5</ele>
        <time>2015-11-18T11:35:04Z</time>
      </trkpt>
      <trkpt lat="43.64309" lon="3.81297">
        <ele>139</ele>
        <time>2015-11-18T11:35:05Z</time>
      </trkpt>
      <trkpt lat="43.64308" lon="3.81294">
        <ele>139</ele>
        <time>2015-11-18T11:35:06Z</time>
      </trkpt>
      <trkpt lat="43.64307" lon="3.81291">
        <ele>137</ele>
        <time>2015-11-18T11:35:07Z</time>
      </trkpt>
      <trkpt lat="43.64306" lon="3.81286">
        <ele>138.5</ele>
        <time>2015-11-18T11:35:08Z</time>
      </trkpt>
      <trkpt lat="43.64306" lon="3.81282">
        <ele>138.5</ele>
        <time>2015-11-18T11:35:09Z</time>
      </trkpt>
      <trkpt lat="43.64307" lon="3.81277">
        <ele>139.5</ele>
        <time>2015-11-18T11:35:10Z</time>
      </trkpt>
      <trkpt lat="43.64307" lon="3.81273">
        <ele>139.5</ele>
        <time>2015-11-18T11:35:11Z</time>
      </trkpt>
      <trkpt lat="43.64306" lon="3.8127">
        <ele>139.5</ele>
        <time>2015-11-18T11:35:12Z</time>
      </trkpt>
      <trkpt lat="43.64305" lon="3.81266">
        <ele>140</ele>
        <time>2015-11-18T11:35:13Z</time>
      </trkpt>
      <trkpt lat="43.64303" lon="3.81263">
        <ele>143</ele>
        <time>2015-11-18T11:35:14Z</time>
      </trkpt>
      <trkpt lat="43.64301" lon="3.81261">
        <ele>143.5</ele>
        <time>2015-11-18T11:35:15Z</time>
      </trkpt>
      <trkpt lat="43.64298" lon="3.81261">
        <ele>144</ele>
        <time>2015-11-18T11:35:16Z</time>
      </trkpt>
      <trkpt lat="43.64297" lon="3.8126">
        <ele>145</ele>
        <time>2015-11-18T11:35:17Z</time>
      </trkpt>
      <trkpt lat="43.64295" lon="3.81258">
        <ele>144.5</ele>
        <time>2015-11-18T11:35:18Z</time>
      </trkpt>
      <trkpt lat="43.64294" lon="3.81257">
        <ele>145.5</ele>
        <time>2015-11-18T11:35:19Z</time>
      </trkpt>
      <trkpt lat="43.64292" lon="3.81255">
        <ele>147.5</ele>
        <time>2015-11-18T11:35:20Z</time>
      </trkpt>
      <trkpt lat="43.64291" lon="3.81254">
        <ele>149.5</ele>
        <time>2015-11-18T11:35:21Z</time>
      </trkpt>
      <trkpt lat="43.6429" lon="3.81252">
        <ele>149</ele>
        <time>2015-11-18T11:35:22Z</time>
      </trkpt>
      <trkpt lat="43.64289" lon="3.81251">
        <ele>149.5</ele>
        <time>2015-11-18T11:35:23Z</time>
      </trkpt>
      <trkpt lat="43.64287" lon="3.81248">
        <ele>147.5</ele>
        <time>2015-11-18T11:35:24Z</time>
      </trkpt>
      <trkpt lat="43.64279" lon="3.81255">
        <ele>148</ele>
        <time>2015-11-18T11:35:26Z</time>
      </trkpt>
      <trkpt lat="43.64277" lon="3.81257">
        <ele>148</ele>
        <time>2015-11-18T11:35:27Z</time>
      </trkpt>
      <trkpt lat="43.64274" lon="3.81259">
        <ele>147.5</ele>
        <time>2015-11-18T11:35:29Z</time>
      </trkpt>
      <trkpt lat="43.64277" lon="3.81252">
        <ele>146.5</ele>
        <time>2015-11-18T11:35:32Z</time>
      </trkpt>
      <trkpt lat="43.64279" lon="3.81247">
        <ele>145</ele>
        <time>2015-11-18T11:35:34Z</time>
      </trkpt>
      <trkpt lat="43.64279" lon="3.81246">
        <ele>144</ele>
        <time>2015-11-18T11:35:36Z</time>
      </trkpt>
      <trkpt lat="43.6428" lon="3.81244">
        <ele>139</ele>
        <time>2015-11-18T11:35:37Z</time>
      </trkpt>
      <trkpt lat="43.64281" lon="3.81244">
        <ele>139</ele>
        <time>2015-11-18T11:35:38Z</time>
      </trkpt>
      <trkpt lat="43.64282" lon="3.81243">
        <ele>138</ele>
        <time>2015-11-18T11:35:39Z</time>
      </trkpt>
      <trkpt lat="43.64282" lon="3.8124">
        <ele>138.5</ele>
        <time>2015-11-18T11:35:41Z</time>
      </trkpt>
      <trkpt lat="43.64284" lon="3.8124">
        <ele>140.5</ele>
        <time>2015-11-18T11:35:44Z</time>
      </trkpt>
      <trkpt lat="43.64284" lon="3.81239">
        <ele>140.5</ele>
        <time>2015-11-18T11:35:45Z</time>
      </trkpt>
      <trkpt lat="43.64285" lon="3.81237">
        <ele>141.5</ele>
        <time>2015-11-18T11:35:46Z</time>
      </trkpt>
      <trkpt lat="43.64285" lon="3.81237">
        <ele>142</ele>
        <time>2015-11-18T11:35:47Z</time>
      </trkpt>
      <trkpt lat="43.64284" lon="3.81237">
        <ele>139.5</ele>
        <time>2015-11-18T11:35:48Z</time>
      </trkpt>
      <trkpt lat="43.64284" lon="3.81236">
        <ele>139.5</ele>
        <time>2015-11-18T11:35:49Z</time>
      </trkpt>
      <trkpt lat="43.64284" lon="3.81236">
        <ele>141.5</ele>
        <time>2015-11-18T11:35:50Z</time>
      </trkpt>
      <trkpt lat="43.64283" lon="3.81237">
        <ele>142</ele>
        <time>2015-11-18T11:35:51Z</time>
      </trkpt>
      <trkpt lat="43.64283" lon="3.81236">
        <ele>143</ele>
        <time>2015-11-18T11:35:52Z</time>
      </trkpt>
      <trkpt lat="43.64282" lon="3.81235">
        <ele>143.5</ele>
        <time>2015-11-18T11:35:53Z</time>
      </trkpt>
      <trkpt lat="43.64282" lon="3.81234">
        <ele>144.5</ele>
        <time>2015-11-18T11:35:54Z</time>
      </trkpt>
      <trkpt lat="43.64281" lon="3.81233">
        <ele>144.5</ele>
        <time>2015-11-18T11:35:55Z</time>
      </trkpt>
      <trkpt lat="43.64281" lon="3.81232">
        <ele>144</ele>
        <time>2015-11-18T11:35:56Z</time>
      </trkpt>
      <trkpt lat="43.6428" lon="3.81235">
        <ele>145</ele>
        <time>2015-11-18T11:35:57Z</time>
      </trkpt>
      <trkpt lat="43.64281" lon="3.81234">
        <ele>145.5</ele>
        <time>2015-11-18T11:35:58Z</time>
      </trkpt>
      <trkpt lat="43.64281" lon="3.81233">
        <ele>145.5</ele>
        <time>2015-11-18T11:35:59Z</time>
      </trkpt>
      <trkpt lat="43.64282" lon="3.81234">
        <ele>147</ele>
        <time>2015-11-18T11:36:00Z</time>
      </trkpt>
      <trkpt lat="43.64282" lon="3.81235">
        <ele>147</ele>
        <time>2015-11-18T11:36:01Z</time>
      </trkpt>
      <trkpt lat="43.64283" lon="3.81234">
        <ele>147</ele>
        <time>2015-11-18T11:36:02Z</time>
      </trkpt>
      <trkpt lat="43.64283" lon="3.81234">
        <ele>147</ele>
        <time>2015-11-18T11:36:03Z</time>
      </trkpt>
      <trkpt lat="43.64283" lon="3.81234">
        <ele>147</ele>
        <time>2015-11-18T11:36:04Z</time>
      </trkpt>
      <trkpt lat="43.64283" lon="3.81233">
        <ele>147</ele>
        <time>2015-11-18T11:36:05Z</time>
      </trkpt>
      <trkpt lat="43.64282" lon="3.81233">
        <ele>146.5</ele>
        <time>2015-11-18T11:36:06Z</time>
      </trkpt>
      <trkpt lat="43.64281" lon="3.81232">
        <ele>146.5</ele>
        <time>2015-11-18T11:36:07Z</time>
      </trkpt>
      <trkpt lat="43.64281" lon="3.81232">
        <ele>145</ele>
        <time>2015-11-18T11:36:08Z</time>
      </trkpt>
      <trkpt lat="43.64281" lon="3.81231">
        <ele>145</ele>
        <time>2015-11-18T11:36:09Z</time>
      </trkpt>
      <trkpt lat="43.6428" lon="3.81231">
        <ele>145.5</ele>
        <time>2015-11-18T11:36:10Z</time>
      </trkpt>
      <trkpt lat="43.6428" lon="3.81233">
        <ele>148.5</ele>
        <time>2015-11-18T11:36:11Z</time>
      </trkpt>
      <trkpt lat="43.6428" lon="3.81232">
        <ele>147</ele>
        <time>2015-11-18T11:36:12Z</time>
      </trkpt>
      <trkpt lat="43.6428" lon="3.81232">
        <ele>147</ele>
        <time>2015-11-18T11:36:13Z</time>
      </trkpt>
      <trkpt lat="43.64279" lon="3.81231">
        <ele>146</ele>
        <time>2015-11-18T11:36:14Z</time>
      </trkpt>
      <trkpt lat="43.64278" lon="3.81233">
        <ele>145</ele>
        <time>2015-11-18T11:36:15Z</time>
      </trkpt>
      <trkpt lat="43.64278" lon="3.81232">
        <ele>144</ele>
        <time>2015-11-18T11:36:16Z</time>
      </trkpt>
      <trkpt lat="43.64279" lon="3.8123">
        <ele>145</ele>
        <time>2015-11-18T11:36:17Z</time>
      </trkpt>
      <trkpt lat="43.64278" lon="3.81229">
        <ele>145</ele>
        <time>2015-11-18T11:36:19Z</time>
      </trkpt>
      <trkpt lat="43.64277" lon="3.81229">
        <ele>144.5</ele>
        <time>2015-11-18T11:36:20Z</time>
      </trkpt>
      <trkpt lat="43.64276" lon="3.81229">
        <ele>143.5</ele>
        <time>2015-11-18T11:36:21Z</time>
      </trkpt>
      <trkpt lat="43.64275" lon="3.81229">
        <ele>143</ele>
        <time>2015-11-18T11:36:22Z</time>
      </trkpt>
      <trkpt lat="43.64273" lon="3.8123">
        <ele>140.5</ele>
        <time>2015-11-18T11:36:24Z</time>
      </trkpt>
      <trkpt lat="43.64272" lon="3.81229">
        <ele>140</ele>
        <time>2015-11-18T11:36:25Z</time>
      </trkpt>
      <trkpt lat="43.64267" lon="3.81228">
        <ele>148.5</ele>
        <time>2015-11-18T11:36:27Z</time>
      </trkpt>
      <trkpt lat="43.64267" lon="3.81228">
        <ele>148.5</ele>
        <time>2015-11-18T11:36:28Z</time>
      </trkpt>
      <trkpt lat="43.64265" lon="3.81228">
        <ele>148</ele>
        <time>2015-11-18T11:36:29Z</time>
      </trkpt>
      <trkpt lat="43.64265" lon="3.81229">
        <ele>148</ele>
        <time>2015-11-18T11:36:30Z</time>
      </trkpt>
      <trkpt lat="43.64264" lon="3.81228">
        <ele>146.5</ele>
        <time>2015-11-18T11:36:31Z</time>
      </trkpt>
      <trkpt lat="43.64263" lon="3.81226">
        <ele>146</ele>
        <time>2015-11-18T11:36:32Z</time>
      </trkpt>
      <trkpt lat="43.64262" lon="3.81226">
        <ele>144.5</ele>
        <time>2015-11-18T11:36:33Z</time>
      </trkpt>
      <trkpt lat="43.64261" lon="3.81226">
        <ele>144</ele>
        <time>2015-11-18T11:36:34Z</time>
      </trkpt>
      <trkpt lat="43.6426" lon="3.81226">
        <ele>144.5</ele>
        <time>2015-11-18T11:36:35Z</time>
      </trkpt>
      <trkpt lat="43.64259" lon="3.81226">
        <ele>145</ele>
        <time>2015-11-18T11:36:36Z</time>
      </trkpt>
      <trkpt lat="43.64258" lon="3.81223">
        <ele>145</ele>
        <time>2015-11-18T11:36:37Z</time>
      </trkpt>
      <trkpt lat="43.64257" lon="3.81222">
        <ele>145</ele>
        <time>2015-11-18T11:36:38Z</time>
      </trkpt>
      <trkpt lat="43.64255" lon="3.81224">
        <ele>147.5</ele>
        <time>2015-11-18T11:36:39Z</time>
      </trkpt>
      <trkpt lat="43.64253" lon="3.81224">
        <ele>148</ele>
        <time>2015-11-18T11:36:40Z</time>
      </trkpt>
      <trkpt lat="43.64252" lon="3.81223">
        <ele>148.5</ele>
        <time>2015-11-18T11:36:41Z</time>
      </trkpt>
      <trkpt lat="43.64251" lon="3.81221">
        <ele>148.5</ele>
        <time>2015-11-18T11:36:42Z</time>
      </trkpt>
      <trkpt lat="43.6425" lon="3.81221">
        <ele>149</ele>
        <time>2015-11-18T11:36:43Z</time>
      </trkpt>
      <trkpt lat="43.6425" lon="3.8122">
        <ele>148.5</ele>
        <time>2015-11-18T11:36:44Z</time>
      </trkpt>
      <trkpt lat="43.64249" lon="3.81221">
        <ele>148.5</ele>
        <time>2015-11-18T11:36:45Z</time>
      </trkpt>
      <trkpt lat="43.64249" lon="3.8122">
        <ele>148.5</ele>
        <time>2015-11-18T11:36:48Z</time>
      </trkpt>
      <trkpt lat="43.64249" lon="3.8122">
        <ele>149</ele>
        <time>2015-11-18T11:36:49Z</time>
      </trkpt>
      <trkpt lat="43.64249" lon="3.81219">
        <ele>149.5</ele>
        <time>2015-11-18T11:36:50Z</time>
      </trkpt>
      <trkpt lat="43.64247" lon="3.81221">
        <ele>149.5</ele>
        <time>2015-11-18T11:36:52Z</time>
      </trkpt>
      <trkpt lat="43.64247" lon="3.81222">
        <ele>149.5</ele>
        <time>2015-11-18T11:36:53Z</time>
      </trkpt>
      <trkpt lat="43.64247" lon="3.81223">
        <ele>151</ele>
        <time>2015-11-18T11:36:54Z</time>
      </trkpt>
      <trkpt lat="43.64246" lon="3.81225">
        <ele>152.5</ele>
        <time>2015-11-18T11:36:55Z</time>
      </trkpt>
      <trkpt lat="43.64243" lon="3.81226">
        <ele>152</ele>
        <time>2015-11-18T11:36:56Z</time>
      </trkpt>
      <trkpt lat="43.64242" lon="3.81228">
        <ele>154</ele>
        <time>2015-11-18T11:36:57Z</time>
      </trkpt>
      <trkpt lat="43.64241" lon="3.81229">
        <ele>154.5</ele>
        <time>2015-11-18T11:36:58Z</time>
      </trkpt>
      <trkpt lat="43.6424" lon="3.81231">
        <ele>156</ele>
        <time>2015-11-18T11:36:59Z</time>
      </trkpt>
      <trkpt lat="43.6424" lon="3.81232">
        <ele>157</ele>
        <time>2015-11-18T11:37:00Z</time>
      </trkpt>
      <trkpt lat="43.64239" lon="3.81233">
        <ele>157.5</ele>
        <time>2015-11-18T11:37:01Z</time>
      </trkpt>
      <trkpt lat="43.64237" lon="3.81235">
        <ele>158</ele>
        <time>2015-11-18T11:37:02Z</time>
      </trkpt>
      <trkpt lat="43.64233" lon="3.81238">
        <ele>157.5</ele>
        <time>2015-11-18T11:37:04Z</time>
      </trkpt>
      <trkpt lat="43.64231" lon="3.81239">
        <ele>158.5</ele>
        <time>2015-11-18T11:37:05Z</time>
      </trkpt>
      <trkpt lat="43.6423" lon="3.81241">
        <ele>159.5</ele>
        <time>2015-11-18T11:37:06Z</time>
      </trkpt>
      <trkpt lat="43.64228" lon="3.81242">
        <ele>160</ele>
        <time>2015-11-18T11:37:07Z</time>
      </trkpt>
      <trkpt lat="43.64226" lon="3.81241">
        <ele>158.5</ele>
        <time>2015-11-18T11:37:08Z</time>
      </trkpt>
      <trkpt lat="43.64224" lon="3.81242">
        <ele>158.5</ele>
        <time>2015-11-18T11:37:09Z</time>
      </trkpt>
      <trkpt lat="43.64222" lon="3.81243">
        <ele>158</ele>
        <time>2015-11-18T11:37:10Z</time>
      </trkpt>
      <trkpt lat="43.64223" lon="3.81244">
        <ele>159.5</ele>
        <time>2015-11-18T11:37:11Z</time>
      </trkpt>
      <trkpt lat="43.64222" lon="3.81244">
        <ele>159.5</ele>
        <time>2015-11-18T11:37:12Z</time>
      </trkpt>
      <trkpt lat="43.64223" lon="3.81243">
        <ele>160</ele>
        <time>2015-11-18T11:37:14Z</time>
      </trkpt>
      <trkpt lat="43.64223" lon="3.81243">
        <ele>160.5</ele>
        <time>2015-11-18T11:37:16Z</time>
      </trkpt>
      <trkpt lat="43.64221" lon="3.81244">
        <ele>159</ele>
        <time>2015-11-18T11:37:17Z</time>
      </trkpt>
      <trkpt lat="43.6422" lon="3.81244">
        <ele>158.5</ele>
        <time>2015-11-18T11:37:18Z</time>
      </trkpt>
      <trkpt lat="43.64219" lon="3.81244">
        <ele>158</ele>
        <time>2015-11-18T11:37:19Z</time>
      </trkpt>
      <trkpt lat="43.64217" lon="3.81244">
        <ele>157</ele>
        <time>2015-11-18T11:37:20Z</time>
      </trkpt>
      <trkpt lat="43.64216" lon="3.81246">
        <ele>156</ele>
        <time>2015-11-18T11:37:21Z</time>
      </trkpt>
      <trkpt lat="43.64216" lon="3.81246">
        <ele>156.5</ele>
        <time>2015-11-18T11:37:22Z</time>
      </trkpt>
      <trkpt lat="43.64217" lon="3.81246">
        <ele>158</ele>
        <time>2015-11-18T11:37:23Z</time>
      </trkpt>
      <trkpt lat="43.64217" lon="3.81246">
        <ele>158.5</ele>
        <time>2015-11-18T11:37:25Z</time>
      </trkpt>
      <trkpt lat="43.64216" lon="3.81247">
        <ele>158.5</ele>
        <time>2015-11-18T11:37:26Z</time>
      </trkpt>
      <trkpt lat="43.64216" lon="3.81247">
        <ele>158.5</ele>
        <time>2015-11-18T11:37:27Z</time>
      </trkpt>
      <trkpt lat="43.64216" lon="3.81248">
        <ele>159.5</ele>
        <time>2015-11-18T11:37:29Z</time>
      </trkpt>
      <trkpt lat="43.64215" lon="3.81249">
        <ele>159.5</ele>
        <time>2015-11-18T11:37:30Z</time>
      </trkpt>
      <trkpt lat="43.64213" lon="3.8125">
        <ele>158</ele>
        <time>2015-11-18T11:37:31Z</time>
      </trkpt>
      <trkpt lat="43.64212" lon="3.81251">
        <ele>158.5</ele>
        <time>2015-11-18T11:37:33Z</time>
      </trkpt>
      <trkpt lat="43.64212" lon="3.81252">
        <ele>159</ele>
        <time>2015-11-18T11:37:34Z</time>
      </trkpt>
      <trkpt lat="43.64212" lon="3.81252">
        <ele>160</ele>
        <time>2015-11-18T11:37:35Z</time>
      </trkpt>
      <trkpt lat="43.64212" lon="3.81253">
        <ele>161.5</ele>
        <time>2015-11-18T11:37:39Z</time>
      </trkpt>
      <trkpt lat="43.64214" lon="3.81253">
        <ele>164</ele>
        <time>2015-11-18T11:37:40Z</time>
      </trkpt>
      <trkpt lat="43.64214" lon="3.81254">
        <ele>165.5</ele>
        <time>2015-11-18T11:37:41Z</time>
      </trkpt>
      <trkpt lat="43.64214" lon="3.81255">
        <ele>166.5</ele>
        <time>2015-11-18T11:37:42Z</time>
      </trkpt>
      <trkpt lat="43.64213" lon="3.81255">
        <ele>166.5</ele>
        <time>2015-11-18T11:37:43Z</time>
      </trkpt>
      <trkpt lat="43.64213" lon="3.81253">
        <ele>166</ele>
        <time>2015-11-18T11:37:44Z</time>
      </trkpt>
      <trkpt lat="43.64212" lon="3.81253">
        <ele>167</ele>
        <time>2015-11-18T11:37:45Z</time>
      </trkpt>
      <trkpt lat="43.64212" lon="3.81253">
        <ele>167</ele>
        <time>2015-11-18T11:37:46Z</time>
      </trkpt>
      <trkpt lat="43.64212" lon="3.81253">
        <ele>167</ele>
        <time>2015-11-18T11:37:47Z</time>
      </trkpt>
      <trkpt lat="43.6421" lon="3.81251">
        <ele>167</ele>
        <time>2015-11-18T11:37:48Z</time>
      </trkpt>
      <trkpt lat="43.64209" lon="3.8125">
        <ele>166.5</ele>
        <time>2015-11-18T11:37:49Z</time>
      </trkpt>
      <trkpt lat="43.64207" lon="3.81249">
        <ele>167</ele>
        <time>2015-11-18T11:37:50Z</time>
      </trkpt>
      <trkpt lat="43.64204" lon="3.81248">
        <ele>165.5</ele>
        <time>2015-11-18T11:37:51Z</time>
      </trkpt>
      <trkpt lat="43.64203" lon="3.81244">
        <ele>167.5</ele>
        <time>2015-11-18T11:37:52Z</time>
      </trkpt>
      <trkpt lat="43.64201" lon="3.81243">
        <ele>168</ele>
        <time>2015-11-18T11:37:53Z</time>
      </trkpt>
      <trkpt lat="43.64199" lon="3.81241">
        <ele>168.5</ele>
        <time>2015-11-18T11:37:54Z</time>
      </trkpt>
      <trkpt lat="43.64197" lon="3.81238">
        <ele>169</ele>
        <time>2015-11-18T11:37:55Z</time>
      </trkpt>
      <trkpt lat="43.64195" lon="3.81236">
        <ele>169.5</ele>
        <time>2015-11-18T11:37:56Z</time>
      </trkpt>
      <trkpt lat="43.64193" lon="3.81234">
        <ele>170</ele>
        <time>2015-11-18T11:37:57Z</time>
      </trkpt>
      <trkpt lat="43.64191" lon="3.81232">
        <ele>171</ele>
        <time>2015-11-18T11:37:58Z</time>
      </trkpt>
      <trkpt lat="43.64188" lon="3.81231">
        <ele>171.5</ele>
        <time>2015-11-18T11:37:59Z</time>
      </trkpt>
      <trkpt lat="43.64187" lon="3.81228">
        <ele>171.5</ele>
        <time>2015-11-18T11:38:00Z</time>
      </trkpt>
      <trkpt lat="43.64185" lon="3.81227">
        <ele>170.5</ele>
        <time>2015-11-18T11:38:01Z</time>
      </trkpt>
      <trkpt lat="43.64183" lon="3.81225">
        <ele>170</ele>
        <time>2015-11-18T11:38:02Z</time>
      </trkpt>
      <trkpt lat="43.64181" lon="3.81222">
        <ele>170</ele>
        <time>2015-11-18T11:38:03Z</time>
      </trkpt>
      <trkpt lat="43.64179" lon="3.81219">
        <ele>170</ele>
        <time>2015-11-18T11:38:04Z</time>
      </trkpt>
      <trkpt lat="43.64177" lon="3.81217">
        <ele>169.5</ele>
        <time>2015-11-18T11:38:05Z</time>
      </trkpt>
      <trkpt lat="43.64175" lon="3.81214">
        <ele>169.5</ele>
        <time>2015-11-18T11:38:06Z</time>
      </trkpt>
      <trkpt lat="43.64172" lon="3.81211">
        <ele>169.5</ele>
        <time>2015-11-18T11:38:07Z</time>
      </trkpt>
      <trkpt lat="43.6417" lon="3.81209">
        <ele>170</ele>
        <time>2015-11-18T11:38:08Z</time>
      </trkpt>
      <trkpt lat="43.64167" lon="3.81206">
        <ele>170.5</ele>
        <time>2015-11-18T11:38:09Z</time>
      </trkpt>
      <trkpt lat="43.64164" lon="3.81203">
        <ele>170.5</ele>
        <time>2015-11-18T11:38:10Z</time>
      </trkpt>
      <trkpt lat="43.64161" lon="3.812">
        <ele>170.5</ele>
        <time>2015-11-18T11:38:11Z</time>
      </trkpt>
      <trkpt lat="43.64159" lon="3.81197">
        <ele>171</ele>
        <time>2015-11-18T11:38:12Z</time>
      </trkpt>
      <trkpt lat="43.64156" lon="3.81194">
        <ele>171</ele>
        <time>2015-11-18T11:38:13Z</time>
      </trkpt>
      <trkpt lat="43.64153" lon="3.81191">
        <ele>171</ele>
        <time>2015-11-18T11:38:14Z</time>
      </trkpt>
      <trkpt lat="43.6415" lon="3.81189">
        <ele>171</ele>
        <time>2015-11-18T11:38:15Z</time>
      </trkpt>
      <trkpt lat="43.64148" lon="3.81186">
        <ele>171</ele>
        <time>2015-11-18T11:38:16Z</time>
      </trkpt>
      <trkpt lat="43.64145" lon="3.81183">
        <ele>171</ele>
        <time>2015-11-18T11:38:17Z</time>
      </trkpt>
      <trkpt lat="43.64142" lon="3.8118">
        <ele>171.5</ele>
        <time>2015-11-18T11:38:18Z</time>
      </trkpt>
      <trkpt lat="43.64139" lon="3.81178">
        <ele>171</ele>
        <time>2015-11-18T11:38:19Z</time>
      </trkpt>
      <trkpt lat="43.64136" lon="3.81175">
        <ele>171.5</ele>
        <time>2015-11-18T11:38:20Z</time>
      </trkpt>
      <trkpt lat="43.64133" lon="3.81173">
        <ele>171.5</ele>
        <time>2015-11-18T11:38:21Z</time>
      </trkpt>
      <trkpt lat="43.6413" lon="3.8117">
        <ele>171.5</ele>
        <time>2015-11-18T11:38:22Z</time>
      </trkpt>
      <trkpt lat="43.64127" lon="3.81166">
        <ele>171.5</ele>
        <time>2015-11-18T11:38:23Z</time>
      </trkpt>
      <trkpt lat="43.64124" lon="3.81163">
        <ele>171.5</ele>
        <time>2015-11-18T11:38:24Z</time>
      </trkpt>
      <trkpt lat="43.64121" lon="3.8116">
        <ele>171.5</ele>
        <time>2015-11-18T11:38:25Z</time>
      </trkpt>
      <trkpt lat="43.64117" lon="3.81157">
        <ele>172</ele>
        <time>2015-11-18T11:38:26Z</time>
      </trkpt>
      <trkpt lat="43.64114" lon="3.81154">
        <ele>172</ele>
        <time>2015-11-18T11:38:27Z</time>
      </trkpt>
      <trkpt lat="43.64111" lon="3.8115">
        <ele>172</ele>
        <time>2015-11-18T11:38:28Z</time>
      </trkpt>
      <trkpt lat="43.64109" lon="3.81147">
        <ele>172</ele>
        <time>2015-11-18T11:38:29Z</time>
      </trkpt>
      <trkpt lat="43.64106" lon="3.81143">
        <ele>172</ele>
        <time>2015-11-18T11:38:30Z</time>
      </trkpt>
      <trkpt lat="43.64104" lon="3.81139">
        <ele>172.5</ele>
        <time>2015-11-18T11:38:31Z</time>
      </trkpt>
      <trkpt lat="43.64102" lon="3.81135">
        <ele>173</ele>
        <time>2015-11-18T11:38:32Z</time>
      </trkpt>
      <trkpt lat="43.64099" lon="3.81132">
        <ele>173</ele>
        <time>2015-11-18T11:38:33Z</time>
      </trkpt>
      <trkpt lat="43.64097" lon="3.81129">
        <ele>173</ele>
        <time>2015-11-18T11:38:34Z</time>
      </trkpt>
      <trkpt lat="43.64094" lon="3.81125">
        <ele>173</ele>
        <time>2015-11-18T11:38:35Z</time>
      </trkpt>
      <trkpt lat="43.64091" lon="3.81122">
        <ele>173</ele>
        <time>2015-11-18T11:38:36Z</time>
      </trkpt>
      <trkpt lat="43.64089" lon="3.81118">
        <ele>173</ele>
        <time>2015-11-18T11:38:37Z</time>
      </trkpt>
      <trkpt lat="43.64086" lon="3.81116">
        <ele>173.5</ele>
        <time>2015-11-18T11:38:38Z</time>
      </trkpt>
      <trkpt lat="43.64084" lon="3.81112">
        <ele>174</ele>
        <time>2015-11-18T11:38:39Z</time>
      </trkpt>
      <trkpt lat="43.64082" lon="3.81108">
        <ele>173.5</ele>
        <time>2015-11-18T11:38:40Z</time>
      </trkpt>
      <trkpt lat="43.6408" lon="3.81105">
        <ele>174</ele>
        <time>2015-11-18T11:38:41Z</time>
      </trkpt>
      <trkpt lat="43.64079" lon="3.81101">
        <ele>174.5</ele>
        <time>2015-11-18T11:38:42Z</time>
      </trkpt>
      <trkpt lat="43.64081" lon="3.81095">
        <ele>173.5</ele>
        <time>2015-11-18T11:38:43Z</time>
      </trkpt>
      <trkpt lat="43.64086" lon="3.81091">
        <ele>172.5</ele>
        <time>2015-11-18T11:38:44Z</time>
      </trkpt>
      <trkpt lat="43.64089" lon="3.81085">
        <ele>172</ele>
        <time>2015-11-18T11:38:45Z</time>
      </trkpt>
      <trkpt lat="43.64091" lon="3.81077">
        <ele>171</ele>
        <time>2015-11-18T11:38:46Z</time>
      </trkpt>
      <trkpt lat="43.64095" lon="3.81068">
        <ele>169.5</ele>
        <time>2015-11-18T11:38:47Z</time>
      </trkpt>
      <trkpt lat="43.64098" lon="3.81059">
        <ele>168.5</ele>
        <time>2015-11-18T11:38:48Z</time>
      </trkpt>
      <trkpt lat="43.64101" lon="3.81048">
        <ele>168</ele>
        <time>2015-11-18T11:38:49Z</time>
      </trkpt>
      <trkpt lat="43.64102" lon="3.81037">
        <ele>168</ele>
        <time>2015-11-18T11:38:50Z</time>
      </trkpt>
      <trkpt lat="43.64103" lon="3.81026">
        <ele>168</ele>
        <time>2015-11-18T11:38:51Z</time>
      </trkpt>
      <trkpt lat="43.64106" lon="3.81016">
        <ele>167.5</ele>
        <time>2015-11-18T11:38:52Z</time>
      </trkpt>
      <trkpt lat="43.64111" lon="3.81005">
        <ele>167</ele>
        <time>2015-11-18T11:38:53Z</time>
      </trkpt>
      <trkpt lat="43.64117" lon="3.80995">
        <ele>167</ele>
        <time>2015-11-18T11:38:54Z</time>
      </trkpt>
      <trkpt lat="43.64123" lon="3.80986">
        <ele>168</ele>
        <time>2015-11-18T11:38:55Z</time>
      </trkpt>
      <trkpt lat="43.64126" lon="3.80975">
        <ele>168</ele>
        <time>2015-11-18T11:38:56Z</time>
      </trkpt>
      <trkpt lat="43.64131" lon="3.80965">
        <ele>166</ele>
        <time>2015-11-18T11:38:57Z</time>
      </trkpt>
      <trkpt lat="43.64134" lon="3.80957">
        <ele>167</ele>
        <time>2015-11-18T11:38:58Z</time>
      </trkpt>
      <trkpt lat="43.64139" lon="3.80949">
        <ele>167.5</ele>
        <time>2015-11-18T11:39:00Z</time>
      </trkpt>
      <trkpt lat="43.64141" lon="3.80945">
        <ele>167.5</ele>
        <time>2015-11-18T11:39:01Z</time>
      </trkpt>
      <trkpt lat="43.64143" lon="3.80941">
        <ele>168</ele>
        <time>2015-11-18T11:39:02Z</time>
      </trkpt>
      <trkpt lat="43.64147" lon="3.80943">
        <ele>166</ele>
        <time>2015-11-18T11:39:03Z</time>
      </trkpt>
      <trkpt lat="43.64151" lon="3.80939">
        <ele>166.5</ele>
        <time>2015-11-18T11:39:05Z</time>
      </trkpt>
      <trkpt lat="43.64152" lon="3.80935">
        <ele>166.5</ele>
        <time>2015-11-18T11:39:06Z</time>
      </trkpt>
      <trkpt lat="43.64154" lon="3.80933">
        <ele>167</ele>
        <time>2015-11-18T11:39:07Z</time>
      </trkpt>
      <trkpt lat="43.64159" lon="3.80932">
        <ele>164</ele>
        <time>2015-11-18T11:39:08Z</time>
      </trkpt>
      <trkpt lat="43.64163" lon="3.80931">
        <ele>162</ele>
        <time>2015-11-18T11:39:09Z</time>
      </trkpt>
      <trkpt lat="43.64167" lon="3.8093">
        <ele>160</ele>
        <time>2015-11-18T11:39:10Z</time>
      </trkpt>
      <trkpt lat="43.64171" lon="3.80927">
        <ele>159</ele>
        <time>2015-11-18T11:39:11Z</time>
      </trkpt>
      <trkpt lat="43.64173" lon="3.80923">
        <ele>158.5</ele>
        <time>2015-11-18T11:39:12Z</time>
      </trkpt>
      <trkpt lat="43.64175" lon="3.80919">
        <ele>158.5</ele>
        <time>2015-11-18T11:39:13Z</time>
      </trkpt>
      <trkpt lat="43.64177" lon="3.80914">
        <ele>158</ele>
        <time>2015-11-18T11:39:14Z</time>
      </trkpt>
      <trkpt lat="43.64179" lon="3.80909">
        <ele>158</ele>
        <time>2015-11-18T11:39:15Z</time>
      </trkpt>
      <trkpt lat="43.64181" lon="3.80903">
        <ele>157</ele>
        <time>2015-11-18T11:39:16Z</time>
      </trkpt>
      <trkpt lat="43.64175" lon="3.80887">
        <ele>161.5</ele>
        <time>2015-11-18T11:39:18Z</time>
      </trkpt>
      <trkpt lat="43.64173" lon="3.80881">
        <ele>160.5</ele>
        <time>2015-11-18T11:39:19Z</time>
      </trkpt>
      <trkpt lat="43.6417" lon="3.80875">
        <ele>159</ele>
        <time>2015-11-18T11:39:20Z</time>
      </trkpt>
      <trkpt lat="43.64168" lon="3.80868">
        <ele>158.5</ele>
        <time>2015-11-18T11:39:21Z</time>
      </trkpt>
      <trkpt lat="43.64165" lon="3.80859">
        <ele>157.5</ele>
        <time>2015-11-18T11:39:22Z</time>
      </trkpt>
      <trkpt lat="43.64163" lon="3.8085">
        <ele>156.5</ele>
        <time>2015-11-18T11:39:23Z</time>
      </trkpt>
      <trkpt lat="43.64161" lon="3.80839">
        <ele>157</ele>
        <time>2015-11-18T11:39:24Z</time>
      </trkpt>
      <trkpt lat="43.64158" lon="3.8083">
        <ele>157.5</ele>
        <time>2015-11-18T11:39:25Z</time>
      </trkpt>
      <trkpt lat="43.64153" lon="3.80817">
        <ele>161</ele>
        <time>2015-11-18T11:39:27Z</time>
      </trkpt>
      <trkpt lat="43.64151" lon="3.80808">
        <ele>161</ele>
        <time>2015-11-18T11:39:28Z</time>
      </trkpt>
      <trkpt lat="43.6415" lon="3.808">
        <ele>161.5</ele>
        <time>2015-11-18T11:39:29Z</time>
      </trkpt>
      <trkpt lat="43.6415" lon="3.80792">
        <ele>162.5</ele>
        <time>2015-11-18T11:39:30Z</time>
      </trkpt>
      <trkpt lat="43.6415" lon="3.80784">
        <ele>161</ele>
        <time>2015-11-18T11:39:31Z</time>
      </trkpt>
      <trkpt lat="43.64148" lon="3.80775">
        <ele>159.5</ele>
        <time>2015-11-18T11:39:32Z</time>
      </trkpt>
      <trkpt lat="43.64147" lon="3.80767">
        <ele>160</ele>
        <time>2015-11-18T11:39:33Z</time>
      </trkpt>
      <trkpt lat="43.64148" lon="3.80757">
        <ele>158</ele>
        <time>2015-11-18T11:39:34Z</time>
      </trkpt>
      <trkpt lat="43.64146" lon="3.80745">
        <ele>158.5</ele>
        <time>2015-11-18T11:39:35Z</time>
      </trkpt>
      <trkpt lat="43.64145" lon="3.80733">
        <ele>157.5</ele>
        <time>2015-11-18T11:39:36Z</time>
      </trkpt>
      <trkpt lat="43.64144" lon="3.80723">
        <ele>155.5</ele>
        <time>2015-11-18T11:39:37Z</time>
      </trkpt>
      <trkpt lat="43.64143" lon="3.80712">
        <ele>154.5</ele>
        <time>2015-11-18T11:39:38Z</time>
      </trkpt>
      <trkpt lat="43.64141" lon="3.807">
        <ele>154</ele>
        <time>2015-11-18T11:39:39Z</time>
      </trkpt>
      <trkpt lat="43.64136" lon="3.80669">
        <ele>154</ele>
        <time>2015-11-18T11:39:41Z</time>
      </trkpt>
      <trkpt lat="43.64133" lon="3.80657">
        <ele>154</ele>
        <time>2015-11-18T11:39:42Z</time>
      </trkpt>
      <trkpt lat="43.64133" lon="3.80643">
        <ele>154.5</ele>
        <time>2015-11-18T11:39:43Z</time>
      </trkpt>
      <trkpt lat="43.64131" lon="3.80628">
        <ele>154.5</ele>
        <time>2015-11-18T11:39:44Z</time>
      </trkpt>
      <trkpt lat="43.64113" lon="3.80617">
        <ele>151.5</ele>
        <time>2015-11-18T11:39:49Z</time>
      </trkpt>
      <trkpt lat="43.6411" lon="3.80617">
        <ele>150.5</ele>
        <time>2015-11-18T11:39:50Z</time>
      </trkpt>
      <trkpt lat="43.6411" lon="3.80621">
        <ele>144.5</ele>
        <time>2015-11-18T11:39:51Z</time>
      </trkpt>
      <trkpt lat="43.64107" lon="3.8062">
        <ele>144.5</ele>
        <time>2015-11-18T11:39:52Z</time>
      </trkpt>
      <trkpt lat="43.64104" lon="3.80618">
        <ele>143.5</ele>
        <time>2015-11-18T11:39:53Z</time>
      </trkpt>
      <trkpt lat="43.64106" lon="3.80618">
        <ele>135.5</ele>
        <time>2015-11-18T11:39:54Z</time>
      </trkpt>
      <trkpt lat="43.64104" lon="3.80617">
        <ele>133.5</ele>
        <time>2015-11-18T11:39:55Z</time>
      </trkpt>
      <trkpt lat="43.64101" lon="3.80618">
        <ele>129.5</ele>
        <time>2015-11-18T11:39:57Z</time>
      </trkpt>
      <trkpt lat="43.64097" lon="3.80624">
        <ele>129</ele>
        <time>2015-11-18T11:39:59Z</time>
      </trkpt>
      <trkpt lat="43.64089" lon="3.80622">
        <ele>129</ele>
        <time>2015-11-18T11:40:01Z</time>
      </trkpt>
      <trkpt lat="43.64086" lon="3.80628">
        <ele>130</ele>
        <time>2015-11-18T11:40:02Z</time>
      </trkpt>
      <trkpt lat="43.64082" lon="3.80631">
        <ele>130.5</ele>
        <time>2015-11-18T11:40:03Z</time>
      </trkpt>
      <trkpt lat="43.64077" lon="3.80632">
        <ele>129.5</ele>
        <time>2015-11-18T11:40:04Z</time>
      </trkpt>
      <trkpt lat="43.64074" lon="3.80632">
        <ele>130</ele>
        <time>2015-11-18T11:40:05Z</time>
      </trkpt>
      <trkpt lat="43.64071" lon="3.80632">
        <ele>128</ele>
        <time>2015-11-18T11:40:06Z</time>
      </trkpt>
      <trkpt lat="43.64068" lon="3.80632">
        <ele>126.5</ele>
        <time>2015-11-18T11:40:07Z</time>
      </trkpt>
      <trkpt lat="43.64065" lon="3.80634">
        <ele>126.5</ele>
        <time>2015-11-18T11:40:08Z</time>
      </trkpt>
      <trkpt lat="43.64063" lon="3.80634">
        <ele>126</ele>
        <time>2015-11-18T11:40:09Z</time>
      </trkpt>
      <trkpt lat="43.64059" lon="3.80636">
        <ele>125</ele>
        <time>2015-11-18T11:40:10Z</time>
      </trkpt>
      <trkpt lat="43.64048" lon="3.8064">
        <ele>123.5</ele>
        <time>2015-11-18T11:40:12Z</time>
      </trkpt>
      <trkpt lat="43.64045" lon="3.80641">
        <ele>124</ele>
        <time>2015-11-18T11:40:13Z</time>
      </trkpt>
      <trkpt lat="43.64036" lon="3.80644">
        <ele>123.5</ele>
        <time>2015-11-18T11:40:15Z</time>
      </trkpt>
      <trkpt lat="43.64033" lon="3.80641">
        <ele>122.5</ele>
        <time>2015-11-18T11:40:16Z</time>
      </trkpt>
      <trkpt lat="43.6403" lon="3.80643">
        <ele>122</ele>
        <time>2015-11-18T11:40:17Z</time>
      </trkpt>
      <trkpt lat="43.64029" lon="3.80644">
        <ele>122</ele>
        <time>2015-11-18T11:40:18Z</time>
      </trkpt>
      <trkpt lat="43.64028" lon="3.80645">
        <ele>122</ele>
        <time>2015-11-18T11:40:19Z</time>
      </trkpt>
      <trkpt lat="43.64025" lon="3.80646">
        <ele>122</ele>
        <time>2015-11-18T11:40:20Z</time>
      </trkpt>
      <trkpt lat="43.64023" lon="3.80648">
        <ele>121.5</ele>
        <time>2015-11-18T11:40:21Z</time>
      </trkpt>
      <trkpt lat="43.64019" lon="3.80649">
        <ele>121</ele>
        <time>2015-11-18T11:40:22Z</time>
      </trkpt>
      <trkpt lat="43.64016" lon="3.80651">
        <ele>120.5</ele>
        <time>2015-11-18T11:40:23Z</time>
      </trkpt>
      <trkpt lat="43.64012" lon="3.80652">
        <ele>120</ele>
        <time>2015-11-18T11:40:24Z</time>
      </trkpt>
      <trkpt lat="43.64008" lon="3.80654">
        <ele>119.5</ele>
        <time>2015-11-18T11:40:25Z</time>
      </trkpt>
      <trkpt lat="43.64004" lon="3.80656">
        <ele>119</ele>
        <time>2015-11-18T11:40:26Z</time>
      </trkpt>
      <trkpt lat="43.64" lon="3.80657">
        <ele>119</ele>
        <time>2015-11-18T11:40:27Z</time>
      </trkpt>
      <trkpt lat="43.63996" lon="3.80659">
        <ele>118.5</ele>
        <time>2015-11-18T11:40:28Z</time>
      </trkpt>
      <trkpt lat="43.63992" lon="3.8066">
        <ele>117.5</ele>
        <time>2015-11-18T11:40:29Z</time>
      </trkpt>
      <trkpt lat="43.63988" lon="3.80662">
        <ele>116.5</ele>
        <time>2015-11-18T11:40:30Z</time>
      </trkpt>
      <trkpt lat="43.63983" lon="3.80663">
        <ele>115.5</ele>
        <time>2015-11-18T11:40:31Z</time>
      </trkpt>
      <trkpt lat="43.63979" lon="3.80665">
        <ele>114</ele>
        <time>2015-11-18T11:40:32Z</time>
      </trkpt>
      <trkpt lat="43.63973" lon="3.80666">
        <ele>112.5</ele>
        <time>2015-11-18T11:40:33Z</time>
      </trkpt>
      <trkpt lat="43.63968" lon="3.80668">
        <ele>111.5</ele>
        <time>2015-11-18T11:40:34Z</time>
      </trkpt>
      <trkpt lat="43.63962" lon="3.80669">
        <ele>110</ele>
        <time>2015-11-18T11:40:35Z</time>
      </trkpt>
      <trkpt lat="43.63957" lon="3.80671">
        <ele>108.5</ele>
        <time>2015-11-18T11:40:36Z</time>
      </trkpt>
      <trkpt lat="43.63952" lon="3.80672">
        <ele>107.5</ele>
        <time>2015-11-18T11:40:37Z</time>
      </trkpt>
      <trkpt lat="43.63948" lon="3.80674">
        <ele>107.5</ele>
        <time>2015-11-18T11:40:38Z</time>
      </trkpt>
      <trkpt lat="43.63946" lon="3.80677">
        <ele>106</ele>
        <time>2015-11-18T11:40:40Z</time>
      </trkpt>
      <trkpt lat="43.63945" lon="3.80678">
        <ele>106</ele>
        <time>2015-11-18T11:40:41Z</time>
      </trkpt>
      <trkpt lat="43.63944" lon="3.80678">
        <ele>105.5</ele>
        <time>2015-11-18T11:40:42Z</time>
      </trkpt>
      <trkpt lat="43.63943" lon="3.80678">
        <ele>106</ele>
        <time>2015-11-18T11:40:43Z</time>
      </trkpt>
      <trkpt lat="43.63932" lon="3.8068">
        <ele>104.5</ele>
        <time>2015-11-18T11:40:47Z</time>
      </trkpt>
      <trkpt lat="43.63927" lon="3.80681">
        <ele>105</ele>
        <time>2015-11-18T11:40:48Z</time>
      </trkpt>
      <trkpt lat="43.63923" lon="3.80681">
        <ele>104.5</ele>
        <time>2015-11-18T11:40:49Z</time>
      </trkpt>
      <trkpt lat="43.63919" lon="3.80681">
        <ele>103</ele>
        <time>2015-11-18T11:40:50Z</time>
      </trkpt>
      <trkpt lat="43.63915" lon="3.80685">
        <ele>101.5</ele>
        <time>2015-11-18T11:40:51Z</time>
      </trkpt>
      <trkpt lat="43.63909" lon="3.80688">
        <ele>99.5</ele>
        <time>2015-11-18T11:40:52Z</time>
      </trkpt>
      <trkpt lat="43.63904" lon="3.80698">
        <ele>98</ele>
        <time>2015-11-18T11:40:54Z</time>
      </trkpt>
      <trkpt lat="43.63902" lon="3.80704">
        <ele>97</ele>
        <time>2015-11-18T11:40:55Z</time>
      </trkpt>
      <trkpt lat="43.63901" lon="3.80709">
        <ele>95</ele>
        <time>2015-11-18T11:40:56Z</time>
      </trkpt>
      <trkpt lat="43.63902" lon="3.80715">
        <ele>94</ele>
        <time>2015-11-18T11:40:57Z</time>
      </trkpt>
      <trkpt lat="43.639" lon="3.8072">
        <ele>94</ele>
        <time>2015-11-18T11:40:58Z</time>
      </trkpt>
      <trkpt lat="43.63898" lon="3.80722">
        <ele>94</ele>
        <time>2015-11-18T11:40:59Z</time>
      </trkpt>
      <trkpt lat="43.63894" lon="3.80726">
        <ele>92</ele>
        <time>2015-11-18T11:41:00Z</time>
      </trkpt>
      <trkpt lat="43.63891" lon="3.80729">
        <ele>94</ele>
        <time>2015-11-18T11:41:02Z</time>
      </trkpt>
      <trkpt lat="43.6389" lon="3.8073">
        <ele>95</ele>
        <time>2015-11-18T11:41:03Z</time>
      </trkpt>
      <trkpt lat="43.63887" lon="3.80727">
        <ele>94</ele>
        <time>2015-11-18T11:41:05Z</time>
      </trkpt>
      <trkpt lat="43.63886" lon="3.80725">
        <ele>94</ele>
        <time>2015-11-18T11:41:06Z</time>
      </trkpt>
      <trkpt lat="43.63883" lon="3.80724">
        <ele>94.5</ele>
        <time>2015-11-18T11:41:08Z</time>
      </trkpt>
      <trkpt lat="43.63883" lon="3.80724">
        <ele>94.5</ele>
        <time>2015-11-18T11:41:09Z</time>
      </trkpt>
      <trkpt lat="43.63883" lon="3.80723">
        <ele>96</ele>
        <time>2015-11-18T11:41:11Z</time>
      </trkpt>
      <trkpt lat="43.63883" lon="3.80723">
        <ele>97.5</ele>
        <time>2015-11-18T11:41:12Z</time>
      </trkpt>
      <trkpt lat="43.63883" lon="3.80724">
        <ele>98</ele>
        <time>2015-11-18T11:41:13Z</time>
      </trkpt>
      <trkpt lat="43.63883" lon="3.80722">
        <ele>97.5</ele>
        <time>2015-11-18T11:41:12Z</time>
      </trkpt>
      <trkpt lat="43.63883" lon="3.80725">
        <ele>97.5</ele>
        <time>2015-11-18T11:41:13Z</time>
      </trkpt>
      <trkpt lat="43.63883" lon="3.80725">
        <ele>96</ele>
        <time>2015-11-18T11:41:14Z</time>
      </trkpt>
      <trkpt lat="43.63882" lon="3.80725">
        <ele>97</ele>
        <time>2015-11-18T11:41:15Z</time>
      </trkpt>
      <trkpt lat="43.6388" lon="3.80726">
        <ele>97</ele>
        <time>2015-11-18T11:41:16Z</time>
      </trkpt>
      <trkpt lat="43.63879" lon="3.80726">
        <ele>97</ele>
        <time>2015-11-18T11:41:17Z</time>
      </trkpt>
      <trkpt lat="43.63879" lon="3.80726">
        <ele>97.5</ele>
        <time>2015-11-18T11:41:18Z</time>
      </trkpt>
      <trkpt lat="43.63878" lon="3.80726">
        <ele>97</ele>
        <time>2015-11-18T11:41:19Z</time>
      </trkpt>
      <trkpt lat="43.63877" lon="3.80725">
        <ele>97</ele>
        <time>2015-11-18T11:41:20Z</time>
      </trkpt>
      <trkpt lat="43.63878" lon="3.80723">
        <ele>97</ele>
        <time>2015-11-18T11:41:23Z</time>
      </trkpt>
      <trkpt lat="43.63878" lon="3.80723">
        <ele>96</ele>
        <time>2015-11-18T11:41:26Z</time>
      </trkpt>
      <trkpt lat="43.63876" lon="3.80724">
        <ele>94.5</ele>
        <time>2015-11-18T11:41:33Z</time>
      </trkpt>
      <trkpt lat="43.63875" lon="3.80724">
        <ele>94.5</ele>
        <time>2015-11-18T11:41:34Z</time>
      </trkpt>
      <trkpt lat="43.63875" lon="3.80723">
        <ele>94</ele>
        <time>2015-11-18T11:41:36Z</time>
      </trkpt>
      <trkpt lat="43.63874" lon="3.80723">
        <ele>94</ele>
        <time>2015-11-18T11:41:38Z</time>
      </trkpt>
      <trkpt lat="43.63874" lon="3.80724">
        <ele>94</ele>
        <time>2015-11-18T11:41:39Z</time>
      </trkpt>
      <trkpt lat="43.63874" lon="3.80725">
        <ele>94</ele>
        <time>2015-11-18T11:41:40Z</time>
      </trkpt>
      <trkpt lat="43.63873" lon="3.80726">
        <ele>94</ele>
        <time>2015-11-18T11:41:42Z</time>
      </trkpt>
      <trkpt lat="43.63872" lon="3.80725">
        <ele>92.5</ele>
        <time>2015-11-18T11:41:43Z</time>
      </trkpt>
      <trkpt lat="43.63871" lon="3.80726">
        <ele>92.5</ele>
        <time>2015-11-18T11:41:44Z</time>
      </trkpt>
      <trkpt lat="43.63871" lon="3.80726">
        <ele>92.5</ele>
        <time>2015-11-18T11:41:45Z</time>
      </trkpt>
      <trkpt lat="43.6387" lon="3.80726">
        <ele>92.5</ele>
        <time>2015-11-18T11:41:46Z</time>
      </trkpt>
      <trkpt lat="43.63869" lon="3.80727">
        <ele>93</ele>
        <time>2015-11-18T11:41:47Z</time>
      </trkpt>
      <trkpt lat="43.63869" lon="3.80728">
        <ele>93.5</ele>
        <time>2015-11-18T11:41:48Z</time>
      </trkpt>
      <trkpt lat="43.63868" lon="3.80728">
        <ele>93.5</ele>
        <time>2015-11-18T11:41:49Z</time>
      </trkpt>
      <trkpt lat="43.63867" lon="3.8073">
        <ele>93.5</ele>
        <time>2015-11-18T11:41:50Z</time>
      </trkpt>
      <trkpt lat="43.63866" lon="3.80732">
        <ele>93.5</ele>
        <time>2015-11-18T11:41:51Z</time>
      </trkpt>
      <trkpt lat="43.63865" lon="3.80733">
        <ele>93.5</ele>
        <time>2015-11-18T11:41:52Z</time>
      </trkpt>
      <trkpt lat="43.63864" lon="3.80734">
        <ele>93.5</ele>
        <time>2015-11-18T11:41:53Z</time>
      </trkpt>
      <trkpt lat="43.63863" lon="3.80734">
        <ele>92.5</ele>
        <time>2015-11-18T11:41:54Z</time>
      </trkpt>
      <trkpt lat="43.63863" lon="3.80735">
        <ele>92.5</ele>
        <time>2015-11-18T11:41:55Z</time>
      </trkpt>
      <trkpt lat="43.63862" lon="3.80736">
        <ele>93</ele>
        <time>2015-11-18T11:41:56Z</time>
      </trkpt>
      <trkpt lat="43.63857" lon="3.80744">
        <ele>95.5</ele>
        <time>2015-11-18T11:41:58Z</time>
      </trkpt>
      <trkpt lat="43.63855" lon="3.80747">
        <ele>98</ele>
        <time>2015-11-18T11:42:00Z</time>
      </trkpt>
      <trkpt lat="43.63853" lon="3.80748">
        <ele>98</ele>
        <time>2015-11-18T11:42:01Z</time>
      </trkpt>
      <trkpt lat="43.63852" lon="3.80748">
        <ele>98.5</ele>
        <time>2015-11-18T11:42:02Z</time>
      </trkpt>
      <trkpt lat="43.63852" lon="3.80748">
        <ele>98.5</ele>
        <time>2015-11-18T11:42:03Z</time>
      </trkpt>
      <trkpt lat="43.63851" lon="3.80746">
        <ele>98</ele>
        <time>2015-11-18T11:42:04Z</time>
      </trkpt>
      <trkpt lat="43.6385" lon="3.80746">
        <ele>98</ele>
        <time>2015-11-18T11:42:05Z</time>
      </trkpt>
      <trkpt lat="43.63849" lon="3.80745">
        <ele>99</ele>
        <time>2015-11-18T11:42:06Z</time>
      </trkpt>
      <trkpt lat="43.63848" lon="3.80746">
        <ele>99.5</ele>
        <time>2015-11-18T11:42:07Z</time>
      </trkpt>
      <trkpt lat="43.63849" lon="3.80746">
        <ele>98</ele>
        <time>2015-11-18T11:42:08Z</time>
      </trkpt>
      <trkpt lat="43.63849" lon="3.80746">
        <ele>98</ele>
        <time>2015-11-18T11:42:09Z</time>
      </trkpt>
      <trkpt lat="43.63848" lon="3.80745">
        <ele>98</ele>
        <time>2015-11-18T11:42:10Z</time>
      </trkpt>
      <trkpt lat="43.63847" lon="3.80745">
        <ele>98.5</ele>
        <time>2015-11-18T11:42:11Z</time>
      </trkpt>
      <trkpt lat="43.63846" lon="3.80745">
        <ele>99.5</ele>
        <time>2015-11-18T11:42:12Z</time>
      </trkpt>
      <trkpt lat="43.63845" lon="3.80744">
        <ele>99.5</ele>
        <time>2015-11-18T11:42:13Z</time>
      </trkpt>
      <trkpt lat="43.63843" lon="3.80744">
        <ele>100</ele>
        <time>2015-11-18T11:42:14Z</time>
      </trkpt>
      <trkpt lat="43.6384" lon="3.80744">
        <ele>99.5</ele>
        <time>2015-11-18T11:42:15Z</time>
      </trkpt>
      <trkpt lat="43.63839" lon="3.80742">
        <ele>100.5</ele>
        <time>2015-11-18T11:42:16Z</time>
      </trkpt>
      <trkpt lat="43.63837" lon="3.80742">
        <ele>100</ele>
        <time>2015-11-18T11:42:17Z</time>
      </trkpt>
      <trkpt lat="43.63835" lon="3.80742">
        <ele>99.5</ele>
        <time>2015-11-18T11:42:18Z</time>
      </trkpt>
      <trkpt lat="43.63833" lon="3.80743">
        <ele>99</ele>
        <time>2015-11-18T11:42:19Z</time>
      </trkpt>
      <trkpt lat="43.63832" lon="3.8074">
        <ele>97.5</ele>
        <time>2015-11-18T11:42:20Z</time>
      </trkpt>
      <trkpt lat="43.63829" lon="3.80741">
        <ele>97.5</ele>
        <time>2015-11-18T11:42:21Z</time>
      </trkpt>
      <trkpt lat="43.63826" lon="3.80742">
        <ele>98</ele>
        <time>2015-11-18T11:42:22Z</time>
      </trkpt>
      <trkpt lat="43.63824" lon="3.80742">
        <ele>98</ele>
        <time>2015-11-18T11:42:23Z</time>
      </trkpt>
      <trkpt lat="43.63821" lon="3.80743">
        <ele>97.5</ele>
        <time>2015-11-18T11:42:24Z</time>
      </trkpt>
      <trkpt lat="43.63818" lon="3.80745">
        <ele>98</ele>
        <time>2015-11-18T11:42:25Z</time>
      </trkpt>
      <trkpt lat="43.63815" lon="3.80746">
        <ele>98.5</ele>
        <time>2015-11-18T11:42:26Z</time>
      </trkpt>
      <trkpt lat="43.63812" lon="3.80748">
        <ele>98.5</ele>
        <time>2015-11-18T11:42:27Z</time>
      </trkpt>
      <trkpt lat="43.63809" lon="3.80749">
        <ele>98.5</ele>
        <time>2015-11-18T11:42:28Z</time>
      </trkpt>
      <trkpt lat="43.63806" lon="3.80749">
        <ele>99</ele>
        <time>2015-11-18T11:42:29Z</time>
      </trkpt>
      <trkpt lat="43.63803" lon="3.8075">
        <ele>99</ele>
        <time>2015-11-18T11:42:30Z</time>
      </trkpt>
      <trkpt lat="43.638" lon="3.8075">
        <ele>99.5</ele>
        <time>2015-11-18T11:42:31Z</time>
      </trkpt>
      <trkpt lat="43.63797" lon="3.8075">
        <ele>99.5</ele>
        <time>2015-11-18T11:42:32Z</time>
      </trkpt>
      <trkpt lat="43.63794" lon="3.8075">
        <ele>99.5</ele>
        <time>2015-11-18T11:42:33Z</time>
      </trkpt>
      <trkpt lat="43.63791" lon="3.8075">
        <ele>100</ele>
        <time>2015-11-18T11:42:34Z</time>
      </trkpt>
      <trkpt lat="43.63787" lon="3.8075">
        <ele>100</ele>
        <time>2015-11-18T11:42:35Z</time>
      </trkpt>
      <trkpt lat="43.63784" lon="3.80752">
        <ele>101</ele>
        <time>2015-11-18T11:42:36Z</time>
      </trkpt>
      <trkpt lat="43.63781" lon="3.80752">
        <ele>101</ele>
        <time>2015-11-18T11:42:37Z</time>
      </trkpt>
      <trkpt lat="43.63778" lon="3.80753">
        <ele>101.5</ele>
        <time>2015-11-18T11:42:38Z</time>
      </trkpt>
      <trkpt lat="43.63774" lon="3.80754">
        <ele>102.5</ele>
        <time>2015-11-18T11:42:39Z</time>
      </trkpt>
      <trkpt lat="43.63771" lon="3.80753">
        <ele>101</ele>
        <time>2015-11-18T11:42:40Z</time>
      </trkpt>
      <trkpt lat="43.63768" lon="3.80755">
        <ele>102.5</ele>
        <time>2015-11-18T11:42:41Z</time>
      </trkpt>
      <trkpt lat="43.63763" lon="3.80757">
        <ele>103</ele>
        <time>2015-11-18T11:42:42Z</time>
      </trkpt>
      <trkpt lat="43.63759" lon="3.80758">
        <ele>103.5</ele>
        <time>2015-11-18T11:42:43Z</time>
      </trkpt>
      <trkpt lat="43.63755" lon="3.80758">
        <ele>104</ele>
        <time>2015-11-18T11:42:44Z</time>
      </trkpt>
      <trkpt lat="43.63751" lon="3.80758">
        <ele>104</ele>
        <time>2015-11-18T11:42:45Z</time>
      </trkpt>
      <trkpt lat="43.63747" lon="3.80758">
        <ele>104.5</ele>
        <time>2015-11-18T11:42:46Z</time>
      </trkpt>
      <trkpt lat="43.63742" lon="3.80758">
        <ele>105.5</ele>
        <time>2015-11-18T11:42:47Z</time>
      </trkpt>
      <trkpt lat="43.63738" lon="3.80757">
        <ele>105.5</ele>
        <time>2015-11-18T11:42:48Z</time>
      </trkpt>
      <trkpt lat="43.63733" lon="3.80756">
        <ele>106</ele>
        <time>2015-11-18T11:42:49Z</time>
      </trkpt>
      <trkpt lat="43.63729" lon="3.80755">
        <ele>106</ele>
        <time>2015-11-18T11:42:50Z</time>
      </trkpt>
      <trkpt lat="43.63721" lon="3.80754">
        <ele>106</ele>
        <time>2015-11-18T11:42:52Z</time>
      </trkpt>
      <trkpt lat="43.63717" lon="3.80754">
        <ele>106</ele>
        <time>2015-11-18T11:42:53Z</time>
      </trkpt>
      <trkpt lat="43.63712" lon="3.80754">
        <ele>106</ele>
        <time>2015-11-18T11:42:54Z</time>
      </trkpt>
      <trkpt lat="43.63704" lon="3.80753">
        <ele>107</ele>
        <time>2015-11-18T11:42:56Z</time>
      </trkpt>
      <trkpt lat="43.637" lon="3.80751">
        <ele>107</ele>
        <time>2015-11-18T11:42:57Z</time>
      </trkpt>
      <trkpt lat="43.63696" lon="3.80749">
        <ele>107</ele>
        <time>2015-11-18T11:42:58Z</time>
      </trkpt>
      <trkpt lat="43.63692" lon="3.80748">
        <ele>107</ele>
        <time>2015-11-18T11:42:59Z</time>
      </trkpt>
      <trkpt lat="43.63687" lon="3.80746">
        <ele>107.5</ele>
        <time>2015-11-18T11:43:00Z</time>
      </trkpt>
      <trkpt lat="43.63683" lon="3.80745">
        <ele>107.5</ele>
        <time>2015-11-18T11:43:01Z</time>
      </trkpt>
      <trkpt lat="43.63679" lon="3.80744">
        <ele>107</ele>
        <time>2015-11-18T11:43:02Z</time>
      </trkpt>
      <trkpt lat="43.63675" lon="3.80742">
        <ele>106.5</ele>
        <time>2015-11-18T11:43:03Z</time>
      </trkpt>
      <trkpt lat="43.63671" lon="3.80743">
        <ele>107</ele>
        <time>2015-11-18T11:43:04Z</time>
      </trkpt>
      <trkpt lat="43.63666" lon="3.80744">
        <ele>106.5</ele>
        <time>2015-11-18T11:43:05Z</time>
      </trkpt>
      <trkpt lat="43.63662" lon="3.80744">
        <ele>106.5</ele>
        <time>2015-11-18T11:43:06Z</time>
      </trkpt>
      <trkpt lat="43.63657" lon="3.80743">
        <ele>106.5</ele>
        <time>2015-11-18T11:43:07Z</time>
      </trkpt>
      <trkpt lat="43.63653" lon="3.80742">
        <ele>106.5</ele>
        <time>2015-11-18T11:43:08Z</time>
      </trkpt>
      <trkpt lat="43.63648" lon="3.80741">
        <ele>106.5</ele>
        <time>2015-11-18T11:43:09Z</time>
      </trkpt>
      <trkpt lat="43.63643" lon="3.80741">
        <ele>106.5</ele>
        <time>2015-11-18T11:43:10Z</time>
      </trkpt>
      <trkpt lat="43.63639" lon="3.80741">
        <ele>107</ele>
        <time>2015-11-18T11:43:11Z</time>
      </trkpt>
      <trkpt lat="43.63634" lon="3.8074">
        <ele>107</ele>
        <time>2015-11-18T11:43:12Z</time>
      </trkpt>
      <trkpt lat="43.6363" lon="3.80739">
        <ele>106.5</ele>
        <time>2015-11-18T11:43:13Z</time>
      </trkpt>
      <trkpt lat="43.63626" lon="3.80737">
        <ele>106.5</ele>
        <time>2015-11-18T11:43:14Z</time>
      </trkpt>
      <trkpt lat="43.63621" lon="3.80736">
        <ele>106.5</ele>
        <time>2015-11-18T11:43:15Z</time>
      </trkpt>
      <trkpt lat="43.63611" lon="3.80732">
        <ele>107</ele>
        <time>2015-11-18T11:43:17Z</time>
      </trkpt>
      <trkpt lat="43.63607" lon="3.80731">
        <ele>107</ele>
        <time>2015-11-18T11:43:18Z</time>
      </trkpt>
      <trkpt lat="43.63601" lon="3.80731">
        <ele>107.5</ele>
        <time>2015-11-18T11:43:19Z</time>
      </trkpt>
      <trkpt lat="43.63597" lon="3.8073">
        <ele>107.5</ele>
        <time>2015-11-18T11:43:20Z</time>
      </trkpt>
      <trkpt lat="43.63592" lon="3.80729">
        <ele>107.5</ele>
        <time>2015-11-18T11:43:21Z</time>
      </trkpt>
      <trkpt lat="43.63587" lon="3.80728">
        <ele>108</ele>
        <time>2015-11-18T11:43:22Z</time>
      </trkpt>
      <trkpt lat="43.63583" lon="3.80727">
        <ele>108</ele>
        <time>2015-11-18T11:43:23Z</time>
      </trkpt>
      <trkpt lat="43.63578" lon="3.80726">
        <ele>109</ele>
        <time>2015-11-18T11:43:24Z</time>
      </trkpt>
      <trkpt lat="43.63573" lon="3.80726">
        <ele>109</ele>
        <time>2015-11-18T11:43:25Z</time>
      </trkpt>
      <trkpt lat="43.63568" lon="3.80725">
        <ele>109</ele>
        <time>2015-11-18T11:43:26Z</time>
      </trkpt>
      <trkpt lat="43.63562" lon="3.80724">
        <ele>109</ele>
        <time>2015-11-18T11:43:27Z</time>
      </trkpt>
      <trkpt lat="43.63556" lon="3.80724">
        <ele>109.5</ele>
        <time>2015-11-18T11:43:27Z</time>
      </trkpt>
      <trkpt lat="43.6355" lon="3.80725">
        <ele>110</ele>
        <time>2015-11-18T11:43:28Z</time>
      </trkpt>
      <trkpt lat="43.63544" lon="3.80721">
        <ele>109</ele>
        <time>2015-11-18T11:43:29Z</time>
      </trkpt>
      <trkpt lat="43.63537" lon="3.80723">
        <ele>110</ele>
        <time>2015-11-18T11:43:30Z</time>
      </trkpt>
      <trkpt lat="43.6353" lon="3.80721">
        <ele>110</ele>
        <time>2015-11-18T11:43:31Z</time>
      </trkpt>
      <trkpt lat="43.63523" lon="3.80719">
        <ele>110.5</ele>
        <time>2015-11-18T11:43:32Z</time>
      </trkpt>
      <trkpt lat="43.63517" lon="3.80715">
        <ele>109</ele>
        <time>2015-11-18T11:43:33Z</time>
      </trkpt>
      <trkpt lat="43.63511" lon="3.80712">
        <ele>109.5</ele>
        <time>2015-11-18T11:43:34Z</time>
      </trkpt>
      <trkpt lat="43.63506" lon="3.80708">
        <ele>109.5</ele>
        <time>2015-11-18T11:43:35Z</time>
      </trkpt>
      <trkpt lat="43.635" lon="3.80703">
        <ele>109</ele>
        <time>2015-11-18T11:43:36Z</time>
      </trkpt>
      <trkpt lat="43.63495" lon="3.807">
        <ele>109</ele>
        <time>2015-11-18T11:43:37Z</time>
      </trkpt>
      <trkpt lat="43.6349" lon="3.80696">
        <ele>109.5</ele>
        <time>2015-11-18T11:43:39Z</time>
      </trkpt>
      <trkpt lat="43.63485" lon="3.80693">
        <ele>109.5</ele>
        <time>2015-11-18T11:43:39Z</time>
      </trkpt>
      <trkpt lat="43.6348" lon="3.8069">
        <ele>110.5</ele>
        <time>2015-11-18T11:43:40Z</time>
      </trkpt>
      <trkpt lat="43.63477" lon="3.80688">
        <ele>109.5</ele>
        <time>2015-11-18T11:43:41Z</time>
      </trkpt>
      <trkpt lat="43.63473" lon="3.80686">
        <ele>109</ele>
        <time>2015-11-18T11:43:42Z</time>
      </trkpt>
      <trkpt lat="43.6347" lon="3.80684">
        <ele>108.5</ele>
        <time>2015-11-18T11:43:43Z</time>
      </trkpt>
      <trkpt lat="43.63467" lon="3.80681">
        <ele>108</ele>
        <time>2015-11-18T11:43:44Z</time>
      </trkpt>
      <trkpt lat="43.63465" lon="3.80679">
        <ele>108</ele>
        <time>2015-11-18T11:43:45Z</time>
      </trkpt>
      <trkpt lat="43.63464" lon="3.80678">
        <ele>108</ele>
        <time>2015-11-18T11:43:46Z</time>
      </trkpt>
      <trkpt lat="43.63462" lon="3.80677">
        <ele>108.5</ele>
        <time>2015-11-18T11:43:47Z</time>
      </trkpt>
      <trkpt lat="43.63461" lon="3.80677">
        <ele>109</ele>
        <time>2015-11-18T11:43:48Z</time>
      </trkpt>
      <trkpt lat="43.6346" lon="3.80677">
        <ele>109</ele>
        <time>2015-11-18T11:43:49Z</time>
      </trkpt>
      <trkpt lat="43.63459" lon="3.80677">
        <ele>109</ele>
        <time>2015-11-18T11:43:50Z</time>
      </trkpt>
      <trkpt lat="43.63457" lon="3.80676">
        <ele>109</ele>
        <time>2015-11-18T11:43:51Z</time>
      </trkpt>
      <trkpt lat="43.63457" lon="3.80675">
        <ele>108.5</ele>
        <time>2015-11-18T11:43:52Z</time>
      </trkpt>
      <trkpt lat="43.63455" lon="3.80674">
        <ele>108.5</ele>
        <time>2015-11-18T11:43:53Z</time>
      </trkpt>
      <trkpt lat="43.63453" lon="3.80673">
        <ele>109</ele>
        <time>2015-11-18T11:43:54Z</time>
      </trkpt>
      <trkpt lat="43.63451" lon="3.80674">
        <ele>109.5</ele>
        <time>2015-11-18T11:43:55Z</time>
      </trkpt>
      <trkpt lat="43.63449" lon="3.80674">
        <ele>110.5</ele>
        <time>2015-11-18T11:43:56Z</time>
      </trkpt>
      <trkpt lat="43.63447" lon="3.80675">
        <ele>110.5</ele>
        <time>2015-11-18T11:43:57Z</time>
      </trkpt>
      <trkpt lat="43.63445" lon="3.80676">
        <ele>111.5</ele>
        <time>2015-11-18T11:43:58Z</time>
      </trkpt>
      <trkpt lat="43.63442" lon="3.80677">
        <ele>112</ele>
        <time>2015-11-18T11:43:59Z</time>
      </trkpt>
      <trkpt lat="43.63439" lon="3.80677">
        <ele>112.5</ele>
        <time>2015-11-18T11:44:00Z</time>
      </trkpt>
      <trkpt lat="43.63436" lon="3.80678">
        <ele>112.5</ele>
        <time>2015-11-18T11:44:01Z</time>
      </trkpt>
      <trkpt lat="43.63432" lon="3.80678">
        <ele>112</ele>
        <time>2015-11-18T11:44:02Z</time>
      </trkpt>
      <trkpt lat="43.63428" lon="3.80677">
        <ele>111.5</ele>
        <time>2015-11-18T11:44:03Z</time>
      </trkpt>
      <trkpt lat="43.63424" lon="3.80676">
        <ele>111</ele>
        <time>2015-11-18T11:44:04Z</time>
      </trkpt>
      <trkpt lat="43.6342" lon="3.80675">
        <ele>111</ele>
        <time>2015-11-18T11:44:05Z</time>
      </trkpt>
      <trkpt lat="43.63417" lon="3.80671">
        <ele>111</ele>
        <time>2015-11-18T11:44:06Z</time>
      </trkpt>
      <trkpt lat="43.63414" lon="3.80668">
        <ele>111</ele>
        <time>2015-11-18T11:44:07Z</time>
      </trkpt>
      <trkpt lat="43.63411" lon="3.80666">
        <ele>110</ele>
        <time>2015-11-18T11:44:08Z</time>
      </trkpt>
      <trkpt lat="43.63409" lon="3.80664">
        <ele>109.5</ele>
        <time>2015-11-18T11:44:09Z</time>
      </trkpt>
      <trkpt lat="43.63406" lon="3.80662">
        <ele>108</ele>
        <time>2015-11-18T11:44:10Z</time>
      </trkpt>
      <trkpt lat="43.63403" lon="3.80661">
        <ele>108</ele>
        <time>2015-11-18T11:44:11Z</time>
      </trkpt>
      <trkpt lat="43.63399" lon="3.8066">
        <ele>108</ele>
        <time>2015-11-18T11:44:12Z</time>
      </trkpt>
      <trkpt lat="43.63397" lon="3.80658">
        <ele>108</ele>
        <time>2015-11-18T11:44:13Z</time>
      </trkpt>
      <trkpt lat="43.63394" lon="3.80657">
        <ele>108</ele>
        <time>2015-11-18T11:44:14Z</time>
      </trkpt>
      <trkpt lat="43.63391" lon="3.80658">
        <ele>108.5</ele>
        <time>2015-11-18T11:44:15Z</time>
      </trkpt>
      <trkpt lat="43.63389" lon="3.80657">
        <ele>108</ele>
        <time>2015-11-18T11:44:16Z</time>
      </trkpt>
      <trkpt lat="43.63386" lon="3.80655">
        <ele>107</ele>
        <time>2015-11-18T11:44:17Z</time>
      </trkpt>
      <trkpt lat="43.63384" lon="3.80654">
        <ele>106</ele>
        <time>2015-11-18T11:44:18Z</time>
      </trkpt>
      <trkpt lat="43.63381" lon="3.80657">
        <ele>108</ele>
        <time>2015-11-18T11:44:19Z</time>
      </trkpt>
      <trkpt lat="43.63378" lon="3.80659">
        <ele>109</ele>
        <time>2015-11-18T11:44:20Z</time>
      </trkpt>
      <trkpt lat="43.63375" lon="3.80662">
        <ele>110.5</ele>
        <time>2015-11-18T11:44:21Z</time>
      </trkpt>
      <trkpt lat="43.63373" lon="3.80662">
        <ele>111</ele>
        <time>2015-11-18T11:44:22Z</time>
      </trkpt>
      <trkpt lat="43.63371" lon="3.80663">
        <ele>111.5</ele>
        <time>2015-11-18T11:44:23Z</time>
      </trkpt>
      <trkpt lat="43.6337" lon="3.80663">
        <ele>111.5</ele>
        <time>2015-11-18T11:44:24Z</time>
      </trkpt>
      <trkpt lat="43.63368" lon="3.80663">
        <ele>111</ele>
        <time>2015-11-18T11:44:25Z</time>
      </trkpt>
      <trkpt lat="43.63367" lon="3.80663">
        <ele>111</ele>
        <time>2015-11-18T11:44:26Z</time>
      </trkpt>
      <trkpt lat="43.63365" lon="3.80662">
        <ele>111</ele>
        <time>2015-11-18T11:44:27Z</time>
      </trkpt>
      <trkpt lat="43.63364" lon="3.80663">
        <ele>111.5</ele>
        <time>2015-11-18T11:44:28Z</time>
      </trkpt>
      <trkpt lat="43.63362" lon="3.80664">
        <ele>112</ele>
        <time>2015-11-18T11:44:29Z</time>
      </trkpt>
      <trkpt lat="43.6336" lon="3.80665">
        <ele>112.5</ele>
        <time>2015-11-18T11:44:30Z</time>
      </trkpt>
      <trkpt lat="43.63358" lon="3.80665">
        <ele>112.5</ele>
        <time>2015-11-18T11:44:31Z</time>
      </trkpt>
      <trkpt lat="43.63356" lon="3.80665">
        <ele>112.5</ele>
        <time>2015-11-18T11:44:32Z</time>
      </trkpt>
      <trkpt lat="43.63355" lon="3.80664">
        <ele>112</ele>
        <time>2015-11-18T11:44:33Z</time>
      </trkpt>
      <trkpt lat="43.63353" lon="3.80664">
        <ele>112.5</ele>
        <time>2015-11-18T11:44:34Z</time>
      </trkpt>
      <trkpt lat="43.63352" lon="3.80665">
        <ele>112.5</ele>
        <time>2015-11-18T11:44:35Z</time>
      </trkpt>
      <trkpt lat="43.63351" lon="3.80665">
        <ele>112.5</ele>
        <time>2015-11-18T11:44:36Z</time>
      </trkpt>
      <trkpt lat="43.63349" lon="3.80665">
        <ele>113</ele>
        <time>2015-11-18T11:44:37Z</time>
      </trkpt>
      <trkpt lat="43.63347" lon="3.80665">
        <ele>113</ele>
        <time>2015-11-18T11:44:38Z</time>
      </trkpt>
      <trkpt lat="43.63345" lon="3.80664">
        <ele>113</ele>
        <time>2015-11-18T11:44:39Z</time>
      </trkpt>
      <trkpt lat="43.63344" lon="3.80664">
        <ele>113</ele>
        <time>2015-11-18T11:44:40Z</time>
      </trkpt>
      <trkpt lat="43.63342" lon="3.80661">
        <ele>112</ele>
        <time>2015-11-18T11:44:41Z</time>
      </trkpt>
      <trkpt lat="43.6334" lon="3.80662">
        <ele>113</ele>
        <time>2015-11-18T11:44:42Z</time>
      </trkpt>
      <trkpt lat="43.63338" lon="3.80663">
        <ele>113.5</ele>
        <time>2015-11-18T11:44:43Z</time>
      </trkpt>
      <trkpt lat="43.63336" lon="3.80664">
        <ele>114</ele>
        <time>2015-11-18T11:44:44Z</time>
      </trkpt>
      <trkpt lat="43.63335" lon="3.80664">
        <ele>114</ele>
        <time>2015-11-18T11:44:45Z</time>
      </trkpt>
      <trkpt lat="43.63334" lon="3.80664">
        <ele>113.5</ele>
        <time>2015-11-18T11:44:46Z</time>
      </trkpt>
      <trkpt lat="43.63333" lon="3.80665">
        <ele>114</ele>
        <time>2015-11-18T11:44:47Z</time>
      </trkpt>
      <trkpt lat="43.63332" lon="3.80664">
        <ele>113.5</ele>
        <time>2015-11-18T11:44:48Z</time>
      </trkpt>
      <trkpt lat="43.63331" lon="3.80665">
        <ele>113.5</ele>
        <time>2015-11-18T11:44:49Z</time>
      </trkpt>
      <trkpt lat="43.63332" lon="3.80665">
        <ele>115</ele>
        <time>2015-11-18T11:44:50Z</time>
      </trkpt>
      <trkpt lat="43.63331" lon="3.80665">
        <ele>116.5</ele>
        <time>2015-11-18T11:44:51Z</time>
      </trkpt>
      <trkpt lat="43.6333" lon="3.80666">
        <ele>117</ele>
        <time>2015-11-18T11:44:52Z</time>
      </trkpt>
      <trkpt lat="43.63329" lon="3.80668">
        <ele>117.5</ele>
        <time>2015-11-18T11:44:53Z</time>
      </trkpt>
      <trkpt lat="43.63327" lon="3.80669">
        <ele>116.5</ele>
        <time>2015-11-18T11:44:54Z</time>
      </trkpt>
      <trkpt lat="43.63326" lon="3.80671">
        <ele>118.5</ele>
        <time>2015-11-18T11:44:55Z</time>
      </trkpt>
      <trkpt lat="43.63325" lon="3.80672">
        <ele>119</ele>
        <time>2015-11-18T11:44:56Z</time>
      </trkpt>
      <trkpt lat="43.63324" lon="3.80675">
        <ele>120.5</ele>
        <time>2015-11-18T11:44:57Z</time>
      </trkpt>
      <trkpt lat="43.63322" lon="3.80675">
        <ele>120</ele>
        <time>2015-11-18T11:44:58Z</time>
      </trkpt>
      <trkpt lat="43.6332" lon="3.80677">
        <ele>120</ele>
        <time>2015-11-18T11:44:59Z</time>
      </trkpt>
      <trkpt lat="43.63318" lon="3.80679">
        <ele>120</ele>
        <time>2015-11-18T11:45:00Z</time>
      </trkpt>
      <trkpt lat="43.63317" lon="3.80682">
        <ele>121.5</ele>
        <time>2015-11-18T11:45:01Z</time>
      </trkpt>
      <trkpt lat="43.63315" lon="3.80683">
        <ele>122.5</ele>
        <time>2015-11-18T11:45:02Z</time>
      </trkpt>
      <trkpt lat="43.63313" lon="3.80685">
        <ele>122.5</ele>
        <time>2015-11-18T11:45:03Z</time>
      </trkpt>
      <trkpt lat="43.63312" lon="3.80687">
        <ele>123.5</ele>
        <time>2015-11-18T11:45:04Z</time>
      </trkpt>
      <trkpt lat="43.63311" lon="3.8069">
        <ele>124</ele>
        <time>2015-11-18T11:45:05Z</time>
      </trkpt>
      <trkpt lat="43.63309" lon="3.80692">
        <ele>124.5</ele>
        <time>2015-11-18T11:45:06Z</time>
      </trkpt>
      <trkpt lat="43.63308" lon="3.80694">
        <ele>124.5</ele>
        <time>2015-11-18T11:45:07Z</time>
      </trkpt>
      <trkpt lat="43.63306" lon="3.80696">
        <ele>124.5</ele>
        <time>2015-11-18T11:45:08Z</time>
      </trkpt>
      <trkpt lat="43.63305" lon="3.80699">
        <ele>125.5</ele>
        <time>2015-11-18T11:45:09Z</time>
      </trkpt>
      <trkpt lat="43.63303" lon="3.80703">
        <ele>126</ele>
        <time>2015-11-18T11:45:10Z</time>
      </trkpt>
      <trkpt lat="43.63301" lon="3.80706">
        <ele>126.5</ele>
        <time>2015-11-18T11:45:11Z</time>
      </trkpt>
      <trkpt lat="43.63299" lon="3.80709">
        <ele>127</ele>
        <time>2015-11-18T11:45:12Z</time>
      </trkpt>
      <trkpt lat="43.63297" lon="3.80712">
        <ele>128</ele>
        <time>2015-11-18T11:45:13Z</time>
      </trkpt>
      <trkpt lat="43.63296" lon="3.80715">
        <ele>128.5</ele>
        <time>2015-11-18T11:45:14Z</time>
      </trkpt>
      <trkpt lat="43.63294" lon="3.80718">
        <ele>129</ele>
        <time>2015-11-18T11:45:15Z</time>
      </trkpt>
      <trkpt lat="43.63292" lon="3.80721">
        <ele>129</ele>
        <time>2015-11-18T11:45:16Z</time>
      </trkpt>
      <trkpt lat="43.6329" lon="3.80723">
        <ele>129.5</ele>
        <time>2015-11-18T11:45:17Z</time>
      </trkpt>
      <trkpt lat="43.63287" lon="3.80724">
        <ele>130</ele>
        <time>2015-11-18T11:45:18Z</time>
      </trkpt>
      <trkpt lat="43.63284" lon="3.80723">
        <ele>129.5</ele>
        <time>2015-11-18T11:45:19Z</time>
      </trkpt>
      <trkpt lat="43.6328" lon="3.80722">
        <ele>128</ele>
        <time>2015-11-18T11:45:20Z</time>
      </trkpt>
      <trkpt lat="43.63277" lon="3.80721">
        <ele>128</ele>
        <time>2015-11-18T11:45:21Z</time>
      </trkpt>
      <trkpt lat="43.63275" lon="3.80718">
        <ele>127.5</ele>
        <time>2015-11-18T11:45:22Z</time>
      </trkpt>
      <trkpt lat="43.63272" lon="3.80717">
        <ele>127</ele>
        <time>2015-11-18T11:45:23Z</time>
      </trkpt>
      <trkpt lat="43.6327" lon="3.80715">
        <ele>127</ele>
        <time>2015-11-18T11:45:24Z</time>
      </trkpt>
      <trkpt lat="43.63268" lon="3.80718">
        <ele>128.5</ele>
        <time>2015-11-18T11:45:25Z</time>
      </trkpt>
      <trkpt lat="43.63267" lon="3.80715">
        <ele>128</ele>
        <time>2015-11-18T11:45:26Z</time>
      </trkpt>
      <trkpt lat="43.63266" lon="3.80715">
        <ele>129</ele>
        <time>2015-11-18T11:45:27Z</time>
      </trkpt>
      <trkpt lat="43.63266" lon="3.80713">
        <ele>129.5</ele>
        <time>2015-11-18T11:45:28Z</time>
      </trkpt>
      <trkpt lat="43.63266" lon="3.80712">
        <ele>129.5</ele>
        <time>2015-11-18T11:45:29Z</time>
      </trkpt>
      <trkpt lat="43.63266" lon="3.80709">
        <ele>129.5</ele>
        <time>2015-11-18T11:45:30Z</time>
      </trkpt>
      <trkpt lat="43.63266" lon="3.80708">
        <ele>129.5</ele>
        <time>2015-11-18T11:45:31Z</time>
      </trkpt>
      <trkpt lat="43.63266" lon="3.80706">
        <ele>129.5</ele>
        <time>2015-11-18T11:45:32Z</time>
      </trkpt>
      <trkpt lat="43.63267" lon="3.80703">
        <ele>130</ele>
        <time>2015-11-18T11:45:33Z</time>
      </trkpt>
      <trkpt lat="43.63268" lon="3.80699">
        <ele>130</ele>
        <time>2015-11-18T11:45:34Z</time>
      </trkpt>
      <trkpt lat="43.63269" lon="3.80697">
        <ele>130</ele>
        <time>2015-11-18T11:45:35Z</time>
      </trkpt>
      <trkpt lat="43.6327" lon="3.80694">
        <ele>130</ele>
        <time>2015-11-18T11:45:36Z</time>
      </trkpt>
      <trkpt lat="43.63271" lon="3.80691">
        <ele>130</ele>
        <time>2015-11-18T11:45:37Z</time>
      </trkpt>
      <trkpt lat="43.63272" lon="3.80688">
        <ele>130.5</ele>
        <time>2015-11-18T11:45:38Z</time>
      </trkpt>
      <trkpt lat="43.63272" lon="3.80684">
        <ele>131</ele>
        <time>2015-11-18T11:45:39Z</time>
      </trkpt>
      <trkpt lat="43.63275" lon="3.80682">
        <ele>130</ele>
        <time>2015-11-18T11:45:40Z</time>
      </trkpt>
      <trkpt lat="43.63276" lon="3.8068">
        <ele>130</ele>
        <time>2015-11-18T11:45:41Z</time>
      </trkpt>
      <trkpt lat="43.63277" lon="3.80676">
        <ele>130.5</ele>
        <time>2015-11-18T11:45:42Z</time>
      </trkpt>
      <trkpt lat="43.63278" lon="3.80673">
        <ele>130</ele>
        <time>2015-11-18T11:45:43Z</time>
      </trkpt>
      <trkpt lat="43.63279" lon="3.8067">
        <ele>130.5</ele>
        <time>2015-11-18T11:45:44Z</time>
      </trkpt>
      <trkpt lat="43.6328" lon="3.80667">
        <ele>130.5</ele>
        <time>2015-11-18T11:45:45Z</time>
      </trkpt>
      <trkpt lat="43.63281" lon="3.80664">
        <ele>131</ele>
        <time>2015-11-18T11:45:46Z</time>
      </trkpt>
      <trkpt lat="43.63281" lon="3.80659">
        <ele>130.5</ele>
        <time>2015-11-18T11:45:47Z</time>
      </trkpt>
      <trkpt lat="43.63282" lon="3.80656">
        <ele>130.5</ele>
        <time>2015-11-18T11:45:48Z</time>
      </trkpt>
      <trkpt lat="43.63283" lon="3.80653">
        <ele>131</ele>
        <time>2015-11-18T11:45:49Z</time>
      </trkpt>
      <trkpt lat="43.63283" lon="3.80649">
        <ele>131</ele>
        <time>2015-11-18T11:45:50Z</time>
      </trkpt>
      <trkpt lat="43.63284" lon="3.80645">
        <ele>131.5</ele>
        <time>2015-11-18T11:45:51Z</time>
      </trkpt>
      <trkpt lat="43.63284" lon="3.8064">
        <ele>132</ele>
        <time>2015-11-18T11:45:52Z</time>
      </trkpt>
      <trkpt lat="43.63285" lon="3.80636">
        <ele>132.5</ele>
        <time>2015-11-18T11:45:53Z</time>
      </trkpt>
      <trkpt lat="43.63284" lon="3.80631">
        <ele>133</ele>
        <time>2015-11-18T11:45:54Z</time>
      </trkpt>
      <trkpt lat="43.63284" lon="3.80626">
        <ele>133.5</ele>
        <time>2015-11-18T11:45:55Z</time>
      </trkpt>
      <trkpt lat="43.63285" lon="3.80623">
        <ele>134.5</ele>
        <time>2015-11-18T11:45:56Z</time>
      </trkpt>
      <trkpt lat="43.63286" lon="3.8062">
        <ele>134.5</ele>
        <time>2015-11-18T11:45:57Z</time>
      </trkpt>
      <trkpt lat="43.63288" lon="3.80617">
        <ele>135</ele>
        <time>2015-11-18T11:45:58Z</time>
      </trkpt>
      <trkpt lat="43.63289" lon="3.80613">
        <ele>135</ele>
        <time>2015-11-18T11:45:59Z</time>
      </trkpt>
      <trkpt lat="43.6329" lon="3.8061">
        <ele>135.5</ele>
        <time>2015-11-18T11:46:00Z</time>
      </trkpt>
      <trkpt lat="43.63292" lon="3.80608">
        <ele>136</ele>
        <time>2015-11-18T11:46:01Z</time>
      </trkpt>
      <trkpt lat="43.63293" lon="3.80605">
        <ele>136</ele>
        <time>2015-11-18T11:46:02Z</time>
      </trkpt>
      <trkpt lat="43.63294" lon="3.806">
        <ele>134.5</ele>
        <time>2015-11-18T11:46:03Z</time>
      </trkpt>
      <trkpt lat="43.63294" lon="3.80594">
        <ele>133.5</ele>
        <time>2015-11-18T11:46:04Z</time>
      </trkpt>
      <trkpt lat="43.63297" lon="3.8059">
        <ele>135.5</ele>
        <time>2015-11-18T11:46:06Z</time>
      </trkpt>
      <trkpt lat="43.63298" lon="3.80588">
        <ele>136.5</ele>
        <time>2015-11-18T11:46:07Z</time>
      </trkpt>
      <trkpt lat="43.63299" lon="3.80586">
        <ele>137</ele>
        <time>2015-11-18T11:46:08Z</time>
      </trkpt>
      <trkpt lat="43.633" lon="3.80583">
        <ele>138.5</ele>
        <time>2015-11-18T11:46:09Z</time>
      </trkpt>
      <trkpt lat="43.63301" lon="3.80579">
        <ele>138.5</ele>
        <time>2015-11-18T11:46:10Z</time>
      </trkpt>
      <trkpt lat="43.63301" lon="3.80576">
        <ele>139</ele>
        <time>2015-11-18T11:46:11Z</time>
      </trkpt>
      <trkpt lat="43.63303" lon="3.80574">
        <ele>139</ele>
        <time>2015-11-18T11:46:12Z</time>
      </trkpt>
      <trkpt lat="43.63304" lon="3.80572">
        <ele>140</ele>
        <time>2015-11-18T11:46:13Z</time>
      </trkpt>
      <trkpt lat="43.63305" lon="3.8057">
        <ele>140.5</ele>
        <time>2015-11-18T11:46:14Z</time>
      </trkpt>
      <trkpt lat="43.63306" lon="3.80567">
        <ele>141</ele>
        <time>2015-11-18T11:46:15Z</time>
      </trkpt>
      <trkpt lat="43.63308" lon="3.80564">
        <ele>141</ele>
        <time>2015-11-18T11:46:16Z</time>
      </trkpt>
      <trkpt lat="43.63309" lon="3.80562">
        <ele>140.5</ele>
        <time>2015-11-18T11:46:17Z</time>
      </trkpt>
      <trkpt lat="43.63311" lon="3.8056">
        <ele>140</ele>
        <time>2015-11-18T11:46:18Z</time>
      </trkpt>
      <trkpt lat="43.63313" lon="3.80557">
        <ele>140</ele>
        <time>2015-11-18T11:46:19Z</time>
      </trkpt>
      <trkpt lat="43.63315" lon="3.80555">
        <ele>140</ele>
        <time>2015-11-18T11:46:20Z</time>
      </trkpt>
      <trkpt lat="43.63317" lon="3.80553">
        <ele>139.5</ele>
        <time>2015-11-18T11:46:21Z</time>
      </trkpt>
      <trkpt lat="43.63318" lon="3.80551">
        <ele>139.5</ele>
        <time>2015-11-18T11:46:22Z</time>
      </trkpt>
      <trkpt lat="43.6332" lon="3.8055">
        <ele>139</ele>
        <time>2015-11-18T11:46:23Z</time>
      </trkpt>
      <trkpt lat="43.63322" lon="3.80549">
        <ele>139.5</ele>
        <time>2015-11-18T11:46:24Z</time>
      </trkpt>
      <trkpt lat="43.63324" lon="3.80548">
        <ele>139.5</ele>
        <time>2015-11-18T11:46:25Z</time>
      </trkpt>
      <trkpt lat="43.63326" lon="3.80547">
        <ele>140.5</ele>
        <time>2015-11-18T11:46:26Z</time>
      </trkpt>
      <trkpt lat="43.63328" lon="3.80546">
        <ele>140.5</ele>
        <time>2015-11-18T11:46:27Z</time>
      </trkpt>
      <trkpt lat="43.63331" lon="3.80546">
        <ele>140.5</ele>
        <time>2015-11-18T11:46:28Z</time>
      </trkpt>
      <trkpt lat="43.63333" lon="3.80546">
        <ele>140.5</ele>
        <time>2015-11-18T11:46:29Z</time>
      </trkpt>
      <trkpt lat="43.63335" lon="3.80546">
        <ele>141</ele>
        <time>2015-11-18T11:46:30Z</time>
      </trkpt>
      <trkpt lat="43.63337" lon="3.80547">
        <ele>140.5</ele>
        <time>2015-11-18T11:46:31Z</time>
      </trkpt>
      <trkpt lat="43.6334" lon="3.80547">
        <ele>140.5</ele>
        <time>2015-11-18T11:46:32Z</time>
      </trkpt>
      <trkpt lat="43.63342" lon="3.80548">
        <ele>140.5</ele>
        <time>2015-11-18T11:46:33Z</time>
      </trkpt>
      <trkpt lat="43.63344" lon="3.80548">
        <ele>140.5</ele>
        <time>2015-11-18T11:46:34Z</time>
      </trkpt>
      <trkpt lat="43.63347" lon="3.80548">
        <ele>140</ele>
        <time>2015-11-18T11:46:35Z</time>
      </trkpt>
      <trkpt lat="43.6335" lon="3.80549">
        <ele>140</ele>
        <time>2015-11-18T11:46:36Z</time>
      </trkpt>
      <trkpt lat="43.63352" lon="3.80549">
        <ele>139.5</ele>
        <time>2015-11-18T11:46:37Z</time>
      </trkpt>
      <trkpt lat="43.63354" lon="3.80547">
        <ele>140.5</ele>
        <time>2015-11-18T11:46:38Z</time>
      </trkpt>
      <trkpt lat="43.63357" lon="3.80545">
        <ele>140.5</ele>
        <time>2015-11-18T11:46:39Z</time>
      </trkpt>
      <trkpt lat="43.63359" lon="3.80543">
        <ele>141.5</ele>
        <time>2015-11-18T11:46:40Z</time>
      </trkpt>
      <trkpt lat="43.63361" lon="3.80542">
        <ele>142</ele>
        <time>2015-11-18T11:46:41Z</time>
      </trkpt>
      <trkpt lat="43.63363" lon="3.8054">
        <ele>142</ele>
        <time>2015-11-18T11:46:42Z</time>
      </trkpt>
      <trkpt lat="43.63365" lon="3.80537">
        <ele>142.5</ele>
        <time>2015-11-18T11:46:43Z</time>
      </trkpt>
      <trkpt lat="43.63366" lon="3.80533">
        <ele>144</ele>
        <time>2015-11-18T11:46:44Z</time>
      </trkpt>
      <trkpt lat="43.63367" lon="3.8053">
        <ele>145.5</ele>
        <time>2015-11-18T11:46:45Z</time>
      </trkpt>
      <trkpt lat="43.63367" lon="3.80526">
        <ele>147</ele>
        <time>2015-11-18T11:46:46Z</time>
      </trkpt>
      <trkpt lat="43.63368" lon="3.80523">
        <ele>148</ele>
        <time>2015-11-18T11:46:47Z</time>
      </trkpt>
      <trkpt lat="43.63368" lon="3.8052">
        <ele>148.5</ele>
        <time>2015-11-18T11:46:48Z</time>
      </trkpt>
      <trkpt lat="43.63367" lon="3.80515">
        <ele>148.5</ele>
        <time>2015-11-18T11:46:49Z</time>
      </trkpt>
      <trkpt lat="43.63368" lon="3.80512">
        <ele>147.5</ele>
        <time>2015-11-18T11:46:50Z</time>
      </trkpt>
      <trkpt lat="43.63369" lon="3.8051">
        <ele>147.5</ele>
        <time>2015-11-18T11:46:51Z</time>
      </trkpt>
      <trkpt lat="43.63369" lon="3.80509">
        <ele>146</ele>
        <time>2015-11-18T11:46:52Z</time>
      </trkpt>
      <trkpt lat="43.6337" lon="3.80506">
        <ele>146</ele>
        <time>2015-11-18T11:46:53Z</time>
      </trkpt>
      <trkpt lat="43.6337" lon="3.80504">
        <ele>145.5</ele>
        <time>2015-11-18T11:46:54Z</time>
      </trkpt>
      <trkpt lat="43.6337" lon="3.80502">
        <ele>145</ele>
        <time>2015-11-18T11:46:55Z</time>
      </trkpt>
      <trkpt lat="43.63369" lon="3.80499">
        <ele>146.5</ele>
        <time>2015-11-18T11:46:56Z</time>
      </trkpt>
      <trkpt lat="43.63369" lon="3.80495">
        <ele>147</ele>
        <time>2015-11-18T11:46:57Z</time>
      </trkpt>
      <trkpt lat="43.63368" lon="3.8049">
        <ele>148.5</ele>
        <time>2015-11-18T11:46:58Z</time>
      </trkpt>
      <trkpt lat="43.63369" lon="3.80487">
        <ele>149.5</ele>
        <time>2015-11-18T11:46:59Z</time>
      </trkpt>
      <trkpt lat="43.6337" lon="3.80484">
        <ele>150.5</ele>
        <time>2015-11-18T11:47:00Z</time>
      </trkpt>
      <trkpt lat="43.63371" lon="3.80481">
        <ele>151</ele>
        <time>2015-11-18T11:47:01Z</time>
      </trkpt>
      <trkpt lat="43.63374" lon="3.80483">
        <ele>151.5</ele>
        <time>2015-11-18T11:47:01Z</time>
      </trkpt>
      <trkpt lat="43.63375" lon="3.8048">
        <ele>152.5</ele>
        <time>2015-11-18T11:47:03Z</time>
      </trkpt>
      <trkpt lat="43.63375" lon="3.80478">
        <ele>154</ele>
        <time>2015-11-18T11:47:03Z</time>
      </trkpt>
      <trkpt lat="43.63377" lon="3.80475">
        <ele>154.5</ele>
        <time>2015-11-18T11:47:04Z</time>
      </trkpt>
      <trkpt lat="43.63378" lon="3.80472">
        <ele>155</ele>
        <time>2015-11-18T11:47:05Z</time>
      </trkpt>
      <trkpt lat="43.6338" lon="3.80471">
        <ele>155</ele>
        <time>2015-11-18T11:47:07Z</time>
      </trkpt>
      <trkpt lat="43.63381" lon="3.80468">
        <ele>155.5</ele>
        <time>2015-11-18T11:47:07Z</time>
      </trkpt>
      <trkpt lat="43.63382" lon="3.80467">
        <ele>156.5</ele>
        <time>2015-11-18T11:47:09Z</time>
      </trkpt>
      <trkpt lat="43.63383" lon="3.80465">
        <ele>157</ele>
        <time>2015-11-18T11:47:09Z</time>
      </trkpt>
      <trkpt lat="43.63384" lon="3.80463">
        <ele>157</ele>
        <time>2015-11-18T11:47:10Z</time>
      </trkpt>
      <trkpt lat="43.63386" lon="3.80461">
        <ele>157</ele>
        <time>2015-11-18T11:47:11Z</time>
      </trkpt>
      <trkpt lat="43.63387" lon="3.80459">
        <ele>158</ele>
        <time>2015-11-18T11:47:12Z</time>
      </trkpt>
      <trkpt lat="43.63387" lon="3.80455">
        <ele>158</ele>
        <time>2015-11-18T11:47:13Z</time>
      </trkpt>
      <trkpt lat="43.63391" lon="3.80456">
        <ele>158</ele>
        <time>2015-11-18T11:47:14Z</time>
      </trkpt>
      <trkpt lat="43.63392" lon="3.80454">
        <ele>158.5</ele>
        <time>2015-11-18T11:47:16Z</time>
      </trkpt>
      <trkpt lat="43.63394" lon="3.80452">
        <ele>158.5</ele>
        <time>2015-11-18T11:47:16Z</time>
      </trkpt>
      <trkpt lat="43.63396" lon="3.8045">
        <ele>159.5</ele>
        <time>2015-11-18T11:47:17Z</time>
      </trkpt>
      <trkpt lat="43.63399" lon="3.80449">
        <ele>160</ele>
        <time>2015-11-18T11:47:18Z</time>
      </trkpt>
      <trkpt lat="43.63401" lon="3.80448">
        <ele>160.5</ele>
        <time>2015-11-18T11:47:19Z</time>
      </trkpt>
      <trkpt lat="43.63404" lon="3.80449">
        <ele>160</ele>
        <time>2015-11-18T11:47:20Z</time>
      </trkpt>
      <trkpt lat="43.63406" lon="3.80449">
        <ele>159.5</ele>
        <time>2015-11-18T11:47:21Z</time>
      </trkpt>
      <trkpt lat="43.63408" lon="3.8045">
        <ele>159</ele>
        <time>2015-11-18T11:47:22Z</time>
      </trkpt>
      <trkpt lat="43.63409" lon="3.80452">
        <ele>160.5</ele>
        <time>2015-11-18T11:47:23Z</time>
      </trkpt>
      <trkpt lat="43.63411" lon="3.80454">
        <ele>160</ele>
        <time>2015-11-18T11:47:24Z</time>
      </trkpt>
      <trkpt lat="43.63412" lon="3.80456">
        <ele>158.5</ele>
        <time>2015-11-18T11:47:25Z</time>
      </trkpt>
      <trkpt lat="43.63414" lon="3.80457">
        <ele>158</ele>
        <time>2015-11-18T11:47:26Z</time>
      </trkpt>
      <trkpt lat="43.63415" lon="3.80459">
        <ele>158</ele>
        <time>2015-11-18T11:47:27Z</time>
      </trkpt>
      <trkpt lat="43.63416" lon="3.80461">
        <ele>158</ele>
        <time>2015-11-18T11:47:28Z</time>
      </trkpt>
      <trkpt lat="43.63418" lon="3.80464">
        <ele>158.5</ele>
        <time>2015-11-18T11:47:30Z</time>
      </trkpt>
      <trkpt lat="43.63419" lon="3.80466">
        <ele>159</ele>
        <time>2015-11-18T11:47:30Z</time>
      </trkpt>
      <trkpt lat="43.63421" lon="3.80468">
        <ele>159.5</ele>
        <time>2015-11-18T11:47:31Z</time>
      </trkpt>
      <trkpt lat="43.63424" lon="3.8047">
        <ele>159</ele>
        <time>2015-11-18T11:47:32Z</time>
      </trkpt>
      <trkpt lat="43.63426" lon="3.80471">
        <ele>158</ele>
        <time>2015-11-18T11:47:33Z</time>
      </trkpt>
      <trkpt lat="43.63429" lon="3.80472">
        <ele>157</ele>
        <time>2015-11-18T11:47:34Z</time>
      </trkpt>
      <trkpt lat="43.63431" lon="3.80473">
        <ele>155.5</ele>
        <time>2015-11-18T11:47:35Z</time>
      </trkpt>
      <trkpt lat="43.63434" lon="3.80471">
        <ele>155.5</ele>
        <time>2015-11-18T11:47:36Z</time>
      </trkpt>
      <trkpt lat="43.63437" lon="3.8047">
        <ele>155.5</ele>
        <time>2015-11-18T11:47:37Z</time>
      </trkpt>
      <trkpt lat="43.63439" lon="3.80469">
        <ele>155.5</ele>
        <time>2015-11-18T11:47:38Z</time>
      </trkpt>
      <trkpt lat="43.63441" lon="3.80467">
        <ele>156.5</ele>
        <time>2015-11-18T11:47:40Z</time>
      </trkpt>
      <trkpt lat="43.63442" lon="3.80465">
        <ele>156.5</ele>
        <time>2015-11-18T11:47:40Z</time>
      </trkpt>
      <trkpt lat="43.63444" lon="3.80462">
        <ele>158</ele>
        <time>2015-11-18T11:47:41Z</time>
      </trkpt>
      <trkpt lat="43.63446" lon="3.80458">
        <ele>159</ele>
        <time>2015-11-18T11:47:42Z</time>
      </trkpt>
      <trkpt lat="43.63447" lon="3.80454">
        <ele>160</ele>
        <time>2015-11-18T11:47:43Z</time>
      </trkpt>
      <trkpt lat="43.63448" lon="3.80451">
        <ele>161</ele>
        <time>2015-11-18T11:47:44Z</time>
      </trkpt>
      <trkpt lat="43.63448" lon="3.80448">
        <ele>161.5</ele>
        <time>2015-11-18T11:47:45Z</time>
      </trkpt>
      <trkpt lat="43.63449" lon="3.80445">
        <ele>162.5</ele>
        <time>2015-11-18T11:47:47Z</time>
      </trkpt>
      <trkpt lat="43.63448" lon="3.80442">
        <ele>163</ele>
        <time>2015-11-18T11:47:47Z</time>
      </trkpt>
      <trkpt lat="43.63448" lon="3.80441">
        <ele>163</ele>
        <time>2015-11-18T11:47:48Z</time>
      </trkpt>
      <trkpt lat="43.63447" lon="3.80439">
        <ele>162.5</ele>
        <time>2015-11-18T11:47:49Z</time>
      </trkpt>
      <trkpt lat="43.63446" lon="3.80438">
        <ele>162.5</ele>
        <time>2015-11-18T11:47:50Z</time>
      </trkpt>
      <trkpt lat="43.63442" lon="3.80432">
        <ele>162</ele>
        <time>2015-11-18T11:47:52Z</time>
      </trkpt>
      <trkpt lat="43.63442" lon="3.8043">
        <ele>161</ele>
        <time>2015-11-18T11:47:53Z</time>
      </trkpt>
      <trkpt lat="43.63442" lon="3.80428">
        <ele>160.5</ele>
        <time>2015-11-18T11:47:54Z</time>
      </trkpt>
      <trkpt lat="43.63443" lon="3.80425">
        <ele>160.5</ele>
        <time>2015-11-18T11:47:55Z</time>
      </trkpt>
      <trkpt lat="43.63443" lon="3.80422">
        <ele>160.5</ele>
        <time>2015-11-18T11:47:56Z</time>
      </trkpt>
      <trkpt lat="43.63443" lon="3.80419">
        <ele>160</ele>
        <time>2015-11-18T11:47:57Z</time>
      </trkpt>
      <trkpt lat="43.63444" lon="3.80416">
        <ele>160.5</ele>
        <time>2015-11-18T11:47:58Z</time>
      </trkpt>
      <trkpt lat="43.63444" lon="3.80412">
        <ele>161.5</ele>
        <time>2015-11-18T11:47:59Z</time>
      </trkpt>
      <trkpt lat="43.63445" lon="3.80408">
        <ele>162</ele>
        <time>2015-11-18T11:48:00Z</time>
      </trkpt>
      <trkpt lat="43.63446" lon="3.80406">
        <ele>162</ele>
        <time>2015-11-18T11:48:01Z</time>
      </trkpt>
      <trkpt lat="43.63448" lon="3.80404">
        <ele>162.5</ele>
        <time>2015-11-18T11:48:02Z</time>
      </trkpt>
      <trkpt lat="43.6345" lon="3.80401">
        <ele>163</ele>
        <time>2015-11-18T11:48:03Z</time>
      </trkpt>
      <trkpt lat="43.63451" lon="3.80399">
        <ele>163</ele>
        <time>2015-11-18T11:48:04Z</time>
      </trkpt>
      <trkpt lat="43.63452" lon="3.80395">
        <ele>164</ele>
        <time>2015-11-18T11:48:05Z</time>
      </trkpt>
      <trkpt lat="43.63452" lon="3.8039">
        <ele>165.5</ele>
        <time>2015-11-18T11:48:06Z</time>
      </trkpt>
      <trkpt lat="43.63452" lon="3.80387">
        <ele>166.5</ele>
        <time>2015-11-18T11:48:07Z</time>
      </trkpt>
      <trkpt lat="43.63453" lon="3.80383">
        <ele>166.5</ele>
        <time>2015-11-18T11:48:08Z</time>
      </trkpt>
      <trkpt lat="43.63455" lon="3.8038">
        <ele>167</ele>
        <time>2015-11-18T11:48:09Z</time>
      </trkpt>
      <trkpt lat="43.63456" lon="3.80377">
        <ele>168</ele>
        <time>2015-11-18T11:48:10Z</time>
      </trkpt>
      <trkpt lat="43.63456" lon="3.80374">
        <ele>168.5</ele>
        <time>2015-11-18T11:48:11Z</time>
      </trkpt>
      <trkpt lat="43.63457" lon="3.80371">
        <ele>169</ele>
        <time>2015-11-18T11:48:12Z</time>
      </trkpt>
      <trkpt lat="43.63459" lon="3.80369">
        <ele>169</ele>
        <time>2015-11-18T11:48:13Z</time>
      </trkpt>
      <trkpt lat="43.63459" lon="3.80366">
        <ele>169</ele>
        <time>2015-11-18T11:48:14Z</time>
      </trkpt>
      <trkpt lat="43.63461" lon="3.80363">
        <ele>169</ele>
        <time>2015-11-18T11:48:15Z</time>
      </trkpt>
      <trkpt lat="43.63462" lon="3.80361">
        <ele>169</ele>
        <time>2015-11-18T11:48:16Z</time>
      </trkpt>
      <trkpt lat="43.63464" lon="3.80358">
        <ele>168.5</ele>
        <time>2015-11-18T11:48:17Z</time>
      </trkpt>
      <trkpt lat="43.63465" lon="3.80356">
        <ele>168</ele>
        <time>2015-11-18T11:48:18Z</time>
      </trkpt>
      <trkpt lat="43.63467" lon="3.80355">
        <ele>168</ele>
        <time>2015-11-18T11:48:19Z</time>
      </trkpt>
      <trkpt lat="43.63467" lon="3.80352">
        <ele>167.5</ele>
        <time>2015-11-18T11:48:20Z</time>
      </trkpt>
      <trkpt lat="43.63468" lon="3.80349">
        <ele>168.5</ele>
        <time>2015-11-18T11:48:21Z</time>
      </trkpt>
      <trkpt lat="43.63468" lon="3.80346">
        <ele>169</ele>
        <time>2015-11-18T11:48:22Z</time>
      </trkpt>
      <trkpt lat="43.63468" lon="3.80343">
        <ele>169</ele>
        <time>2015-11-18T11:48:23Z</time>
      </trkpt>
      <trkpt lat="43.63468" lon="3.8034">
        <ele>169.5</ele>
        <time>2015-11-18T11:48:24Z</time>
      </trkpt>
      <trkpt lat="43.63469" lon="3.80338">
        <ele>169</ele>
        <time>2015-11-18T11:48:25Z</time>
      </trkpt>
      <trkpt lat="43.63469" lon="3.80335">
        <ele>169.5</ele>
        <time>2015-11-18T11:48:26Z</time>
      </trkpt>
      <trkpt lat="43.6347" lon="3.80332">
        <ele>169</ele>
        <time>2015-11-18T11:48:27Z</time>
      </trkpt>
      <trkpt lat="43.6347" lon="3.80329">
        <ele>169.5</ele>
        <time>2015-11-18T11:48:28Z</time>
      </trkpt>
      <trkpt lat="43.63471" lon="3.80326">
        <ele>169.5</ele>
        <time>2015-11-18T11:48:29Z</time>
      </trkpt>
      <trkpt lat="43.63472" lon="3.80324">
        <ele>170</ele>
        <time>2015-11-18T11:48:30Z</time>
      </trkpt>
      <trkpt lat="43.63472" lon="3.80321">
        <ele>170</ele>
        <time>2015-11-18T11:48:31Z</time>
      </trkpt>
      <trkpt lat="43.63472" lon="3.80317">
        <ele>171</ele>
        <time>2015-11-18T11:48:32Z</time>
      </trkpt>
      <trkpt lat="43.63472" lon="3.80314">
        <ele>171</ele>
        <time>2015-11-18T11:48:33Z</time>
      </trkpt>
      <trkpt lat="43.63473" lon="3.80311">
        <ele>171.5</ele>
        <time>2015-11-18T11:48:34Z</time>
      </trkpt>
      <trkpt lat="43.63473" lon="3.80308">
        <ele>171.5</ele>
        <time>2015-11-18T11:48:35Z</time>
      </trkpt>
      <trkpt lat="43.63474" lon="3.80305">
        <ele>171.5</ele>
        <time>2015-11-18T11:48:36Z</time>
      </trkpt>
      <trkpt lat="43.63475" lon="3.80302">
        <ele>171.5</ele>
        <time>2015-11-18T11:48:37Z</time>
      </trkpt>
      <trkpt lat="43.63475" lon="3.80299">
        <ele>171.5</ele>
        <time>2015-11-18T11:48:38Z</time>
      </trkpt>
      <trkpt lat="43.63476" lon="3.80297">
        <ele>171</ele>
        <time>2015-11-18T11:48:39Z</time>
      </trkpt>
      <trkpt lat="43.63477" lon="3.80294">
        <ele>170.5</ele>
        <time>2015-11-18T11:48:40Z</time>
      </trkpt>
      <trkpt lat="43.63478" lon="3.80291">
        <ele>170.5</ele>
        <time>2015-11-18T11:48:41Z</time>
      </trkpt>
      <trkpt lat="43.63478" lon="3.80288">
        <ele>170.5</ele>
        <time>2015-11-18T11:48:42Z</time>
      </trkpt>
      <trkpt lat="43.63479" lon="3.80285">
        <ele>170.5</ele>
        <time>2015-11-18T11:48:43Z</time>
      </trkpt>
      <trkpt lat="43.63479" lon="3.80281">
        <ele>170.5</ele>
        <time>2015-11-18T11:48:44Z</time>
      </trkpt>
      <trkpt lat="43.6348" lon="3.80278">
        <ele>170.5</ele>
        <time>2015-11-18T11:48:45Z</time>
      </trkpt>
      <trkpt lat="43.6348" lon="3.80276">
        <ele>170</ele>
        <time>2015-11-18T11:48:46Z</time>
      </trkpt>
      <trkpt lat="43.63481" lon="3.80273">
        <ele>170</ele>
        <time>2015-11-18T11:48:47Z</time>
      </trkpt>
      <trkpt lat="43.63482" lon="3.8027">
        <ele>169.5</ele>
        <time>2015-11-18T11:48:48Z</time>
      </trkpt>
      <trkpt lat="43.63482" lon="3.80266">
        <ele>170</ele>
        <time>2015-11-18T11:48:49Z</time>
      </trkpt>
      <trkpt lat="43.63482" lon="3.80262">
        <ele>170</ele>
        <time>2015-11-18T11:48:50Z</time>
      </trkpt>
      <trkpt lat="43.63483" lon="3.80259">
        <ele>169.5</ele>
        <time>2015-11-18T11:48:51Z</time>
      </trkpt>
      <trkpt lat="43.63484" lon="3.80256">
        <ele>169.5</ele>
        <time>2015-11-18T11:48:52Z</time>
      </trkpt>
      <trkpt lat="43.63486" lon="3.80253">
        <ele>169</ele>
        <time>2015-11-18T11:48:53Z</time>
      </trkpt>
      <trkpt lat="43.63487" lon="3.8025">
        <ele>169</ele>
        <time>2015-11-18T11:48:54Z</time>
      </trkpt>
      <trkpt lat="43.63488" lon="3.80246">
        <ele>169</ele>
        <time>2015-11-18T11:48:55Z</time>
      </trkpt>
      <trkpt lat="43.63489" lon="3.80243">
        <ele>169</ele>
        <time>2015-11-18T11:48:56Z</time>
      </trkpt>
      <trkpt lat="43.6349" lon="3.80239">
        <ele>169</ele>
        <time>2015-11-18T11:48:57Z</time>
      </trkpt>
      <trkpt lat="43.63491" lon="3.80235">
        <ele>169</ele>
        <time>2015-11-18T11:48:58Z</time>
      </trkpt>
      <trkpt lat="43.63493" lon="3.80232">
        <ele>169</ele>
        <time>2015-11-18T11:48:59Z</time>
      </trkpt>
      <trkpt lat="43.63493" lon="3.80227">
        <ele>170</ele>
        <time>2015-11-18T11:49:00Z</time>
      </trkpt>
      <trkpt lat="43.63496" lon="3.80225">
        <ele>169</ele>
        <time>2015-11-18T11:49:01Z</time>
      </trkpt>
      <trkpt lat="43.63498" lon="3.80222">
        <ele>168.5</ele>
        <time>2015-11-18T11:49:02Z</time>
      </trkpt>
      <trkpt lat="43.63499" lon="3.80219">
        <ele>168.5</ele>
        <time>2015-11-18T11:49:03Z</time>
      </trkpt>
      <trkpt lat="43.63501" lon="3.80216">
        <ele>168.5</ele>
        <time>2015-11-18T11:49:04Z</time>
      </trkpt>
      <trkpt lat="43.63503" lon="3.80213">
        <ele>169</ele>
        <time>2015-11-18T11:49:05Z</time>
      </trkpt>
      <trkpt lat="43.63505" lon="3.8021">
        <ele>168.5</ele>
        <time>2015-11-18T11:49:06Z</time>
      </trkpt>
      <trkpt lat="43.63506" lon="3.80207">
        <ele>168.5</ele>
        <time>2015-11-18T11:49:07Z</time>
      </trkpt>
      <trkpt lat="43.63508" lon="3.80203">
        <ele>168.5</ele>
        <time>2015-11-18T11:49:08Z</time>
      </trkpt>
      <trkpt lat="43.6351" lon="3.802">
        <ele>168</ele>
        <time>2015-11-18T11:49:09Z</time>
      </trkpt>
      <trkpt lat="43.63512" lon="3.80197">
        <ele>168</ele>
        <time>2015-11-18T11:49:10Z</time>
      </trkpt>
      <trkpt lat="43.63514" lon="3.80193">
        <ele>167.5</ele>
        <time>2015-11-18T11:49:11Z</time>
      </trkpt>
      <trkpt lat="43.63516" lon="3.80189">
        <ele>167.5</ele>
        <time>2015-11-18T11:49:12Z</time>
      </trkpt>
      <trkpt lat="43.63518" lon="3.80185">
        <ele>167.5</ele>
        <time>2015-11-18T11:49:13Z</time>
      </trkpt>
      <trkpt lat="43.63519" lon="3.80181">
        <ele>167</ele>
        <time>2015-11-18T11:49:14Z</time>
      </trkpt>
      <trkpt lat="43.63521" lon="3.80176">
        <ele>167</ele>
        <time>2015-11-18T11:49:15Z</time>
      </trkpt>
      <trkpt lat="43.63524" lon="3.80171">
        <ele>167</ele>
        <time>2015-11-18T11:49:16Z</time>
      </trkpt>
      <trkpt lat="43.63526" lon="3.80166">
        <ele>167</ele>
        <time>2015-11-18T11:49:17Z</time>
      </trkpt>
      <trkpt lat="43.63529" lon="3.80161">
        <ele>167</ele>
        <time>2015-11-18T11:49:18Z</time>
      </trkpt>
      <trkpt lat="43.63531" lon="3.80156">
        <ele>167.5</ele>
        <time>2015-11-18T11:49:19Z</time>
      </trkpt>
      <trkpt lat="43.63533" lon="3.80149">
        <ele>167.5</ele>
        <time>2015-11-18T11:49:20Z</time>
      </trkpt>
      <trkpt lat="43.63534" lon="3.80142">
        <ele>166.5</ele>
        <time>2015-11-18T11:49:21Z</time>
      </trkpt>
      <trkpt lat="43.63534" lon="3.80134">
        <ele>167</ele>
        <time>2015-11-18T11:49:22Z</time>
      </trkpt>
      <trkpt lat="43.63534" lon="3.80126">
        <ele>166.5</ele>
        <time>2015-11-18T11:49:23Z</time>
      </trkpt>
      <trkpt lat="43.63534" lon="3.80118">
        <ele>165.5</ele>
        <time>2015-11-18T11:49:24Z</time>
      </trkpt>
      <trkpt lat="43.63535" lon="3.80108">
        <ele>165.5</ele>
        <time>2015-11-18T11:49:25Z</time>
      </trkpt>
      <trkpt lat="43.63536" lon="3.80099">
        <ele>165</ele>
        <time>2015-11-18T11:49:26Z</time>
      </trkpt>
      <trkpt lat="43.6354" lon="3.80091">
        <ele>163.5</ele>
        <time>2015-11-18T11:49:27Z</time>
      </trkpt>
      <trkpt lat="43.63545" lon="3.80084">
        <ele>163.5</ele>
        <time>2015-11-18T11:49:28Z</time>
      </trkpt>
      <trkpt lat="43.63551" lon="3.8008">
        <ele>164</ele>
        <time>2015-11-18T11:49:29Z</time>
      </trkpt>
      <trkpt lat="43.63556" lon="3.80075">
        <ele>163</ele>
        <time>2015-11-18T11:49:30Z</time>
      </trkpt>
      <trkpt lat="43.63559" lon="3.80068">
        <ele>165</ele>
        <time>2015-11-18T11:49:31Z</time>
      </trkpt>
      <trkpt lat="43.6356" lon="3.80058">
        <ele>166.5</ele>
        <time>2015-11-18T11:49:32Z</time>
      </trkpt>
      <trkpt lat="43.63563" lon="3.80051">
        <ele>166.5</ele>
        <time>2015-11-18T11:49:33Z</time>
      </trkpt>
      <trkpt lat="43.63566" lon="3.80045">
        <ele>166</ele>
        <time>2015-11-18T11:49:34Z</time>
      </trkpt>
      <trkpt lat="43.63569" lon="3.8004">
        <ele>166</ele>
        <time>2015-11-18T11:49:35Z</time>
      </trkpt>
      <trkpt lat="43.63571" lon="3.80034">
        <ele>165.5</ele>
        <time>2015-11-18T11:49:36Z</time>
      </trkpt>
      <trkpt lat="43.63573" lon="3.80027">
        <ele>166</ele>
        <time>2015-11-18T11:49:37Z</time>
      </trkpt>
      <trkpt lat="43.63575" lon="3.80021">
        <ele>166</ele>
        <time>2015-11-18T11:49:38Z</time>
      </trkpt>
      <trkpt lat="43.63577" lon="3.80015">
        <ele>166.5</ele>
        <time>2015-11-18T11:49:39Z</time>
      </trkpt>
      <trkpt lat="43.63578" lon="3.80009">
        <ele>167</ele>
        <time>2015-11-18T11:49:40Z</time>
      </trkpt>
      <trkpt lat="43.63579" lon="3.80003">
        <ele>168</ele>
        <time>2015-11-18T11:49:41Z</time>
      </trkpt>
      <trkpt lat="43.63581" lon="3.79998">
        <ele>168.5</ele>
        <time>2015-11-18T11:49:42Z</time>
      </trkpt>
      <trkpt lat="43.63583" lon="3.79993">
        <ele>169</ele>
        <time>2015-11-18T11:49:43Z</time>
      </trkpt>
      <trkpt lat="43.63584" lon="3.79987">
        <ele>170.5</ele>
        <time>2015-11-18T11:49:44Z</time>
      </trkpt>
      <trkpt lat="43.63586" lon="3.79983">
        <ele>171</ele>
        <time>2015-11-18T11:49:45Z</time>
      </trkpt>
      <trkpt lat="43.63588" lon="3.79979">
        <ele>171</ele>
        <time>2015-11-18T11:49:46Z</time>
      </trkpt>
      <trkpt lat="43.6359" lon="3.79975">
        <ele>171</ele>
        <time>2015-11-18T11:49:47Z</time>
      </trkpt>
      <trkpt lat="43.63593" lon="3.79972">
        <ele>170.5</ele>
        <time>2015-11-18T11:49:48Z</time>
      </trkpt>
      <trkpt lat="43.63596" lon="3.79969">
        <ele>169.5</ele>
        <time>2015-11-18T11:49:49Z</time>
      </trkpt>
      <trkpt lat="43.63599" lon="3.79965">
        <ele>169.5</ele>
        <time>2015-11-18T11:49:50Z</time>
      </trkpt>
      <trkpt lat="43.63601" lon="3.79961">
        <ele>169.5</ele>
        <time>2015-11-18T11:49:51Z</time>
      </trkpt>
      <trkpt lat="43.63602" lon="3.79957">
        <ele>170</ele>
        <time>2015-11-18T11:49:52Z</time>
      </trkpt>
      <trkpt lat="43.63603" lon="3.79953">
        <ele>170</ele>
        <time>2015-11-18T11:49:53Z</time>
      </trkpt>
      <trkpt lat="43.63604" lon="3.79949">
        <ele>170</ele>
        <time>2015-11-18T11:49:54Z</time>
      </trkpt>
      <trkpt lat="43.63607" lon="3.79946">
        <ele>170</ele>
        <time>2015-11-18T11:49:55Z</time>
      </trkpt>
      <trkpt lat="43.63609" lon="3.79942">
        <ele>170</ele>
        <time>2015-11-18T11:49:56Z</time>
      </trkpt>
      <trkpt lat="43.63611" lon="3.7994">
        <ele>170</ele>
        <time>2015-11-18T11:49:57Z</time>
      </trkpt>
      <trkpt lat="43.63613" lon="3.79937">
        <ele>170</ele>
        <time>2015-11-18T11:49:58Z</time>
      </trkpt>
      <trkpt lat="43.63616" lon="3.79935">
        <ele>170</ele>
        <time>2015-11-18T11:49:59Z</time>
      </trkpt>
      <trkpt lat="43.63619" lon="3.79933">
        <ele>169.5</ele>
        <time>2015-11-18T11:50:00Z</time>
      </trkpt>
      <trkpt lat="43.63621" lon="3.7993">
        <ele>170</ele>
        <time>2015-11-18T11:50:01Z</time>
      </trkpt>
      <trkpt lat="43.63623" lon="3.79926">
        <ele>170</ele>
        <time>2015-11-18T11:50:02Z</time>
      </trkpt>
      <trkpt lat="43.63625" lon="3.79922">
        <ele>170.5</ele>
        <time>2015-11-18T11:50:03Z</time>
      </trkpt>
      <trkpt lat="43.63627" lon="3.79919">
        <ele>170.5</ele>
        <time>2015-11-18T11:50:04Z</time>
      </trkpt>
      <trkpt lat="43.63629" lon="3.79915">
        <ele>171</ele>
        <time>2015-11-18T11:50:05Z</time>
      </trkpt>
      <trkpt lat="43.63631" lon="3.79911">
        <ele>171</ele>
        <time>2015-11-18T11:50:06Z</time>
      </trkpt>
      <trkpt lat="43.63633" lon="3.79907">
        <ele>171.5</ele>
        <time>2015-11-18T11:50:07Z</time>
      </trkpt>
      <trkpt lat="43.63635" lon="3.79903">
        <ele>171.5</ele>
        <time>2015-11-18T11:50:08Z</time>
      </trkpt>
      <trkpt lat="43.63637" lon="3.799">
        <ele>171.5</ele>
        <time>2015-11-18T11:50:09Z</time>
      </trkpt>
      <trkpt lat="43.6364" lon="3.79897">
        <ele>172</ele>
        <time>2015-11-18T11:50:10Z</time>
      </trkpt>
      <trkpt lat="43.63642" lon="3.79893">
        <ele>172</ele>
        <time>2015-11-18T11:50:11Z</time>
      </trkpt>
      <trkpt lat="43.63644" lon="3.7989">
        <ele>172.5</ele>
        <time>2015-11-18T11:50:12Z</time>
      </trkpt>
      <trkpt lat="43.63646" lon="3.79885">
        <ele>172.5</ele>
        <time>2015-11-18T11:50:13Z</time>
      </trkpt>
      <trkpt lat="43.63648" lon="3.79882">
        <ele>173</ele>
        <time>2015-11-18T11:50:14Z</time>
      </trkpt>
      <trkpt lat="43.6365" lon="3.79878">
        <ele>173</ele>
        <time>2015-11-18T11:50:15Z</time>
      </trkpt>
      <trkpt lat="43.63652" lon="3.79875">
        <ele>173.5</ele>
        <time>2015-11-18T11:50:16Z</time>
      </trkpt>
      <trkpt lat="43.63655" lon="3.79871">
        <ele>173.5</ele>
        <time>2015-11-18T11:50:17Z</time>
      </trkpt>
      <trkpt lat="43.63657" lon="3.79867">
        <ele>174</ele>
        <time>2015-11-18T11:50:18Z</time>
      </trkpt>
      <trkpt lat="43.63659" lon="3.79863">
        <ele>175</ele>
        <time>2015-11-18T11:50:19Z</time>
      </trkpt>
      <trkpt lat="43.63661" lon="3.79859">
        <ele>175.5</ele>
        <time>2015-11-18T11:50:20Z</time>
      </trkpt>
      <trkpt lat="43.63662" lon="3.79855">
        <ele>175.5</ele>
        <time>2015-11-18T11:50:21Z</time>
      </trkpt>
      <trkpt lat="43.63664" lon="3.79851">
        <ele>176</ele>
        <time>2015-11-18T11:50:22Z</time>
      </trkpt>
      <trkpt lat="43.63666" lon="3.79848">
        <ele>176</ele>
        <time>2015-11-18T11:50:23Z</time>
      </trkpt>
      <trkpt lat="43.63668" lon="3.79843">
        <ele>176</ele>
        <time>2015-11-18T11:50:24Z</time>
      </trkpt>
      <trkpt lat="43.6367" lon="3.79839">
        <ele>176</ele>
        <time>2015-11-18T11:50:25Z</time>
      </trkpt>
      <trkpt lat="43.63673" lon="3.79835">
        <ele>176</ele>
        <time>2015-11-18T11:50:26Z</time>
      </trkpt>
      <trkpt lat="43.63676" lon="3.79833">
        <ele>175.5</ele>
        <time>2015-11-18T11:50:27Z</time>
      </trkpt>
      <trkpt lat="43.63677" lon="3.79828">
        <ele>176.5</ele>
        <time>2015-11-18T11:50:28Z</time>
      </trkpt>
      <trkpt lat="43.63679" lon="3.79825">
        <ele>177</ele>
        <time>2015-11-18T11:50:29Z</time>
      </trkpt>
      <trkpt lat="43.63682" lon="3.79822">
        <ele>177</ele>
        <time>2015-11-18T11:50:30Z</time>
      </trkpt>
      <trkpt lat="43.63684" lon="3.79819">
        <ele>177</ele>
        <time>2015-11-18T11:50:31Z</time>
      </trkpt>
      <trkpt lat="43.63687" lon="3.79816">
        <ele>177</ele>
        <time>2015-11-18T11:50:32Z</time>
      </trkpt>
      <trkpt lat="43.6369" lon="3.79813">
        <ele>176.5</ele>
        <time>2015-11-18T11:50:33Z</time>
      </trkpt>
      <trkpt lat="43.63692" lon="3.7981">
        <ele>176.5</ele>
        <time>2015-11-18T11:50:34Z</time>
      </trkpt>
      <trkpt lat="43.63694" lon="3.79806">
        <ele>177</ele>
        <time>2015-11-18T11:50:35Z</time>
      </trkpt>
      <trkpt lat="43.63696" lon="3.79802">
        <ele>177</ele>
        <time>2015-11-18T11:50:36Z</time>
      </trkpt>
      <trkpt lat="43.63698" lon="3.79799">
        <ele>177</ele>
        <time>2015-11-18T11:50:37Z</time>
      </trkpt>
      <trkpt lat="43.63699" lon="3.79794">
        <ele>178</ele>
        <time>2015-11-18T11:50:38Z</time>
      </trkpt>
      <trkpt lat="43.63701" lon="3.7979">
        <ele>178</ele>
        <time>2015-11-18T11:50:39Z</time>
      </trkpt>
      <trkpt lat="43.63702" lon="3.79786">
        <ele>178.5</ele>
        <time>2015-11-18T11:50:40Z</time>
      </trkpt>
      <trkpt lat="43.63704" lon="3.79782">
        <ele>178</ele>
        <time>2015-11-18T11:50:41Z</time>
      </trkpt>
      <trkpt lat="43.63706" lon="3.79778">
        <ele>178.5</ele>
        <time>2015-11-18T11:50:42Z</time>
      </trkpt>
      <trkpt lat="43.63708" lon="3.79775">
        <ele>179</ele>
        <time>2015-11-18T11:50:43Z</time>
      </trkpt>
      <trkpt lat="43.6371" lon="3.79771">
        <ele>179</ele>
        <time>2015-11-18T11:50:44Z</time>
      </trkpt>
      <trkpt lat="43.63712" lon="3.79767">
        <ele>179</ele>
        <time>2015-11-18T11:50:45Z</time>
      </trkpt>
      <trkpt lat="43.63715" lon="3.79764">
        <ele>179</ele>
        <time>2015-11-18T11:50:46Z</time>
      </trkpt>
      <trkpt lat="43.63717" lon="3.79761">
        <ele>179</ele>
        <time>2015-11-18T11:50:46Z</time>
      </trkpt>
      <trkpt lat="43.6372" lon="3.79758">
        <ele>178</ele>
        <time>2015-11-18T11:50:47Z</time>
      </trkpt>
      <trkpt lat="43.63722" lon="3.79755">
        <ele>178.5</ele>
        <time>2015-11-18T11:50:48Z</time>
      </trkpt>
      <trkpt lat="43.63725" lon="3.79752">
        <ele>179</ele>
        <time>2015-11-18T11:50:49Z</time>
      </trkpt>
      <trkpt lat="43.63727" lon="3.79749">
        <ele>179</ele>
        <time>2015-11-18T11:50:51Z</time>
      </trkpt>
      <trkpt lat="43.63729" lon="3.79746">
        <ele>179.5</ele>
        <time>2015-11-18T11:50:51Z</time>
      </trkpt>
      <trkpt lat="43.63732" lon="3.79744">
        <ele>179.5</ele>
        <time>2015-11-18T11:50:52Z</time>
      </trkpt>
      <trkpt lat="43.63734" lon="3.79741">
        <ele>180</ele>
        <time>2015-11-18T11:50:53Z</time>
      </trkpt>
      <trkpt lat="43.63736" lon="3.79737">
        <ele>181</ele>
        <time>2015-11-18T11:50:54Z</time>
      </trkpt>
      <trkpt lat="43.63739" lon="3.79735">
        <ele>181</ele>
        <time>2015-11-18T11:50:55Z</time>
      </trkpt>
      <trkpt lat="43.63741" lon="3.79732">
        <ele>181.5</ele>
        <time>2015-11-18T11:50:56Z</time>
      </trkpt>
      <trkpt lat="43.63744" lon="3.79731">
        <ele>180.5</ele>
        <time>2015-11-18T11:50:57Z</time>
      </trkpt>
      <trkpt lat="43.63748" lon="3.79731">
        <ele>178.5</ele>
        <time>2015-11-18T11:50:58Z</time>
      </trkpt>
      <trkpt lat="43.63752" lon="3.79729">
        <ele>178</ele>
        <time>2015-11-18T11:50:59Z</time>
      </trkpt>
      <trkpt lat="43.63755" lon="3.79727">
        <ele>177</ele>
        <time>2015-11-18T11:51:00Z</time>
      </trkpt>
      <trkpt lat="43.63758" lon="3.79725">
        <ele>176.5</ele>
        <time>2015-11-18T11:51:01Z</time>
      </trkpt>
      <trkpt lat="43.63761" lon="3.79722">
        <ele>176</ele>
        <time>2015-11-18T11:51:02Z</time>
      </trkpt>
      <trkpt lat="43.63764" lon="3.7972">
        <ele>176.5</ele>
        <time>2015-11-18T11:51:03Z</time>
      </trkpt>
      <trkpt lat="43.63768" lon="3.79717">
        <ele>176.5</ele>
        <time>2015-11-18T11:51:05Z</time>
      </trkpt>
      <trkpt lat="43.63771" lon="3.79715">
        <ele>176</ele>
        <time>2015-11-18T11:51:05Z</time>
      </trkpt>
      <trkpt lat="43.63775" lon="3.79713">
        <ele>175.5</ele>
        <time>2015-11-18T11:51:06Z</time>
      </trkpt>
      <trkpt lat="43.63779" lon="3.79711">
        <ele>175</ele>
        <time>2015-11-18T11:51:07Z</time>
      </trkpt>
      <trkpt lat="43.63783" lon="3.79709">
        <ele>175</ele>
        <time>2015-11-18T11:51:09Z</time>
      </trkpt>
      <trkpt lat="43.63788" lon="3.79706">
        <ele>174.5</ele>
        <time>2015-11-18T11:51:09Z</time>
      </trkpt>
      <trkpt lat="43.63792" lon="3.79703">
        <ele>174</ele>
        <time>2015-11-18T11:51:10Z</time>
      </trkpt>
      <trkpt lat="43.63795" lon="3.79698">
        <ele>175</ele>
        <time>2015-11-18T11:51:11Z</time>
      </trkpt>
      <trkpt lat="43.63798" lon="3.79694">
        <ele>175</ele>
        <time>2015-11-18T11:51:12Z</time>
      </trkpt>
      <trkpt lat="43.63802" lon="3.79691">
        <ele>174.5</ele>
        <time>2015-11-18T11:51:13Z</time>
      </trkpt>
      <trkpt lat="43.63805" lon="3.79687">
        <ele>174.5</ele>
        <time>2015-11-18T11:51:14Z</time>
      </trkpt>
      <trkpt lat="43.63809" lon="3.79684">
        <ele>174</ele>
        <time>2015-11-18T11:51:16Z</time>
      </trkpt>
      <trkpt lat="43.63818" lon="3.79677">
        <ele>172.5</ele>
        <time>2015-11-18T11:51:18Z</time>
      </trkpt>
      <trkpt lat="43.63823" lon="3.79674">
        <ele>172.5</ele>
        <time>2015-11-18T11:51:18Z</time>
      </trkpt>
      <trkpt lat="43.63828" lon="3.7967">
        <ele>172.5</ele>
        <time>2015-11-18T11:51:19Z</time>
      </trkpt>
      <trkpt lat="43.63831" lon="3.79667">
        <ele>173</ele>
        <time>2015-11-18T11:51:20Z</time>
      </trkpt>
      <trkpt lat="43.63834" lon="3.79669">
        <ele>171</ele>
        <time>2015-11-18T11:51:21Z</time>
      </trkpt>
      <trkpt lat="43.63838" lon="3.7967">
        <ele>170.5</ele>
        <time>2015-11-18T11:51:22Z</time>
      </trkpt>
      <trkpt lat="43.63841" lon="3.7967">
        <ele>170.5</ele>
        <time>2015-11-18T11:51:23Z</time>
      </trkpt>
      <trkpt lat="43.63844" lon="3.7967">
        <ele>171</ele>
        <time>2015-11-18T11:51:25Z</time>
      </trkpt>
      <trkpt lat="43.63847" lon="3.79669">
        <ele>171.5</ele>
        <time>2015-11-18T11:51:25Z</time>
      </trkpt>
      <trkpt lat="43.6385" lon="3.79668">
        <ele>171.5</ele>
        <time>2015-11-18T11:51:26Z</time>
      </trkpt>
      <trkpt lat="43.63852" lon="3.79665">
        <ele>172.5</ele>
        <time>2015-11-18T11:51:27Z</time>
      </trkpt>
      <trkpt lat="43.63853" lon="3.79663">
        <ele>172.5</ele>
        <time>2015-11-18T11:51:28Z</time>
      </trkpt>
      <trkpt lat="43.63856" lon="3.79662">
        <ele>172</ele>
        <time>2015-11-18T11:51:29Z</time>
      </trkpt>
      <trkpt lat="43.63859" lon="3.79661">
        <ele>171.5</ele>
        <time>2015-11-18T11:51:30Z</time>
      </trkpt>
      <trkpt lat="43.63862" lon="3.79659">
        <ele>171</ele>
        <time>2015-11-18T11:51:31Z</time>
      </trkpt>
      <trkpt lat="43.63865" lon="3.79658">
        <ele>171</ele>
        <time>2015-11-18T11:51:32Z</time>
      </trkpt>
      <trkpt lat="43.63868" lon="3.79657">
        <ele>171</ele>
        <time>2015-11-18T11:51:33Z</time>
      </trkpt>
      <trkpt lat="43.63872" lon="3.79656">
        <ele>171</ele>
        <time>2015-11-18T11:51:34Z</time>
      </trkpt>
      <trkpt lat="43.63875" lon="3.79654">
        <ele>171</ele>
        <time>2015-11-18T11:51:35Z</time>
      </trkpt>
      <trkpt lat="43.63879" lon="3.79649">
        <ele>170.5</ele>
        <time>2015-11-18T11:51:36Z</time>
      </trkpt>
      <trkpt lat="43.63882" lon="3.79644">
        <ele>170</ele>
        <time>2015-11-18T11:51:37Z</time>
      </trkpt>
      <trkpt lat="43.63885" lon="3.79639">
        <ele>169.5</ele>
        <time>2015-11-18T11:51:38Z</time>
      </trkpt>
      <trkpt lat="43.63888" lon="3.79633">
        <ele>169.5</ele>
        <time>2015-11-18T11:51:39Z</time>
      </trkpt>
      <trkpt lat="43.63892" lon="3.79628">
        <ele>170</ele>
        <time>2015-11-18T11:51:40Z</time>
      </trkpt>
      <trkpt lat="43.63895" lon="3.79624">
        <ele>170</ele>
        <time>2015-11-18T11:51:41Z</time>
      </trkpt>
      <trkpt lat="43.63897" lon="3.79618">
        <ele>170</ele>
        <time>2015-11-18T11:51:42Z</time>
      </trkpt>
      <trkpt lat="43.639" lon="3.79613">
        <ele>170</ele>
        <time>2015-11-18T11:51:43Z</time>
      </trkpt>
      <trkpt lat="43.63902" lon="3.7961">
        <ele>170</ele>
        <time>2015-11-18T11:51:44Z</time>
      </trkpt>
      <trkpt lat="43.63905" lon="3.79605">
        <ele>169</ele>
        <time>2015-11-18T11:51:45Z</time>
      </trkpt>
      <trkpt lat="43.63907" lon="3.79601">
        <ele>168.5</ele>
        <time>2015-11-18T11:51:46Z</time>
      </trkpt>
      <trkpt lat="43.63907" lon="3.79595">
        <ele>170.5</ele>
        <time>2015-11-18T11:51:47Z</time>
      </trkpt>
      <trkpt lat="43.63908" lon="3.79591">
        <ele>171</ele>
        <time>2015-11-18T11:51:48Z</time>
      </trkpt>
      <trkpt lat="43.63909" lon="3.79587">
        <ele>172</ele>
        <time>2015-11-18T11:51:49Z</time>
      </trkpt>
      <trkpt lat="43.63911" lon="3.79584">
        <ele>172</ele>
        <time>2015-11-18T11:51:50Z</time>
      </trkpt>
      <trkpt lat="43.63912" lon="3.7958">
        <ele>172.5</ele>
        <time>2015-11-18T11:51:51Z</time>
      </trkpt>
      <trkpt lat="43.63913" lon="3.79577">
        <ele>173</ele>
        <time>2015-11-18T11:51:52Z</time>
      </trkpt>
      <trkpt lat="43.63916" lon="3.79575">
        <ele>172</ele>
        <time>2015-11-18T11:51:53Z</time>
      </trkpt>
      <trkpt lat="43.63918" lon="3.7957">
        <ele>172.5</ele>
        <time>2015-11-18T11:51:54Z</time>
      </trkpt>
      <trkpt lat="43.6392" lon="3.79566">
        <ele>172.5</ele>
        <time>2015-11-18T11:51:55Z</time>
      </trkpt>
      <trkpt lat="43.63922" lon="3.79561">
        <ele>172.5</ele>
        <time>2015-11-18T11:51:56Z</time>
      </trkpt>
      <trkpt lat="43.63923" lon="3.79555">
        <ele>173</ele>
        <time>2015-11-18T11:51:57Z</time>
      </trkpt>
      <trkpt lat="43.63925" lon="3.79549">
        <ele>173</ele>
        <time>2015-11-18T11:51:58Z</time>
      </trkpt>
      <trkpt lat="43.63926" lon="3.79544">
        <ele>173</ele>
        <time>2015-11-18T11:51:59Z</time>
      </trkpt>
      <trkpt lat="43.63927" lon="3.79537">
        <ele>173</ele>
        <time>2015-11-18T11:52:00Z</time>
      </trkpt>
      <trkpt lat="43.63928" lon="3.79532">
        <ele>173</ele>
        <time>2015-11-18T11:52:01Z</time>
      </trkpt>
      <trkpt lat="43.63929" lon="3.79527">
        <ele>173.5</ele>
        <time>2015-11-18T11:52:02Z</time>
      </trkpt>
      <trkpt lat="43.63929" lon="3.79522">
        <ele>174</ele>
        <time>2015-11-18T11:52:03Z</time>
      </trkpt>
      <trkpt lat="43.6393" lon="3.79517">
        <ele>174</ele>
        <time>2015-11-18T11:52:04Z</time>
      </trkpt>
      <trkpt lat="43.63931" lon="3.79511">
        <ele>175</ele>
        <time>2015-11-18T11:52:05Z</time>
      </trkpt>
      <trkpt lat="43.63932" lon="3.79506">
        <ele>175.5</ele>
        <time>2015-11-18T11:52:06Z</time>
      </trkpt>
      <trkpt lat="43.63934" lon="3.79501">
        <ele>176.5</ele>
        <time>2015-11-18T11:52:07Z</time>
      </trkpt>
      <trkpt lat="43.63935" lon="3.79497">
        <ele>177</ele>
        <time>2015-11-18T11:52:08Z</time>
      </trkpt>
      <trkpt lat="43.63937" lon="3.79493">
        <ele>177.5</ele>
        <time>2015-11-18T11:52:09Z</time>
      </trkpt>
      <trkpt lat="43.63939" lon="3.79488">
        <ele>178</ele>
        <time>2015-11-18T11:52:10Z</time>
      </trkpt>
      <trkpt lat="43.6394" lon="3.79484">
        <ele>179</ele>
        <time>2015-11-18T11:52:11Z</time>
      </trkpt>
      <trkpt lat="43.63942" lon="3.79481">
        <ele>177.5</ele>
        <time>2015-11-18T11:52:12Z</time>
      </trkpt>
      <trkpt lat="43.63943" lon="3.79477">
        <ele>178</ele>
        <time>2015-11-18T11:52:13Z</time>
      </trkpt>
      <trkpt lat="43.63946" lon="3.79473">
        <ele>178</ele>
        <time>2015-11-18T11:52:14Z</time>
      </trkpt>
      <trkpt lat="43.63947" lon="3.79469">
        <ele>178.5</ele>
        <time>2015-11-18T11:52:15Z</time>
      </trkpt>
      <trkpt lat="43.6395" lon="3.79465">
        <ele>178.5</ele>
        <time>2015-11-18T11:52:16Z</time>
      </trkpt>
      <trkpt lat="43.63951" lon="3.79461">
        <ele>179</ele>
        <time>2015-11-18T11:52:17Z</time>
      </trkpt>
      <trkpt lat="43.63951" lon="3.79456">
        <ele>180</ele>
        <time>2015-11-18T11:52:18Z</time>
      </trkpt>
      <trkpt lat="43.63952" lon="3.79452">
        <ele>180</ele>
        <time>2015-11-18T11:52:19Z</time>
      </trkpt>
      <trkpt lat="43.63953" lon="3.79448">
        <ele>179.5</ele>
        <time>2015-11-18T11:52:20Z</time>
      </trkpt>
      <trkpt lat="43.63952" lon="3.79443">
        <ele>180.5</ele>
        <time>2015-11-18T11:52:21Z</time>
      </trkpt>
      <trkpt lat="43.63953" lon="3.79438">
        <ele>181</ele>
        <time>2015-11-18T11:52:22Z</time>
      </trkpt>
      <trkpt lat="43.63955" lon="3.79433">
        <ele>181</ele>
        <time>2015-11-18T11:52:23Z</time>
      </trkpt>
      <trkpt lat="43.63957" lon="3.79428">
        <ele>181.5</ele>
        <time>2015-11-18T11:52:24Z</time>
      </trkpt>
      <trkpt lat="43.63959" lon="3.79424">
        <ele>181</ele>
        <time>2015-11-18T11:52:25Z</time>
      </trkpt>
      <trkpt lat="43.63961" lon="3.79419">
        <ele>181.5</ele>
        <time>2015-11-18T11:52:26Z</time>
      </trkpt>
      <trkpt lat="43.63963" lon="3.79415">
        <ele>181.5</ele>
        <time>2015-11-18T11:52:27Z</time>
      </trkpt>
      <trkpt lat="43.63966" lon="3.79411">
        <ele>182</ele>
        <time>2015-11-18T11:52:28Z</time>
      </trkpt>
      <trkpt lat="43.63968" lon="3.79407">
        <ele>181.5</ele>
        <time>2015-11-18T11:52:29Z</time>
      </trkpt>
      <trkpt lat="43.63971" lon="3.79402">
        <ele>181.5</ele>
        <time>2015-11-18T11:52:30Z</time>
      </trkpt>
      <trkpt lat="43.63974" lon="3.79397">
        <ele>181</ele>
        <time>2015-11-18T11:52:31Z</time>
      </trkpt>
      <trkpt lat="43.63976" lon="3.79393">
        <ele>181.5</ele>
        <time>2015-11-18T11:52:32Z</time>
      </trkpt>
      <trkpt lat="43.63979" lon="3.79388">
        <ele>182.5</ele>
        <time>2015-11-18T11:52:33Z</time>
      </trkpt>
      <trkpt lat="43.63981" lon="3.79384">
        <ele>182.5</ele>
        <time>2015-11-18T11:52:34Z</time>
      </trkpt>
      <trkpt lat="43.63984" lon="3.79379">
        <ele>181.5</ele>
        <time>2015-11-18T11:52:35Z</time>
      </trkpt>
      <trkpt lat="43.63987" lon="3.79374">
        <ele>182</ele>
        <time>2015-11-18T11:52:36Z</time>
      </trkpt>
      <trkpt lat="43.63991" lon="3.79369">
        <ele>180.5</ele>
        <time>2015-11-18T11:52:37Z</time>
      </trkpt>
      <trkpt lat="43.63994" lon="3.79364">
        <ele>180.5</ele>
        <time>2015-11-18T11:52:38Z</time>
      </trkpt>
      <trkpt lat="43.63997" lon="3.79358">
        <ele>180.5</ele>
        <time>2015-11-18T11:52:39Z</time>
      </trkpt>
      <trkpt lat="43.63999" lon="3.79353">
        <ele>180.5</ele>
        <time>2015-11-18T11:52:40Z</time>
      </trkpt>
      <trkpt lat="43.64002" lon="3.79347">
        <ele>181</ele>
        <time>2015-11-18T11:52:41Z</time>
      </trkpt>
      <trkpt lat="43.64004" lon="3.79341">
        <ele>181.5</ele>
        <time>2015-11-18T11:52:42Z</time>
      </trkpt>
      <trkpt lat="43.64007" lon="3.79335">
        <ele>181.5</ele>
        <time>2015-11-18T11:52:43Z</time>
      </trkpt>
      <trkpt lat="43.6401" lon="3.7933">
        <ele>181</ele>
        <time>2015-11-18T11:52:44Z</time>
      </trkpt>
      <trkpt lat="43.64013" lon="3.79325">
        <ele>180.5</ele>
        <time>2015-11-18T11:52:45Z</time>
      </trkpt>
      <trkpt lat="43.64017" lon="3.7932">
        <ele>180</ele>
        <time>2015-11-18T11:52:46Z</time>
      </trkpt>
      <trkpt lat="43.64019" lon="3.79315">
        <ele>180.5</ele>
        <time>2015-11-18T11:52:47Z</time>
      </trkpt>
      <trkpt lat="43.64022" lon="3.7931">
        <ele>180.5</ele>
        <time>2015-11-18T11:52:48Z</time>
      </trkpt>
      <trkpt lat="43.64025" lon="3.79304">
        <ele>180.5</ele>
        <time>2015-11-18T11:52:49Z</time>
      </trkpt>
      <trkpt lat="43.64027" lon="3.79299">
        <ele>181</ele>
        <time>2015-11-18T11:52:50Z</time>
      </trkpt>
      <trkpt lat="43.64029" lon="3.79292">
        <ele>181</ele>
        <time>2015-11-18T11:52:51Z</time>
      </trkpt>
      <trkpt lat="43.64032" lon="3.79287">
        <ele>181</ele>
        <time>2015-11-18T11:52:52Z</time>
      </trkpt>
      <trkpt lat="43.64035" lon="3.79281">
        <ele>181.5</ele>
        <time>2015-11-18T11:52:53Z</time>
      </trkpt>
      <trkpt lat="43.64038" lon="3.79275">
        <ele>181.5</ele>
        <time>2015-11-18T11:52:54Z</time>
      </trkpt>
      <trkpt lat="43.6404" lon="3.7927">
        <ele>182.5</ele>
        <time>2015-11-18T11:52:55Z</time>
      </trkpt>
      <trkpt lat="43.64042" lon="3.79264">
        <ele>183</ele>
        <time>2015-11-18T11:52:56Z</time>
      </trkpt>
      <trkpt lat="43.64046" lon="3.79258">
        <ele>182</ele>
        <time>2015-11-18T11:52:57Z</time>
      </trkpt>
      <trkpt lat="43.64049" lon="3.7925">
        <ele>183.5</ele>
        <time>2015-11-18T11:52:58Z</time>
      </trkpt>
      <trkpt lat="43.64053" lon="3.79243">
        <ele>183.5</ele>
        <time>2015-11-18T11:52:59Z</time>
      </trkpt>
      <trkpt lat="43.64056" lon="3.79237">
        <ele>183.5</ele>
        <time>2015-11-18T11:53:00Z</time>
      </trkpt>
      <trkpt lat="43.64061" lon="3.79231">
        <ele>183</ele>
        <time>2015-11-18T11:53:01Z</time>
      </trkpt>
      <trkpt lat="43.64065" lon="3.79227">
        <ele>183</ele>
        <time>2015-11-18T11:53:02Z</time>
      </trkpt>
      <trkpt lat="43.64071" lon="3.79222">
        <ele>181.5</ele>
        <time>2015-11-18T11:53:03Z</time>
      </trkpt>
      <trkpt lat="43.64076" lon="3.79218">
        <ele>180.5</ele>
        <time>2015-11-18T11:53:04Z</time>
      </trkpt>
      <trkpt lat="43.64081" lon="3.79214">
        <ele>181</ele>
        <time>2015-11-18T11:53:05Z</time>
      </trkpt>
      <trkpt lat="43.64086" lon="3.79209">
        <ele>181.5</ele>
        <time>2015-11-18T11:53:06Z</time>
      </trkpt>
      <trkpt lat="43.64091" lon="3.79205">
        <ele>181.5</ele>
        <time>2015-11-18T11:53:07Z</time>
      </trkpt>
      <trkpt lat="43.64097" lon="3.79201">
        <ele>180</ele>
        <time>2015-11-18T11:53:08Z</time>
      </trkpt>
      <trkpt lat="43.64102" lon="3.79196">
        <ele>180.5</ele>
        <time>2015-11-18T11:53:09Z</time>
      </trkpt>
      <trkpt lat="43.64107" lon="3.79191">
        <ele>181</ele>
        <time>2015-11-18T11:53:10Z</time>
      </trkpt>
      <trkpt lat="43.64112" lon="3.79186">
        <ele>181.5</ele>
        <time>2015-11-18T11:53:11Z</time>
      </trkpt>
      <trkpt lat="43.64116" lon="3.7918">
        <ele>182</ele>
        <time>2015-11-18T11:53:12Z</time>
      </trkpt>
      <trkpt lat="43.6412" lon="3.79174">
        <ele>182</ele>
        <time>2015-11-18T11:53:13Z</time>
      </trkpt>
      <trkpt lat="43.64124" lon="3.79168">
        <ele>182</ele>
        <time>2015-11-18T11:53:14Z</time>
      </trkpt>
      <trkpt lat="43.64129" lon="3.79163">
        <ele>182</ele>
        <time>2015-11-18T11:53:15Z</time>
      </trkpt>
      <trkpt lat="43.64134" lon="3.79159">
        <ele>182.5</ele>
        <time>2015-11-18T11:53:16Z</time>
      </trkpt>
      <trkpt lat="43.64138" lon="3.79154">
        <ele>182.5</ele>
        <time>2015-11-18T11:53:17Z</time>
      </trkpt>
      <trkpt lat="43.64143" lon="3.7915">
        <ele>182</ele>
        <time>2015-11-18T11:53:18Z</time>
      </trkpt>
      <trkpt lat="43.64147" lon="3.79146">
        <ele>182</ele>
        <time>2015-11-18T11:53:19Z</time>
      </trkpt>
      <trkpt lat="43.6415" lon="3.79141">
        <ele>182</ele>
        <time>2015-11-18T11:53:20Z</time>
      </trkpt>
      <trkpt lat="43.64154" lon="3.79137">
        <ele>182</ele>
        <time>2015-11-18T11:53:21Z</time>
      </trkpt>
      <trkpt lat="43.64158" lon="3.79134">
        <ele>182</ele>
        <time>2015-11-18T11:53:22Z</time>
      </trkpt>
      <trkpt lat="43.64161" lon="3.79129">
        <ele>182</ele>
        <time>2015-11-18T11:53:23Z</time>
      </trkpt>
      <trkpt lat="43.64164" lon="3.79125">
        <ele>182</ele>
        <time>2015-11-18T11:53:24Z</time>
      </trkpt>
      <trkpt lat="43.64167" lon="3.79121">
        <ele>181.5</ele>
        <time>2015-11-18T11:53:25Z</time>
      </trkpt>
      <trkpt lat="43.6417" lon="3.79117">
        <ele>181</ele>
        <time>2015-11-18T11:53:26Z</time>
      </trkpt>
      <trkpt lat="43.64173" lon="3.79113">
        <ele>180.5</ele>
        <time>2015-11-18T11:53:27Z</time>
      </trkpt>
      <trkpt lat="43.64175" lon="3.79108">
        <ele>180.5</ele>
        <time>2015-11-18T11:53:28Z</time>
      </trkpt>
      <trkpt lat="43.64178" lon="3.79104">
        <ele>180.5</ele>
        <time>2015-11-18T11:53:29Z</time>
      </trkpt>
      <trkpt lat="43.64181" lon="3.791">
        <ele>180.5</ele>
        <time>2015-11-18T11:53:30Z</time>
      </trkpt>
      <trkpt lat="43.64184" lon="3.79096">
        <ele>180.5</ele>
        <time>2015-11-18T11:53:31Z</time>
      </trkpt>
      <trkpt lat="43.64187" lon="3.79093">
        <ele>179.5</ele>
        <time>2015-11-18T11:53:32Z</time>
      </trkpt>
      <trkpt lat="43.64189" lon="3.79089">
        <ele>179</ele>
        <time>2015-11-18T11:53:33Z</time>
      </trkpt>
      <trkpt lat="43.64191" lon="3.79085">
        <ele>178.5</ele>
        <time>2015-11-18T11:53:34Z</time>
      </trkpt>
      <trkpt lat="43.64192" lon="3.7908">
        <ele>179</ele>
        <time>2015-11-18T11:53:35Z</time>
      </trkpt>
      <trkpt lat="43.64194" lon="3.79075">
        <ele>179</ele>
        <time>2015-11-18T11:53:36Z</time>
      </trkpt>
      <trkpt lat="43.64195" lon="3.7907">
        <ele>179.5</ele>
        <time>2015-11-18T11:53:37Z</time>
      </trkpt>
      <trkpt lat="43.64197" lon="3.79065">
        <ele>179</ele>
        <time>2015-11-18T11:53:38Z</time>
      </trkpt>
      <trkpt lat="43.64199" lon="3.7906">
        <ele>179</ele>
        <time>2015-11-18T11:53:39Z</time>
      </trkpt>
      <trkpt lat="43.64202" lon="3.79055">
        <ele>178.5</ele>
        <time>2015-11-18T11:53:40Z</time>
      </trkpt>
      <trkpt lat="43.64205" lon="3.79051">
        <ele>178.5</ele>
        <time>2015-11-18T11:53:41Z</time>
      </trkpt>
      <trkpt lat="43.64208" lon="3.79047">
        <ele>178.5</ele>
        <time>2015-11-18T11:53:42Z</time>
      </trkpt>
      <trkpt lat="43.64212" lon="3.79044">
        <ele>178.5</ele>
        <time>2015-11-18T11:53:43Z</time>
      </trkpt>
      <trkpt lat="43.64216" lon="3.79041">
        <ele>178.5</ele>
        <time>2015-11-18T11:53:44Z</time>
      </trkpt>
      <trkpt lat="43.6422" lon="3.79039">
        <ele>178</ele>
        <time>2015-11-18T11:53:45Z</time>
      </trkpt>
      <trkpt lat="43.64223" lon="3.79036">
        <ele>178.5</ele>
        <time>2015-11-18T11:53:46Z</time>
      </trkpt>
      <trkpt lat="43.64226" lon="3.79033">
        <ele>178</ele>
        <time>2015-11-18T11:53:47Z</time>
      </trkpt>
      <trkpt lat="43.64229" lon="3.7903">
        <ele>178</ele>
        <time>2015-11-18T11:53:48Z</time>
      </trkpt>
      <trkpt lat="43.64232" lon="3.79026">
        <ele>178.5</ele>
        <time>2015-11-18T11:53:49Z</time>
      </trkpt>
      <trkpt lat="43.64234" lon="3.79022">
        <ele>179</ele>
        <time>2015-11-18T11:53:50Z</time>
      </trkpt>
      <trkpt lat="43.64236" lon="3.79019">
        <ele>179</ele>
        <time>2015-11-18T11:53:51Z</time>
      </trkpt>
      <trkpt lat="43.64239" lon="3.79016">
        <ele>179.5</ele>
        <time>2015-11-18T11:53:52Z</time>
      </trkpt>
      <trkpt lat="43.64241" lon="3.79014">
        <ele>179.5</ele>
        <time>2015-11-18T11:53:53Z</time>
      </trkpt>
      <trkpt lat="43.64243" lon="3.79013">
        <ele>179</ele>
        <time>2015-11-18T11:53:54Z</time>
      </trkpt>
      <trkpt lat="43.64245" lon="3.79012">
        <ele>178.5</ele>
        <time>2015-11-18T11:53:55Z</time>
      </trkpt>
      <trkpt lat="43.64247" lon="3.79012">
        <ele>177.5</ele>
        <time>2015-11-18T11:53:56Z</time>
      </trkpt>
      <trkpt lat="43.6425" lon="3.79014">
        <ele>177</ele>
        <time>2015-11-18T11:53:57Z</time>
      </trkpt>
      <trkpt lat="43.64253" lon="3.79015">
        <ele>177.5</ele>
        <time>2015-11-18T11:53:58Z</time>
      </trkpt>
      <trkpt lat="43.64256" lon="3.79018">
        <ele>178.5</ele>
        <time>2015-11-18T11:54:00Z</time>
      </trkpt>
      <trkpt lat="43.64258" lon="3.79022">
        <ele>178.5</ele>
        <time>2015-11-18T11:54:01Z</time>
      </trkpt>
      <trkpt lat="43.64259" lon="3.79029">
        <ele>178</ele>
        <time>2015-11-18T11:54:02Z</time>
      </trkpt>
      <trkpt lat="43.6426" lon="3.79035">
        <ele>177</ele>
        <time>2015-11-18T11:54:03Z</time>
      </trkpt>
      <trkpt lat="43.64262" lon="3.79042">
        <ele>176.5</ele>
        <time>2015-11-18T11:54:04Z</time>
      </trkpt>
      <trkpt lat="43.64264" lon="3.79049">
        <ele>175.5</ele>
        <time>2015-11-18T11:54:05Z</time>
      </trkpt>
      <trkpt lat="43.64267" lon="3.79055">
        <ele>175</ele>
        <time>2015-11-18T11:54:06Z</time>
      </trkpt>
      <trkpt lat="43.6427" lon="3.79062">
        <ele>174</ele>
        <time>2015-11-18T11:54:06Z</time>
      </trkpt>
      <trkpt lat="43.64271" lon="3.79068">
        <ele>171.5</ele>
        <time>2015-11-18T11:54:08Z</time>
      </trkpt>
      <trkpt lat="43.64272" lon="3.79074">
        <ele>170.5</ele>
        <time>2015-11-18T11:54:08Z</time>
      </trkpt>
      <trkpt lat="43.64274" lon="3.79081">
        <ele>170</ele>
        <time>2015-11-18T11:54:09Z</time>
      </trkpt>
      <trkpt lat="43.64275" lon="3.79086">
        <ele>170.5</ele>
        <time>2015-11-18T11:54:10Z</time>
      </trkpt>
      <trkpt lat="43.64277" lon="3.79092">
        <ele>171</ele>
        <time>2015-11-18T11:54:11Z</time>
      </trkpt>
      <trkpt lat="43.64277" lon="3.79098">
        <ele>170.5</ele>
        <time>2015-11-18T11:54:12Z</time>
      </trkpt>
      <trkpt lat="43.64277" lon="3.79106">
        <ele>170.5</ele>
        <time>2015-11-18T11:54:13Z</time>
      </trkpt>
      <trkpt lat="43.64278" lon="3.79113">
        <ele>170</ele>
        <time>2015-11-18T11:54:14Z</time>
      </trkpt>
      <trkpt lat="43.64278" lon="3.7912">
        <ele>170</ele>
        <time>2015-11-18T11:54:15Z</time>
      </trkpt>
      <trkpt lat="43.64278" lon="3.79128">
        <ele>169.5</ele>
        <time>2015-11-18T11:54:16Z</time>
      </trkpt>
      <trkpt lat="43.64278" lon="3.79135">
        <ele>169.5</ele>
        <time>2015-11-18T11:54:17Z</time>
      </trkpt>
      <trkpt lat="43.64277" lon="3.79142">
        <ele>170</ele>
        <time>2015-11-18T11:54:18Z</time>
      </trkpt>
      <trkpt lat="43.64277" lon="3.79149">
        <ele>170</ele>
        <time>2015-11-18T11:54:20Z</time>
      </trkpt>
      <trkpt lat="43.64276" lon="3.79157">
        <ele>170</ele>
        <time>2015-11-18T11:54:20Z</time>
      </trkpt>
      <trkpt lat="43.64276" lon="3.79163">
        <ele>171</ele>
        <time>2015-11-18T11:54:21Z</time>
      </trkpt>
      <trkpt lat="43.64276" lon="3.79171">
        <ele>171</ele>
        <time>2015-11-18T11:54:22Z</time>
      </trkpt>
      <trkpt lat="43.64276" lon="3.79177">
        <ele>171</ele>
        <time>2015-11-18T11:54:23Z</time>
      </trkpt>
      <trkpt lat="43.64276" lon="3.79184">
        <ele>171.5</ele>
        <time>2015-11-18T11:54:24Z</time>
      </trkpt>
      <trkpt lat="43.64275" lon="3.79189">
        <ele>170.5</ele>
        <time>2015-11-18T11:54:25Z</time>
      </trkpt>
      <trkpt lat="43.64277" lon="3.79194">
        <ele>171</ele>
        <time>2015-11-18T11:54:26Z</time>
      </trkpt>
      <trkpt lat="43.64277" lon="3.79197">
        <ele>170.5</ele>
        <time>2015-11-18T11:54:27Z</time>
      </trkpt>
      <trkpt lat="43.64278" lon="3.792">
        <ele>170.5</ele>
        <time>2015-11-18T11:54:28Z</time>
      </trkpt>
      <trkpt lat="43.64278" lon="3.79202">
        <ele>170</ele>
        <time>2015-11-18T11:54:29Z</time>
      </trkpt>
      <trkpt lat="43.64278" lon="3.79204">
        <ele>169.5</ele>
        <time>2015-11-18T11:54:30Z</time>
      </trkpt>
      <trkpt lat="43.64278" lon="3.79206">
        <ele>169.5</ele>
        <time>2015-11-18T11:54:31Z</time>
      </trkpt>
      <trkpt lat="43.64278" lon="3.79208">
        <ele>169.5</ele>
        <time>2015-11-18T11:54:32Z</time>
      </trkpt>
      <trkpt lat="43.64277" lon="3.7921">
        <ele>169</ele>
        <time>2015-11-18T11:54:33Z</time>
      </trkpt>
      <trkpt lat="43.64277" lon="3.79213">
        <ele>168.5</ele>
        <time>2015-11-18T11:54:34Z</time>
      </trkpt>
      <trkpt lat="43.64276" lon="3.79215">
        <ele>168</ele>
        <time>2015-11-18T11:54:35Z</time>
      </trkpt>
      <trkpt lat="43.64277" lon="3.79218">
        <ele>168</ele>
        <time>2015-11-18T11:54:36Z</time>
      </trkpt>
      <trkpt lat="43.64278" lon="3.79222">
        <ele>168</ele>
        <time>2015-11-18T11:54:37Z</time>
      </trkpt>
      <trkpt lat="43.64279" lon="3.79226">
        <ele>167.5</ele>
        <time>2015-11-18T11:54:38Z</time>
      </trkpt>
      <trkpt lat="43.6428" lon="3.79232">
        <ele>167.5</ele>
        <time>2015-11-18T11:54:39Z</time>
      </trkpt>
      <trkpt lat="43.64281" lon="3.79238">
        <ele>167</ele>
        <time>2015-11-18T11:54:40Z</time>
      </trkpt>
      <trkpt lat="43.6428" lon="3.79244">
        <ele>166</ele>
        <time>2015-11-18T11:54:41Z</time>
      </trkpt>
      <trkpt lat="43.6428" lon="3.79249">
        <ele>166</ele>
        <time>2015-11-18T11:54:42Z</time>
      </trkpt>
      <trkpt lat="43.6428" lon="3.79253">
        <ele>168.5</ele>
        <time>2015-11-18T11:54:43Z</time>
      </trkpt>
      <trkpt lat="43.6428" lon="3.79259">
        <ele>168</ele>
        <time>2015-11-18T11:54:44Z</time>
      </trkpt>
      <trkpt lat="43.64281" lon="3.79263">
        <ele>168</ele>
        <time>2015-11-18T11:54:45Z</time>
      </trkpt>
      <trkpt lat="43.64281" lon="3.79269">
        <ele>166.5</ele>
        <time>2015-11-18T11:54:46Z</time>
      </trkpt>
      <trkpt lat="43.64281" lon="3.79274">
        <ele>165.5</ele>
        <time>2015-11-18T11:54:47Z</time>
      </trkpt>
      <trkpt lat="43.6428" lon="3.79278">
        <ele>163.5</ele>
        <time>2015-11-18T11:54:48Z</time>
      </trkpt>
      <trkpt lat="43.64284" lon="3.79281">
        <ele>163.5</ele>
        <time>2015-11-18T11:54:50Z</time>
      </trkpt>
      <trkpt lat="43.64294" lon="3.79282">
        <ele>163.5</ele>
        <time>2015-11-18T11:54:51Z</time>
      </trkpt>
      <trkpt lat="43.64298" lon="3.79284">
        <ele>165</ele>
        <time>2015-11-18T11:54:53Z</time>
      </trkpt>
      <trkpt lat="43.64308" lon="3.79285">
        <ele>166</ele>
        <time>2015-11-18T11:54:55Z</time>
      </trkpt>
      <trkpt lat="43.64313" lon="3.79287">
        <ele>165</ele>
        <time>2015-11-18T11:54:56Z</time>
      </trkpt>
      <trkpt lat="43.64317" lon="3.79288">
        <ele>164.5</ele>
        <time>2015-11-18T11:54:57Z</time>
      </trkpt>
      <trkpt lat="43.64321" lon="3.79291">
        <ele>163.5</ele>
        <time>2015-11-18T11:54:58Z</time>
      </trkpt>
      <trkpt lat="43.64324" lon="3.79296">
        <ele>163.5</ele>
        <time>2015-11-18T11:54:59Z</time>
      </trkpt>
      <trkpt lat="43.64327" lon="3.793">
        <ele>161.5</ele>
        <time>2015-11-18T11:55:00Z</time>
      </trkpt>
      <trkpt lat="43.64327" lon="3.79303">
        <ele>161.5</ele>
        <time>2015-11-18T11:55:01Z</time>
      </trkpt>
      <trkpt lat="43.64329" lon="3.79313">
        <ele>162</ele>
        <time>2015-11-18T11:55:03Z</time>
      </trkpt>
      <trkpt lat="43.6433" lon="3.79317">
        <ele>162</ele>
        <time>2015-11-18T11:55:04Z</time>
      </trkpt>
      <trkpt lat="43.64332" lon="3.79327">
        <ele>159.5</ele>
        <time>2015-11-18T11:55:06Z</time>
      </trkpt>
      <trkpt lat="43.64332" lon="3.79331">
        <ele>159.5</ele>
        <time>2015-11-18T11:55:07Z</time>
      </trkpt>
      <trkpt lat="43.64335" lon="3.79334">
        <ele>157.5</ele>
        <time>2015-11-18T11:55:08Z</time>
      </trkpt>
      <trkpt lat="43.64338" lon="3.79338">
        <ele>157</ele>
        <time>2015-11-18T11:55:09Z</time>
      </trkpt>
      <trkpt lat="43.64342" lon="3.79342">
        <ele>157.5</ele>
        <time>2015-11-18T11:55:10Z</time>
      </trkpt>
      <trkpt lat="43.64345" lon="3.79348">
        <ele>157.5</ele>
        <time>2015-11-18T11:55:11Z</time>
      </trkpt>
      <trkpt lat="43.64348" lon="3.79359">
        <ele>153.5</ele>
        <time>2015-11-18T11:55:13Z</time>
      </trkpt>
      <trkpt lat="43.64351" lon="3.79364">
        <ele>153</ele>
        <time>2015-11-18T11:55:14Z</time>
      </trkpt>
      <trkpt lat="43.64354" lon="3.79366">
        <ele>153.5</ele>
        <time>2015-11-18T11:55:15Z</time>
      </trkpt>
      <trkpt lat="43.64357" lon="3.79367">
        <ele>153</ele>
        <time>2015-11-18T11:55:16Z</time>
      </trkpt>
      <trkpt lat="43.6436" lon="3.79369">
        <ele>153</ele>
        <time>2015-11-18T11:55:17Z</time>
      </trkpt>
      <trkpt lat="43.64362" lon="3.79372">
        <ele>151.5</ele>
        <time>2015-11-18T11:55:18Z</time>
      </trkpt>
      <trkpt lat="43.64365" lon="3.79374">
        <ele>150.5</ele>
        <time>2015-11-18T11:55:19Z</time>
      </trkpt>
      <trkpt lat="43.64373" lon="3.7938">
        <ele>150.5</ele>
        <time>2015-11-18T11:55:21Z</time>
      </trkpt>
      <trkpt lat="43.64377" lon="3.79382">
        <ele>152</ele>
        <time>2015-11-18T11:55:22Z</time>
      </trkpt>
      <trkpt lat="43.64382" lon="3.79383">
        <ele>149.5</ele>
        <time>2015-11-18T11:55:23Z</time>
      </trkpt>
      <trkpt lat="43.64387" lon="3.79383">
        <ele>149</ele>
        <time>2015-11-18T11:55:24Z</time>
      </trkpt>
      <trkpt lat="43.64392" lon="3.79384">
        <ele>148.5</ele>
        <time>2015-11-18T11:55:25Z</time>
      </trkpt>
      <trkpt lat="43.64396" lon="3.79384">
        <ele>147.5</ele>
        <time>2015-11-18T11:55:26Z</time>
      </trkpt>
      <trkpt lat="43.64399" lon="3.79389">
        <ele>148</ele>
        <time>2015-11-18T11:55:28Z</time>
      </trkpt>
      <trkpt lat="43.64399" lon="3.79392">
        <ele>145.5</ele>
        <time>2015-11-18T11:55:29Z</time>
      </trkpt>
      <trkpt lat="43.64399" lon="3.79396">
        <ele>146</ele>
        <time>2015-11-18T11:55:30Z</time>
      </trkpt>
      <trkpt lat="43.64398" lon="3.79401">
        <ele>146</ele>
        <time>2015-11-18T11:55:31Z</time>
      </trkpt>
      <trkpt lat="43.64398" lon="3.79404">
        <ele>145.5</ele>
        <time>2015-11-18T11:55:32Z</time>
      </trkpt>
      <trkpt lat="43.64395" lon="3.79405">
        <ele>146.5</ele>
        <time>2015-11-18T11:55:33Z</time>
      </trkpt>
      <trkpt lat="43.64392" lon="3.79408">
        <ele>144.5</ele>
        <time>2015-11-18T11:55:34Z</time>
      </trkpt>
      <trkpt lat="43.6439" lon="3.79412">
        <ele>142.5</ele>
        <time>2015-11-18T11:55:35Z</time>
      </trkpt>
      <trkpt lat="43.64391" lon="3.79416">
        <ele>143</ele>
        <time>2015-11-18T11:55:36Z</time>
      </trkpt>
      <trkpt lat="43.64392" lon="3.79419">
        <ele>142.5</ele>
        <time>2015-11-18T11:55:37Z</time>
      </trkpt>
      <trkpt lat="43.64395" lon="3.7942">
        <ele>143</ele>
        <time>2015-11-18T11:55:38Z</time>
      </trkpt>
      <trkpt lat="43.64398" lon="3.79421">
        <ele>144.5</ele>
        <time>2015-11-18T11:55:40Z</time>
      </trkpt>
      <trkpt lat="43.64399" lon="3.79422">
        <ele>145.5</ele>
        <time>2015-11-18T11:55:41Z</time>
      </trkpt>
      <trkpt lat="43.64401" lon="3.79422">
        <ele>144.5</ele>
        <time>2015-11-18T11:55:42Z</time>
      </trkpt>
      <trkpt lat="43.64403" lon="3.79423">
        <ele>143.5</ele>
        <time>2015-11-18T11:55:43Z</time>
      </trkpt>
      <trkpt lat="43.64404" lon="3.79424">
        <ele>143</ele>
        <time>2015-11-18T11:55:44Z</time>
      </trkpt>
      <trkpt lat="43.64404" lon="3.79426">
        <ele>142</ele>
        <time>2015-11-18T11:55:45Z</time>
      </trkpt>
      <trkpt lat="43.64404" lon="3.79427">
        <ele>140.5</ele>
        <time>2015-11-18T11:55:46Z</time>
      </trkpt>
      <trkpt lat="43.64404" lon="3.79428">
        <ele>140.5</ele>
        <time>2015-11-18T11:55:47Z</time>
      </trkpt>
      <trkpt lat="43.64405" lon="3.7943">
        <ele>139.5</ele>
        <time>2015-11-18T11:55:48Z</time>
      </trkpt>
      <trkpt lat="43.64407" lon="3.7943">
        <ele>138.5</ele>
        <time>2015-11-18T11:55:49Z</time>
      </trkpt>
      <trkpt lat="43.6441" lon="3.79431">
        <ele>137</ele>
        <time>2015-11-18T11:55:50Z</time>
      </trkpt>
      <trkpt lat="43.64411" lon="3.7943">
        <ele>136.5</ele>
        <time>2015-11-18T11:55:51Z</time>
      </trkpt>
      <trkpt lat="43.64414" lon="3.79428">
        <ele>135.5</ele>
        <time>2015-11-18T11:55:52Z</time>
      </trkpt>
      <trkpt lat="43.64415" lon="3.79426">
        <ele>135</ele>
        <time>2015-11-18T11:55:54Z</time>
      </trkpt>
      <trkpt lat="43.64417" lon="3.79426">
        <ele>135</ele>
        <time>2015-11-18T11:55:55Z</time>
      </trkpt>
      <trkpt lat="43.6442" lon="3.79429">
        <ele>135</ele>
        <time>2015-11-18T11:55:56Z</time>
      </trkpt>
      <trkpt lat="43.64422" lon="3.79432">
        <ele>135</ele>
        <time>2015-11-18T11:55:57Z</time>
      </trkpt>
      <trkpt lat="43.64424" lon="3.79433">
        <ele>135</ele>
        <time>2015-11-18T11:55:59Z</time>
      </trkpt>
      <trkpt lat="43.6443" lon="3.79432">
        <ele>136</ele>
        <time>2015-11-18T11:56:01Z</time>
      </trkpt>
      <trkpt lat="43.64433" lon="3.79431">
        <ele>134.5</ele>
        <time>2015-11-18T11:56:02Z</time>
      </trkpt>
      <trkpt lat="43.64436" lon="3.79429">
        <ele>137</ele>
        <time>2015-11-18T11:56:03Z</time>
      </trkpt>
      <trkpt lat="43.64437" lon="3.79429">
        <ele>137</ele>
        <time>2015-11-18T11:56:04Z</time>
      </trkpt>
      <trkpt lat="43.64439" lon="3.79428">
        <ele>134.5</ele>
        <time>2015-11-18T11:56:05Z</time>
      </trkpt>
      <trkpt lat="43.64441" lon="3.7943">
        <ele>135</ele>
        <time>2015-11-18T11:56:06Z</time>
      </trkpt>
      <trkpt lat="43.64444" lon="3.79429">
        <ele>137</ele>
        <time>2015-11-18T11:56:07Z</time>
      </trkpt>
      <trkpt lat="43.64446" lon="3.79429">
        <ele>136.5</ele>
        <time>2015-11-18T11:56:08Z</time>
      </trkpt>
      <trkpt lat="43.64455" lon="3.79426">
        <ele>137.5</ele>
        <time>2015-11-18T11:56:10Z</time>
      </trkpt>
      <trkpt lat="43.64457" lon="3.79424">
        <ele>137</ele>
        <time>2015-11-18T11:56:11Z</time>
      </trkpt>
      <trkpt lat="43.64461" lon="3.79427">
        <ele>134.5</ele>
        <time>2015-11-18T11:56:12Z</time>
      </trkpt>
      <trkpt lat="43.64464" lon="3.79428">
        <ele>134.5</ele>
        <time>2015-11-18T11:56:13Z</time>
      </trkpt>
      <trkpt lat="43.64467" lon="3.79431">
        <ele>134</ele>
        <time>2015-11-18T11:56:14Z</time>
      </trkpt>
      <trkpt lat="43.6447" lon="3.79431">
        <ele>133</ele>
        <time>2015-11-18T11:56:15Z</time>
      </trkpt>
      <trkpt lat="43.64472" lon="3.7943">
        <ele>132.5</ele>
        <time>2015-11-18T11:56:16Z</time>
      </trkpt>
      <trkpt lat="43.64474" lon="3.7943">
        <ele>132</ele>
        <time>2015-11-18T11:56:17Z</time>
      </trkpt>
      <trkpt lat="43.64479" lon="3.79436">
        <ele>131</ele>
        <time>2015-11-18T11:56:19Z</time>
      </trkpt>
      <trkpt lat="43.64481" lon="3.79441">
        <ele>130.5</ele>
        <time>2015-11-18T11:56:20Z</time>
      </trkpt>
      <trkpt lat="43.64485" lon="3.79446">
        <ele>129.5</ele>
        <time>2015-11-18T11:56:27Z</time>
      </trkpt>
      <trkpt lat="43.64485" lon="3.79444">
        <ele>129.5</ele>
        <time>2015-11-18T11:56:28Z</time>
      </trkpt>
      <trkpt lat="43.64487" lon="3.79445">
        <ele>128.5</ele>
        <time>2015-11-18T11:56:29Z</time>
      </trkpt>
      <trkpt lat="43.6449" lon="3.79445">
        <ele>125.5</ele>
        <time>2015-11-18T11:56:30Z</time>
      </trkpt>
      <trkpt lat="43.64499" lon="3.79444">
        <ele>119</ele>
        <time>2015-11-18T11:56:32Z</time>
      </trkpt>
      <trkpt lat="43.64503" lon="3.79442">
        <ele>116.5</ele>
        <time>2015-11-18T11:56:33Z</time>
      </trkpt>
      <trkpt lat="43.64507" lon="3.79441">
        <ele>116.5</ele>
        <time>2015-11-18T11:56:34Z</time>
      </trkpt>
      <trkpt lat="43.6451" lon="3.79441">
        <ele>118</ele>
        <time>2015-11-18T11:56:35Z</time>
      </trkpt>
      <trkpt lat="43.64512" lon="3.79439">
        <ele>118</ele>
        <time>2015-11-18T11:56:36Z</time>
      </trkpt>
      <trkpt lat="43.64521" lon="3.79438">
        <ele>115.5</ele>
        <time>2015-11-18T11:56:38Z</time>
      </trkpt>
      <trkpt lat="43.64526" lon="3.79437">
        <ele>115</ele>
        <time>2015-11-18T11:56:39Z</time>
      </trkpt>
      <trkpt lat="43.6453" lon="3.7944">
        <ele>115</ele>
        <time>2015-11-18T11:56:41Z</time>
      </trkpt>
      <trkpt lat="43.64534" lon="3.7944">
        <ele>116</ele>
        <time>2015-11-18T11:56:42Z</time>
      </trkpt>
      <trkpt lat="43.64538" lon="3.79441">
        <ele>117</ele>
        <time>2015-11-18T11:56:43Z</time>
      </trkpt>
      <trkpt lat="43.64543" lon="3.7944">
        <ele>117.5</ele>
        <time>2015-11-18T11:56:44Z</time>
      </trkpt>
      <trkpt lat="43.64547" lon="3.79439">
        <ele>117.5</ele>
        <time>2015-11-18T11:56:45Z</time>
      </trkpt>
      <trkpt lat="43.64558" lon="3.79435">
        <ele>112</ele>
        <time>2015-11-18T11:56:47Z</time>
      </trkpt>
      <trkpt lat="43.64562" lon="3.79435">
        <ele>112</ele>
        <time>2015-11-18T11:56:48Z</time>
      </trkpt>
      <trkpt lat="43.64565" lon="3.79435">
        <ele>113</ele>
        <time>2015-11-18T11:56:49Z</time>
      </trkpt>
      <trkpt lat="43.64569" lon="3.79437">
        <ele>113</ele>
        <time>2015-11-18T11:56:50Z</time>
      </trkpt>
      <trkpt lat="43.64571" lon="3.79442">
        <ele>112.5</ele>
        <time>2015-11-18T11:56:51Z</time>
      </trkpt>
      <trkpt lat="43.64574" lon="3.79444">
        <ele>111.5</ele>
        <time>2015-11-18T11:56:52Z</time>
      </trkpt>
      <trkpt lat="43.64579" lon="3.79441">
        <ele>108.5</ele>
        <time>2015-11-18T11:56:54Z</time>
      </trkpt>
      <trkpt lat="43.6458" lon="3.7944">
        <ele>109</ele>
        <time>2015-11-18T11:56:55Z</time>
      </trkpt>
      <trkpt lat="43.64586" lon="3.79435">
        <ele>104.5</ele>
        <time>2015-11-18T11:56:57Z</time>
      </trkpt>
      <trkpt lat="43.64586" lon="3.79431">
        <ele>103.5</ele>
        <time>2015-11-18T11:56:58Z</time>
      </trkpt>
      <trkpt lat="43.64588" lon="3.79429">
        <ele>102</ele>
        <time>2015-11-18T11:56:59Z</time>
      </trkpt>
      <trkpt lat="43.6459" lon="3.79426">
        <ele>101.5</ele>
        <time>2015-11-18T11:57:00Z</time>
      </trkpt>
      <trkpt lat="43.64591" lon="3.79423">
        <ele>101.5</ele>
        <time>2015-11-18T11:57:01Z</time>
      </trkpt>
      <trkpt lat="43.64593" lon="3.7942">
        <ele>101</ele>
        <time>2015-11-18T11:57:02Z</time>
      </trkpt>
      <trkpt lat="43.64595" lon="3.79418">
        <ele>101</ele>
        <time>2015-11-18T11:57:03Z</time>
      </trkpt>
      <trkpt lat="43.64597" lon="3.79415">
        <ele>101</ele>
        <time>2015-11-18T11:57:04Z</time>
      </trkpt>
      <trkpt lat="43.64598" lon="3.79413">
        <ele>101</ele>
        <time>2015-11-18T11:57:05Z</time>
      </trkpt>
      <trkpt lat="43.64599" lon="3.79409">
        <ele>101</ele>
        <time>2015-11-18T11:57:06Z</time>
      </trkpt>
      <trkpt lat="43.64601" lon="3.79408">
        <ele>101</ele>
        <time>2015-11-18T11:57:07Z</time>
      </trkpt>
      <trkpt lat="43.64609" lon="3.79405">
        <ele>99.5</ele>
        <time>2015-11-18T11:57:09Z</time>
      </trkpt>
      <trkpt lat="43.64611" lon="3.79402">
        <ele>96.5</ele>
        <time>2015-11-18T11:57:10Z</time>
      </trkpt>
      <trkpt lat="43.64614" lon="3.79399">
        <ele>95.5</ele>
        <time>2015-11-18T11:57:11Z</time>
      </trkpt>
      <trkpt lat="43.6462" lon="3.79392">
        <ele>98.5</ele>
        <time>2015-11-18T11:57:13Z</time>
      </trkpt>
      <trkpt lat="43.64621" lon="3.79389">
        <ele>98.5</ele>
        <time>2015-11-18T11:57:14Z</time>
      </trkpt>
      <trkpt lat="43.64624" lon="3.79384">
        <ele>101</ele>
        <time>2015-11-18T11:57:15Z</time>
      </trkpt>
      <trkpt lat="43.64624" lon="3.7938">
        <ele>101.5</ele>
        <time>2015-11-18T11:57:16Z</time>
      </trkpt>
      <trkpt lat="43.64624" lon="3.79376">
        <ele>102.5</ele>
        <time>2015-11-18T11:57:17Z</time>
      </trkpt>
      <trkpt lat="43.64626" lon="3.79374">
        <ele>104</ele>
        <time>2015-11-18T11:57:18Z</time>
      </trkpt>
      <trkpt lat="43.64626" lon="3.7937">
        <ele>104</ele>
        <time>2015-11-18T11:57:19Z</time>
      </trkpt>
      <trkpt lat="43.64626" lon="3.79366">
        <ele>106.5</ele>
        <time>2015-11-18T11:57:20Z</time>
      </trkpt>
      <trkpt lat="43.64627" lon="3.79363">
        <ele>106.5</ele>
        <time>2015-11-18T11:57:21Z</time>
      </trkpt>
      <trkpt lat="43.64628" lon="3.79358">
        <ele>107</ele>
        <time>2015-11-18T11:57:22Z</time>
      </trkpt>
      <trkpt lat="43.64628" lon="3.79355">
        <ele>105.5</ele>
        <time>2015-11-18T11:57:23Z</time>
      </trkpt>
      <trkpt lat="43.6463" lon="3.79352">
        <ele>106.5</ele>
        <time>2015-11-18T11:57:24Z</time>
      </trkpt>
      <trkpt lat="43.64633" lon="3.79349">
        <ele>107.5</ele>
        <time>2015-11-18T11:57:25Z</time>
      </trkpt>
      <trkpt lat="43.64631" lon="3.79344">
        <ele>107.5</ele>
        <time>2015-11-18T11:57:26Z</time>
      </trkpt>
      <trkpt lat="43.64633" lon="3.79339">
        <ele>107.5</ele>
        <time>2015-11-18T11:57:27Z</time>
      </trkpt>
      <trkpt lat="43.64633" lon="3.79334">
        <ele>107.5</ele>
        <time>2015-11-18T11:57:28Z</time>
      </trkpt>
      <trkpt lat="43.64633" lon="3.7933">
        <ele>107</ele>
        <time>2015-11-18T11:57:29Z</time>
      </trkpt>
      <trkpt lat="43.64633" lon="3.79326">
        <ele>107</ele>
        <time>2015-11-18T11:57:30Z</time>
      </trkpt>
      <trkpt lat="43.64633" lon="3.79322">
        <ele>107</ele>
        <time>2015-11-18T11:57:31Z</time>
      </trkpt>
      <trkpt lat="43.64633" lon="3.79317">
        <ele>107.5</ele>
        <time>2015-11-18T11:57:32Z</time>
      </trkpt>
      <trkpt lat="43.64634" lon="3.79313">
        <ele>108.5</ele>
        <time>2015-11-18T11:57:33Z</time>
      </trkpt>
      <trkpt lat="43.64637" lon="3.79308">
        <ele>109.5</ele>
        <time>2015-11-18T11:57:34Z</time>
      </trkpt>
      <trkpt lat="43.64636" lon="3.79303">
        <ele>109.5</ele>
        <time>2015-11-18T11:57:35Z</time>
      </trkpt>
      <trkpt lat="43.64638" lon="3.79299">
        <ele>109.5</ele>
        <time>2015-11-18T11:57:36Z</time>
      </trkpt>
      <trkpt lat="43.64638" lon="3.79294">
        <ele>111.5</ele>
        <time>2015-11-18T11:57:37Z</time>
      </trkpt>
      <trkpt lat="43.64639" lon="3.79288">
        <ele>114</ele>
        <time>2015-11-18T11:57:38Z</time>
      </trkpt>
      <trkpt lat="43.64638" lon="3.79283">
        <ele>114</ele>
        <time>2015-11-18T11:57:39Z</time>
      </trkpt>
      <trkpt lat="43.64638" lon="3.79278">
        <ele>114</ele>
        <time>2015-11-18T11:57:40Z</time>
      </trkpt>
      <trkpt lat="43.64639" lon="3.79276">
        <ele>113.5</ele>
        <time>2015-11-18T11:57:41Z</time>
      </trkpt>
      <trkpt lat="43.64642" lon="3.79277">
        <ele>112</ele>
        <time>2015-11-18T11:57:42Z</time>
      </trkpt>
      <trkpt lat="43.64644" lon="3.79281">
        <ele>110</ele>
        <time>2015-11-18T11:57:43Z</time>
      </trkpt>
      <trkpt lat="43.64649" lon="3.79283">
        <ele>109.5</ele>
        <time>2015-11-18T11:57:44Z</time>
      </trkpt>
      <trkpt lat="43.64653" lon="3.79284">
        <ele>109.5</ele>
        <time>2015-11-18T11:57:45Z</time>
      </trkpt>
      <trkpt lat="43.64655" lon="3.79283">
        <ele>107.5</ele>
        <time>2015-11-18T11:57:46Z</time>
      </trkpt>
      <trkpt lat="43.64664" lon="3.79274">
        <ele>107</ele>
        <time>2015-11-18T11:57:48Z</time>
      </trkpt>
      <trkpt lat="43.64665" lon="3.79266">
        <ele>107</ele>
        <time>2015-11-18T11:57:49Z</time>
      </trkpt>
      <trkpt lat="43.64666" lon="3.79259">
        <ele>108.5</ele>
        <time>2015-11-18T11:57:51Z</time>
      </trkpt>
      <trkpt lat="43.64668" lon="3.79255">
        <ele>110</ele>
        <time>2015-11-18T11:57:52Z</time>
      </trkpt>
      <trkpt lat="43.64671" lon="3.79252">
        <ele>111</ele>
        <time>2015-11-18T11:57:53Z</time>
      </trkpt>
      <trkpt lat="43.64673" lon="3.79248">
        <ele>113</ele>
        <time>2015-11-18T11:57:54Z</time>
      </trkpt>
      <trkpt lat="43.64676" lon="3.79243">
        <ele>115</ele>
        <time>2015-11-18T11:57:55Z</time>
      </trkpt>
      <trkpt lat="43.64679" lon="3.79239">
        <ele>116.5</ele>
        <time>2015-11-18T11:57:56Z</time>
      </trkpt>
      <trkpt lat="43.6468" lon="3.79234">
        <ele>117.5</ele>
        <time>2015-11-18T11:57:57Z</time>
      </trkpt>
      <trkpt lat="43.64682" lon="3.7923">
        <ele>118</ele>
        <time>2015-11-18T11:57:58Z</time>
      </trkpt>
      <trkpt lat="43.64683" lon="3.79225">
        <ele>119.5</ele>
        <time>2015-11-18T11:57:59Z</time>
      </trkpt>
      <trkpt lat="43.64684" lon="3.7922">
        <ele>119</ele>
        <time>2015-11-18T11:58:00Z</time>
      </trkpt>
      <trkpt lat="43.64684" lon="3.79215">
        <ele>119</ele>
        <time>2015-11-18T11:58:01Z</time>
      </trkpt>
      <trkpt lat="43.64685" lon="3.79209">
        <ele>120.5</ele>
        <time>2015-11-18T11:58:02Z</time>
      </trkpt>
      <trkpt lat="43.64687" lon="3.79204">
        <ele>121.5</ele>
        <time>2015-11-18T11:58:03Z</time>
      </trkpt>
      <trkpt lat="43.6469" lon="3.79202">
        <ele>120.5</ele>
        <time>2015-11-18T11:58:04Z</time>
      </trkpt>
      <trkpt lat="43.64691" lon="3.79198">
        <ele>121</ele>
        <time>2015-11-18T11:58:05Z</time>
      </trkpt>
      <trkpt lat="43.64692" lon="3.79201">
        <ele>122</ele>
        <time>2015-11-18T11:58:06Z</time>
      </trkpt>
      <trkpt lat="43.64693" lon="3.79204">
        <ele>123</ele>
        <time>2015-11-18T11:58:07Z</time>
      </trkpt>
      <trkpt lat="43.64693" lon="3.79201">
        <ele>122</ele>
        <time>2015-11-18T11:58:08Z</time>
      </trkpt>
      <trkpt lat="43.64694" lon="3.79199">
        <ele>118.5</ele>
        <time>2015-11-18T11:58:09Z</time>
      </trkpt>
      <trkpt lat="43.64695" lon="3.79202">
        <ele>120</ele>
        <time>2015-11-18T11:58:10Z</time>
      </trkpt>
      <trkpt lat="43.64698" lon="3.792">
        <ele>120.5</ele>
        <time>2015-11-18T11:58:11Z</time>
      </trkpt>
      <trkpt lat="43.647" lon="3.79198">
        <ele>120.5</ele>
        <time>2015-11-18T11:58:12Z</time>
      </trkpt>
      <trkpt lat="43.64703" lon="3.79196">
        <ele>119</ele>
        <time>2015-11-18T11:58:13Z</time>
      </trkpt>
      <trkpt lat="43.64706" lon="3.79194">
        <ele>118</ele>
        <time>2015-11-18T11:58:14Z</time>
      </trkpt>
      <trkpt lat="43.6471" lon="3.79192">
        <ele>116</ele>
        <time>2015-11-18T11:58:15Z</time>
      </trkpt>
      <trkpt lat="43.64713" lon="3.7919">
        <ele>115.5</ele>
        <time>2015-11-18T11:58:16Z</time>
      </trkpt>
      <trkpt lat="43.64715" lon="3.79187">
        <ele>112.5</ele>
        <time>2015-11-18T11:58:17Z</time>
      </trkpt>
      <trkpt lat="43.64717" lon="3.79182">
        <ele>108.5</ele>
        <time>2015-11-18T11:58:18Z</time>
      </trkpt>
      <trkpt lat="43.6472" lon="3.7918">
        <ele>105</ele>
        <time>2015-11-18T11:58:19Z</time>
      </trkpt>
      <trkpt lat="43.64723" lon="3.79178">
        <ele>102</ele>
        <time>2015-11-18T11:58:20Z</time>
      </trkpt>
      <trkpt lat="43.64726" lon="3.79175">
        <ele>102</ele>
        <time>2015-11-18T11:58:21Z</time>
      </trkpt>
      <trkpt lat="43.64729" lon="3.79173">
        <ele>103</ele>
        <time>2015-11-18T11:58:22Z</time>
      </trkpt>
      <trkpt lat="43.64731" lon="3.7917">
        <ele>104</ele>
        <time>2015-11-18T11:58:23Z</time>
      </trkpt>
      <trkpt lat="43.64734" lon="3.79166">
        <ele>105.5</ele>
        <time>2015-11-18T11:58:24Z</time>
      </trkpt>
      <trkpt lat="43.64737" lon="3.79163">
        <ele>106</ele>
        <time>2015-11-18T11:58:25Z</time>
      </trkpt>
      <trkpt lat="43.64738" lon="3.7916">
        <ele>103.5</ele>
        <time>2015-11-18T11:58:25Z</time>
      </trkpt>
      <trkpt lat="43.64745" lon="3.79152">
        <ele>103</ele>
        <time>2015-11-18T11:58:28Z</time>
      </trkpt>
      <trkpt lat="43.64749" lon="3.7915">
        <ele>106</ele>
        <time>2015-11-18T11:58:29Z</time>
      </trkpt>
      <trkpt lat="43.6475" lon="3.79149">
        <ele>106</ele>
        <time>2015-11-18T11:58:29Z</time>
      </trkpt>
      <trkpt lat="43.64752" lon="3.79146">
        <ele>107</ele>
        <time>2015-11-18T11:58:31Z</time>
      </trkpt>
      <trkpt lat="43.64753" lon="3.79144">
        <ele>106.5</ele>
        <time>2015-11-18T11:58:31Z</time>
      </trkpt>
      <trkpt lat="43.64754" lon="3.79141">
        <ele>109</ele>
        <time>2015-11-18T11:58:32Z</time>
      </trkpt>
      <trkpt lat="43.64755" lon="3.79139">
        <ele>109</ele>
        <time>2015-11-18T11:58:33Z</time>
      </trkpt>
      <trkpt lat="43.64756" lon="3.79137">
        <ele>108</ele>
        <time>2015-11-18T11:58:34Z</time>
      </trkpt>
      <trkpt lat="43.64756" lon="3.79136">
        <ele>109</ele>
        <time>2015-11-18T11:58:35Z</time>
      </trkpt>
      <trkpt lat="43.64761" lon="3.79135">
        <ele>113</ele>
        <time>2015-11-18T11:58:37Z</time>
      </trkpt>
      <trkpt lat="43.64763" lon="3.79134">
        <ele>113.5</ele>
        <time>2015-11-18T11:58:38Z</time>
      </trkpt>
      <trkpt lat="43.64763" lon="3.79134">
        <ele>112</ele>
        <time>2015-11-18T11:58:39Z</time>
      </trkpt>
      <trkpt lat="43.64764" lon="3.79135">
        <ele>108.5</ele>
        <time>2015-11-18T11:58:40Z</time>
      </trkpt>
      <trkpt lat="43.6478" lon="3.79138">
        <ele>102</ele>
        <time>2015-11-18T11:58:44Z</time>
      </trkpt>
      <trkpt lat="43.64789" lon="3.79131">
        <ele>98.5</ele>
        <time>2015-11-18T11:58:46Z</time>
      </trkpt>
      <trkpt lat="43.64798" lon="3.79122">
        <ele>97.5</ele>
        <time>2015-11-18T11:58:48Z</time>
      </trkpt>
      <trkpt lat="43.64805" lon="3.79106">
        <ele>91.5</ele>
        <time>2015-11-18T11:58:50Z</time>
      </trkpt>
      <trkpt lat="43.64813" lon="3.79087">
        <ele>93</ele>
        <time>2015-11-18T11:58:52Z</time>
      </trkpt>
      <trkpt lat="43.6482" lon="3.79074">
        <ele>94</ele>
        <time>2015-11-18T11:58:54Z</time>
      </trkpt>
      <trkpt lat="43.64824" lon="3.79073">
        <ele>93.5</ele>
        <time>2015-11-18T11:58:55Z</time>
      </trkpt>
      <trkpt lat="43.64829" lon="3.79073">
        <ele>92.5</ele>
        <time>2015-11-18T11:58:56Z</time>
      </trkpt>
      <trkpt lat="43.64835" lon="3.79071">
        <ele>91</ele>
        <time>2015-11-18T11:58:57Z</time>
      </trkpt>
      <trkpt lat="43.6484" lon="3.79068">
        <ele>91.5</ele>
        <time>2015-11-18T11:58:58Z</time>
      </trkpt>
      <trkpt lat="43.64845" lon="3.79065">
        <ele>91</ele>
        <time>2015-11-18T11:58:59Z</time>
      </trkpt>
      <trkpt lat="43.64848" lon="3.79061">
        <ele>90</ele>
        <time>2015-11-18T11:59:00Z</time>
      </trkpt>
      <trkpt lat="43.64857" lon="3.79052">
        <ele>92.5</ele>
        <time>2015-11-18T11:59:02Z</time>
      </trkpt>
      <trkpt lat="43.64861" lon="3.79049">
        <ele>92.5</ele>
        <time>2015-11-18T11:59:03Z</time>
      </trkpt>
      <trkpt lat="43.64864" lon="3.79046">
        <ele>92.5</ele>
        <time>2015-11-18T11:59:04Z</time>
      </trkpt>
      <trkpt lat="43.64867" lon="3.79043">
        <ele>92.5</ele>
        <time>2015-11-18T11:59:05Z</time>
      </trkpt>
      <trkpt lat="43.6487" lon="3.79044">
        <ele>92.5</ele>
        <time>2015-11-18T11:59:06Z</time>
      </trkpt>
      <trkpt lat="43.64873" lon="3.79042">
        <ele>92.5</ele>
        <time>2015-11-18T11:59:07Z</time>
      </trkpt>
      <trkpt lat="43.64875" lon="3.7904">
        <ele>92.5</ele>
        <time>2015-11-18T11:59:08Z</time>
      </trkpt>
      <trkpt lat="43.64878" lon="3.79038">
        <ele>94</ele>
        <time>2015-11-18T11:59:09Z</time>
      </trkpt>
      <trkpt lat="43.64888" lon="3.79038">
        <ele>98</ele>
        <time>2015-11-18T11:59:11Z</time>
      </trkpt>
      <trkpt lat="43.64892" lon="3.79036">
        <ele>98.5</ele>
        <time>2015-11-18T11:59:12Z</time>
      </trkpt>
      <trkpt lat="43.64895" lon="3.79034">
        <ele>98.5</ele>
        <time>2015-11-18T11:59:13Z</time>
      </trkpt>
      <trkpt lat="43.64898" lon="3.79032">
        <ele>99</ele>
        <time>2015-11-18T11:59:14Z</time>
      </trkpt>
      <trkpt lat="43.64901" lon="3.7903">
        <ele>99.5</ele>
        <time>2015-11-18T11:59:15Z</time>
      </trkpt>
      <trkpt lat="43.64904" lon="3.79027">
        <ele>102</ele>
        <time>2015-11-18T11:59:16Z</time>
      </trkpt>
      <trkpt lat="43.64914" lon="3.79022">
        <ele>111</ele>
        <time>2015-11-18T11:59:18Z</time>
      </trkpt>
      <trkpt lat="43.64918" lon="3.7902">
        <ele>113</ele>
        <time>2015-11-18T11:59:19Z</time>
      </trkpt>
      <trkpt lat="43.64922" lon="3.79018">
        <ele>112</ele>
        <time>2015-11-18T11:59:20Z</time>
      </trkpt>
      <trkpt lat="43.64926" lon="3.79014">
        <ele>112</ele>
        <time>2015-11-18T11:59:21Z</time>
      </trkpt>
      <trkpt lat="43.64928" lon="3.7901">
        <ele>112</ele>
        <time>2015-11-18T11:59:22Z</time>
      </trkpt>
      <trkpt lat="43.64931" lon="3.79007">
        <ele>112.5</ele>
        <time>2015-11-18T11:59:23Z</time>
      </trkpt>
      <trkpt lat="43.64935" lon="3.79005">
        <ele>113</ele>
        <time>2015-11-18T11:59:24Z</time>
      </trkpt>
      <trkpt lat="43.64938" lon="3.79002">
        <ele>114.5</ele>
        <time>2015-11-18T11:59:25Z</time>
      </trkpt>
      <trkpt lat="43.64942" lon="3.78999">
        <ele>115</ele>
        <time>2015-11-18T11:59:26Z</time>
      </trkpt>
      <trkpt lat="43.64945" lon="3.78996">
        <ele>115.5</ele>
        <time>2015-11-18T11:59:27Z</time>
      </trkpt>
      <trkpt lat="43.6495" lon="3.78993">
        <ele>117.5</ele>
        <time>2015-11-18T11:59:28Z</time>
      </trkpt>
      <trkpt lat="43.64957" lon="3.78988">
        <ele>117</ele>
        <time>2015-11-18T11:59:30Z</time>
      </trkpt>
      <trkpt lat="43.6496" lon="3.78985">
        <ele>119</ele>
        <time>2015-11-18T11:59:31Z</time>
      </trkpt>
      <trkpt lat="43.64963" lon="3.78982">
        <ele>119</ele>
        <time>2015-11-18T11:59:32Z</time>
      </trkpt>
      <trkpt lat="43.64966" lon="3.7898">
        <ele>119.5</ele>
        <time>2015-11-18T11:59:33Z</time>
      </trkpt>
      <trkpt lat="43.64969" lon="3.78977">
        <ele>120</ele>
        <time>2015-11-18T11:59:34Z</time>
      </trkpt>
      <trkpt lat="43.64972" lon="3.78974">
        <ele>119.5</ele>
        <time>2015-11-18T11:59:35Z</time>
      </trkpt>
      <trkpt lat="43.64976" lon="3.78971">
        <ele>116</ele>
        <time>2015-11-18T11:59:36Z</time>
      </trkpt>
      <trkpt lat="43.6498" lon="3.78968">
        <ele>115</ele>
        <time>2015-11-18T11:59:37Z</time>
      </trkpt>
      <trkpt lat="43.64983" lon="3.78965">
        <ele>115</ele>
        <time>2015-11-18T11:59:38Z</time>
      </trkpt>
      <trkpt lat="43.64985" lon="3.78962">
        <ele>114.5</ele>
        <time>2015-11-18T11:59:39Z</time>
      </trkpt>
      <trkpt lat="43.64988" lon="3.78959">
        <ele>114.5</ele>
        <time>2015-11-18T11:59:40Z</time>
      </trkpt>
      <trkpt lat="43.64992" lon="3.78957">
        <ele>114.5</ele>
        <time>2015-11-18T11:59:41Z</time>
      </trkpt>
      <trkpt lat="43.64995" lon="3.78954">
        <ele>115.5</ele>
        <time>2015-11-18T11:59:42Z</time>
      </trkpt>
      <trkpt lat="43.64999" lon="3.78951">
        <ele>118.5</ele>
        <time>2015-11-18T11:59:43Z</time>
      </trkpt>
      <trkpt lat="43.65002" lon="3.78947">
        <ele>122.5</ele>
        <time>2015-11-18T11:59:44Z</time>
      </trkpt>
      <trkpt lat="43.65006" lon="3.78944">
        <ele>123.5</ele>
        <time>2015-11-18T11:59:45Z</time>
      </trkpt>
      <trkpt lat="43.6501" lon="3.78941">
        <ele>124</ele>
        <time>2015-11-18T11:59:46Z</time>
      </trkpt>
      <trkpt lat="43.65013" lon="3.78938">
        <ele>123.5</ele>
        <time>2015-11-18T11:59:47Z</time>
      </trkpt>
      <trkpt lat="43.65017" lon="3.78935">
        <ele>122.5</ele>
        <time>2015-11-18T11:59:48Z</time>
      </trkpt>
      <trkpt lat="43.6502" lon="3.78932">
        <ele>123</ele>
        <time>2015-11-18T11:59:49Z</time>
      </trkpt>
      <trkpt lat="43.65021" lon="3.78927">
        <ele>124</ele>
        <time>2015-11-18T11:59:50Z</time>
      </trkpt>
      <trkpt lat="43.65022" lon="3.78922">
        <ele>125</ele>
        <time>2015-11-18T11:59:51Z</time>
      </trkpt>
      <trkpt lat="43.65022" lon="3.78919">
        <ele>127</ele>
        <time>2015-11-18T11:59:52Z</time>
      </trkpt>
      <trkpt lat="43.65023" lon="3.78915">
        <ele>127.5</ele>
        <time>2015-11-18T11:59:53Z</time>
      </trkpt>
      <trkpt lat="43.65029" lon="3.78908">
        <ele>126</ele>
        <time>2015-11-18T11:59:55Z</time>
      </trkpt>
      <trkpt lat="43.65033" lon="3.78907">
        <ele>125</ele>
        <time>2015-11-18T11:59:56Z</time>
      </trkpt>
      <trkpt lat="43.65037" lon="3.78905">
        <ele>125</ele>
        <time>2015-11-18T11:59:57Z</time>
      </trkpt>
      <trkpt lat="43.65041" lon="3.78902">
        <ele>124</ele>
        <time>2015-11-18T11:59:58Z</time>
      </trkpt>
      <trkpt lat="43.65044" lon="3.78898">
        <ele>123.5</ele>
        <time>2015-11-18T11:59:59Z</time>
      </trkpt>
      <trkpt lat="43.65046" lon="3.78895">
        <ele>123</ele>
        <time>2015-11-18T12:00:00Z</time>
      </trkpt>
      <trkpt lat="43.65049" lon="3.78891">
        <ele>123</ele>
        <time>2015-11-18T12:00:01Z</time>
      </trkpt>
      <trkpt lat="43.65053" lon="3.7889">
        <ele>122.5</ele>
        <time>2015-11-18T12:00:02Z</time>
      </trkpt>
      <trkpt lat="43.65054" lon="3.78892">
        <ele>123</ele>
        <time>2015-11-18T12:00:03Z</time>
      </trkpt>
      <trkpt lat="43.65055" lon="3.78894">
        <ele>122.5</ele>
        <time>2015-11-18T12:00:04Z</time>
      </trkpt>
      <trkpt lat="43.65056" lon="3.78897">
        <ele>121.5</ele>
        <time>2015-11-18T12:00:05Z</time>
      </trkpt>
      <trkpt lat="43.65057" lon="3.789">
        <ele>120</ele>
        <time>2015-11-18T12:00:06Z</time>
      </trkpt>
      <trkpt lat="43.65057" lon="3.78903">
        <ele>118.5</ele>
        <time>2015-11-18T12:00:07Z</time>
      </trkpt>
      <trkpt lat="43.65058" lon="3.78907">
        <ele>117</ele>
        <time>2015-11-18T12:00:08Z</time>
      </trkpt>
      <trkpt lat="43.65059" lon="3.7891">
        <ele>114.5</ele>
        <time>2015-11-18T12:00:09Z</time>
      </trkpt>
      <trkpt lat="43.65061" lon="3.78915">
        <ele>113</ele>
        <time>2015-11-18T12:00:10Z</time>
      </trkpt>
      <trkpt lat="43.65062" lon="3.7892">
        <ele>112</ele>
        <time>2015-11-18T12:00:11Z</time>
      </trkpt>
      <trkpt lat="43.65063" lon="3.78924">
        <ele>111.5</ele>
        <time>2015-11-18T12:00:12Z</time>
      </trkpt>
      <trkpt lat="43.65065" lon="3.78929">
        <ele>112</ele>
        <time>2015-11-18T12:00:13Z</time>
      </trkpt>
      <trkpt lat="43.65067" lon="3.78933">
        <ele>111.5</ele>
        <time>2015-11-18T12:00:14Z</time>
      </trkpt>
      <trkpt lat="43.65068" lon="3.78938">
        <ele>111</ele>
        <time>2015-11-18T12:00:15Z</time>
      </trkpt>
      <trkpt lat="43.6507" lon="3.78942">
        <ele>111.5</ele>
        <time>2015-11-18T12:00:16Z</time>
      </trkpt>
      <trkpt lat="43.65072" lon="3.78946">
        <ele>111.5</ele>
        <time>2015-11-18T12:00:17Z</time>
      </trkpt>
      <trkpt lat="43.65074" lon="3.78952">
        <ele>111</ele>
        <time>2015-11-18T12:00:18Z</time>
      </trkpt>
      <trkpt lat="43.65075" lon="3.78956">
        <ele>111</ele>
        <time>2015-11-18T12:00:19Z</time>
      </trkpt>
      <trkpt lat="43.65077" lon="3.78961">
        <ele>111</ele>
        <time>2015-11-18T12:00:20Z</time>
      </trkpt>
      <trkpt lat="43.65078" lon="3.78966">
        <ele>111</ele>
        <time>2015-11-18T12:00:21Z</time>
      </trkpt>
      <trkpt lat="43.6508" lon="3.78972">
        <ele>110</ele>
        <time>2015-11-18T12:00:22Z</time>
      </trkpt>
      <trkpt lat="43.65081" lon="3.78979">
        <ele>109</ele>
        <time>2015-11-18T12:00:23Z</time>
      </trkpt>
      <trkpt lat="43.65083" lon="3.78985">
        <ele>108.5</ele>
        <time>2015-11-18T12:00:24Z</time>
      </trkpt>
      <trkpt lat="43.65083" lon="3.78992">
        <ele>107.5</ele>
        <time>2015-11-18T12:00:25Z</time>
      </trkpt>
      <trkpt lat="43.65083" lon="3.78998">
        <ele>107.5</ele>
        <time>2015-11-18T12:00:26Z</time>
      </trkpt>
      <trkpt lat="43.65084" lon="3.79004">
        <ele>107</ele>
        <time>2015-11-18T12:00:27Z</time>
      </trkpt>
      <trkpt lat="43.65084" lon="3.7901">
        <ele>108.5</ele>
        <time>2015-11-18T12:00:28Z</time>
      </trkpt>
      <trkpt lat="43.65081" lon="3.79014">
        <ele>107</ele>
        <time>2015-11-18T12:00:29Z</time>
      </trkpt>
      <trkpt lat="43.6508" lon="3.79021">
        <ele>107</ele>
        <time>2015-11-18T12:00:30Z</time>
      </trkpt>
      <trkpt lat="43.65079" lon="3.79027">
        <ele>108</ele>
        <time>2015-11-18T12:00:31Z</time>
      </trkpt>
      <trkpt lat="43.65079" lon="3.79032">
        <ele>110.5</ele>
        <time>2015-11-18T12:00:32Z</time>
      </trkpt>
      <trkpt lat="43.65077" lon="3.79037">
        <ele>113</ele>
        <time>2015-11-18T12:00:33Z</time>
      </trkpt>
      <trkpt lat="43.65077" lon="3.79042">
        <ele>115</ele>
        <time>2015-11-18T12:00:34Z</time>
      </trkpt>
      <trkpt lat="43.65074" lon="3.79049">
        <ele>119.5</ele>
        <time>2015-11-18T12:00:36Z</time>
      </trkpt>
      <trkpt lat="43.65072" lon="3.79053">
        <ele>120</ele>
        <time>2015-11-18T12:00:37Z</time>
      </trkpt>
      <trkpt lat="43.6507" lon="3.79057">
        <ele>119</ele>
        <time>2015-11-18T12:00:38Z</time>
      </trkpt>
      <trkpt lat="43.65067" lon="3.79061">
        <ele>118</ele>
        <time>2015-11-18T12:00:39Z</time>
      </trkpt>
      <trkpt lat="43.65066" lon="3.79065">
        <ele>118</ele>
        <time>2015-11-18T12:00:40Z</time>
      </trkpt>
      <trkpt lat="43.65065" lon="3.7907">
        <ele>117</ele>
        <time>2015-11-18T12:00:41Z</time>
      </trkpt>
      <trkpt lat="43.65066" lon="3.79073">
        <ele>117.5</ele>
        <time>2015-11-18T12:00:42Z</time>
      </trkpt>
      <trkpt lat="43.65068" lon="3.79075">
        <ele>116.5</ele>
        <time>2015-11-18T12:00:43Z</time>
      </trkpt>
      <trkpt lat="43.65072" lon="3.79075">
        <ele>116.5</ele>
        <time>2015-11-18T12:00:44Z</time>
      </trkpt>
      <trkpt lat="43.65075" lon="3.79075">
        <ele>116</ele>
        <time>2015-11-18T12:00:45Z</time>
      </trkpt>
      <trkpt lat="43.65076" lon="3.79076">
        <ele>115.5</ele>
        <time>2015-11-18T12:00:46Z</time>
      </trkpt>
      <trkpt lat="43.65078" lon="3.79077">
        <ele>115</ele>
        <time>2015-11-18T12:00:47Z</time>
      </trkpt>
      <trkpt lat="43.65079" lon="3.79076">
        <ele>114.5</ele>
        <time>2015-11-18T12:00:48Z</time>
      </trkpt>
      <trkpt lat="43.65081" lon="3.79075">
        <ele>114</ele>
        <time>2015-11-18T12:00:49Z</time>
      </trkpt>
      <trkpt lat="43.65083" lon="3.79073">
        <ele>113.5</ele>
        <time>2015-11-18T12:00:50Z</time>
      </trkpt>
      <trkpt lat="43.65084" lon="3.79071">
        <ele>113</ele>
        <time>2015-11-18T12:00:50Z</time>
      </trkpt>
      <trkpt lat="43.65086" lon="3.79068">
        <ele>113</ele>
        <time>2015-11-18T12:00:51Z</time>
      </trkpt>
      <trkpt lat="43.65088" lon="3.79066">
        <ele>114</ele>
        <time>2015-11-18T12:00:52Z</time>
      </trkpt>
      <trkpt lat="43.65091" lon="3.79065">
        <ele>114.5</ele>
        <time>2015-11-18T12:00:53Z</time>
      </trkpt>
      <trkpt lat="43.65093" lon="3.79065">
        <ele>114.5</ele>
        <time>2015-11-18T12:00:55Z</time>
      </trkpt>
      <trkpt lat="43.65094" lon="3.79062">
        <ele>115</ele>
        <time>2015-11-18T12:00:55Z</time>
      </trkpt>
      <trkpt lat="43.65101" lon="3.7906">
        <ele>114</ele>
        <time>2015-11-18T12:00:58Z</time>
      </trkpt>
      <trkpt lat="43.65103" lon="3.79058">
        <ele>114.5</ele>
        <time>2015-11-18T12:00:58Z</time>
      </trkpt>
      <trkpt lat="43.65109" lon="3.79054">
        <ele>118</ele>
        <time>2015-11-18T12:01:00Z</time>
      </trkpt>
      <trkpt lat="43.65111" lon="3.79051">
        <ele>118</ele>
        <time>2015-11-18T12:01:01Z</time>
      </trkpt>
      <trkpt lat="43.65113" lon="3.7905">
        <ele>118.5</ele>
        <time>2015-11-18T12:01:02Z</time>
      </trkpt>
      <trkpt lat="43.65115" lon="3.79052">
        <ele>118.5</ele>
        <time>2015-11-18T12:01:03Z</time>
      </trkpt>
      <trkpt lat="43.65118" lon="3.79053">
        <ele>118.5</ele>
        <time>2015-11-18T12:01:04Z</time>
      </trkpt>
      <trkpt lat="43.65122" lon="3.79053">
        <ele>118.5</ele>
        <time>2015-11-18T12:01:05Z</time>
      </trkpt>
      <trkpt lat="43.65125" lon="3.79055">
        <ele>119</ele>
        <time>2015-11-18T12:01:06Z</time>
      </trkpt>
      <trkpt lat="43.65131" lon="3.79057">
        <ele>117.5</ele>
        <time>2015-11-18T12:01:07Z</time>
      </trkpt>
      <trkpt lat="43.65136" lon="3.79061">
        <ele>116</ele>
        <time>2015-11-18T12:01:08Z</time>
      </trkpt>
      <trkpt lat="43.65141" lon="3.7906">
        <ele>115.5</ele>
        <time>2015-11-18T12:01:09Z</time>
      </trkpt>
      <trkpt lat="43.65144" lon="3.79059">
        <ele>114.5</ele>
        <time>2015-11-18T12:01:10Z</time>
      </trkpt>
      <trkpt lat="43.65149" lon="3.79059">
        <ele>115</ele>
        <time>2015-11-18T12:01:12Z</time>
      </trkpt>
      <trkpt lat="43.65158" lon="3.79062">
        <ele>117.5</ele>
        <time>2015-11-18T12:01:13Z</time>
      </trkpt>
      <trkpt lat="43.6516" lon="3.79059">
        <ele>119</ele>
        <time>2015-11-18T12:01:14Z</time>
      </trkpt>
      <trkpt lat="43.65169" lon="3.79057">
        <ele>118</ele>
        <time>2015-11-18T12:01:16Z</time>
      </trkpt>
      <trkpt lat="43.65173" lon="3.79055">
        <ele>117.5</ele>
        <time>2015-11-18T12:01:17Z</time>
      </trkpt>
      <trkpt lat="43.65177" lon="3.79054">
        <ele>118</ele>
        <time>2015-11-18T12:01:18Z</time>
      </trkpt>
      <trkpt lat="43.6518" lon="3.79053">
        <ele>118.5</ele>
        <time>2015-11-18T12:01:19Z</time>
      </trkpt>
      <trkpt lat="43.65184" lon="3.79052">
        <ele>118.5</ele>
        <time>2015-11-18T12:01:20Z</time>
      </trkpt>
      <trkpt lat="43.65187" lon="3.79052">
        <ele>117.5</ele>
        <time>2015-11-18T12:01:21Z</time>
      </trkpt>
      <trkpt lat="43.65191" lon="3.79052">
        <ele>117.5</ele>
        <time>2015-11-18T12:01:22Z</time>
      </trkpt>
      <trkpt lat="43.65193" lon="3.79054">
        <ele>118.5</ele>
        <time>2015-11-18T12:01:23Z</time>
      </trkpt>
      <trkpt lat="43.65194" lon="3.79058">
        <ele>119</ele>
        <time>2015-11-18T12:01:25Z</time>
      </trkpt>
      <trkpt lat="43.65196" lon="3.79063">
        <ele>118.5</ele>
        <time>2015-11-18T12:01:25Z</time>
      </trkpt>
      <trkpt lat="43.65199" lon="3.79066">
        <ele>118.5</ele>
        <time>2015-11-18T12:01:26Z</time>
      </trkpt>
      <trkpt lat="43.65202" lon="3.79066">
        <ele>118.5</ele>
        <time>2015-11-18T12:01:27Z</time>
      </trkpt>
      <trkpt lat="43.65204" lon="3.79066">
        <ele>119</ele>
        <time>2015-11-18T12:01:28Z</time>
      </trkpt>
      <trkpt lat="43.65205" lon="3.79067">
        <ele>119</ele>
        <time>2015-11-18T12:01:29Z</time>
      </trkpt>
      <trkpt lat="43.65207" lon="3.79067">
        <ele>119</ele>
        <time>2015-11-18T12:01:30Z</time>
      </trkpt>
      <trkpt lat="43.65209" lon="3.79069">
        <ele>117.5</ele>
        <time>2015-11-18T12:01:31Z</time>
      </trkpt>
      <trkpt lat="43.65212" lon="3.79072">
        <ele>116.5</ele>
        <time>2015-11-18T12:01:32Z</time>
      </trkpt>
      <trkpt lat="43.65215" lon="3.79073">
        <ele>117</ele>
        <time>2015-11-18T12:01:33Z</time>
      </trkpt>
      <trkpt lat="43.65219" lon="3.79075">
        <ele>116</ele>
        <time>2015-11-18T12:01:34Z</time>
      </trkpt>
      <trkpt lat="43.65223" lon="3.79076">
        <ele>115</ele>
        <time>2015-11-18T12:01:35Z</time>
      </trkpt>
      <trkpt lat="43.65226" lon="3.79076">
        <ele>115.5</ele>
        <time>2015-11-18T12:01:36Z</time>
      </trkpt>
      <trkpt lat="43.65229" lon="3.79077">
        <ele>115.5</ele>
        <time>2015-11-18T12:01:37Z</time>
      </trkpt>
      <trkpt lat="43.65232" lon="3.79079">
        <ele>116.5</ele>
        <time>2015-11-18T12:01:38Z</time>
      </trkpt>
      <trkpt lat="43.65234" lon="3.79079">
        <ele>117</ele>
        <time>2015-11-18T12:01:39Z</time>
      </trkpt>
      <trkpt lat="43.65235" lon="3.7908">
        <ele>117.5</ele>
        <time>2015-11-18T12:01:40Z</time>
      </trkpt>
      <trkpt lat="43.65237" lon="3.7908">
        <ele>119</ele>
        <time>2015-11-18T12:01:41Z</time>
      </trkpt>
      <trkpt lat="43.65239" lon="3.79081">
        <ele>119.5</ele>
        <time>2015-11-18T12:01:42Z</time>
      </trkpt>
      <trkpt lat="43.65241" lon="3.79082">
        <ele>119.5</ele>
        <time>2015-11-18T12:01:43Z</time>
      </trkpt>
      <trkpt lat="43.65243" lon="3.79084">
        <ele>120</ele>
        <time>2015-11-18T12:01:44Z</time>
      </trkpt>
      <trkpt lat="43.65245" lon="3.79085">
        <ele>120</ele>
        <time>2015-11-18T12:01:45Z</time>
      </trkpt>
      <trkpt lat="43.65247" lon="3.79087">
        <ele>120</ele>
        <time>2015-11-18T12:01:46Z</time>
      </trkpt>
      <trkpt lat="43.65249" lon="3.79089">
        <ele>120.5</ele>
        <time>2015-11-18T12:01:47Z</time>
      </trkpt>
      <trkpt lat="43.65251" lon="3.7909">
        <ele>122</ele>
        <time>2015-11-18T12:01:48Z</time>
      </trkpt>
      <trkpt lat="43.65252" lon="3.79091">
        <ele>122.5</ele>
        <time>2015-11-18T12:01:49Z</time>
      </trkpt>
      <trkpt lat="43.65253" lon="3.79092">
        <ele>123.5</ele>
        <time>2015-11-18T12:01:50Z</time>
      </trkpt>
      <trkpt lat="43.65255" lon="3.79094">
        <ele>124</ele>
        <time>2015-11-18T12:01:51Z</time>
      </trkpt>
      <trkpt lat="43.65257" lon="3.79093">
        <ele>126</ele>
        <time>2015-11-18T12:01:52Z</time>
      </trkpt>
      <trkpt lat="43.65259" lon="3.79096">
        <ele>125.5</ele>
        <time>2015-11-18T12:01:53Z</time>
      </trkpt>
      <trkpt lat="43.65261" lon="3.79095">
        <ele>125.5</ele>
        <time>2015-11-18T12:01:54Z</time>
      </trkpt>
      <trkpt lat="43.65263" lon="3.79092">
        <ele>126.5</ele>
        <time>2015-11-18T12:01:55Z</time>
      </trkpt>
      <trkpt lat="43.65266" lon="3.79092">
        <ele>126.5</ele>
        <time>2015-11-18T12:01:56Z</time>
      </trkpt>
      <trkpt lat="43.65269" lon="3.79091">
        <ele>127</ele>
        <time>2015-11-18T12:01:57Z</time>
      </trkpt>
      <trkpt lat="43.65273" lon="3.79091">
        <ele>126.5</ele>
        <time>2015-11-18T12:01:58Z</time>
      </trkpt>
      <trkpt lat="43.65276" lon="3.79092">
        <ele>126</ele>
        <time>2015-11-18T12:01:59Z</time>
      </trkpt>
      <trkpt lat="43.6528" lon="3.79091">
        <ele>126</ele>
        <time>2015-11-18T12:02:00Z</time>
      </trkpt>
      <trkpt lat="43.65283" lon="3.79091">
        <ele>126.5</ele>
        <time>2015-11-18T12:02:01Z</time>
      </trkpt>
      <trkpt lat="43.65286" lon="3.79089">
        <ele>127</ele>
        <time>2015-11-18T12:02:02Z</time>
      </trkpt>
      <trkpt lat="43.65288" lon="3.79087">
        <ele>127.5</ele>
        <time>2015-11-18T12:02:03Z</time>
      </trkpt>
      <trkpt lat="43.65291" lon="3.79088">
        <ele>127.5</ele>
        <time>2015-11-18T12:02:04Z</time>
      </trkpt>
      <trkpt lat="43.65294" lon="3.79089">
        <ele>128.5</ele>
        <time>2015-11-18T12:02:05Z</time>
      </trkpt>
      <trkpt lat="43.65296" lon="3.79092">
        <ele>129</ele>
        <time>2015-11-18T12:02:06Z</time>
      </trkpt>
      <trkpt lat="43.65298" lon="3.79093">
        <ele>129.5</ele>
        <time>2015-11-18T12:02:07Z</time>
      </trkpt>
      <trkpt lat="43.653" lon="3.79095">
        <ele>130</ele>
        <time>2015-11-18T12:02:08Z</time>
      </trkpt>
      <trkpt lat="43.65302" lon="3.79097">
        <ele>130.5</ele>
        <time>2015-11-18T12:02:09Z</time>
      </trkpt>
      <trkpt lat="43.65304" lon="3.791">
        <ele>130.5</ele>
        <time>2015-11-18T12:02:10Z</time>
      </trkpt>
      <trkpt lat="43.65306" lon="3.79102">
        <ele>130</ele>
        <time>2015-11-18T12:02:11Z</time>
      </trkpt>
      <trkpt lat="43.65308" lon="3.79104">
        <ele>130.5</ele>
        <time>2015-11-18T12:02:12Z</time>
      </trkpt>
      <trkpt lat="43.65309" lon="3.79106">
        <ele>130</ele>
        <time>2015-11-18T12:02:13Z</time>
      </trkpt>
      <trkpt lat="43.65311" lon="3.79108">
        <ele>130</ele>
        <time>2015-11-18T12:02:14Z</time>
      </trkpt>
      <trkpt lat="43.65313" lon="3.79109">
        <ele>130.5</ele>
        <time>2015-11-18T12:02:15Z</time>
      </trkpt>
      <trkpt lat="43.65315" lon="3.79111">
        <ele>131</ele>
        <time>2015-11-18T12:02:16Z</time>
      </trkpt>
      <trkpt lat="43.65315" lon="3.79113">
        <ele>130</ele>
        <time>2015-11-18T12:02:17Z</time>
      </trkpt>
      <trkpt lat="43.65317" lon="3.79115">
        <ele>130</ele>
        <time>2015-11-18T12:02:18Z</time>
      </trkpt>
      <trkpt lat="43.6532" lon="3.79116">
        <ele>131.5</ele>
        <time>2015-11-18T12:02:19Z</time>
      </trkpt>
      <trkpt lat="43.65321" lon="3.79117">
        <ele>132.5</ele>
        <time>2015-11-18T12:02:20Z</time>
      </trkpt>
      <trkpt lat="43.65323" lon="3.79118">
        <ele>133.5</ele>
        <time>2015-11-18T12:02:21Z</time>
      </trkpt>
      <trkpt lat="43.65325" lon="3.79118">
        <ele>134</ele>
        <time>2015-11-18T12:02:22Z</time>
      </trkpt>
      <trkpt lat="43.65328" lon="3.79118">
        <ele>133.5</ele>
        <time>2015-11-18T12:02:23Z</time>
      </trkpt>
      <trkpt lat="43.65331" lon="3.79118">
        <ele>134</ele>
        <time>2015-11-18T12:02:24Z</time>
      </trkpt>
      <trkpt lat="43.65333" lon="3.79118">
        <ele>135</ele>
        <time>2015-11-18T12:02:25Z</time>
      </trkpt>
      <trkpt lat="43.65336" lon="3.79118">
        <ele>135.5</ele>
        <time>2015-11-18T12:02:26Z</time>
      </trkpt>
      <trkpt lat="43.65339" lon="3.79119">
        <ele>135.5</ele>
        <time>2015-11-18T12:02:27Z</time>
      </trkpt>
      <trkpt lat="43.65342" lon="3.79119">
        <ele>136</ele>
        <time>2015-11-18T12:02:28Z</time>
      </trkpt>
      <trkpt lat="43.65345" lon="3.79119">
        <ele>136</ele>
        <time>2015-11-18T12:02:29Z</time>
      </trkpt>
      <trkpt lat="43.65349" lon="3.79119">
        <ele>136</ele>
        <time>2015-11-18T12:02:30Z</time>
      </trkpt>
      <trkpt lat="43.65353" lon="3.7912">
        <ele>136</ele>
        <time>2015-11-18T12:02:31Z</time>
      </trkpt>
      <trkpt lat="43.65357" lon="3.7912">
        <ele>137</ele>
        <time>2015-11-18T12:02:32Z</time>
      </trkpt>
      <trkpt lat="43.65361" lon="3.7912">
        <ele>137</ele>
        <time>2015-11-18T12:02:33Z</time>
      </trkpt>
      <trkpt lat="43.65365" lon="3.7912">
        <ele>137</ele>
        <time>2015-11-18T12:02:34Z</time>
      </trkpt>
      <trkpt lat="43.65369" lon="3.79121">
        <ele>137</ele>
        <time>2015-11-18T12:02:35Z</time>
      </trkpt>
      <trkpt lat="43.65373" lon="3.79122">
        <ele>136.5</ele>
        <time>2015-11-18T12:02:36Z</time>
      </trkpt>
      <trkpt lat="43.65378" lon="3.79124">
        <ele>136</ele>
        <time>2015-11-18T12:02:37Z</time>
      </trkpt>
      <trkpt lat="43.65382" lon="3.79124">
        <ele>135.5</ele>
        <time>2015-11-18T12:02:38Z</time>
      </trkpt>
      <trkpt lat="43.65387" lon="3.79127">
        <ele>134</ele>
        <time>2015-11-18T12:02:39Z</time>
      </trkpt>
      <trkpt lat="43.65392" lon="3.79128">
        <ele>135</ele>
        <time>2015-11-18T12:02:40Z</time>
      </trkpt>
      <trkpt lat="43.65396" lon="3.79132">
        <ele>133</ele>
        <time>2015-11-18T12:02:41Z</time>
      </trkpt>
      <trkpt lat="43.65402" lon="3.79132">
        <ele>133.5</ele>
        <time>2015-11-18T12:02:42Z</time>
      </trkpt>
      <trkpt lat="43.65408" lon="3.79134">
        <ele>133.5</ele>
        <time>2015-11-18T12:02:43Z</time>
      </trkpt>
      <trkpt lat="43.65413" lon="3.79136">
        <ele>133.5</ele>
        <time>2015-11-18T12:02:44Z</time>
      </trkpt>
      <trkpt lat="43.65418" lon="3.79137">
        <ele>133</ele>
        <time>2015-11-18T12:02:45Z</time>
      </trkpt>
      <trkpt lat="43.65423" lon="3.79139">
        <ele>133</ele>
        <time>2015-11-18T12:02:46Z</time>
      </trkpt>
      <trkpt lat="43.65428" lon="3.79139">
        <ele>132</ele>
        <time>2015-11-18T12:02:47Z</time>
      </trkpt>
      <trkpt lat="43.65434" lon="3.79141">
        <ele>131</ele>
        <time>2015-11-18T12:02:48Z</time>
      </trkpt>
      <trkpt lat="43.65438" lon="3.79138">
        <ele>130</ele>
        <time>2015-11-18T12:02:49Z</time>
      </trkpt>
      <trkpt lat="43.65442" lon="3.79138">
        <ele>129.5</ele>
        <time>2015-11-18T12:02:50Z</time>
      </trkpt>
      <trkpt lat="43.65453" lon="3.79146">
        <ele>130</ele>
        <time>2015-11-18T12:02:52Z</time>
      </trkpt>
      <trkpt lat="43.65457" lon="3.79143">
        <ele>130</ele>
        <time>2015-11-18T12:02:53Z</time>
      </trkpt>
      <trkpt lat="43.6546" lon="3.79143">
        <ele>130</ele>
        <time>2015-11-18T12:02:54Z</time>
      </trkpt>
      <trkpt lat="43.65463" lon="3.79142">
        <ele>130</ele>
        <time>2015-11-18T12:02:55Z</time>
      </trkpt>
      <trkpt lat="43.65467" lon="3.79142">
        <ele>130</ele>
        <time>2015-11-18T12:02:56Z</time>
      </trkpt>
      <trkpt lat="43.6547" lon="3.79141">
        <ele>129.5</ele>
        <time>2015-11-18T12:02:57Z</time>
      </trkpt>
      <trkpt lat="43.65473" lon="3.79144">
        <ele>128.5</ele>
        <time>2015-11-18T12:02:58Z</time>
      </trkpt>
      <trkpt lat="43.65476" lon="3.79145">
        <ele>128</ele>
        <time>2015-11-18T12:02:59Z</time>
      </trkpt>
      <trkpt lat="43.6548" lon="3.79146">
        <ele>127</ele>
        <time>2015-11-18T12:03:00Z</time>
      </trkpt>
      <trkpt lat="43.65488" lon="3.79155">
        <ele>125.5</ele>
        <time>2015-11-18T12:03:02Z</time>
      </trkpt>
      <trkpt lat="43.65491" lon="3.79156">
        <ele>125</ele>
        <time>2015-11-18T12:03:03Z</time>
      </trkpt>
      <trkpt lat="43.65494" lon="3.79155">
        <ele>126</ele>
        <time>2015-11-18T12:03:04Z</time>
      </trkpt>
      <trkpt lat="43.65497" lon="3.79157">
        <ele>125.5</ele>
        <time>2015-11-18T12:03:05Z</time>
      </trkpt>
      <trkpt lat="43.655" lon="3.79158">
        <ele>125.5</ele>
        <time>2015-11-18T12:03:06Z</time>
      </trkpt>
      <trkpt lat="43.65504" lon="3.7916">
        <ele>124.5</ele>
        <time>2015-11-18T12:03:07Z</time>
      </trkpt>
      <trkpt lat="43.65507" lon="3.79162">
        <ele>124</ele>
        <time>2015-11-18T12:03:08Z</time>
      </trkpt>
      <trkpt lat="43.6551" lon="3.79161">
        <ele>125.5</ele>
        <time>2015-11-18T12:03:09Z</time>
      </trkpt>
      <trkpt lat="43.65514" lon="3.79162">
        <ele>125</ele>
        <time>2015-11-18T12:03:10Z</time>
      </trkpt>
      <trkpt lat="43.65517" lon="3.79162">
        <ele>123.5</ele>
        <time>2015-11-18T12:03:11Z</time>
      </trkpt>
      <trkpt lat="43.65521" lon="3.79163">
        <ele>121.5</ele>
        <time>2015-11-18T12:03:12Z</time>
      </trkpt>
      <trkpt lat="43.65525" lon="3.79164">
        <ele>120</ele>
        <time>2015-11-18T12:03:13Z</time>
      </trkpt>
      <trkpt lat="43.65528" lon="3.79163">
        <ele>120.5</ele>
        <time>2015-11-18T12:03:14Z</time>
      </trkpt>
      <trkpt lat="43.65532" lon="3.79164">
        <ele>120.5</ele>
        <time>2015-11-18T12:03:15Z</time>
      </trkpt>
      <trkpt lat="43.65536" lon="3.79166">
        <ele>120</ele>
        <time>2015-11-18T12:03:16Z</time>
      </trkpt>
      <trkpt lat="43.65541" lon="3.79169">
        <ele>120</ele>
        <time>2015-11-18T12:03:17Z</time>
      </trkpt>
      <trkpt lat="43.65546" lon="3.79172">
        <ele>120.5</ele>
        <time>2015-11-18T12:03:18Z</time>
      </trkpt>
      <trkpt lat="43.65548" lon="3.79177">
        <ele>121</ele>
        <time>2015-11-18T12:03:19Z</time>
      </trkpt>
      <trkpt lat="43.65551" lon="3.79187">
        <ele>119</ele>
        <time>2015-11-18T12:03:21Z</time>
      </trkpt>
      <trkpt lat="43.65553" lon="3.7919">
        <ele>119</ele>
        <time>2015-11-18T12:03:22Z</time>
      </trkpt>
      <trkpt lat="43.65554" lon="3.79192">
        <ele>119.5</ele>
        <time>2015-11-18T12:03:23Z</time>
      </trkpt>
      <trkpt lat="43.65556" lon="3.79192">
        <ele>119.5</ele>
        <time>2015-11-18T12:03:24Z</time>
      </trkpt>
      <trkpt lat="43.65558" lon="3.79192">
        <ele>121</ele>
        <time>2015-11-18T12:03:25Z</time>
      </trkpt>
      <trkpt lat="43.6556" lon="3.79193">
        <ele>122.5</ele>
        <time>2015-11-18T12:03:26Z</time>
      </trkpt>
      <trkpt lat="43.65562" lon="3.79193">
        <ele>123.5</ele>
        <time>2015-11-18T12:03:27Z</time>
      </trkpt>
      <trkpt lat="43.65564" lon="3.79194">
        <ele>125</ele>
        <time>2015-11-18T12:03:28Z</time>
      </trkpt>
      <trkpt lat="43.65566" lon="3.79194">
        <ele>127</ele>
        <time>2015-11-18T12:03:29Z</time>
      </trkpt>
      <trkpt lat="43.65569" lon="3.79195">
        <ele>127.5</ele>
        <time>2015-11-18T12:03:30Z</time>
      </trkpt>
      <trkpt lat="43.65571" lon="3.79198">
        <ele>127.5</ele>
        <time>2015-11-18T12:03:31Z</time>
      </trkpt>
      <trkpt lat="43.65573" lon="3.79199">
        <ele>127.5</ele>
        <time>2015-11-18T12:03:32Z</time>
      </trkpt>
      <trkpt lat="43.65576" lon="3.792">
        <ele>128.5</ele>
        <time>2015-11-18T12:03:33Z</time>
      </trkpt>
      <trkpt lat="43.65578" lon="3.79202">
        <ele>128.5</ele>
        <time>2015-11-18T12:03:34Z</time>
      </trkpt>
      <trkpt lat="43.6558" lon="3.79205">
        <ele>128.5</ele>
        <time>2015-11-18T12:03:35Z</time>
      </trkpt>
      <trkpt lat="43.65581" lon="3.79208">
        <ele>128</ele>
        <time>2015-11-18T12:03:36Z</time>
      </trkpt>
      <trkpt lat="43.65583" lon="3.79208">
        <ele>128.5</ele>
        <time>2015-11-18T12:03:37Z</time>
      </trkpt>
      <trkpt lat="43.65585" lon="3.7921">
        <ele>128</ele>
        <time>2015-11-18T12:03:38Z</time>
      </trkpt>
      <trkpt lat="43.65588" lon="3.79212">
        <ele>127.5</ele>
        <time>2015-11-18T12:03:39Z</time>
      </trkpt>
      <trkpt lat="43.6559" lon="3.79213">
        <ele>128</ele>
        <time>2015-11-18T12:03:40Z</time>
      </trkpt>
      <trkpt lat="43.65592" lon="3.79214">
        <ele>128.5</ele>
        <time>2015-11-18T12:03:41Z</time>
      </trkpt>
      <trkpt lat="43.65594" lon="3.79216">
        <ele>129</ele>
        <time>2015-11-18T12:03:42Z</time>
      </trkpt>
      <trkpt lat="43.65596" lon="3.79216">
        <ele>129</ele>
        <time>2015-11-18T12:03:43Z</time>
      </trkpt>
      <trkpt lat="43.65599" lon="3.79217">
        <ele>129</ele>
        <time>2015-11-18T12:03:44Z</time>
      </trkpt>
      <trkpt lat="43.65601" lon="3.79218">
        <ele>129</ele>
        <time>2015-11-18T12:03:45Z</time>
      </trkpt>
      <trkpt lat="43.65604" lon="3.7922">
        <ele>129.5</ele>
        <time>2015-11-18T12:03:46Z</time>
      </trkpt>
      <trkpt lat="43.65606" lon="3.79221">
        <ele>131</ele>
        <time>2015-11-18T12:03:47Z</time>
      </trkpt>
      <trkpt lat="43.65608" lon="3.79223">
        <ele>131</ele>
        <time>2015-11-18T12:03:48Z</time>
      </trkpt>
      <trkpt lat="43.6561" lon="3.79222">
        <ele>132.5</ele>
        <time>2015-11-18T12:03:49Z</time>
      </trkpt>
      <trkpt lat="43.65611" lon="3.79223">
        <ele>134</ele>
        <time>2015-11-18T12:03:50Z</time>
      </trkpt>
      <trkpt lat="43.65613" lon="3.79224">
        <ele>134.5</ele>
        <time>2015-11-18T12:03:51Z</time>
      </trkpt>
      <trkpt lat="43.65615" lon="3.79226">
        <ele>133</ele>
        <time>2015-11-18T12:03:52Z</time>
      </trkpt>
      <trkpt lat="43.65617" lon="3.79226">
        <ele>133</ele>
        <time>2015-11-18T12:03:53Z</time>
      </trkpt>
      <trkpt lat="43.65619" lon="3.79228">
        <ele>133.5</ele>
        <time>2015-11-18T12:03:54Z</time>
      </trkpt>
      <trkpt lat="43.65622" lon="3.7923">
        <ele>133.5</ele>
        <time>2015-11-18T12:03:55Z</time>
      </trkpt>
      <trkpt lat="43.65624" lon="3.79233">
        <ele>133.5</ele>
        <time>2015-11-18T12:03:56Z</time>
      </trkpt>
      <trkpt lat="43.65626" lon="3.79233">
        <ele>135</ele>
        <time>2015-11-18T12:03:57Z</time>
      </trkpt>
      <trkpt lat="43.65628" lon="3.79234">
        <ele>136.5</ele>
        <time>2015-11-18T12:03:58Z</time>
      </trkpt>
      <trkpt lat="43.65629" lon="3.79233">
        <ele>138</ele>
        <time>2015-11-18T12:03:59Z</time>
      </trkpt>
      <trkpt lat="43.6563" lon="3.79234">
        <ele>138</ele>
        <time>2015-11-18T12:04:00Z</time>
      </trkpt>
      <trkpt lat="43.65632" lon="3.79235">
        <ele>137</ele>
        <time>2015-11-18T12:04:01Z</time>
      </trkpt>
      <trkpt lat="43.65634" lon="3.79236">
        <ele>137</ele>
        <time>2015-11-18T12:04:02Z</time>
      </trkpt>
      <trkpt lat="43.65635" lon="3.79239">
        <ele>137</ele>
        <time>2015-11-18T12:04:03Z</time>
      </trkpt>
      <trkpt lat="43.65636" lon="3.79247">
        <ele>138</ele>
        <time>2015-11-18T12:04:05Z</time>
      </trkpt>
      <trkpt lat="43.65637" lon="3.7925">
        <ele>138</ele>
        <time>2015-11-18T12:04:06Z</time>
      </trkpt>
      <trkpt lat="43.65637" lon="3.79251">
        <ele>138</ele>
        <time>2015-11-18T12:04:07Z</time>
      </trkpt>
      <trkpt lat="43.65638" lon="3.79254">
        <ele>136.5</ele>
        <time>2015-11-18T12:04:08Z</time>
      </trkpt>
      <trkpt lat="43.65639" lon="3.79255">
        <ele>137.5</ele>
        <time>2015-11-18T12:04:09Z</time>
      </trkpt>
      <trkpt lat="43.65639" lon="3.79258">
        <ele>138</ele>
        <time>2015-11-18T12:04:10Z</time>
      </trkpt>
      <trkpt lat="43.6564" lon="3.7926">
        <ele>138</ele>
        <time>2015-11-18T12:04:11Z</time>
      </trkpt>
      <trkpt lat="43.65641" lon="3.79261">
        <ele>138</ele>
        <time>2015-11-18T12:04:12Z</time>
      </trkpt>
      <trkpt lat="43.65648" lon="3.79263">
        <ele>136</ele>
        <time>2015-11-18T12:04:14Z</time>
      </trkpt>
      <trkpt lat="43.65655" lon="3.79272">
        <ele>135.5</ele>
        <time>2015-11-18T12:04:16Z</time>
      </trkpt>
      <trkpt lat="43.65657" lon="3.79276">
        <ele>136</ele>
        <time>2015-11-18T12:04:17Z</time>
      </trkpt>
      <trkpt lat="43.65659" lon="3.79278">
        <ele>137</ele>
        <time>2015-11-18T12:04:18Z</time>
      </trkpt>
      <trkpt lat="43.65662" lon="3.7928">
        <ele>137</ele>
        <time>2015-11-18T12:04:19Z</time>
      </trkpt>
      <trkpt lat="43.65665" lon="3.79281">
        <ele>137.5</ele>
        <time>2015-11-18T12:04:20Z</time>
      </trkpt>
      <trkpt lat="43.65668" lon="3.79282">
        <ele>138</ele>
        <time>2015-11-18T12:04:21Z</time>
      </trkpt>
      <trkpt lat="43.65671" lon="3.79285">
        <ele>137</ele>
        <time>2015-11-18T12:04:22Z</time>
      </trkpt>
      <trkpt lat="43.65674" lon="3.79286">
        <ele>136.5</ele>
        <time>2015-11-18T12:04:23Z</time>
      </trkpt>
      <trkpt lat="43.65677" lon="3.79289">
        <ele>136</ele>
        <time>2015-11-18T12:04:24Z</time>
      </trkpt>
      <trkpt lat="43.65679" lon="3.79292">
        <ele>136</ele>
        <time>2015-11-18T12:04:24Z</time>
      </trkpt>
      <trkpt lat="43.65681" lon="3.79295">
        <ele>135.5</ele>
        <time>2015-11-18T12:04:26Z</time>
      </trkpt>
      <trkpt lat="43.65682" lon="3.79298">
        <ele>135</ele>
        <time>2015-11-18T12:04:27Z</time>
      </trkpt>
      <trkpt lat="43.65684" lon="3.79299">
        <ele>134.5</ele>
        <time>2015-11-18T12:04:27Z</time>
      </trkpt>
      <trkpt lat="43.65686" lon="3.79299">
        <ele>134.5</ele>
        <time>2015-11-18T12:04:29Z</time>
      </trkpt>
      <trkpt lat="43.65692" lon="3.79303">
        <ele>136</ele>
        <time>2015-11-18T12:04:30Z</time>
      </trkpt>
      <trkpt lat="43.65698" lon="3.79309">
        <ele>136</ele>
        <time>2015-11-18T12:04:33Z</time>
      </trkpt>
      <trkpt lat="43.65701" lon="3.79311">
        <ele>135</ele>
        <time>2015-11-18T12:04:33Z</time>
      </trkpt>
      <trkpt lat="43.65704" lon="3.79309">
        <ele>136.5</ele>
        <time>2015-11-18T12:04:34Z</time>
      </trkpt>
      <trkpt lat="43.65709" lon="3.79309">
        <ele>136.5</ele>
        <time>2015-11-18T12:04:35Z</time>
      </trkpt>
      <trkpt lat="43.65714" lon="3.79309">
        <ele>136</ele>
        <time>2015-11-18T12:04:36Z</time>
      </trkpt>
      <trkpt lat="43.65719" lon="3.79313">
        <ele>135.5</ele>
        <time>2015-11-18T12:04:37Z</time>
      </trkpt>
      <trkpt lat="43.65722" lon="3.79318">
        <ele>135.5</ele>
        <time>2015-11-18T12:04:38Z</time>
      </trkpt>
      <trkpt lat="43.65726" lon="3.79323">
        <ele>136</ele>
        <time>2015-11-18T12:04:39Z</time>
      </trkpt>
      <trkpt lat="43.65729" lon="3.79327">
        <ele>134.5</ele>
        <time>2015-11-18T12:04:40Z</time>
      </trkpt>
      <trkpt lat="43.65733" lon="3.79331">
        <ele>134</ele>
        <time>2015-11-18T12:04:41Z</time>
      </trkpt>
      <trkpt lat="43.65737" lon="3.79336">
        <ele>133.5</ele>
        <time>2015-11-18T12:04:42Z</time>
      </trkpt>
      <trkpt lat="43.65741" lon="3.79341">
        <ele>132.5</ele>
        <time>2015-11-18T12:04:43Z</time>
      </trkpt>
      <trkpt lat="43.65746" lon="3.79346">
        <ele>131.5</ele>
        <time>2015-11-18T12:04:44Z</time>
      </trkpt>
      <trkpt lat="43.65751" lon="3.79352">
        <ele>131</ele>
        <time>2015-11-18T12:04:45Z</time>
      </trkpt>
      <trkpt lat="43.65753" lon="3.79357">
        <ele>130.5</ele>
        <time>2015-11-18T12:04:46Z</time>
      </trkpt>
      <trkpt lat="43.65754" lon="3.79362">
        <ele>129</ele>
        <time>2015-11-18T12:04:48Z</time>
      </trkpt>
      <trkpt lat="43.65757" lon="3.79367">
        <ele>129.5</ele>
        <time>2015-11-18T12:04:49Z</time>
      </trkpt>
      <trkpt lat="43.6576" lon="3.79372">
        <ele>128.5</ele>
        <time>2015-11-18T12:04:49Z</time>
      </trkpt>
      <trkpt lat="43.65762" lon="3.79378">
        <ele>127</ele>
        <time>2015-11-18T12:04:50Z</time>
      </trkpt>
      <trkpt lat="43.65764" lon="3.79383">
        <ele>126</ele>
        <time>2015-11-18T12:04:51Z</time>
      </trkpt>
      <trkpt lat="43.65769" lon="3.79388">
        <ele>126.5</ele>
        <time>2015-11-18T12:04:52Z</time>
      </trkpt>
      <trkpt lat="43.65773" lon="3.7939">
        <ele>126.5</ele>
        <time>2015-11-18T12:04:53Z</time>
      </trkpt>
      <trkpt lat="43.65775" lon="3.79396">
        <ele>125</ele>
        <time>2015-11-18T12:04:55Z</time>
      </trkpt>
      <trkpt lat="43.65779" lon="3.79399">
        <ele>124.5</ele>
        <time>2015-11-18T12:04:56Z</time>
      </trkpt>
      <trkpt lat="43.65786" lon="3.79403">
        <ele>126</ele>
        <time>2015-11-18T12:04:57Z</time>
      </trkpt>
      <trkpt lat="43.65789" lon="3.79405">
        <ele>126.5</ele>
        <time>2015-11-18T12:04:58Z</time>
      </trkpt>
      <trkpt lat="43.65792" lon="3.79413">
        <ele>126</ele>
        <time>2015-11-18T12:05:00Z</time>
      </trkpt>
      <trkpt lat="43.65796" lon="3.79412">
        <ele>128</ele>
        <time>2015-11-18T12:05:01Z</time>
      </trkpt>
      <trkpt lat="43.65797" lon="3.79416">
        <ele>128.5</ele>
        <time>2015-11-18T12:05:02Z</time>
      </trkpt>
      <trkpt lat="43.65798" lon="3.79421">
        <ele>128</ele>
        <time>2015-11-18T12:05:03Z</time>
      </trkpt>
      <trkpt lat="43.65799" lon="3.79424">
        <ele>128.5</ele>
        <time>2015-11-18T12:05:04Z</time>
      </trkpt>
      <trkpt lat="43.65801" lon="3.79425">
        <ele>130</ele>
        <time>2015-11-18T12:05:05Z</time>
      </trkpt>
      <trkpt lat="43.65803" lon="3.79423">
        <ele>131</ele>
        <time>2015-11-18T12:05:06Z</time>
      </trkpt>
      <trkpt lat="43.65809" lon="3.79418">
        <ele>133</ele>
        <time>2015-11-18T12:05:08Z</time>
      </trkpt>
      <trkpt lat="43.65813" lon="3.79415">
        <ele>134</ele>
        <time>2015-11-18T12:05:09Z</time>
      </trkpt>
      <trkpt lat="43.65817" lon="3.79412">
        <ele>134</ele>
        <time>2015-11-18T12:05:10Z</time>
      </trkpt>
      <trkpt lat="43.65821" lon="3.7941">
        <ele>133.5</ele>
        <time>2015-11-18T12:05:11Z</time>
      </trkpt>
      <trkpt lat="43.65826" lon="3.79406">
        <ele>133.5</ele>
        <time>2015-11-18T12:05:12Z</time>
      </trkpt>
      <trkpt lat="43.65828" lon="3.79399">
        <ele>132.5</ele>
        <time>2015-11-18T12:05:13Z</time>
      </trkpt>
      <trkpt lat="43.6583" lon="3.79394">
        <ele>133</ele>
        <time>2015-11-18T12:05:14Z</time>
      </trkpt>
      <trkpt lat="43.65833" lon="3.79389">
        <ele>132.5</ele>
        <time>2015-11-18T12:05:15Z</time>
      </trkpt>
      <trkpt lat="43.65835" lon="3.79383">
        <ele>132</ele>
        <time>2015-11-18T12:05:16Z</time>
      </trkpt>
      <trkpt lat="43.65838" lon="3.79379">
        <ele>133</ele>
        <time>2015-11-18T12:05:18Z</time>
      </trkpt>
      <trkpt lat="43.65845" lon="3.79373">
        <ele>134</ele>
        <time>2015-11-18T12:05:19Z</time>
      </trkpt>
      <trkpt lat="43.65848" lon="3.79369">
        <ele>133.5</ele>
        <time>2015-11-18T12:05:20Z</time>
      </trkpt>
      <trkpt lat="43.65851" lon="3.79364">
        <ele>133</ele>
        <time>2015-11-18T12:05:21Z</time>
      </trkpt>
      <trkpt lat="43.65855" lon="3.7936">
        <ele>133</ele>
        <time>2015-11-18T12:05:22Z</time>
      </trkpt>
      <trkpt lat="43.65859" lon="3.79355">
        <ele>133</ele>
        <time>2015-11-18T12:05:23Z</time>
      </trkpt>
      <trkpt lat="43.65863" lon="3.79354">
        <ele>133</ele>
        <time>2015-11-18T12:05:24Z</time>
      </trkpt>
      <trkpt lat="43.65868" lon="3.79353">
        <ele>134</ele>
        <time>2015-11-18T12:05:25Z</time>
      </trkpt>
      <trkpt lat="43.65872" lon="3.79352">
        <ele>134</ele>
        <time>2015-11-18T12:05:26Z</time>
      </trkpt>
      <trkpt lat="43.65877" lon="3.79352">
        <ele>134</ele>
        <time>2015-11-18T12:05:27Z</time>
      </trkpt>
      <trkpt lat="43.65879" lon="3.79348">
        <ele>135.5</ele>
        <time>2015-11-18T12:05:29Z</time>
      </trkpt>
      <trkpt lat="43.65881" lon="3.79345">
        <ele>136</ele>
        <time>2015-11-18T12:05:35Z</time>
      </trkpt>
      <trkpt lat="43.65887" lon="3.7934">
        <ele>135.5</ele>
        <time>2015-11-18T12:05:36Z</time>
      </trkpt>
      <trkpt lat="43.65896" lon="3.79334">
        <ele>136.5</ele>
        <time>2015-11-18T12:05:38Z</time>
      </trkpt>
      <trkpt lat="43.659" lon="3.79331">
        <ele>136.5</ele>
        <time>2015-11-18T12:05:39Z</time>
      </trkpt>
      <trkpt lat="43.65905" lon="3.79329">
        <ele>137</ele>
        <time>2015-11-18T12:05:40Z</time>
      </trkpt>
      <trkpt lat="43.6591" lon="3.79328">
        <ele>137</ele>
        <time>2015-11-18T12:05:41Z</time>
      </trkpt>
      <trkpt lat="43.65914" lon="3.79327">
        <ele>137</ele>
        <time>2015-11-18T12:05:43Z</time>
      </trkpt>
      <trkpt lat="43.65918" lon="3.79327">
        <ele>138</ele>
        <time>2015-11-18T12:05:43Z</time>
      </trkpt>
      <trkpt lat="43.65921" lon="3.79327">
        <ele>138</ele>
        <time>2015-11-18T12:05:44Z</time>
      </trkpt>
      <trkpt lat="43.65925" lon="3.79328">
        <ele>137.5</ele>
        <time>2015-11-18T12:05:45Z</time>
      </trkpt>
      <trkpt lat="43.65929" lon="3.79329">
        <ele>137.5</ele>
        <time>2015-11-18T12:05:46Z</time>
      </trkpt>
      <trkpt lat="43.65933" lon="3.79329">
        <ele>137</ele>
        <time>2015-11-18T12:05:47Z</time>
      </trkpt>
      <trkpt lat="43.65937" lon="3.79329">
        <ele>137</ele>
        <time>2015-11-18T12:05:48Z</time>
      </trkpt>
      <trkpt lat="43.65942" lon="3.7933">
        <ele>136.5</ele>
        <time>2015-11-18T12:05:49Z</time>
      </trkpt>
      <trkpt lat="43.65946" lon="3.79331">
        <ele>137.5</ele>
        <time>2015-11-18T12:05:50Z</time>
      </trkpt>
      <trkpt lat="43.65949" lon="3.79331">
        <ele>137.5</ele>
        <time>2015-11-18T12:05:51Z</time>
      </trkpt>
      <trkpt lat="43.65953" lon="3.79332">
        <ele>138</ele>
        <time>2015-11-18T12:05:52Z</time>
      </trkpt>
      <trkpt lat="43.65956" lon="3.79333">
        <ele>138</ele>
        <time>2015-11-18T12:05:53Z</time>
      </trkpt>
      <trkpt lat="43.6596" lon="3.79337">
        <ele>136.5</ele>
        <time>2015-11-18T12:05:54Z</time>
      </trkpt>
      <trkpt lat="43.65964" lon="3.79339">
        <ele>136.5</ele>
        <time>2015-11-18T12:05:55Z</time>
      </trkpt>
      <trkpt lat="43.65968" lon="3.79339">
        <ele>137.5</ele>
        <time>2015-11-18T12:05:56Z</time>
      </trkpt>
      <trkpt lat="43.65972" lon="3.7934">
        <ele>137</ele>
        <time>2015-11-18T12:05:57Z</time>
      </trkpt>
      <trkpt lat="43.65977" lon="3.7934">
        <ele>138</ele>
        <time>2015-11-18T12:05:58Z</time>
      </trkpt>
      <trkpt lat="43.65981" lon="3.79343">
        <ele>136.5</ele>
        <time>2015-11-18T12:05:59Z</time>
      </trkpt>
      <trkpt lat="43.65986" lon="3.79343">
        <ele>136</ele>
        <time>2015-11-18T12:06:00Z</time>
      </trkpt>
      <trkpt lat="43.65991" lon="3.79343">
        <ele>135.5</ele>
        <time>2015-11-18T12:06:01Z</time>
      </trkpt>
      <trkpt lat="43.66" lon="3.7935">
        <ele>134.5</ele>
        <time>2015-11-18T12:06:03Z</time>
      </trkpt>
      <trkpt lat="43.66001" lon="3.79355">
        <ele>135</ele>
        <time>2015-11-18T12:06:04Z</time>
      </trkpt>
      <trkpt lat="43.66002" lon="3.7936">
        <ele>135</ele>
        <time>2015-11-18T12:06:05Z</time>
      </trkpt>
      <trkpt lat="43.66003" lon="3.79364">
        <ele>135</ele>
        <time>2015-11-18T12:06:06Z</time>
      </trkpt>
      <trkpt lat="43.66004" lon="3.79369">
        <ele>136</ele>
        <time>2015-11-18T12:06:07Z</time>
      </trkpt>
      <trkpt lat="43.66006" lon="3.79373">
        <ele>136</ele>
        <time>2015-11-18T12:06:08Z</time>
      </trkpt>
      <trkpt lat="43.66008" lon="3.79378">
        <ele>136.5</ele>
        <time>2015-11-18T12:06:09Z</time>
      </trkpt>
      <trkpt lat="43.66008" lon="3.79383">
        <ele>136</ele>
        <time>2015-11-18T12:06:10Z</time>
      </trkpt>
      <trkpt lat="43.6601" lon="3.79387">
        <ele>136</ele>
        <time>2015-11-18T12:06:11Z</time>
      </trkpt>
      <trkpt lat="43.6601" lon="3.79391">
        <ele>135.5</ele>
        <time>2015-11-18T12:06:12Z</time>
      </trkpt>
      <trkpt lat="43.6601" lon="3.79395">
        <ele>135</ele>
        <time>2015-11-18T12:06:13Z</time>
      </trkpt>
      <trkpt lat="43.66012" lon="3.794">
        <ele>135</ele>
        <time>2015-11-18T12:06:14Z</time>
      </trkpt>
      <trkpt lat="43.66013" lon="3.79404">
        <ele>135.5</ele>
        <time>2015-11-18T12:06:15Z</time>
      </trkpt>
      <trkpt lat="43.66013" lon="3.79407">
        <ele>136</ele>
        <time>2015-11-18T12:06:16Z</time>
      </trkpt>
      <trkpt lat="43.66015" lon="3.79412">
        <ele>136</ele>
        <time>2015-11-18T12:06:17Z</time>
      </trkpt>
      <trkpt lat="43.66016" lon="3.79416">
        <ele>137</ele>
        <time>2015-11-18T12:06:18Z</time>
      </trkpt>
      <trkpt lat="43.66017" lon="3.79421">
        <ele>137.5</ele>
        <time>2015-11-18T12:06:19Z</time>
      </trkpt>
      <trkpt lat="43.66019" lon="3.79426">
        <ele>138</ele>
        <time>2015-11-18T12:06:20Z</time>
      </trkpt>
      <trkpt lat="43.6602" lon="3.79431">
        <ele>138.5</ele>
        <time>2015-11-18T12:06:21Z</time>
      </trkpt>
      <trkpt lat="43.6602" lon="3.79436">
        <ele>139</ele>
        <time>2015-11-18T12:06:22Z</time>
      </trkpt>
      <trkpt lat="43.6602" lon="3.79441">
        <ele>140</ele>
        <time>2015-11-18T12:06:23Z</time>
      </trkpt>
      <trkpt lat="43.6602" lon="3.79445">
        <ele>141.5</ele>
        <time>2015-11-18T12:06:24Z</time>
      </trkpt>
      <trkpt lat="43.6602" lon="3.7945">
        <ele>142</ele>
        <time>2015-11-18T12:06:25Z</time>
      </trkpt>
      <trkpt lat="43.6602" lon="3.79454">
        <ele>143</ele>
        <time>2015-11-18T12:06:26Z</time>
      </trkpt>
      <trkpt lat="43.6602" lon="3.79459">
        <ele>144</ele>
        <time>2015-11-18T12:06:27Z</time>
      </trkpt>
      <trkpt lat="43.66021" lon="3.79463">
        <ele>146</ele>
        <time>2015-11-18T12:06:28Z</time>
      </trkpt>
      <trkpt lat="43.66021" lon="3.79467">
        <ele>147</ele>
        <time>2015-11-18T12:06:29Z</time>
      </trkpt>
      <trkpt lat="43.66022" lon="3.79471">
        <ele>147.5</ele>
        <time>2015-11-18T12:06:30Z</time>
      </trkpt>
      <trkpt lat="43.66022" lon="3.79475">
        <ele>148</ele>
        <time>2015-11-18T12:06:31Z</time>
      </trkpt>
      <trkpt lat="43.66021" lon="3.7948">
        <ele>148</ele>
        <time>2015-11-18T12:06:32Z</time>
      </trkpt>
      <trkpt lat="43.66022" lon="3.79484">
        <ele>149.5</ele>
        <time>2015-11-18T12:06:33Z</time>
      </trkpt>
      <trkpt lat="43.66022" lon="3.79487">
        <ele>150</ele>
        <time>2015-11-18T12:06:34Z</time>
      </trkpt>
      <trkpt lat="43.66022" lon="3.79491">
        <ele>151</ele>
        <time>2015-11-18T12:06:35Z</time>
      </trkpt>
      <trkpt lat="43.66023" lon="3.79494">
        <ele>152.5</ele>
        <time>2015-11-18T12:06:36Z</time>
      </trkpt>
      <trkpt lat="43.66023" lon="3.79497">
        <ele>153</ele>
        <time>2015-11-18T12:06:37Z</time>
      </trkpt>
      <trkpt lat="43.66023" lon="3.79501">
        <ele>154</ele>
        <time>2015-11-18T12:06:38Z</time>
      </trkpt>
      <trkpt lat="43.66023" lon="3.79505">
        <ele>154</ele>
        <time>2015-11-18T12:06:39Z</time>
      </trkpt>
      <trkpt lat="43.66024" lon="3.79509">
        <ele>154.5</ele>
        <time>2015-11-18T12:06:40Z</time>
      </trkpt>
      <trkpt lat="43.66024" lon="3.79514">
        <ele>155</ele>
        <time>2015-11-18T12:06:41Z</time>
      </trkpt>
      <trkpt lat="43.66024" lon="3.79518">
        <ele>155</ele>
        <time>2015-11-18T12:06:42Z</time>
      </trkpt>
      <trkpt lat="43.66024" lon="3.79523">
        <ele>155</ele>
        <time>2015-11-18T12:06:43Z</time>
      </trkpt>
      <trkpt lat="43.66025" lon="3.79527">
        <ele>155</ele>
        <time>2015-11-18T12:06:44Z</time>
      </trkpt>
      <trkpt lat="43.66026" lon="3.79531">
        <ele>156</ele>
        <time>2015-11-18T12:06:45Z</time>
      </trkpt>
      <trkpt lat="43.66026" lon="3.79535">
        <ele>156</ele>
        <time>2015-11-18T12:06:46Z</time>
      </trkpt>
      <trkpt lat="43.66027" lon="3.79539">
        <ele>157</ele>
        <time>2015-11-18T12:06:47Z</time>
      </trkpt>
      <trkpt lat="43.66027" lon="3.79542">
        <ele>157.5</ele>
        <time>2015-11-18T12:06:48Z</time>
      </trkpt>
      <trkpt lat="43.66027" lon="3.79547">
        <ele>158</ele>
        <time>2015-11-18T12:06:49Z</time>
      </trkpt>
      <trkpt lat="43.66027" lon="3.79551">
        <ele>158</ele>
        <time>2015-11-18T12:06:50Z</time>
      </trkpt>
      <trkpt lat="43.66027" lon="3.79555">
        <ele>158.5</ele>
        <time>2015-11-18T12:06:51Z</time>
      </trkpt>
      <trkpt lat="43.66028" lon="3.79558">
        <ele>159.5</ele>
        <time>2015-11-18T12:06:52Z</time>
      </trkpt>
      <trkpt lat="43.66028" lon="3.79562">
        <ele>159.5</ele>
        <time>2015-11-18T12:06:53Z</time>
      </trkpt>
      <trkpt lat="43.66028" lon="3.79565">
        <ele>160.5</ele>
        <time>2015-11-18T12:06:54Z</time>
      </trkpt>
      <trkpt lat="43.66028" lon="3.79569">
        <ele>161</ele>
        <time>2015-11-18T12:06:55Z</time>
      </trkpt>
      <trkpt lat="43.66028" lon="3.79573">
        <ele>161</ele>
        <time>2015-11-18T12:06:56Z</time>
      </trkpt>
      <trkpt lat="43.66029" lon="3.79577">
        <ele>161.5</ele>
        <time>2015-11-18T12:06:57Z</time>
      </trkpt>
      <trkpt lat="43.66029" lon="3.79581">
        <ele>161</ele>
        <time>2015-11-18T12:06:58Z</time>
      </trkpt>
      <trkpt lat="43.66028" lon="3.79586">
        <ele>161</ele>
        <time>2015-11-18T12:06:59Z</time>
      </trkpt>
      <trkpt lat="43.66028" lon="3.79591">
        <ele>160.5</ele>
        <time>2015-11-18T12:07:00Z</time>
      </trkpt>
      <trkpt lat="43.66028" lon="3.79596">
        <ele>161</ele>
        <time>2015-11-18T12:07:01Z</time>
      </trkpt>
      <trkpt lat="43.66028" lon="3.79599">
        <ele>162</ele>
        <time>2015-11-18T12:07:02Z</time>
      </trkpt>
      <trkpt lat="43.66027" lon="3.79603">
        <ele>162.5</ele>
        <time>2015-11-18T12:07:03Z</time>
      </trkpt>
      <trkpt lat="43.66027" lon="3.79607">
        <ele>162.5</ele>
        <time>2015-11-18T12:07:04Z</time>
      </trkpt>
      <trkpt lat="43.66027" lon="3.7961">
        <ele>162.5</ele>
        <time>2015-11-18T12:07:05Z</time>
      </trkpt>
      <trkpt lat="43.66026" lon="3.79614">
        <ele>162.5</ele>
        <time>2015-11-18T12:07:06Z</time>
      </trkpt>
      <trkpt lat="43.66024" lon="3.79618">
        <ele>162</ele>
        <time>2015-11-18T12:07:07Z</time>
      </trkpt>
      <trkpt lat="43.66024" lon="3.79622">
        <ele>162.5</ele>
        <time>2015-11-18T12:07:08Z</time>
      </trkpt>
      <trkpt lat="43.66023" lon="3.79626">
        <ele>163</ele>
        <time>2015-11-18T12:07:09Z</time>
      </trkpt>
      <trkpt lat="43.66023" lon="3.7963">
        <ele>163.5</ele>
        <time>2015-11-18T12:07:10Z</time>
      </trkpt>
      <trkpt lat="43.66022" lon="3.79633">
        <ele>165</ele>
        <time>2015-11-18T12:07:11Z</time>
      </trkpt>
      <trkpt lat="43.66021" lon="3.79636">
        <ele>165.5</ele>
        <time>2015-11-18T12:07:12Z</time>
      </trkpt>
      <trkpt lat="43.6602" lon="3.7964">
        <ele>165.5</ele>
        <time>2015-11-18T12:07:13Z</time>
      </trkpt>
      <trkpt lat="43.66019" lon="3.79643">
        <ele>166.5</ele>
        <time>2015-11-18T12:07:14Z</time>
      </trkpt>
      <trkpt lat="43.66019" lon="3.79646">
        <ele>167</ele>
        <time>2015-11-18T12:07:15Z</time>
      </trkpt>
      <trkpt lat="43.66018" lon="3.79649">
        <ele>167.5</ele>
        <time>2015-11-18T12:07:16Z</time>
      </trkpt>
      <trkpt lat="43.66017" lon="3.79653">
        <ele>168</ele>
        <time>2015-11-18T12:07:17Z</time>
      </trkpt>
      <trkpt lat="43.66017" lon="3.79655">
        <ele>169.5</ele>
        <time>2015-11-18T12:07:18Z</time>
      </trkpt>
      <trkpt lat="43.66017" lon="3.79658">
        <ele>170.5</ele>
        <time>2015-11-18T12:07:19Z</time>
      </trkpt>
      <trkpt lat="43.66016" lon="3.79662">
        <ele>170.5</ele>
        <time>2015-11-18T12:07:20Z</time>
      </trkpt>
      <trkpt lat="43.66015" lon="3.79666">
        <ele>171</ele>
        <time>2015-11-18T12:07:21Z</time>
      </trkpt>
      <trkpt lat="43.66015" lon="3.7967">
        <ele>172</ele>
        <time>2015-11-18T12:07:22Z</time>
      </trkpt>
      <trkpt lat="43.66014" lon="3.79675">
        <ele>172</ele>
        <time>2015-11-18T12:07:23Z</time>
      </trkpt>
      <trkpt lat="43.66014" lon="3.79679">
        <ele>172</ele>
        <time>2015-11-18T12:07:24Z</time>
      </trkpt>
      <trkpt lat="43.66012" lon="3.79682">
        <ele>172.5</ele>
        <time>2015-11-18T12:07:25Z</time>
      </trkpt>
      <trkpt lat="43.66011" lon="3.79686">
        <ele>172.5</ele>
        <time>2015-11-18T12:07:26Z</time>
      </trkpt>
      <trkpt lat="43.6601" lon="3.7969">
        <ele>172.5</ele>
        <time>2015-11-18T12:07:27Z</time>
      </trkpt>
      <trkpt lat="43.66009" lon="3.79693">
        <ele>173</ele>
        <time>2015-11-18T12:07:28Z</time>
      </trkpt>
      <trkpt lat="43.66008" lon="3.79697">
        <ele>172.5</ele>
        <time>2015-11-18T12:07:29Z</time>
      </trkpt>
      <trkpt lat="43.66008" lon="3.797">
        <ele>173</ele>
        <time>2015-11-18T12:07:30Z</time>
      </trkpt>
      <trkpt lat="43.66007" lon="3.79704">
        <ele>172.5</ele>
        <time>2015-11-18T12:07:31Z</time>
      </trkpt>
      <trkpt lat="43.66006" lon="3.79707">
        <ele>173</ele>
        <time>2015-11-18T12:07:32Z</time>
      </trkpt>
      <trkpt lat="43.66006" lon="3.79711">
        <ele>173.5</ele>
        <time>2015-11-18T12:07:33Z</time>
      </trkpt>
      <trkpt lat="43.66005" lon="3.79714">
        <ele>174.5</ele>
        <time>2015-11-18T12:07:34Z</time>
      </trkpt>
      <trkpt lat="43.66005" lon="3.79717">
        <ele>175</ele>
        <time>2015-11-18T12:07:35Z</time>
      </trkpt>
      <trkpt lat="43.66004" lon="3.79719">
        <ele>176</ele>
        <time>2015-11-18T12:07:36Z</time>
      </trkpt>
      <trkpt lat="43.66002" lon="3.79723">
        <ele>175</ele>
        <time>2015-11-18T12:07:37Z</time>
      </trkpt>
      <trkpt lat="43.66001" lon="3.79727">
        <ele>175</ele>
        <time>2015-11-18T12:07:38Z</time>
      </trkpt>
      <trkpt lat="43.66001" lon="3.79731">
        <ele>175</ele>
        <time>2015-11-18T12:07:39Z</time>
      </trkpt>
      <trkpt lat="43.66" lon="3.79735">
        <ele>175</ele>
        <time>2015-11-18T12:07:40Z</time>
      </trkpt>
      <trkpt lat="43.66" lon="3.79738">
        <ele>175</ele>
        <time>2015-11-18T12:07:41Z</time>
      </trkpt>
      <trkpt lat="43.66" lon="3.79742">
        <ele>175</ele>
        <time>2015-11-18T12:07:42Z</time>
      </trkpt>
      <trkpt lat="43.65999" lon="3.79746">
        <ele>174.5</ele>
        <time>2015-11-18T12:07:43Z</time>
      </trkpt>
      <trkpt lat="43.65998" lon="3.79749">
        <ele>174.5</ele>
        <time>2015-11-18T12:07:44Z</time>
      </trkpt>
      <trkpt lat="43.65998" lon="3.79753">
        <ele>175</ele>
        <time>2015-11-18T12:07:45Z</time>
      </trkpt>
      <trkpt lat="43.65998" lon="3.79757">
        <ele>175</ele>
        <time>2015-11-18T12:07:46Z</time>
      </trkpt>
      <trkpt lat="43.65998" lon="3.7976">
        <ele>175.5</ele>
        <time>2015-11-18T12:07:47Z</time>
      </trkpt>
      <trkpt lat="43.65997" lon="3.79764">
        <ele>175.5</ele>
        <time>2015-11-18T12:07:48Z</time>
      </trkpt>
      <trkpt lat="43.65997" lon="3.79768">
        <ele>175.5</ele>
        <time>2015-11-18T12:07:49Z</time>
      </trkpt>
      <trkpt lat="43.65996" lon="3.79771">
        <ele>176</ele>
        <time>2015-11-18T12:07:50Z</time>
      </trkpt>
      <trkpt lat="43.65996" lon="3.79774">
        <ele>176.5</ele>
        <time>2015-11-18T12:07:51Z</time>
      </trkpt>
      <trkpt lat="43.65996" lon="3.79777">
        <ele>176.5</ele>
        <time>2015-11-18T12:07:52Z</time>
      </trkpt>
      <trkpt lat="43.65996" lon="3.79781">
        <ele>176.5</ele>
        <time>2015-11-18T12:07:53Z</time>
      </trkpt>
      <trkpt lat="43.65997" lon="3.79784">
        <ele>177</ele>
        <time>2015-11-18T12:07:54Z</time>
      </trkpt>
      <trkpt lat="43.65996" lon="3.79788">
        <ele>176.5</ele>
        <time>2015-11-18T12:07:55Z</time>
      </trkpt>
      <trkpt lat="43.65997" lon="3.79796">
        <ele>176.5</ele>
        <time>2015-11-18T12:07:57Z</time>
      </trkpt>
      <trkpt lat="43.65997" lon="3.79799">
        <ele>176.5</ele>
        <time>2015-11-18T12:07:58Z</time>
      </trkpt>
      <trkpt lat="43.65997" lon="3.79802">
        <ele>177</ele>
        <time>2015-11-18T12:07:59Z</time>
      </trkpt>
      <trkpt lat="43.65998" lon="3.79804">
        <ele>178</ele>
        <time>2015-11-18T12:08:00Z</time>
      </trkpt>
      <trkpt lat="43.65998" lon="3.79807">
        <ele>178</ele>
        <time>2015-11-18T12:08:01Z</time>
      </trkpt>
      <trkpt lat="43.65998" lon="3.7981">
        <ele>178</ele>
        <time>2015-11-18T12:08:02Z</time>
      </trkpt>
      <trkpt lat="43.65998" lon="3.79813">
        <ele>178.5</ele>
        <time>2015-11-18T12:08:03Z</time>
      </trkpt>
      <trkpt lat="43.65998" lon="3.79815">
        <ele>179</ele>
        <time>2015-11-18T12:08:04Z</time>
      </trkpt>
      <trkpt lat="43.65998" lon="3.79818">
        <ele>180.5</ele>
        <time>2015-11-18T12:08:05Z</time>
      </trkpt>
      <trkpt lat="43.65998" lon="3.79821">
        <ele>180.5</ele>
        <time>2015-11-18T12:08:06Z</time>
      </trkpt>
      <trkpt lat="43.65998" lon="3.79824">
        <ele>181</ele>
        <time>2015-11-18T12:08:07Z</time>
      </trkpt>
      <trkpt lat="43.65998" lon="3.79828">
        <ele>181</ele>
        <time>2015-11-18T12:08:08Z</time>
      </trkpt>
      <trkpt lat="43.65998" lon="3.79831">
        <ele>181</ele>
        <time>2015-11-18T12:08:09Z</time>
      </trkpt>
      <trkpt lat="43.65998" lon="3.79833">
        <ele>182</ele>
        <time>2015-11-18T12:08:10Z</time>
      </trkpt>
      <trkpt lat="43.65998" lon="3.79836">
        <ele>182.5</ele>
        <time>2015-11-18T12:08:11Z</time>
      </trkpt>
      <trkpt lat="43.65998" lon="3.79839">
        <ele>182.5</ele>
        <time>2015-11-18T12:08:12Z</time>
      </trkpt>
      <trkpt lat="43.65997" lon="3.79842">
        <ele>182.5</ele>
        <time>2015-11-18T12:08:13Z</time>
      </trkpt>
      <trkpt lat="43.65996" lon="3.79845">
        <ele>183</ele>
        <time>2015-11-18T12:08:13Z</time>
      </trkpt>
      <trkpt lat="43.65996" lon="3.79848">
        <ele>183</ele>
        <time>2015-11-18T12:08:15Z</time>
      </trkpt>
      <trkpt lat="43.65994" lon="3.79851">
        <ele>182</ele>
        <time>2015-11-18T12:08:15Z</time>
      </trkpt>
      <trkpt lat="43.65993" lon="3.79853">
        <ele>182.5</ele>
        <time>2015-11-18T12:08:16Z</time>
      </trkpt>
      <trkpt lat="43.65992" lon="3.79857">
        <ele>182</ele>
        <time>2015-11-18T12:08:17Z</time>
      </trkpt>
      <trkpt lat="43.6599" lon="3.7986">
        <ele>180.5</ele>
        <time>2015-11-18T12:08:18Z</time>
      </trkpt>
      <trkpt lat="43.65989" lon="3.79863">
        <ele>181</ele>
        <time>2015-11-18T12:08:20Z</time>
      </trkpt>
      <trkpt lat="43.65988" lon="3.79865">
        <ele>181</ele>
        <time>2015-11-18T12:08:20Z</time>
      </trkpt>
      <trkpt lat="43.65987" lon="3.79868">
        <ele>182</ele>
        <time>2015-11-18T12:08:21Z</time>
      </trkpt>
      <trkpt lat="43.65987" lon="3.7987">
        <ele>182.5</ele>
        <time>2015-11-18T12:08:22Z</time>
      </trkpt>
      <trkpt lat="43.65986" lon="3.79872">
        <ele>182.5</ele>
        <time>2015-11-18T12:08:23Z</time>
      </trkpt>
      <trkpt lat="43.65984" lon="3.79875">
        <ele>182.5</ele>
        <time>2015-11-18T12:08:25Z</time>
      </trkpt>
      <trkpt lat="43.65982" lon="3.79878">
        <ele>182.5</ele>
        <time>2015-11-18T12:08:25Z</time>
      </trkpt>
      <trkpt lat="43.6598" lon="3.7988">
        <ele>184</ele>
        <time>2015-11-18T12:08:26Z</time>
      </trkpt>
      <trkpt lat="43.65978" lon="3.79882">
        <ele>185</ele>
        <time>2015-11-18T12:08:27Z</time>
      </trkpt>
      <trkpt lat="43.65977" lon="3.79884">
        <ele>185.5</ele>
        <time>2015-11-18T12:08:28Z</time>
      </trkpt>
      <trkpt lat="43.65976" lon="3.79886">
        <ele>186</ele>
        <time>2015-11-18T12:08:30Z</time>
      </trkpt>
      <trkpt lat="43.65974" lon="3.79888">
        <ele>186.5</ele>
        <time>2015-11-18T12:08:30Z</time>
      </trkpt>
      <trkpt lat="43.65972" lon="3.7989">
        <ele>186</ele>
        <time>2015-11-18T12:08:31Z</time>
      </trkpt>
      <trkpt lat="43.65971" lon="3.79892">
        <ele>186.5</ele>
        <time>2015-11-18T12:08:32Z</time>
      </trkpt>
      <trkpt lat="43.65969" lon="3.79894">
        <ele>186.5</ele>
        <time>2015-11-18T12:08:33Z</time>
      </trkpt>
      <trkpt lat="43.65967" lon="3.79896">
        <ele>186</ele>
        <time>2015-11-18T12:08:34Z</time>
      </trkpt>
      <trkpt lat="43.65966" lon="3.79898">
        <ele>186.5</ele>
        <time>2015-11-18T12:08:35Z</time>
      </trkpt>
      <trkpt lat="43.65964" lon="3.799">
        <ele>187</ele>
        <time>2015-11-18T12:08:36Z</time>
      </trkpt>
      <trkpt lat="43.65963" lon="3.79901">
        <ele>187.5</ele>
        <time>2015-11-18T12:08:37Z</time>
      </trkpt>
      <trkpt lat="43.65961" lon="3.79903">
        <ele>187.5</ele>
        <time>2015-11-18T12:08:38Z</time>
      </trkpt>
      <trkpt lat="43.6596" lon="3.79905">
        <ele>188.5</ele>
        <time>2015-11-18T12:08:39Z</time>
      </trkpt>
      <trkpt lat="43.65958" lon="3.79908">
        <ele>188.5</ele>
        <time>2015-11-18T12:08:40Z</time>
      </trkpt>
      <trkpt lat="43.65957" lon="3.7991">
        <ele>189</ele>
        <time>2015-11-18T12:08:41Z</time>
      </trkpt>
      <trkpt lat="43.65955" lon="3.79912">
        <ele>190</ele>
        <time>2015-11-18T12:08:42Z</time>
      </trkpt>
      <trkpt lat="43.65953" lon="3.79914">
        <ele>190</ele>
        <time>2015-11-18T12:08:43Z</time>
      </trkpt>
      <trkpt lat="43.65952" lon="3.79916">
        <ele>190.5</ele>
        <time>2015-11-18T12:08:44Z</time>
      </trkpt>
      <trkpt lat="43.6595" lon="3.79918">
        <ele>191.5</ele>
        <time>2015-11-18T12:08:45Z</time>
      </trkpt>
      <trkpt lat="43.65949" lon="3.79921">
        <ele>192.5</ele>
        <time>2015-11-18T12:08:46Z</time>
      </trkpt>
      <trkpt lat="43.65947" lon="3.79924">
        <ele>193</ele>
        <time>2015-11-18T12:08:47Z</time>
      </trkpt>
      <trkpt lat="43.65946" lon="3.79926">
        <ele>192.5</ele>
        <time>2015-11-18T12:08:48Z</time>
      </trkpt>
      <trkpt lat="43.65944" lon="3.79928">
        <ele>193</ele>
        <time>2015-11-18T12:08:49Z</time>
      </trkpt>
      <trkpt lat="43.65942" lon="3.79931">
        <ele>193.5</ele>
        <time>2015-11-18T12:08:51Z</time>
      </trkpt>
      <trkpt lat="43.65941" lon="3.79934">
        <ele>192.5</ele>
        <time>2015-11-18T12:08:51Z</time>
      </trkpt>
      <trkpt lat="43.6594" lon="3.79937">
        <ele>191.5</ele>
        <time>2015-11-18T12:08:52Z</time>
      </trkpt>
      <trkpt lat="43.65938" lon="3.7994">
        <ele>192</ele>
        <time>2015-11-18T12:08:53Z</time>
      </trkpt>
      <trkpt lat="43.65937" lon="3.79943">
        <ele>192</ele>
        <time>2015-11-18T12:08:54Z</time>
      </trkpt>
      <trkpt lat="43.65935" lon="3.79945">
        <ele>192</ele>
        <time>2015-11-18T12:08:55Z</time>
      </trkpt>
      <trkpt lat="43.65934" lon="3.79948">
        <ele>192.5</ele>
        <time>2015-11-18T12:08:56Z</time>
      </trkpt>
      <trkpt lat="43.65932" lon="3.79949">
        <ele>193.5</ele>
        <time>2015-11-18T12:08:57Z</time>
      </trkpt>
      <trkpt lat="43.65931" lon="3.79953">
        <ele>192</ele>
        <time>2015-11-18T12:08:58Z</time>
      </trkpt>
      <trkpt lat="43.6593" lon="3.79956">
        <ele>192</ele>
        <time>2015-11-18T12:08:59Z</time>
      </trkpt>
      <trkpt lat="43.65929" lon="3.79958">
        <ele>192.5</ele>
        <time>2015-11-18T12:09:00Z</time>
      </trkpt>
      <trkpt lat="43.65927" lon="3.79961">
        <ele>193</ele>
        <time>2015-11-18T12:09:01Z</time>
      </trkpt>
      <trkpt lat="43.65926" lon="3.79963">
        <ele>193.5</ele>
        <time>2015-11-18T12:09:02Z</time>
      </trkpt>
      <trkpt lat="43.65925" lon="3.79966">
        <ele>193</ele>
        <time>2015-11-18T12:09:03Z</time>
      </trkpt>
      <trkpt lat="43.65924" lon="3.79969">
        <ele>192.5</ele>
        <time>2015-11-18T12:09:04Z</time>
      </trkpt>
      <trkpt lat="43.65922" lon="3.79971">
        <ele>192.5</ele>
        <time>2015-11-18T12:09:05Z</time>
      </trkpt>
      <trkpt lat="43.65921" lon="3.79974">
        <ele>192.5</ele>
        <time>2015-11-18T12:09:06Z</time>
      </trkpt>
      <trkpt lat="43.65919" lon="3.79975">
        <ele>193</ele>
        <time>2015-11-18T12:09:07Z</time>
      </trkpt>
      <trkpt lat="43.65917" lon="3.79978">
        <ele>193.5</ele>
        <time>2015-11-18T12:09:08Z</time>
      </trkpt>
      <trkpt lat="43.65914" lon="3.79979">
        <ele>194</ele>
        <time>2015-11-18T12:09:09Z</time>
      </trkpt>
      <trkpt lat="43.65912" lon="3.79981">
        <ele>193</ele>
        <time>2015-11-18T12:09:10Z</time>
      </trkpt>
      <trkpt lat="43.65909" lon="3.79983">
        <ele>192.5</ele>
        <time>2015-11-18T12:09:11Z</time>
      </trkpt>
      <trkpt lat="43.65907" lon="3.79985">
        <ele>192</ele>
        <time>2015-11-18T12:09:12Z</time>
      </trkpt>
      <trkpt lat="43.65905" lon="3.79985">
        <ele>192</ele>
        <time>2015-11-18T12:09:13Z</time>
      </trkpt>
      <trkpt lat="43.65902" lon="3.79989">
        <ele>189.5</ele>
        <time>2015-11-18T12:09:14Z</time>
      </trkpt>
      <trkpt lat="43.659" lon="3.7999">
        <ele>189</ele>
        <time>2015-11-18T12:09:15Z</time>
      </trkpt>
      <trkpt lat="43.65897" lon="3.79992">
        <ele>188.5</ele>
        <time>2015-11-18T12:09:16Z</time>
      </trkpt>
      <trkpt lat="43.65895" lon="3.79993">
        <ele>188</ele>
        <time>2015-11-18T12:09:17Z</time>
      </trkpt>
      <trkpt lat="43.65893" lon="3.79995">
        <ele>187</ele>
        <time>2015-11-18T12:09:18Z</time>
      </trkpt>
      <trkpt lat="43.65891" lon="3.79995">
        <ele>186.5</ele>
        <time>2015-11-18T12:09:19Z</time>
      </trkpt>
      <trkpt lat="43.65889" lon="3.79996">
        <ele>186</ele>
        <time>2015-11-18T12:09:20Z</time>
      </trkpt>
      <trkpt lat="43.65886" lon="3.79998">
        <ele>186</ele>
        <time>2015-11-18T12:09:21Z</time>
      </trkpt>
      <trkpt lat="43.65883" lon="3.80002">
        <ele>185.5</ele>
        <time>2015-11-18T12:09:22Z</time>
      </trkpt>
      <trkpt lat="43.6588" lon="3.80004">
        <ele>185</ele>
        <time>2015-11-18T12:09:23Z</time>
      </trkpt>
      <trkpt lat="43.65877" lon="3.80006">
        <ele>185</ele>
        <time>2015-11-18T12:09:24Z</time>
      </trkpt>
      <trkpt lat="43.65875" lon="3.80007">
        <ele>185</ele>
        <time>2015-11-18T12:09:25Z</time>
      </trkpt>
      <trkpt lat="43.65873" lon="3.80007">
        <ele>184.5</ele>
        <time>2015-11-18T12:09:26Z</time>
      </trkpt>
      <trkpt lat="43.65867" lon="3.80015">
        <ele>186.5</ele>
        <time>2015-11-18T12:09:28Z</time>
      </trkpt>
      <trkpt lat="43.65865" lon="3.80016">
        <ele>186.5</ele>
        <time>2015-11-18T12:09:29Z</time>
      </trkpt>
      <trkpt lat="43.65863" lon="3.80015">
        <ele>186.5</ele>
        <time>2015-11-18T12:09:30Z</time>
      </trkpt>
      <trkpt lat="43.65861" lon="3.80015">
        <ele>186</ele>
        <time>2015-11-18T12:09:31Z</time>
      </trkpt>
      <trkpt lat="43.65859" lon="3.80015">
        <ele>186</ele>
        <time>2015-11-18T12:09:32Z</time>
      </trkpt>
      <trkpt lat="43.65857" lon="3.80015">
        <ele>186.5</ele>
        <time>2015-11-18T12:09:33Z</time>
      </trkpt>
      <trkpt lat="43.65855" lon="3.80014">
        <ele>186</ele>
        <time>2015-11-18T12:09:34Z</time>
      </trkpt>
      <trkpt lat="43.65853" lon="3.80014">
        <ele>186</ele>
        <time>2015-11-18T12:09:35Z</time>
      </trkpt>
      <trkpt lat="43.65851" lon="3.80014">
        <ele>185.5</ele>
        <time>2015-11-18T12:09:36Z</time>
      </trkpt>
      <trkpt lat="43.65848" lon="3.80015">
        <ele>185.5</ele>
        <time>2015-11-18T12:09:37Z</time>
      </trkpt>
      <trkpt lat="43.65846" lon="3.80016">
        <ele>186</ele>
        <time>2015-11-18T12:09:38Z</time>
      </trkpt>
      <trkpt lat="43.65843" lon="3.80017">
        <ele>186.5</ele>
        <time>2015-11-18T12:09:39Z</time>
      </trkpt>
      <trkpt lat="43.65841" lon="3.80017">
        <ele>186.5</ele>
        <time>2015-11-18T12:09:40Z</time>
      </trkpt>
      <trkpt lat="43.65838" lon="3.80018">
        <ele>186.5</ele>
        <time>2015-11-18T12:09:41Z</time>
      </trkpt>
      <trkpt lat="43.65836" lon="3.80018">
        <ele>187</ele>
        <time>2015-11-18T12:09:42Z</time>
      </trkpt>
      <trkpt lat="43.65834" lon="3.80018">
        <ele>187</ele>
        <time>2015-11-18T12:09:43Z</time>
      </trkpt>
      <trkpt lat="43.65831" lon="3.8002">
        <ele>187</ele>
        <time>2015-11-18T12:09:44Z</time>
      </trkpt>
      <trkpt lat="43.65828" lon="3.8002">
        <ele>187</ele>
        <time>2015-11-18T12:09:45Z</time>
      </trkpt>
      <trkpt lat="43.65826" lon="3.8002">
        <ele>187.5</ele>
        <time>2015-11-18T12:09:46Z</time>
      </trkpt>
      <trkpt lat="43.65824" lon="3.8002">
        <ele>187.5</ele>
        <time>2015-11-18T12:09:47Z</time>
      </trkpt>
      <trkpt lat="43.65821" lon="3.80021">
        <ele>187.5</ele>
        <time>2015-11-18T12:09:48Z</time>
      </trkpt>
      <trkpt lat="43.65819" lon="3.80022">
        <ele>187.5</ele>
        <time>2015-11-18T12:09:49Z</time>
      </trkpt>
      <trkpt lat="43.65816" lon="3.80023">
        <ele>187.5</ele>
        <time>2015-11-18T12:09:50Z</time>
      </trkpt>
      <trkpt lat="43.65813" lon="3.80023">
        <ele>187.5</ele>
        <time>2015-11-18T12:09:51Z</time>
      </trkpt>
      <trkpt lat="43.65811" lon="3.80022">
        <ele>187.5</ele>
        <time>2015-11-18T12:09:52Z</time>
      </trkpt>
      <trkpt lat="43.65809" lon="3.80022">
        <ele>187.5</ele>
        <time>2015-11-18T12:09:53Z</time>
      </trkpt>
      <trkpt lat="43.65807" lon="3.80022">
        <ele>187.5</ele>
        <time>2015-11-18T12:09:54Z</time>
      </trkpt>
      <trkpt lat="43.65805" lon="3.80023">
        <ele>188</ele>
        <time>2015-11-18T12:09:55Z</time>
      </trkpt>
      <trkpt lat="43.65803" lon="3.80023">
        <ele>188</ele>
        <time>2015-11-18T12:09:56Z</time>
      </trkpt>
      <trkpt lat="43.658" lon="3.80023">
        <ele>188</ele>
        <time>2015-11-18T12:09:57Z</time>
      </trkpt>
      <trkpt lat="43.65798" lon="3.80023">
        <ele>188</ele>
        <time>2015-11-18T12:09:58Z</time>
      </trkpt>
      <trkpt lat="43.65795" lon="3.80024">
        <ele>188.5</ele>
        <time>2015-11-18T12:09:59Z</time>
      </trkpt>
      <trkpt lat="43.65793" lon="3.80023">
        <ele>188.5</ele>
        <time>2015-11-18T12:10:00Z</time>
      </trkpt>
      <trkpt lat="43.65791" lon="3.80024">
        <ele>188.5</ele>
        <time>2015-11-18T12:10:01Z</time>
      </trkpt>
      <trkpt lat="43.65788" lon="3.80025">
        <ele>189</ele>
        <time>2015-11-18T12:10:02Z</time>
      </trkpt>
      <trkpt lat="43.65786" lon="3.80027">
        <ele>189.5</ele>
        <time>2015-11-18T12:10:03Z</time>
      </trkpt>
      <trkpt lat="43.65783" lon="3.80028">
        <ele>189.5</ele>
        <time>2015-11-18T12:10:04Z</time>
      </trkpt>
      <trkpt lat="43.65781" lon="3.80029">
        <ele>190</ele>
        <time>2015-11-18T12:10:05Z</time>
      </trkpt>
      <trkpt lat="43.65779" lon="3.80029">
        <ele>190.5</ele>
        <time>2015-11-18T12:10:06Z</time>
      </trkpt>
      <trkpt lat="43.65776" lon="3.8003">
        <ele>191</ele>
        <time>2015-11-18T12:10:07Z</time>
      </trkpt>
      <trkpt lat="43.65774" lon="3.8003">
        <ele>191</ele>
        <time>2015-11-18T12:10:08Z</time>
      </trkpt>
      <trkpt lat="43.65771" lon="3.80032">
        <ele>191.5</ele>
        <time>2015-11-18T12:10:09Z</time>
      </trkpt>
      <trkpt lat="43.65769" lon="3.80033">
        <ele>192</ele>
        <time>2015-11-18T12:10:10Z</time>
      </trkpt>
      <trkpt lat="43.65767" lon="3.80034">
        <ele>192.5</ele>
        <time>2015-11-18T12:10:11Z</time>
      </trkpt>
      <trkpt lat="43.65764" lon="3.80035">
        <ele>193</ele>
        <time>2015-11-18T12:10:12Z</time>
      </trkpt>
      <trkpt lat="43.65762" lon="3.80036">
        <ele>193.5</ele>
        <time>2015-11-18T12:10:13Z</time>
      </trkpt>
      <trkpt lat="43.6576" lon="3.80037">
        <ele>193</ele>
        <time>2015-11-18T12:10:14Z</time>
      </trkpt>
      <trkpt lat="43.65757" lon="3.80036">
        <ele>193</ele>
        <time>2015-11-18T12:10:15Z</time>
      </trkpt>
      <trkpt lat="43.65754" lon="3.80037">
        <ele>193.5</ele>
        <time>2015-11-18T12:10:16Z</time>
      </trkpt>
      <trkpt lat="43.65751" lon="3.80038">
        <ele>194.5</ele>
        <time>2015-11-18T12:10:17Z</time>
      </trkpt>
      <trkpt lat="43.65748" lon="3.80039">
        <ele>194.5</ele>
        <time>2015-11-18T12:10:18Z</time>
      </trkpt>
      <trkpt lat="43.65746" lon="3.8004">
        <ele>195</ele>
        <time>2015-11-18T12:10:19Z</time>
      </trkpt>
      <trkpt lat="43.65743" lon="3.80041">
        <ele>195</ele>
        <time>2015-11-18T12:10:20Z</time>
      </trkpt>
      <trkpt lat="43.65741" lon="3.80041">
        <ele>195</ele>
        <time>2015-11-18T12:10:21Z</time>
      </trkpt>
      <trkpt lat="43.65738" lon="3.80042">
        <ele>195.5</ele>
        <time>2015-11-18T12:10:22Z</time>
      </trkpt>
      <trkpt lat="43.65736" lon="3.80042">
        <ele>195.5</ele>
        <time>2015-11-18T12:10:23Z</time>
      </trkpt>
      <trkpt lat="43.65733" lon="3.80043">
        <ele>196</ele>
        <time>2015-11-18T12:10:24Z</time>
      </trkpt>
      <trkpt lat="43.65731" lon="3.80044">
        <ele>196</ele>
        <time>2015-11-18T12:10:25Z</time>
      </trkpt>
      <trkpt lat="43.65729" lon="3.80045">
        <ele>196</ele>
        <time>2015-11-18T12:10:26Z</time>
      </trkpt>
      <trkpt lat="43.65727" lon="3.80046">
        <ele>196.5</ele>
        <time>2015-11-18T12:10:27Z</time>
      </trkpt>
      <trkpt lat="43.65725" lon="3.80047">
        <ele>196.5</ele>
        <time>2015-11-18T12:10:28Z</time>
      </trkpt>
      <trkpt lat="43.65723" lon="3.80048">
        <ele>197</ele>
        <time>2015-11-18T12:10:29Z</time>
      </trkpt>
      <trkpt lat="43.65721" lon="3.80049">
        <ele>197.5</ele>
        <time>2015-11-18T12:10:30Z</time>
      </trkpt>
      <trkpt lat="43.65719" lon="3.80051">
        <ele>197.5</ele>
        <time>2015-11-18T12:10:31Z</time>
      </trkpt>
      <trkpt lat="43.65717" lon="3.80052">
        <ele>198</ele>
        <time>2015-11-18T12:10:32Z</time>
      </trkpt>
      <trkpt lat="43.65715" lon="3.80054">
        <ele>198.5</ele>
        <time>2015-11-18T12:10:33Z</time>
      </trkpt>
      <trkpt lat="43.65713" lon="3.80055">
        <ele>198.5</ele>
        <time>2015-11-18T12:10:34Z</time>
      </trkpt>
      <trkpt lat="43.65711" lon="3.80057">
        <ele>199</ele>
        <time>2015-11-18T12:10:35Z</time>
      </trkpt>
      <trkpt lat="43.65709" lon="3.8006">
        <ele>199.5</ele>
        <time>2015-11-18T12:10:36Z</time>
      </trkpt>
      <trkpt lat="43.65708" lon="3.80062">
        <ele>200</ele>
        <time>2015-11-18T12:10:37Z</time>
      </trkpt>
      <trkpt lat="43.65707" lon="3.80063">
        <ele>200.5</ele>
        <time>2015-11-18T12:10:38Z</time>
      </trkpt>
      <trkpt lat="43.65701" lon="3.80066">
        <ele>199.5</ele>
        <time>2015-11-18T12:10:40Z</time>
      </trkpt>
      <trkpt lat="43.65699" lon="3.80068">
        <ele>200</ele>
        <time>2015-11-18T12:10:41Z</time>
      </trkpt>
      <trkpt lat="43.65698" lon="3.80071">
        <ele>200</ele>
        <time>2015-11-18T12:10:42Z</time>
      </trkpt>
      <trkpt lat="43.65696" lon="3.80073">
        <ele>200.5</ele>
        <time>2015-11-18T12:10:43Z</time>
      </trkpt>
      <trkpt lat="43.65694" lon="3.80075">
        <ele>200.5</ele>
        <time>2015-11-18T12:10:44Z</time>
      </trkpt>
      <trkpt lat="43.65692" lon="3.80077">
        <ele>201</ele>
        <time>2015-11-18T12:10:45Z</time>
      </trkpt>
      <trkpt lat="43.6569" lon="3.80079">
        <ele>201</ele>
        <time>2015-11-18T12:10:46Z</time>
      </trkpt>
      <trkpt lat="43.65689" lon="3.80081">
        <ele>201.5</ele>
        <time>2015-11-18T12:10:47Z</time>
      </trkpt>
      <trkpt lat="43.65686" lon="3.80083">
        <ele>201.5</ele>
        <time>2015-11-18T12:10:48Z</time>
      </trkpt>
      <trkpt lat="43.65685" lon="3.80085">
        <ele>201.5</ele>
        <time>2015-11-18T12:10:49Z</time>
      </trkpt>
      <trkpt lat="43.65683" lon="3.80087">
        <ele>202</ele>
        <time>2015-11-18T12:10:50Z</time>
      </trkpt>
      <trkpt lat="43.65681" lon="3.80089">
        <ele>202</ele>
        <time>2015-11-18T12:10:51Z</time>
      </trkpt>
      <trkpt lat="43.65679" lon="3.80091">
        <ele>202</ele>
        <time>2015-11-18T12:10:52Z</time>
      </trkpt>
      <trkpt lat="43.65677" lon="3.80094">
        <ele>201.5</ele>
        <time>2015-11-18T12:10:53Z</time>
      </trkpt>
      <trkpt lat="43.65675" lon="3.80096">
        <ele>202</ele>
        <time>2015-11-18T12:10:54Z</time>
      </trkpt>
      <trkpt lat="43.65673" lon="3.80097">
        <ele>201.5</ele>
        <time>2015-11-18T12:10:55Z</time>
      </trkpt>
      <trkpt lat="43.65671" lon="3.80098">
        <ele>201.5</ele>
        <time>2015-11-18T12:10:56Z</time>
      </trkpt>
      <trkpt lat="43.65669" lon="3.801">
        <ele>202</ele>
        <time>2015-11-18T12:10:57Z</time>
      </trkpt>
      <trkpt lat="43.65667" lon="3.80102">
        <ele>202</ele>
        <time>2015-11-18T12:10:58Z</time>
      </trkpt>
      <trkpt lat="43.65664" lon="3.80104">
        <ele>201.5</ele>
        <time>2015-11-18T12:10:59Z</time>
      </trkpt>
      <trkpt lat="43.65662" lon="3.80105">
        <ele>201.5</ele>
        <time>2015-11-18T12:11:00Z</time>
      </trkpt>
      <trkpt lat="43.6566" lon="3.80107">
        <ele>201.5</ele>
        <time>2015-11-18T12:11:01Z</time>
      </trkpt>
      <trkpt lat="43.65658" lon="3.80109">
        <ele>202</ele>
        <time>2015-11-18T12:11:02Z</time>
      </trkpt>
      <trkpt lat="43.65655" lon="3.8011">
        <ele>202</ele>
        <time>2015-11-18T12:11:03Z</time>
      </trkpt>
      <trkpt lat="43.65653" lon="3.80112">
        <ele>202</ele>
        <time>2015-11-18T12:11:04Z</time>
      </trkpt>
      <trkpt lat="43.65651" lon="3.80114">
        <ele>202</ele>
        <time>2015-11-18T12:11:05Z</time>
      </trkpt>
      <trkpt lat="43.65648" lon="3.80116">
        <ele>202.5</ele>
        <time>2015-11-18T12:11:06Z</time>
      </trkpt>
      <trkpt lat="43.65646" lon="3.80118">
        <ele>202.5</ele>
        <time>2015-11-18T12:11:07Z</time>
      </trkpt>
      <trkpt lat="43.65644" lon="3.8012">
        <ele>203</ele>
        <time>2015-11-18T12:11:08Z</time>
      </trkpt>
      <trkpt lat="43.65642" lon="3.80122">
        <ele>203</ele>
        <time>2015-11-18T12:11:09Z</time>
      </trkpt>
      <trkpt lat="43.65639" lon="3.80124">
        <ele>203</ele>
        <time>2015-11-18T12:11:10Z</time>
      </trkpt>
      <trkpt lat="43.65637" lon="3.80126">
        <ele>203</ele>
        <time>2015-11-18T12:11:11Z</time>
      </trkpt>
      <trkpt lat="43.65635" lon="3.80129">
        <ele>203</ele>
        <time>2015-11-18T12:11:12Z</time>
      </trkpt>
      <trkpt lat="43.65631" lon="3.80134">
        <ele>203</ele>
        <time>2015-11-18T12:11:13Z</time>
      </trkpt>
      <trkpt lat="43.65629" lon="3.80136">
        <ele>203</ele>
        <time>2015-11-18T12:11:14Z</time>
      </trkpt>
      <trkpt lat="43.65627" lon="3.80139">
        <ele>203</ele>
        <time>2015-11-18T12:11:15Z</time>
      </trkpt>
      <trkpt lat="43.65625" lon="3.80141">
        <ele>203.5</ele>
        <time>2015-11-18T12:11:16Z</time>
      </trkpt>
      <trkpt lat="43.65623" lon="3.80143">
        <ele>203</ele>
        <time>2015-11-18T12:11:17Z</time>
      </trkpt>
      <trkpt lat="43.65622" lon="3.80146">
        <ele>204.5</ele>
        <time>2015-11-18T12:11:18Z</time>
      </trkpt>
      <trkpt lat="43.6562" lon="3.80148">
        <ele>204.5</ele>
        <time>2015-11-18T12:11:19Z</time>
      </trkpt>
      <trkpt lat="43.65618" lon="3.80151">
        <ele>205</ele>
        <time>2015-11-18T12:11:20Z</time>
      </trkpt>
      <trkpt lat="43.65616" lon="3.80153">
        <ele>205</ele>
        <time>2015-11-18T12:11:21Z</time>
      </trkpt>
      <trkpt lat="43.65615" lon="3.80156">
        <ele>205.5</ele>
        <time>2015-11-18T12:11:22Z</time>
      </trkpt>
      <trkpt lat="43.65613" lon="3.80158">
        <ele>205.5</ele>
        <time>2015-11-18T12:11:23Z</time>
      </trkpt>
      <trkpt lat="43.65612" lon="3.80161">
        <ele>205.5</ele>
        <time>2015-11-18T12:11:24Z</time>
      </trkpt>
      <trkpt lat="43.65611" lon="3.80165">
        <ele>206</ele>
        <time>2015-11-18T12:11:25Z</time>
      </trkpt>
      <trkpt lat="43.65609" lon="3.80168">
        <ele>206</ele>
        <time>2015-11-18T12:11:26Z</time>
      </trkpt>
      <trkpt lat="43.65607" lon="3.80171">
        <ele>206</ele>
        <time>2015-11-18T12:11:27Z</time>
      </trkpt>
      <trkpt lat="43.65606" lon="3.80173">
        <ele>206.5</ele>
        <time>2015-11-18T12:11:28Z</time>
      </trkpt>
      <trkpt lat="43.65605" lon="3.80176">
        <ele>206.5</ele>
        <time>2015-11-18T12:11:29Z</time>
      </trkpt>
      <trkpt lat="43.65602" lon="3.80179">
        <ele>206</ele>
        <time>2015-11-18T12:11:30Z</time>
      </trkpt>
      <trkpt lat="43.656" lon="3.80183">
        <ele>206.5</ele>
        <time>2015-11-18T12:11:31Z</time>
      </trkpt>
      <trkpt lat="43.65597" lon="3.80186">
        <ele>206</ele>
        <time>2015-11-18T12:11:32Z</time>
      </trkpt>
      <trkpt lat="43.65594" lon="3.80189">
        <ele>206</ele>
        <time>2015-11-18T12:11:33Z</time>
      </trkpt>
      <trkpt lat="43.65591" lon="3.80192">
        <ele>205.5</ele>
        <time>2015-11-18T12:11:34Z</time>
      </trkpt>
      <trkpt lat="43.65588" lon="3.80194">
        <ele>205.5</ele>
        <time>2015-11-18T12:11:35Z</time>
      </trkpt>
      <trkpt lat="43.65586" lon="3.80198">
        <ele>206</ele>
        <time>2015-11-18T12:11:36Z</time>
      </trkpt>
      <trkpt lat="43.65582" lon="3.80201">
        <ele>205</ele>
        <time>2015-11-18T12:11:37Z</time>
      </trkpt>
      <trkpt lat="43.65579" lon="3.80204">
        <ele>205</ele>
        <time>2015-11-18T12:11:38Z</time>
      </trkpt>
      <trkpt lat="43.65576" lon="3.80208">
        <ele>205</ele>
        <time>2015-11-18T12:11:39Z</time>
      </trkpt>
      <trkpt lat="43.65573" lon="3.80211">
        <ele>204.5</ele>
        <time>2015-11-18T12:11:40Z</time>
      </trkpt>
      <trkpt lat="43.65569" lon="3.80214">
        <ele>205</ele>
        <time>2015-11-18T12:11:41Z</time>
      </trkpt>
      <trkpt lat="43.65566" lon="3.80217">
        <ele>205</ele>
        <time>2015-11-18T12:11:42Z</time>
      </trkpt>
      <trkpt lat="43.6556" lon="3.8022">
        <ele>204</ele>
        <time>2015-11-18T12:11:44Z</time>
      </trkpt>
      <trkpt lat="43.65556" lon="3.80219">
        <ele>202.5</ele>
        <time>2015-11-18T12:11:45Z</time>
      </trkpt>
      <trkpt lat="43.65553" lon="3.80221">
        <ele>203</ele>
        <time>2015-11-18T12:11:46Z</time>
      </trkpt>
      <trkpt lat="43.6555" lon="3.80223">
        <ele>203.5</ele>
        <time>2015-11-18T12:11:47Z</time>
      </trkpt>
      <trkpt lat="43.65547" lon="3.80224">
        <ele>204</ele>
        <time>2015-11-18T12:11:48Z</time>
      </trkpt>
      <trkpt lat="43.65543" lon="3.80226">
        <ele>204</ele>
        <time>2015-11-18T12:11:49Z</time>
      </trkpt>
      <trkpt lat="43.6554" lon="3.8023">
        <ele>204.5</ele>
        <time>2015-11-18T12:11:50Z</time>
      </trkpt>
      <trkpt lat="43.65536" lon="3.80232">
        <ele>204</ele>
        <time>2015-11-18T12:11:51Z</time>
      </trkpt>
      <trkpt lat="43.65533" lon="3.80234">
        <ele>204.5</ele>
        <time>2015-11-18T12:11:52Z</time>
      </trkpt>
      <trkpt lat="43.65526" lon="3.80236">
        <ele>204</ele>
        <time>2015-11-18T12:11:54Z</time>
      </trkpt>
      <trkpt lat="43.65523" lon="3.80237">
        <ele>203.5</ele>
        <time>2015-11-18T12:11:55Z</time>
      </trkpt>
      <trkpt lat="43.65519" lon="3.80239">
        <ele>203.5</ele>
        <time>2015-11-18T12:11:56Z</time>
      </trkpt>
      <trkpt lat="43.65516" lon="3.8024">
        <ele>203</ele>
        <time>2015-11-18T12:11:57Z</time>
      </trkpt>
      <trkpt lat="43.65512" lon="3.80242">
        <ele>202.5</ele>
        <time>2015-11-18T12:11:58Z</time>
      </trkpt>
      <trkpt lat="43.65508" lon="3.80245">
        <ele>202</ele>
        <time>2015-11-18T12:11:59Z</time>
      </trkpt>
      <trkpt lat="43.65504" lon="3.80248">
        <ele>202</ele>
        <time>2015-11-18T12:12:00Z</time>
      </trkpt>
      <trkpt lat="43.655" lon="3.80251">
        <ele>201.5</ele>
        <time>2015-11-18T12:12:01Z</time>
      </trkpt>
      <trkpt lat="43.65496" lon="3.80254">
        <ele>201</ele>
        <time>2015-11-18T12:12:02Z</time>
      </trkpt>
      <trkpt lat="43.65492" lon="3.80257">
        <ele>200.5</ele>
        <time>2015-11-18T12:12:03Z</time>
      </trkpt>
      <trkpt lat="43.65487" lon="3.80261">
        <ele>201</ele>
        <time>2015-11-18T12:12:04Z</time>
      </trkpt>
      <trkpt lat="43.65483" lon="3.80266">
        <ele>200.5</ele>
        <time>2015-11-18T12:12:05Z</time>
      </trkpt>
      <trkpt lat="43.65481" lon="3.80281">
        <ele>200</ele>
        <time>2015-11-18T12:12:07Z</time>
      </trkpt>
      <trkpt lat="43.65482" lon="3.80289">
        <ele>200</ele>
        <time>2015-11-18T12:12:08Z</time>
      </trkpt>
      <trkpt lat="43.65484" lon="3.80296">
        <ele>199.5</ele>
        <time>2015-11-18T12:12:09Z</time>
      </trkpt>
      <trkpt lat="43.65489" lon="3.80301">
        <ele>201</ele>
        <time>2015-11-18T12:12:10Z</time>
      </trkpt>
      <trkpt lat="43.65494" lon="3.80305">
        <ele>199.5</ele>
        <time>2015-11-18T12:12:11Z</time>
      </trkpt>
      <trkpt lat="43.65499" lon="3.80309">
        <ele>199</ele>
        <time>2015-11-18T12:12:12Z</time>
      </trkpt>
      <trkpt lat="43.65503" lon="3.80312">
        <ele>200</ele>
        <time>2015-11-18T12:12:13Z</time>
      </trkpt>
      <trkpt lat="43.65506" lon="3.80314">
        <ele>202</ele>
        <time>2015-11-18T12:12:14Z</time>
      </trkpt>
      <trkpt lat="43.65507" lon="3.80319">
        <ele>202.5</ele>
        <time>2015-11-18T12:12:16Z</time>
      </trkpt>
      <trkpt lat="43.65502" lon="3.80327">
        <ele>200.5</ele>
        <time>2015-11-18T12:12:18Z</time>
      </trkpt>
      <trkpt lat="43.65499" lon="3.80334">
        <ele>200</ele>
        <time>2015-11-18T12:12:20Z</time>
      </trkpt>
      <trkpt lat="43.655" lon="3.80336">
        <ele>198.5</ele>
        <time>2015-11-18T12:12:21Z</time>
      </trkpt>
      <trkpt lat="43.65502" lon="3.80339">
        <ele>199.5</ele>
        <time>2015-11-18T12:12:22Z</time>
      </trkpt>
      <trkpt lat="43.65505" lon="3.80342">
        <ele>200</ele>
        <time>2015-11-18T12:12:23Z</time>
      </trkpt>
      <trkpt lat="43.65507" lon="3.80344">
        <ele>200.5</ele>
        <time>2015-11-18T12:12:24Z</time>
      </trkpt>
      <trkpt lat="43.65509" lon="3.80347">
        <ele>200.5</ele>
        <time>2015-11-18T12:12:25Z</time>
      </trkpt>
      <trkpt lat="43.65511" lon="3.80351">
        <ele>200</ele>
        <time>2015-11-18T12:12:26Z</time>
      </trkpt>
      <trkpt lat="43.65513" lon="3.80355">
        <ele>198.5</ele>
        <time>2015-11-18T12:12:27Z</time>
      </trkpt>
      <trkpt lat="43.65515" lon="3.8036">
        <ele>197.5</ele>
        <time>2015-11-18T12:12:28Z</time>
      </trkpt>
      <trkpt lat="43.65518" lon="3.80364">
        <ele>196.5</ele>
        <time>2015-11-18T12:12:29Z</time>
      </trkpt>
      <trkpt lat="43.65521" lon="3.8037">
        <ele>194</ele>
        <time>2015-11-18T12:12:30Z</time>
      </trkpt>
      <trkpt lat="43.65525" lon="3.80373">
        <ele>194</ele>
        <time>2015-11-18T12:12:31Z</time>
      </trkpt>
      <trkpt lat="43.65529" lon="3.80375">
        <ele>193</ele>
        <time>2015-11-18T12:12:32Z</time>
      </trkpt>
      <trkpt lat="43.65534" lon="3.80376">
        <ele>192</ele>
        <time>2015-11-18T12:12:33Z</time>
      </trkpt>
      <trkpt lat="43.65538" lon="3.80377">
        <ele>190</ele>
        <time>2015-11-18T12:12:34Z</time>
      </trkpt>
      <trkpt lat="43.65544" lon="3.80378">
        <ele>190</ele>
        <time>2015-11-18T12:12:35Z</time>
      </trkpt>
      <trkpt lat="43.65549" lon="3.80379">
        <ele>189</ele>
        <time>2015-11-18T12:12:36Z</time>
      </trkpt>
      <trkpt lat="43.65556" lon="3.80381">
        <ele>188.5</ele>
        <time>2015-11-18T12:12:37Z</time>
      </trkpt>
      <trkpt lat="43.65562" lon="3.80384">
        <ele>188.5</ele>
        <time>2015-11-18T12:12:38Z</time>
      </trkpt>
      <trkpt lat="43.65569" lon="3.80386">
        <ele>188.5</ele>
        <time>2015-11-18T12:12:39Z</time>
      </trkpt>
      <trkpt lat="43.65575" lon="3.80388">
        <ele>189</ele>
        <time>2015-11-18T12:12:40Z</time>
      </trkpt>
      <trkpt lat="43.6558" lon="3.80387">
        <ele>189.5</ele>
        <time>2015-11-18T12:12:41Z</time>
      </trkpt>
      <trkpt lat="43.65585" lon="3.80391">
        <ele>190</ele>
        <time>2015-11-18T12:12:42Z</time>
      </trkpt>
      <trkpt lat="43.65591" lon="3.80393">
        <ele>190.5</ele>
        <time>2015-11-18T12:12:43Z</time>
      </trkpt>
      <trkpt lat="43.65597" lon="3.80394">
        <ele>191</ele>
        <time>2015-11-18T12:12:44Z</time>
      </trkpt>
      <trkpt lat="43.65603" lon="3.80396">
        <ele>191.5</ele>
        <time>2015-11-18T12:12:45Z</time>
      </trkpt>
      <trkpt lat="43.65609" lon="3.80401">
        <ele>191</ele>
        <time>2015-11-18T12:12:46Z</time>
      </trkpt>
      <trkpt lat="43.65625" lon="3.80413">
        <ele>190</ele>
        <time>2015-11-18T12:12:48Z</time>
      </trkpt>
      <trkpt lat="43.65632" lon="3.80413">
        <ele>188.5</ele>
        <time>2015-11-18T12:12:49Z</time>
      </trkpt>
      <trkpt lat="43.65638" lon="3.80415">
        <ele>188</ele>
        <time>2015-11-18T12:12:50Z</time>
      </trkpt>
      <trkpt lat="43.65644" lon="3.80417">
        <ele>187.5</ele>
        <time>2015-11-18T12:12:51Z</time>
      </trkpt>
      <trkpt lat="43.65649" lon="3.8042">
        <ele>187.5</ele>
        <time>2015-11-18T12:12:52Z</time>
      </trkpt>
      <trkpt lat="43.65654" lon="3.80421">
        <ele>188</ele>
        <time>2015-11-18T12:12:53Z</time>
      </trkpt>
      <trkpt lat="43.65658" lon="3.8042">
        <ele>188.5</ele>
        <time>2015-11-18T12:12:54Z</time>
      </trkpt>
      <trkpt lat="43.65663" lon="3.80422">
        <ele>188</ele>
        <time>2015-11-18T12:12:55Z</time>
      </trkpt>
      <trkpt lat="43.65667" lon="3.8042">
        <ele>188</ele>
        <time>2015-11-18T12:12:56Z</time>
      </trkpt>
      <trkpt lat="43.65671" lon="3.8042">
        <ele>188</ele>
        <time>2015-11-18T12:12:57Z</time>
      </trkpt>
      <trkpt lat="43.65675" lon="3.8042">
        <ele>188.5</ele>
        <time>2015-11-18T12:12:58Z</time>
      </trkpt>
      <trkpt lat="43.65678" lon="3.80419">
        <ele>189</ele>
        <time>2015-11-18T12:12:59Z</time>
      </trkpt>
      <trkpt lat="43.65682" lon="3.80421">
        <ele>189.5</ele>
        <time>2015-11-18T12:13:00Z</time>
      </trkpt>
      <trkpt lat="43.65686" lon="3.80423">
        <ele>190</ele>
        <time>2015-11-18T12:13:01Z</time>
      </trkpt>
      <trkpt lat="43.6569" lon="3.80425">
        <ele>189.5</ele>
        <time>2015-11-18T12:13:02Z</time>
      </trkpt>
      <trkpt lat="43.65694" lon="3.80426">
        <ele>189</ele>
        <time>2015-11-18T12:13:03Z</time>
      </trkpt>
      <trkpt lat="43.65698" lon="3.8043">
        <ele>189.5</ele>
        <time>2015-11-18T12:13:05Z</time>
      </trkpt>
      <trkpt lat="43.65705" lon="3.80433">
        <ele>189.5</ele>
        <time>2015-11-18T12:13:07Z</time>
      </trkpt>
      <trkpt lat="43.65709" lon="3.80434">
        <ele>189</ele>
        <time>2015-11-18T12:13:08Z</time>
      </trkpt>
      <trkpt lat="43.65713" lon="3.80437">
        <ele>188</ele>
        <time>2015-11-18T12:13:09Z</time>
      </trkpt>
      <trkpt lat="43.65716" lon="3.80441">
        <ele>189</ele>
        <time>2015-11-18T12:13:09Z</time>
      </trkpt>
      <trkpt lat="43.65718" lon="3.80443">
        <ele>189.5</ele>
        <time>2015-11-18T12:13:10Z</time>
      </trkpt>
      <trkpt lat="43.65723" lon="3.80445">
        <ele>189.5</ele>
        <time>2015-11-18T12:13:11Z</time>
      </trkpt>
      <trkpt lat="43.65726" lon="3.80446">
        <ele>189</ele>
        <time>2015-11-18T12:13:13Z</time>
      </trkpt>
      <trkpt lat="43.6573" lon="3.80449">
        <ele>189</ele>
        <time>2015-11-18T12:13:13Z</time>
      </trkpt>
      <trkpt lat="43.65734" lon="3.8045">
        <ele>189</ele>
        <time>2015-11-18T12:13:14Z</time>
      </trkpt>
      <trkpt lat="43.65739" lon="3.80451">
        <ele>188.5</ele>
        <time>2015-11-18T12:13:15Z</time>
      </trkpt>
      <trkpt lat="43.65743" lon="3.80453">
        <ele>187</ele>
        <time>2015-11-18T12:13:16Z</time>
      </trkpt>
      <trkpt lat="43.65747" lon="3.80455">
        <ele>186</ele>
        <time>2015-11-18T12:13:17Z</time>
      </trkpt>
      <trkpt lat="43.65752" lon="3.80458">
        <ele>186.5</ele>
        <time>2015-11-18T12:13:18Z</time>
      </trkpt>
      <trkpt lat="43.65757" lon="3.8046">
        <ele>186</ele>
        <time>2015-11-18T12:13:19Z</time>
      </trkpt>
      <trkpt lat="43.65761" lon="3.80463">
        <ele>186</ele>
        <time>2015-11-18T12:13:20Z</time>
      </trkpt>
      <trkpt lat="43.65766" lon="3.80466">
        <ele>186</ele>
        <time>2015-11-18T12:13:21Z</time>
      </trkpt>
      <trkpt lat="43.65771" lon="3.80469">
        <ele>186</ele>
        <time>2015-11-18T12:13:22Z</time>
      </trkpt>
      <trkpt lat="43.65775" lon="3.8047">
        <ele>186</ele>
        <time>2015-11-18T12:13:23Z</time>
      </trkpt>
      <trkpt lat="43.65778" lon="3.80472">
        <ele>185.5</ele>
        <time>2015-11-18T12:13:25Z</time>
      </trkpt>
      <trkpt lat="43.65782" lon="3.80475">
        <ele>185</ele>
        <time>2015-11-18T12:13:25Z</time>
      </trkpt>
      <trkpt lat="43.65786" lon="3.80478">
        <ele>183.5</ele>
        <time>2015-11-18T12:13:26Z</time>
      </trkpt>
      <trkpt lat="43.6579" lon="3.80475">
        <ele>185.5</ele>
        <time>2015-11-18T12:13:27Z</time>
      </trkpt>
      <trkpt lat="43.65796" lon="3.80479">
        <ele>184.5</ele>
        <time>2015-11-18T12:13:29Z</time>
      </trkpt>
      <trkpt lat="43.65801" lon="3.80479">
        <ele>184.5</ele>
        <time>2015-11-18T12:13:29Z</time>
      </trkpt>
      <trkpt lat="43.65807" lon="3.80479">
        <ele>183</ele>
        <time>2015-11-18T12:13:30Z</time>
      </trkpt>
      <trkpt lat="43.6581" lon="3.80476">
        <ele>184</ele>
        <time>2015-11-18T12:13:31Z</time>
      </trkpt>
      <trkpt lat="43.65815" lon="3.80477">
        <ele>183</ele>
        <time>2015-11-18T12:13:32Z</time>
      </trkpt>
      <trkpt lat="43.65818" lon="3.80479">
        <ele>183</ele>
        <time>2015-11-18T12:13:33Z</time>
      </trkpt>
      <trkpt lat="43.65822" lon="3.8048">
        <ele>183.5</ele>
        <time>2015-11-18T12:13:34Z</time>
      </trkpt>
      <trkpt lat="43.65827" lon="3.80482">
        <ele>183.5</ele>
        <time>2015-11-18T12:13:35Z</time>
      </trkpt>
      <trkpt lat="43.65837" lon="3.80491">
        <ele>183</ele>
        <time>2015-11-18T12:13:38Z</time>
      </trkpt>
      <trkpt lat="43.65841" lon="3.80494">
        <ele>183.5</ele>
        <time>2015-11-18T12:13:38Z</time>
      </trkpt>
      <trkpt lat="43.65845" lon="3.80495">
        <ele>183.5</ele>
        <time>2015-11-18T12:13:39Z</time>
      </trkpt>
      <trkpt lat="43.65851" lon="3.80499">
        <ele>182.5</ele>
        <time>2015-11-18T12:13:40Z</time>
      </trkpt>
      <trkpt lat="43.65857" lon="3.80507">
        <ele>182</ele>
        <time>2015-11-18T12:13:43Z</time>
      </trkpt>
      <trkpt lat="43.65862" lon="3.8051">
        <ele>181.5</ele>
        <time>2015-11-18T12:13:43Z</time>
      </trkpt>
      <trkpt lat="43.65867" lon="3.80513">
        <ele>182</ele>
        <time>2015-11-18T12:13:44Z</time>
      </trkpt>
      <trkpt lat="43.65871" lon="3.80517">
        <ele>181.5</ele>
        <time>2015-11-18T12:13:45Z</time>
      </trkpt>
      <trkpt lat="43.65876" lon="3.8052">
        <ele>181</ele>
        <time>2015-11-18T12:13:46Z</time>
      </trkpt>
      <trkpt lat="43.65877" lon="3.80524">
        <ele>181</ele>
        <time>2015-11-18T12:13:47Z</time>
      </trkpt>
      <trkpt lat="43.65881" lon="3.80527">
        <ele>181.5</ele>
        <time>2015-11-18T12:13:49Z</time>
      </trkpt>
      <trkpt lat="43.65885" lon="3.80526">
        <ele>182</ele>
        <time>2015-11-18T12:13:50Z</time>
      </trkpt>
      <trkpt lat="43.65888" lon="3.80527">
        <ele>182</ele>
        <time>2015-11-18T12:13:51Z</time>
      </trkpt>
      <trkpt lat="43.65891" lon="3.80528">
        <ele>182</ele>
        <time>2015-11-18T12:13:52Z</time>
      </trkpt>
      <trkpt lat="43.65893" lon="3.80529">
        <ele>183</ele>
        <time>2015-11-18T12:13:54Z</time>
      </trkpt>
      <trkpt lat="43.65897" lon="3.80531">
        <ele>184.5</ele>
        <time>2015-11-18T12:13:54Z</time>
      </trkpt>
      <trkpt lat="43.659" lon="3.80533">
        <ele>186</ele>
        <time>2015-11-18T12:13:55Z</time>
      </trkpt>
      <trkpt lat="43.65903" lon="3.80533">
        <ele>185.5</ele>
        <time>2015-11-18T12:13:56Z</time>
      </trkpt>
      <trkpt lat="43.65903" lon="3.8053">
        <ele>183</ele>
        <time>2015-11-18T12:13:57Z</time>
      </trkpt>
      <trkpt lat="43.65906" lon="3.80532">
        <ele>183</ele>
        <time>2015-11-18T12:13:58Z</time>
      </trkpt>
      <trkpt lat="43.65909" lon="3.80535">
        <ele>183</ele>
        <time>2015-11-18T12:13:59Z</time>
      </trkpt>
      <trkpt lat="43.65912" lon="3.80538">
        <ele>183.5</ele>
        <time>2015-11-18T12:14:00Z</time>
      </trkpt>
      <trkpt lat="43.65914" lon="3.80541">
        <ele>184</ele>
        <time>2015-11-18T12:14:01Z</time>
      </trkpt>
      <trkpt lat="43.65921" lon="3.80547">
        <ele>186</ele>
        <time>2015-11-18T12:14:03Z</time>
      </trkpt>
      <trkpt lat="43.65921" lon="3.80551">
        <ele>187.5</ele>
        <time>2015-11-18T12:14:04Z</time>
      </trkpt>
      <trkpt lat="43.65922" lon="3.80556">
        <ele>187.5</ele>
        <time>2015-11-18T12:14:05Z</time>
      </trkpt>
      <trkpt lat="43.65921" lon="3.80561">
        <ele>186.5</ele>
        <time>2015-11-18T12:14:06Z</time>
      </trkpt>
      <trkpt lat="43.65919" lon="3.80564">
        <ele>185.5</ele>
        <time>2015-11-18T12:14:07Z</time>
      </trkpt>
      <trkpt lat="43.65918" lon="3.80568">
        <ele>184.5</ele>
        <time>2015-11-18T12:14:08Z</time>
      </trkpt>
      <trkpt lat="43.65917" lon="3.8057">
        <ele>183.5</ele>
        <time>2015-11-18T12:14:09Z</time>
      </trkpt>
      <trkpt lat="43.65919" lon="3.80574">
        <ele>181.5</ele>
        <time>2015-11-18T12:14:10Z</time>
      </trkpt>
      <trkpt lat="43.65932" lon="3.80605">
        <ele>177.5</ele>
        <time>2015-11-18T12:14:15Z</time>
      </trkpt>
      <trkpt lat="43.65934" lon="3.80607">
        <ele>177.5</ele>
        <time>2015-11-18T12:14:16Z</time>
      </trkpt>
      <trkpt lat="43.65932" lon="3.8061">
        <ele>178</ele>
        <time>2015-11-18T12:14:17Z</time>
      </trkpt>
      <trkpt lat="43.65932" lon="3.80615">
        <ele>179.5</ele>
        <time>2015-11-18T12:14:18Z</time>
      </trkpt>
      <trkpt lat="43.65928" lon="3.80619">
        <ele>180</ele>
        <time>2015-11-18T12:14:19Z</time>
      </trkpt>
      <trkpt lat="43.65926" lon="3.80627">
        <ele>179.5</ele>
        <time>2015-11-18T12:14:21Z</time>
      </trkpt>
      <trkpt lat="43.65922" lon="3.80633">
        <ele>178.5</ele>
        <time>2015-11-18T12:14:23Z</time>
      </trkpt>
      <trkpt lat="43.6592" lon="3.80635">
        <ele>176.5</ele>
        <time>2015-11-18T12:14:24Z</time>
      </trkpt>
      <trkpt lat="43.65917" lon="3.80639">
        <ele>175.5</ele>
        <time>2015-11-18T12:14:25Z</time>
      </trkpt>
      <trkpt lat="43.65911" lon="3.80641">
        <ele>174.5</ele>
        <time>2015-11-18T12:14:27Z</time>
      </trkpt>
      <trkpt lat="43.65905" lon="3.80643">
        <ele>172.5</ele>
        <time>2015-11-18T12:14:28Z</time>
      </trkpt>
      <trkpt lat="43.65899" lon="3.80648">
        <ele>172.5</ele>
        <time>2015-11-18T12:14:29Z</time>
      </trkpt>
      <trkpt lat="43.659" lon="3.8066">
        <ele>170</ele>
        <time>2015-11-18T12:14:32Z</time>
      </trkpt>
      <trkpt lat="43.65903" lon="3.80663">
        <ele>168</ele>
        <time>2015-11-18T12:14:33Z</time>
      </trkpt>
      <trkpt lat="43.65906" lon="3.80667">
        <ele>166.5</ele>
        <time>2015-11-18T12:14:34Z</time>
      </trkpt>
      <trkpt lat="43.65909" lon="3.8067">
        <ele>165</ele>
        <time>2015-11-18T12:14:35Z</time>
      </trkpt>
      <trkpt lat="43.65912" lon="3.80674">
        <ele>163.5</ele>
        <time>2015-11-18T12:14:36Z</time>
      </trkpt>
      <trkpt lat="43.65916" lon="3.80678">
        <ele>163</ele>
        <time>2015-11-18T12:14:37Z</time>
      </trkpt>
      <trkpt lat="43.65919" lon="3.80685">
        <ele>162</ele>
        <time>2015-11-18T12:14:38Z</time>
      </trkpt>
      <trkpt lat="43.65921" lon="3.80691">
        <ele>160</ele>
        <time>2015-11-18T12:14:39Z</time>
      </trkpt>
      <trkpt lat="43.65924" lon="3.80698">
        <ele>160</ele>
        <time>2015-11-18T12:14:40Z</time>
      </trkpt>
      <trkpt lat="43.65925" lon="3.80707">
        <ele>158.5</ele>
        <time>2015-11-18T12:14:41Z</time>
      </trkpt>
      <trkpt lat="43.65922" lon="3.80716">
        <ele>157.5</ele>
        <time>2015-11-18T12:14:42Z</time>
      </trkpt>
      <trkpt lat="43.65921" lon="3.80724">
        <ele>158.5</ele>
        <time>2015-11-18T12:14:43Z</time>
      </trkpt>
      <trkpt lat="43.65918" lon="3.80731">
        <ele>159.5</ele>
        <time>2015-11-18T12:14:44Z</time>
      </trkpt>
      <trkpt lat="43.65915" lon="3.80738">
        <ele>158.5</ele>
        <time>2015-11-18T12:14:45Z</time>
      </trkpt>
      <trkpt lat="43.65913" lon="3.80746">
        <ele>159</ele>
        <time>2015-11-18T12:14:46Z</time>
      </trkpt>
      <trkpt lat="43.65904" lon="3.80764">
        <ele>157</ele>
        <time>2015-11-18T12:14:48Z</time>
      </trkpt>
      <trkpt lat="43.65892" lon="3.8077">
        <ele>154.5</ele>
        <time>2015-11-18T12:14:50Z</time>
      </trkpt>
      <trkpt lat="43.65883" lon="3.80768">
        <ele>153.5</ele>
        <time>2015-11-18T12:14:52Z</time>
      </trkpt>
      <trkpt lat="43.65878" lon="3.80768">
        <ele>153</ele>
        <time>2015-11-18T12:14:53Z</time>
      </trkpt>
      <trkpt lat="43.65873" lon="3.80767">
        <ele>152.5</ele>
        <time>2015-11-18T12:14:54Z</time>
      </trkpt>
      <trkpt lat="43.65869" lon="3.80766">
        <ele>152.5</ele>
        <time>2015-11-18T12:14:55Z</time>
      </trkpt>
      <trkpt lat="43.65864" lon="3.80765">
        <ele>152</ele>
        <time>2015-11-18T12:14:56Z</time>
      </trkpt>
      <trkpt lat="43.65859" lon="3.80764">
        <ele>152</ele>
        <time>2015-11-18T12:14:57Z</time>
      </trkpt>
      <trkpt lat="43.65855" lon="3.80763">
        <ele>152</ele>
        <time>2015-11-18T12:14:58Z</time>
      </trkpt>
      <trkpt lat="43.65851" lon="3.80761">
        <ele>152.5</ele>
        <time>2015-11-18T12:14:59Z</time>
      </trkpt>
      <trkpt lat="43.65848" lon="3.80759">
        <ele>152</ele>
        <time>2015-11-18T12:15:00Z</time>
      </trkpt>
      <trkpt lat="43.65844" lon="3.80756">
        <ele>152</ele>
        <time>2015-11-18T12:15:01Z</time>
      </trkpt>
      <trkpt lat="43.6584" lon="3.80752">
        <ele>151.5</ele>
        <time>2015-11-18T12:15:02Z</time>
      </trkpt>
      <trkpt lat="43.65835" lon="3.80751">
        <ele>151</ele>
        <time>2015-11-18T12:15:03Z</time>
      </trkpt>
      <trkpt lat="43.65831" lon="3.80751">
        <ele>151</ele>
        <time>2015-11-18T12:15:04Z</time>
      </trkpt>
      <trkpt lat="43.65826" lon="3.8075">
        <ele>150.5</ele>
        <time>2015-11-18T12:15:05Z</time>
      </trkpt>
      <trkpt lat="43.6582" lon="3.80748">
        <ele>151.5</ele>
        <time>2015-11-18T12:15:06Z</time>
      </trkpt>
      <trkpt lat="43.65816" lon="3.80743">
        <ele>152</ele>
        <time>2015-11-18T12:15:07Z</time>
      </trkpt>
      <trkpt lat="43.65812" lon="3.80738">
        <ele>151.5</ele>
        <time>2015-11-18T12:15:08Z</time>
      </trkpt>
      <trkpt lat="43.65808" lon="3.80735">
        <ele>150.5</ele>
        <time>2015-11-18T12:15:09Z</time>
      </trkpt>
      <trkpt lat="43.65804" lon="3.80733">
        <ele>150</ele>
        <time>2015-11-18T12:15:10Z</time>
      </trkpt>
      <trkpt lat="43.65799" lon="3.80732">
        <ele>150</ele>
        <time>2015-11-18T12:15:11Z</time>
      </trkpt>
      <trkpt lat="43.65795" lon="3.80728">
        <ele>150</ele>
        <time>2015-11-18T12:15:12Z</time>
      </trkpt>
      <trkpt lat="43.65789" lon="3.80729">
        <ele>149.5</ele>
        <time>2015-11-18T12:15:13Z</time>
      </trkpt>
      <trkpt lat="43.65784" lon="3.80729">
        <ele>149</ele>
        <time>2015-11-18T12:15:14Z</time>
      </trkpt>
      <trkpt lat="43.65778" lon="3.8073">
        <ele>149.5</ele>
        <time>2015-11-18T12:15:15Z</time>
      </trkpt>
      <trkpt lat="43.65773" lon="3.80729">
        <ele>149.5</ele>
        <time>2015-11-18T12:15:16Z</time>
      </trkpt>
      <trkpt lat="43.65767" lon="3.80729">
        <ele>149.5</ele>
        <time>2015-11-18T12:15:17Z</time>
      </trkpt>
      <trkpt lat="43.65762" lon="3.80728">
        <ele>149</ele>
        <time>2015-11-18T12:15:18Z</time>
      </trkpt>
      <trkpt lat="43.65758" lon="3.80725">
        <ele>149</ele>
        <time>2015-11-18T12:15:19Z</time>
      </trkpt>
      <trkpt lat="43.65757" lon="3.80718">
        <ele>147.5</ele>
        <time>2015-11-18T12:15:20Z</time>
      </trkpt>
      <trkpt lat="43.65753" lon="3.80714">
        <ele>146.5</ele>
        <time>2015-11-18T12:15:21Z</time>
      </trkpt>
      <trkpt lat="43.6575" lon="3.80713">
        <ele>146.5</ele>
        <time>2015-11-18T12:15:22Z</time>
      </trkpt>
      <trkpt lat="43.65746" lon="3.80711">
        <ele>146.5</ele>
        <time>2015-11-18T12:15:23Z</time>
      </trkpt>
      <trkpt lat="43.65742" lon="3.80708">
        <ele>146.5</ele>
        <time>2015-11-18T12:15:24Z</time>
      </trkpt>
      <trkpt lat="43.65738" lon="3.80705">
        <ele>146.5</ele>
        <time>2015-11-18T12:15:25Z</time>
      </trkpt>
      <trkpt lat="43.65733" lon="3.80702">
        <ele>146.5</ele>
        <time>2015-11-18T12:15:26Z</time>
      </trkpt>
      <trkpt lat="43.65729" lon="3.80699">
        <ele>146.5</ele>
        <time>2015-11-18T12:15:27Z</time>
      </trkpt>
      <trkpt lat="43.65724" lon="3.80697">
        <ele>146</ele>
        <time>2015-11-18T12:15:28Z</time>
      </trkpt>
      <trkpt lat="43.65719" lon="3.80695">
        <ele>146</ele>
        <time>2015-11-18T12:15:29Z</time>
      </trkpt>
      <trkpt lat="43.65714" lon="3.80692">
        <ele>146.5</ele>
        <time>2015-11-18T12:15:30Z</time>
      </trkpt>
      <trkpt lat="43.65709" lon="3.8069">
        <ele>146.5</ele>
        <time>2015-11-18T12:15:31Z</time>
      </trkpt>
      <trkpt lat="43.65704" lon="3.8069">
        <ele>146</ele>
        <time>2015-11-18T12:15:32Z</time>
      </trkpt>
      <trkpt lat="43.65699" lon="3.80691">
        <ele>146</ele>
        <time>2015-11-18T12:15:33Z</time>
      </trkpt>
      <trkpt lat="43.65693" lon="3.80695">
        <ele>146.5</ele>
        <time>2015-11-18T12:15:34Z</time>
      </trkpt>
      <trkpt lat="43.65687" lon="3.80697">
        <ele>147</ele>
        <time>2015-11-18T12:15:35Z</time>
      </trkpt>
      <trkpt lat="43.65682" lon="3.807">
        <ele>147</ele>
        <time>2015-11-18T12:15:36Z</time>
      </trkpt>
      <trkpt lat="43.65676" lon="3.80704">
        <ele>146.5</ele>
        <time>2015-11-18T12:15:37Z</time>
      </trkpt>
      <trkpt lat="43.6567" lon="3.80707">
        <ele>146</ele>
        <time>2015-11-18T12:15:38Z</time>
      </trkpt>
      <trkpt lat="43.65664" lon="3.8071">
        <ele>146</ele>
        <time>2015-11-18T12:15:39Z</time>
      </trkpt>
      <trkpt lat="43.65657" lon="3.80715">
        <ele>146.5</ele>
        <time>2015-11-18T12:15:40Z</time>
      </trkpt>
      <trkpt lat="43.65651" lon="3.8072">
        <ele>146.5</ele>
        <time>2015-11-18T12:15:41Z</time>
      </trkpt>
      <trkpt lat="43.65645" lon="3.80723">
        <ele>146</ele>
        <time>2015-11-18T12:15:42Z</time>
      </trkpt>
      <trkpt lat="43.65639" lon="3.80726">
        <ele>145</ele>
        <time>2015-11-18T12:15:43Z</time>
      </trkpt>
      <trkpt lat="43.65633" lon="3.8073">
        <ele>144.5</ele>
        <time>2015-11-18T12:15:44Z</time>
      </trkpt>
      <trkpt lat="43.65626" lon="3.80735">
        <ele>144</ele>
        <time>2015-11-18T12:15:45Z</time>
      </trkpt>
      <trkpt lat="43.6562" lon="3.8074">
        <ele>143</ele>
        <time>2015-11-18T12:15:46Z</time>
      </trkpt>
      <trkpt lat="43.65613" lon="3.80746">
        <ele>142.5</ele>
        <time>2015-11-18T12:15:47Z</time>
      </trkpt>
      <trkpt lat="43.65607" lon="3.80753">
        <ele>142.5</ele>
        <time>2015-11-18T12:15:48Z</time>
      </trkpt>
      <trkpt lat="43.65601" lon="3.8076">
        <ele>141.5</ele>
        <time>2015-11-18T12:15:49Z</time>
      </trkpt>
      <trkpt lat="43.65595" lon="3.80766">
        <ele>140.5</ele>
        <time>2015-11-18T12:15:50Z</time>
      </trkpt>
      <trkpt lat="43.65588" lon="3.80773">
        <ele>140</ele>
        <time>2015-11-18T12:15:51Z</time>
      </trkpt>
      <trkpt lat="43.65581" lon="3.80779">
        <ele>139.5</ele>
        <time>2015-11-18T12:15:52Z</time>
      </trkpt>
      <trkpt lat="43.65573" lon="3.80784">
        <ele>139</ele>
        <time>2015-11-18T12:15:53Z</time>
      </trkpt>
      <trkpt lat="43.65566" lon="3.80786">
        <ele>138</ele>
        <time>2015-11-18T12:15:54Z</time>
      </trkpt>
      <trkpt lat="43.65558" lon="3.80788">
        <ele>138.5</ele>
        <time>2015-11-18T12:15:55Z</time>
      </trkpt>
      <trkpt lat="43.65551" lon="3.80784">
        <ele>138.5</ele>
        <time>2015-11-18T12:15:56Z</time>
      </trkpt>
      <trkpt lat="43.65544" lon="3.80782">
        <ele>138</ele>
        <time>2015-11-18T12:15:57Z</time>
      </trkpt>
      <trkpt lat="43.65538" lon="3.8078">
        <ele>138</ele>
        <time>2015-11-18T12:15:58Z</time>
      </trkpt>
      <trkpt lat="43.65532" lon="3.80778">
        <ele>138</ele>
        <time>2015-11-18T12:15:59Z</time>
      </trkpt>
      <trkpt lat="43.65527" lon="3.80777">
        <ele>138.5</ele>
        <time>2015-11-18T12:16:00Z</time>
      </trkpt>
      <trkpt lat="43.65523" lon="3.80776">
        <ele>138.5</ele>
        <time>2015-11-18T12:16:01Z</time>
      </trkpt>
      <trkpt lat="43.65518" lon="3.80775">
        <ele>138.5</ele>
        <time>2015-11-18T12:16:02Z</time>
      </trkpt>
      <trkpt lat="43.65513" lon="3.80774">
        <ele>138</ele>
        <time>2015-11-18T12:16:03Z</time>
      </trkpt>
      <trkpt lat="43.65508" lon="3.80774">
        <ele>137.5</ele>
        <time>2015-11-18T12:16:04Z</time>
      </trkpt>
      <trkpt lat="43.65502" lon="3.80775">
        <ele>137</ele>
        <time>2015-11-18T12:16:05Z</time>
      </trkpt>
      <trkpt lat="43.65496" lon="3.80775">
        <ele>135.5</ele>
        <time>2015-11-18T12:16:06Z</time>
      </trkpt>
      <trkpt lat="43.65489" lon="3.80772">
        <ele>135.5</ele>
        <time>2015-11-18T12:16:07Z</time>
      </trkpt>
      <trkpt lat="43.65482" lon="3.80767">
        <ele>136</ele>
        <time>2015-11-18T12:16:08Z</time>
      </trkpt>
      <trkpt lat="43.65475" lon="3.80764">
        <ele>136.5</ele>
        <time>2015-11-18T12:16:09Z</time>
      </trkpt>
      <trkpt lat="43.65468" lon="3.80761">
        <ele>136.5</ele>
        <time>2015-11-18T12:16:10Z</time>
      </trkpt>
      <trkpt lat="43.65461" lon="3.8076">
        <ele>136.5</ele>
        <time>2015-11-18T12:16:11Z</time>
      </trkpt>
      <trkpt lat="43.65455" lon="3.8076">
        <ele>136.5</ele>
        <time>2015-11-18T12:16:12Z</time>
      </trkpt>
      <trkpt lat="43.65448" lon="3.80759">
        <ele>136</ele>
        <time>2015-11-18T12:16:13Z</time>
      </trkpt>
      <trkpt lat="43.65442" lon="3.80758">
        <ele>136</ele>
        <time>2015-11-18T12:16:14Z</time>
      </trkpt>
      <trkpt lat="43.65436" lon="3.80758">
        <ele>136</ele>
        <time>2015-11-18T12:16:15Z</time>
      </trkpt>
      <trkpt lat="43.6543" lon="3.80758">
        <ele>136</ele>
        <time>2015-11-18T12:16:16Z</time>
      </trkpt>
      <trkpt lat="43.65424" lon="3.80759">
        <ele>137</ele>
        <time>2015-11-18T12:16:17Z</time>
      </trkpt>
      <trkpt lat="43.65419" lon="3.80759">
        <ele>137</ele>
        <time>2015-11-18T12:16:18Z</time>
      </trkpt>
      <trkpt lat="43.65414" lon="3.80759">
        <ele>137.5</ele>
        <time>2015-11-18T12:16:18Z</time>
      </trkpt>
      <trkpt lat="43.6541" lon="3.80757">
        <ele>137.5</ele>
        <time>2015-11-18T12:16:20Z</time>
      </trkpt>
      <trkpt lat="43.65405" lon="3.80756">
        <ele>137.5</ele>
        <time>2015-11-18T12:16:20Z</time>
      </trkpt>
      <trkpt lat="43.654" lon="3.80753">
        <ele>137.5</ele>
        <time>2015-11-18T12:16:22Z</time>
      </trkpt>
      <trkpt lat="43.65395" lon="3.80751">
        <ele>137</ele>
        <time>2015-11-18T12:16:22Z</time>
      </trkpt>
      <trkpt lat="43.6539" lon="3.80749">
        <ele>137</ele>
        <time>2015-11-18T12:16:23Z</time>
      </trkpt>
      <trkpt lat="43.65385" lon="3.80747">
        <ele>137</ele>
        <time>2015-11-18T12:16:25Z</time>
      </trkpt>
      <trkpt lat="43.6538" lon="3.80745">
        <ele>136</ele>
        <time>2015-11-18T12:16:25Z</time>
      </trkpt>
      <trkpt lat="43.65374" lon="3.80743">
        <ele>136</ele>
        <time>2015-11-18T12:16:26Z</time>
      </trkpt>
      <trkpt lat="43.65368" lon="3.80741">
        <ele>136</ele>
        <time>2015-11-18T12:16:28Z</time>
      </trkpt>
      <trkpt lat="43.65362" lon="3.8074">
        <ele>135.5</ele>
        <time>2015-11-18T12:16:28Z</time>
      </trkpt>
      <trkpt lat="43.65357" lon="3.80738">
        <ele>135.5</ele>
        <time>2015-11-18T12:16:29Z</time>
      </trkpt>
      <trkpt lat="43.65352" lon="3.80735">
        <ele>135</ele>
        <time>2015-11-18T12:16:30Z</time>
      </trkpt>
      <trkpt lat="43.65346" lon="3.80738">
        <ele>135</ele>
        <time>2015-11-18T12:16:31Z</time>
      </trkpt>
      <trkpt lat="43.65342" lon="3.80742">
        <ele>134.5</ele>
        <time>2015-11-18T12:16:32Z</time>
      </trkpt>
      <trkpt lat="43.65339" lon="3.80751">
        <ele>134</ele>
        <time>2015-11-18T12:16:33Z</time>
      </trkpt>
      <trkpt lat="43.65335" lon="3.80758">
        <ele>133</ele>
        <time>2015-11-18T12:16:34Z</time>
      </trkpt>
      <trkpt lat="43.65332" lon="3.80765">
        <ele>132.5</ele>
        <time>2015-11-18T12:16:35Z</time>
      </trkpt>
      <trkpt lat="43.65328" lon="3.80772">
        <ele>132</ele>
        <time>2015-11-18T12:16:36Z</time>
      </trkpt>
      <trkpt lat="43.65325" lon="3.80781">
        <ele>132</ele>
        <time>2015-11-18T12:16:37Z</time>
      </trkpt>
      <trkpt lat="43.65321" lon="3.80788">
        <ele>131</ele>
        <time>2015-11-18T12:16:38Z</time>
      </trkpt>
      <trkpt lat="43.65317" lon="3.80796">
        <ele>130.5</ele>
        <time>2015-11-18T12:16:39Z</time>
      </trkpt>
      <trkpt lat="43.65314" lon="3.80804">
        <ele>130</ele>
        <time>2015-11-18T12:16:40Z</time>
      </trkpt>
      <trkpt lat="43.6531" lon="3.80812">
        <ele>129.5</ele>
        <time>2015-11-18T12:16:41Z</time>
      </trkpt>
      <trkpt lat="43.65306" lon="3.8082">
        <ele>129.5</ele>
        <time>2015-11-18T12:16:42Z</time>
      </trkpt>
      <trkpt lat="43.65301" lon="3.80829">
        <ele>129</ele>
        <time>2015-11-18T12:16:43Z</time>
      </trkpt>
      <trkpt lat="43.65297" lon="3.80837">
        <ele>128.5</ele>
        <time>2015-11-18T12:16:44Z</time>
      </trkpt>
      <trkpt lat="43.65293" lon="3.80846">
        <ele>129</ele>
        <time>2015-11-18T12:16:45Z</time>
      </trkpt>
      <trkpt lat="43.65289" lon="3.80855">
        <ele>129</ele>
        <time>2015-11-18T12:16:46Z</time>
      </trkpt>
      <trkpt lat="43.65285" lon="3.80864">
        <ele>129</ele>
        <time>2015-11-18T12:16:47Z</time>
      </trkpt>
      <trkpt lat="43.65281" lon="3.80873">
        <ele>128.5</ele>
        <time>2015-11-18T12:16:49Z</time>
      </trkpt>
      <trkpt lat="43.65276" lon="3.80881">
        <ele>128</ele>
        <time>2015-11-18T12:16:49Z</time>
      </trkpt>
      <trkpt lat="43.65272" lon="3.8089">
        <ele>128.5</ele>
        <time>2015-11-18T12:16:50Z</time>
      </trkpt>
      <trkpt lat="43.65268" lon="3.80898">
        <ele>128</ele>
        <time>2015-11-18T12:16:51Z</time>
      </trkpt>
      <trkpt lat="43.65264" lon="3.80906">
        <ele>128</ele>
        <time>2015-11-18T12:16:52Z</time>
      </trkpt>
      <trkpt lat="43.65261" lon="3.80913">
        <ele>128</ele>
        <time>2015-11-18T12:16:53Z</time>
      </trkpt>
      <trkpt lat="43.65259" lon="3.80919">
        <ele>128</ele>
        <time>2015-11-18T12:16:54Z</time>
      </trkpt>
      <trkpt lat="43.65256" lon="3.80925">
        <ele>128</ele>
        <time>2015-11-18T12:16:55Z</time>
      </trkpt>
      <trkpt lat="43.65253" lon="3.80931">
        <ele>128</ele>
        <time>2015-11-18T12:16:57Z</time>
      </trkpt>
      <trkpt lat="43.65251" lon="3.80935">
        <ele>128</ele>
        <time>2015-11-18T12:16:58Z</time>
      </trkpt>
      <trkpt lat="43.65251" lon="3.80939">
        <ele>128</ele>
        <time>2015-11-18T12:16:59Z</time>
      </trkpt>
      <trkpt lat="43.6525" lon="3.80945">
        <ele>128</ele>
        <time>2015-11-18T12:17:00Z</time>
      </trkpt>
      <trkpt lat="43.6525" lon="3.80951">
        <ele>128</ele>
        <time>2015-11-18T12:17:01Z</time>
      </trkpt>
      <trkpt lat="43.65249" lon="3.80956">
        <ele>128</ele>
        <time>2015-11-18T12:17:02Z</time>
      </trkpt>
      <trkpt lat="43.65247" lon="3.80962">
        <ele>128</ele>
        <time>2015-11-18T12:17:03Z</time>
      </trkpt>
      <trkpt lat="43.65245" lon="3.80968">
        <ele>128.5</ele>
        <time>2015-11-18T12:17:04Z</time>
      </trkpt>
      <trkpt lat="43.65245" lon="3.80973">
        <ele>130.5</ele>
        <time>2015-11-18T12:17:05Z</time>
      </trkpt>
      <trkpt lat="43.65242" lon="3.80978">
        <ele>131</ele>
        <time>2015-11-18T12:17:06Z</time>
      </trkpt>
      <trkpt lat="43.6524" lon="3.80984">
        <ele>131</ele>
        <time>2015-11-18T12:17:07Z</time>
      </trkpt>
      <trkpt lat="43.65238" lon="3.8099">
        <ele>131</ele>
        <time>2015-11-18T12:17:08Z</time>
      </trkpt>
      <trkpt lat="43.65235" lon="3.80996">
        <ele>131</ele>
        <time>2015-11-18T12:17:09Z</time>
      </trkpt>
      <trkpt lat="43.65232" lon="3.81002">
        <ele>131</ele>
        <time>2015-11-18T12:17:10Z</time>
      </trkpt>
      <trkpt lat="43.65229" lon="3.81008">
        <ele>131</ele>
        <time>2015-11-18T12:17:11Z</time>
      </trkpt>
      <trkpt lat="43.65226" lon="3.81013">
        <ele>130.5</ele>
        <time>2015-11-18T12:17:12Z</time>
      </trkpt>
      <trkpt lat="43.65222" lon="3.81018">
        <ele>130.5</ele>
        <time>2015-11-18T12:17:13Z</time>
      </trkpt>
      <trkpt lat="43.65219" lon="3.81024">
        <ele>130.5</ele>
        <time>2015-11-18T12:17:14Z</time>
      </trkpt>
      <trkpt lat="43.65215" lon="3.81029">
        <ele>130</ele>
        <time>2015-11-18T12:17:15Z</time>
      </trkpt>
      <trkpt lat="43.65212" lon="3.81034">
        <ele>130.5</ele>
        <time>2015-11-18T12:17:16Z</time>
      </trkpt>
      <trkpt lat="43.65208" lon="3.8104">
        <ele>130.5</ele>
        <time>2015-11-18T12:17:17Z</time>
      </trkpt>
      <trkpt lat="43.65205" lon="3.81045">
        <ele>131</ele>
        <time>2015-11-18T12:17:18Z</time>
      </trkpt>
      <trkpt lat="43.652" lon="3.81049">
        <ele>131</ele>
        <time>2015-11-18T12:17:19Z</time>
      </trkpt>
      <trkpt lat="43.65196" lon="3.81054">
        <ele>131</ele>
        <time>2015-11-18T12:17:20Z</time>
      </trkpt>
      <trkpt lat="43.65194" lon="3.8106">
        <ele>131.5</ele>
        <time>2015-11-18T12:17:21Z</time>
      </trkpt>
      <trkpt lat="43.6519" lon="3.81065">
        <ele>131.5</ele>
        <time>2015-11-18T12:17:22Z</time>
      </trkpt>
      <trkpt lat="43.65187" lon="3.81071">
        <ele>131.5</ele>
        <time>2015-11-18T12:17:23Z</time>
      </trkpt>
      <trkpt lat="43.65184" lon="3.81077">
        <ele>132</ele>
        <time>2015-11-18T12:17:24Z</time>
      </trkpt>
      <trkpt lat="43.65184" lon="3.81084">
        <ele>132</ele>
        <time>2015-11-18T12:17:25Z</time>
      </trkpt>
      <trkpt lat="43.65183" lon="3.81091">
        <ele>132</ele>
        <time>2015-11-18T12:17:26Z</time>
      </trkpt>
      <trkpt lat="43.65182" lon="3.81097">
        <ele>132.5</ele>
        <time>2015-11-18T12:17:27Z</time>
      </trkpt>
      <trkpt lat="43.6518" lon="3.81103">
        <ele>133</ele>
        <time>2015-11-18T12:17:28Z</time>
      </trkpt>
      <trkpt lat="43.65178" lon="3.81106">
        <ele>132.5</ele>
        <time>2015-11-18T12:17:29Z</time>
      </trkpt>
      <trkpt lat="43.65176" lon="3.81111">
        <ele>132.5</ele>
        <time>2015-11-18T12:17:30Z</time>
      </trkpt>
      <trkpt lat="43.65175" lon="3.81115">
        <ele>133</ele>
        <time>2015-11-18T12:17:31Z</time>
      </trkpt>
      <trkpt lat="43.65174" lon="3.8112">
        <ele>132.5</ele>
        <time>2015-11-18T12:17:32Z</time>
      </trkpt>
      <trkpt lat="43.65173" lon="3.81124">
        <ele>133</ele>
        <time>2015-11-18T12:17:33Z</time>
      </trkpt>
      <trkpt lat="43.65171" lon="3.81128">
        <ele>133</ele>
        <time>2015-11-18T12:17:34Z</time>
      </trkpt>
      <trkpt lat="43.6517" lon="3.81132">
        <ele>133</ele>
        <time>2015-11-18T12:17:35Z</time>
      </trkpt>
      <trkpt lat="43.65169" lon="3.81136">
        <ele>133.5</ele>
        <time>2015-11-18T12:17:36Z</time>
      </trkpt>
      <trkpt lat="43.65167" lon="3.81141">
        <ele>133.5</ele>
        <time>2015-11-18T12:17:37Z</time>
      </trkpt>
      <trkpt lat="43.65164" lon="3.81145">
        <ele>132.5</ele>
        <time>2015-11-18T12:17:38Z</time>
      </trkpt>
      <trkpt lat="43.65162" lon="3.81149">
        <ele>133</ele>
        <time>2015-11-18T12:17:39Z</time>
      </trkpt>
      <trkpt lat="43.6516" lon="3.81154">
        <ele>133</ele>
        <time>2015-11-18T12:17:40Z</time>
      </trkpt>
      <trkpt lat="43.65157" lon="3.81158">
        <ele>132.5</ele>
        <time>2015-11-18T12:17:41Z</time>
      </trkpt>
      <trkpt lat="43.65154" lon="3.81166">
        <ele>133</ele>
        <time>2015-11-18T12:17:42Z</time>
      </trkpt>
      <trkpt lat="43.65151" lon="3.81172">
        <ele>132.5</ele>
        <time>2015-11-18T12:17:43Z</time>
      </trkpt>
      <trkpt lat="43.65148" lon="3.8118">
        <ele>132</ele>
        <time>2015-11-18T12:17:44Z</time>
      </trkpt>
      <trkpt lat="43.65145" lon="3.81187">
        <ele>131.5</ele>
        <time>2015-11-18T12:17:45Z</time>
      </trkpt>
      <trkpt lat="43.65142" lon="3.81195">
        <ele>131</ele>
        <time>2015-11-18T12:17:46Z</time>
      </trkpt>
      <trkpt lat="43.65141" lon="3.81202">
        <ele>131</ele>
        <time>2015-11-18T12:17:47Z</time>
      </trkpt>
      <trkpt lat="43.65141" lon="3.81208">
        <ele>131.5</ele>
        <time>2015-11-18T12:17:48Z</time>
      </trkpt>
      <trkpt lat="43.65141" lon="3.81214">
        <ele>132</ele>
        <time>2015-11-18T12:17:49Z</time>
      </trkpt>
      <trkpt lat="43.65139" lon="3.81217">
        <ele>132</ele>
        <time>2015-11-18T12:17:50Z</time>
      </trkpt>
      <trkpt lat="43.65137" lon="3.81222">
        <ele>131</ele>
        <time>2015-11-18T12:17:51Z</time>
      </trkpt>
      <trkpt lat="43.65134" lon="3.81228">
        <ele>130</ele>
        <time>2015-11-18T12:17:52Z</time>
      </trkpt>
      <trkpt lat="43.65132" lon="3.81234">
        <ele>130.5</ele>
        <time>2015-11-18T12:17:53Z</time>
      </trkpt>
      <trkpt lat="43.65131" lon="3.8124">
        <ele>131</ele>
        <time>2015-11-18T12:17:54Z</time>
      </trkpt>
      <trkpt lat="43.6513" lon="3.81247">
        <ele>131.5</ele>
        <time>2015-11-18T12:17:55Z</time>
      </trkpt>
      <trkpt lat="43.65126" lon="3.81253">
        <ele>132.5</ele>
        <time>2015-11-18T12:17:56Z</time>
      </trkpt>
      <trkpt lat="43.65123" lon="3.8126">
        <ele>132.5</ele>
        <time>2015-11-18T12:17:57Z</time>
      </trkpt>
      <trkpt lat="43.6512" lon="3.81264">
        <ele>134.5</ele>
        <time>2015-11-18T12:17:58Z</time>
      </trkpt>
      <trkpt lat="43.65115" lon="3.81268">
        <ele>135</ele>
        <time>2015-11-18T12:17:59Z</time>
      </trkpt>
      <trkpt lat="43.65114" lon="3.81273">
        <ele>136</ele>
        <time>2015-11-18T12:18:00Z</time>
      </trkpt>
      <trkpt lat="43.65111" lon="3.81278">
        <ele>138</ele>
        <time>2015-11-18T12:18:01Z</time>
      </trkpt>
      <trkpt lat="43.65108" lon="3.81284">
        <ele>139.5</ele>
        <time>2015-11-18T12:18:02Z</time>
      </trkpt>
      <trkpt lat="43.65106" lon="3.81291">
        <ele>140.5</ele>
        <time>2015-11-18T12:18:03Z</time>
      </trkpt>
      <trkpt lat="43.65103" lon="3.81298">
        <ele>140</ele>
        <time>2015-11-18T12:18:04Z</time>
      </trkpt>
      <trkpt lat="43.65098" lon="3.81306">
        <ele>138</ele>
        <time>2015-11-18T12:18:05Z</time>
      </trkpt>
      <trkpt lat="43.65093" lon="3.81314">
        <ele>136</ele>
        <time>2015-11-18T12:18:06Z</time>
      </trkpt>
      <trkpt lat="43.6509" lon="3.81323">
        <ele>136.5</ele>
        <time>2015-11-18T12:18:07Z</time>
      </trkpt>
      <trkpt lat="43.65084" lon="3.81332">
        <ele>135</ele>
        <time>2015-11-18T12:18:08Z</time>
      </trkpt>
      <trkpt lat="43.65079" lon="3.8134">
        <ele>135</ele>
        <time>2015-11-18T12:18:09Z</time>
      </trkpt>
      <trkpt lat="43.65074" lon="3.81348">
        <ele>134</ele>
        <time>2015-11-18T12:18:10Z</time>
      </trkpt>
      <trkpt lat="43.6507" lon="3.81356">
        <ele>134</ele>
        <time>2015-11-18T12:18:11Z</time>
      </trkpt>
      <trkpt lat="43.65066" lon="3.81363">
        <ele>133.5</ele>
        <time>2015-11-18T12:18:12Z</time>
      </trkpt>
      <trkpt lat="43.65064" lon="3.81371">
        <ele>133.5</ele>
        <time>2015-11-18T12:18:13Z</time>
      </trkpt>
      <trkpt lat="43.65061" lon="3.81377">
        <ele>133.5</ele>
        <time>2015-11-18T12:18:14Z</time>
      </trkpt>
      <trkpt lat="43.65056" lon="3.81384">
        <ele>132</ele>
        <time>2015-11-18T12:18:15Z</time>
      </trkpt>
      <trkpt lat="43.65053" lon="3.8139">
        <ele>131</ele>
        <time>2015-11-18T12:18:16Z</time>
      </trkpt>
      <trkpt lat="43.65049" lon="3.81395">
        <ele>130</ele>
        <time>2015-11-18T12:18:17Z</time>
      </trkpt>
      <trkpt lat="43.65047" lon="3.81401">
        <ele>130.5</ele>
        <time>2015-11-18T12:18:18Z</time>
      </trkpt>
      <trkpt lat="43.65044" lon="3.81405">
        <ele>131</ele>
        <time>2015-11-18T12:18:19Z</time>
      </trkpt>
      <trkpt lat="43.65042" lon="3.8141">
        <ele>131.5</ele>
        <time>2015-11-18T12:18:20Z</time>
      </trkpt>
      <trkpt lat="43.6504" lon="3.81415">
        <ele>131.5</ele>
        <time>2015-11-18T12:18:21Z</time>
      </trkpt>
      <trkpt lat="43.65037" lon="3.81419">
        <ele>131.5</ele>
        <time>2015-11-18T12:18:22Z</time>
      </trkpt>
      <trkpt lat="43.65036" lon="3.81423">
        <ele>131.5</ele>
        <time>2015-11-18T12:18:23Z</time>
      </trkpt>
      <trkpt lat="43.65034" lon="3.81427">
        <ele>131.5</ele>
        <time>2015-11-18T12:18:24Z</time>
      </trkpt>
      <trkpt lat="43.65032" lon="3.81431">
        <ele>131.5</ele>
        <time>2015-11-18T12:18:25Z</time>
      </trkpt>
      <trkpt lat="43.65029" lon="3.81435">
        <ele>131.5</ele>
        <time>2015-11-18T12:18:26Z</time>
      </trkpt>
      <trkpt lat="43.65027" lon="3.81438">
        <ele>131.5</ele>
        <time>2015-11-18T12:18:27Z</time>
      </trkpt>
      <trkpt lat="43.65025" lon="3.81442">
        <ele>131.5</ele>
        <time>2015-11-18T12:18:28Z</time>
      </trkpt>
      <trkpt lat="43.65024" lon="3.81445">
        <ele>131.5</ele>
        <time>2015-11-18T12:18:29Z</time>
      </trkpt>
      <trkpt lat="43.65023" lon="3.81452">
        <ele>131.5</ele>
        <time>2015-11-18T12:18:31Z</time>
      </trkpt>
      <trkpt lat="43.65024" lon="3.81454">
        <ele>131.5</ele>
        <time>2015-11-18T12:18:32Z</time>
      </trkpt>
      <trkpt lat="43.65025" lon="3.81456">
        <ele>131.5</ele>
        <time>2015-11-18T12:18:33Z</time>
      </trkpt>
      <trkpt lat="43.65027" lon="3.81456">
        <ele>132</ele>
        <time>2015-11-18T12:18:34Z</time>
      </trkpt>
      <trkpt lat="43.65029" lon="3.81456">
        <ele>132.5</ele>
        <time>2015-11-18T12:18:35Z</time>
      </trkpt>
      <trkpt lat="43.65031" lon="3.81457">
        <ele>132.5</ele>
        <time>2015-11-18T12:18:36Z</time>
      </trkpt>
      <trkpt lat="43.65033" lon="3.81458">
        <ele>132</ele>
        <time>2015-11-18T12:18:37Z</time>
      </trkpt>
      <trkpt lat="43.65035" lon="3.81459">
        <ele>132</ele>
        <time>2015-11-18T12:18:38Z</time>
      </trkpt>
      <trkpt lat="43.65037" lon="3.8146">
        <ele>133</ele>
        <time>2015-11-18T12:18:39Z</time>
      </trkpt>
      <trkpt lat="43.65039" lon="3.81461">
        <ele>133</ele>
        <time>2015-11-18T12:18:40Z</time>
      </trkpt>
      <trkpt lat="43.65041" lon="3.81462">
        <ele>133.5</ele>
        <time>2015-11-18T12:18:41Z</time>
      </trkpt>
      <trkpt lat="43.65043" lon="3.81463">
        <ele>133.5</ele>
        <time>2015-11-18T12:18:42Z</time>
      </trkpt>
      <trkpt lat="43.65046" lon="3.81464">
        <ele>133</ele>
        <time>2015-11-18T12:18:43Z</time>
      </trkpt>
      <trkpt lat="43.65048" lon="3.81465">
        <ele>134</ele>
        <time>2015-11-18T12:18:44Z</time>
      </trkpt>
      <trkpt lat="43.6505" lon="3.81466">
        <ele>134.5</ele>
        <time>2015-11-18T12:18:45Z</time>
      </trkpt>
      <trkpt lat="43.65052" lon="3.81468">
        <ele>134</ele>
        <time>2015-11-18T12:18:46Z</time>
      </trkpt>
      <trkpt lat="43.65054" lon="3.81469">
        <ele>134</ele>
        <time>2015-11-18T12:18:47Z</time>
      </trkpt>
      <trkpt lat="43.65057" lon="3.8147">
        <ele>134</ele>
        <time>2015-11-18T12:18:48Z</time>
      </trkpt>
      <trkpt lat="43.65059" lon="3.81471">
        <ele>134</ele>
        <time>2015-11-18T12:18:49Z</time>
      </trkpt>
      <trkpt lat="43.65062" lon="3.81471">
        <ele>134</ele>
        <time>2015-11-18T12:18:50Z</time>
      </trkpt>
      <trkpt lat="43.65064" lon="3.81472">
        <ele>134.5</ele>
        <time>2015-11-18T12:18:51Z</time>
      </trkpt>
      <trkpt lat="43.65067" lon="3.81474">
        <ele>134</ele>
        <time>2015-11-18T12:18:52Z</time>
      </trkpt>
      <trkpt lat="43.65069" lon="3.81475">
        <ele>134</ele>
        <time>2015-11-18T12:18:53Z</time>
      </trkpt>
      <trkpt lat="43.65072" lon="3.81476">
        <ele>134.5</ele>
        <time>2015-11-18T12:18:54Z</time>
      </trkpt>
      <trkpt lat="43.65074" lon="3.81478">
        <ele>134.5</ele>
        <time>2015-11-18T12:18:55Z</time>
      </trkpt>
      <trkpt lat="43.65077" lon="3.8148">
        <ele>134</ele>
        <time>2015-11-18T12:18:56Z</time>
      </trkpt>
      <trkpt lat="43.65079" lon="3.81482">
        <ele>134</ele>
        <time>2015-11-18T12:18:57Z</time>
      </trkpt>
      <trkpt lat="43.6508" lon="3.81483">
        <ele>135.5</ele>
        <time>2015-11-18T12:18:58Z</time>
      </trkpt>
      <trkpt lat="43.65079" lon="3.81487">
        <ele>135</ele>
        <time>2015-11-18T12:18:59Z</time>
      </trkpt>
      <trkpt lat="43.6508" lon="3.81486">
        <ele>133.5</ele>
        <time>2015-11-18T12:19:01Z</time>
      </trkpt>
      <trkpt lat="43.6508" lon="3.81485">
        <ele>134</ele>
        <time>2015-11-18T12:19:02Z</time>
      </trkpt>
      <trkpt lat="43.65081" lon="3.81486">
        <ele>133</ele>
        <time>2015-11-18T12:19:03Z</time>
      </trkpt>
      <trkpt lat="43.6508" lon="3.81486">
        <ele>132</ele>
        <time>2015-11-18T12:19:04Z</time>
      </trkpt>
      <trkpt lat="43.65079" lon="3.81485">
        <ele>131.5</ele>
        <time>2015-11-18T12:19:05Z</time>
      </trkpt>
      <trkpt lat="43.65078" lon="3.81484">
        <ele>131</ele>
        <time>2015-11-18T12:19:06Z</time>
      </trkpt>
      <trkpt lat="43.65077" lon="3.81484">
        <ele>130.5</ele>
        <time>2015-11-18T12:19:07Z</time>
      </trkpt>
      <trkpt lat="43.65077" lon="3.81484">
        <ele>130</ele>
        <time>2015-11-18T12:19:08Z</time>
      </trkpt>
      <trkpt lat="43.65076" lon="3.81484">
        <ele>129.5</ele>
        <time>2015-11-18T12:19:09Z</time>
      </trkpt>
      <trkpt lat="43.65076" lon="3.81484">
        <ele>129.5</ele>
        <time>2015-11-18T12:19:11Z</time>
      </trkpt>
      <trkpt lat="43.65077" lon="3.81485">
        <ele>129</ele>
        <time>2015-11-18T12:19:14Z</time>
      </trkpt>
      <trkpt lat="43.65079" lon="3.81489">
        <ele>128</ele>
        <time>2015-11-18T12:19:16Z</time>
      </trkpt>
      <trkpt lat="43.6508" lon="3.81492">
        <ele>127.5</ele>
        <time>2015-11-18T12:19:17Z</time>
      </trkpt>
      <trkpt lat="43.65082" lon="3.81495">
        <ele>127.5</ele>
        <time>2015-11-18T12:19:18Z</time>
      </trkpt>
      <trkpt lat="43.65081" lon="3.81498">
        <ele>128</ele>
        <time>2015-11-18T12:19:19Z</time>
      </trkpt>
      <trkpt lat="43.65081" lon="3.815">
        <ele>129.5</ele>
        <time>2015-11-18T12:19:20Z</time>
      </trkpt>
      <trkpt lat="43.65081" lon="3.81501">
        <ele>130</ele>
        <time>2015-11-18T12:19:21Z</time>
      </trkpt>
      <trkpt lat="43.6508" lon="3.81503">
        <ele>130.5</ele>
        <time>2015-11-18T12:19:22Z</time>
      </trkpt>
      <trkpt lat="43.65079" lon="3.81505">
        <ele>130</ele>
        <time>2015-11-18T12:19:23Z</time>
      </trkpt>
      <trkpt lat="43.65078" lon="3.81508">
        <ele>130.5</ele>
        <time>2015-11-18T12:19:24Z</time>
      </trkpt>
      <trkpt lat="43.65076" lon="3.8151">
        <ele>130.5</ele>
        <time>2015-11-18T12:19:25Z</time>
      </trkpt>
      <trkpt lat="43.65075" lon="3.81512">
        <ele>130.5</ele>
        <time>2015-11-18T12:19:26Z</time>
      </trkpt>
      <trkpt lat="43.65075" lon="3.81515">
        <ele>130.5</ele>
        <time>2015-11-18T12:19:27Z</time>
      </trkpt>
      <trkpt lat="43.65075" lon="3.81518">
        <ele>130</ele>
        <time>2015-11-18T12:19:28Z</time>
      </trkpt>
      <trkpt lat="43.65076" lon="3.8152">
        <ele>129</ele>
        <time>2015-11-18T12:19:29Z</time>
      </trkpt>
      <trkpt lat="43.65078" lon="3.81522">
        <ele>128.5</ele>
        <time>2015-11-18T12:19:30Z</time>
      </trkpt>
      <trkpt lat="43.6508" lon="3.81523">
        <ele>128.5</ele>
        <time>2015-11-18T12:19:31Z</time>
      </trkpt>
      <trkpt lat="43.65083" lon="3.81525">
        <ele>128</ele>
        <time>2015-11-18T12:19:32Z</time>
      </trkpt>
      <trkpt lat="43.65085" lon="3.81526">
        <ele>128.5</ele>
        <time>2015-11-18T12:19:33Z</time>
      </trkpt>
      <trkpt lat="43.65087" lon="3.81526">
        <ele>129.5</ele>
        <time>2015-11-18T12:19:34Z</time>
      </trkpt>
      <trkpt lat="43.65088" lon="3.81526">
        <ele>130.5</ele>
        <time>2015-11-18T12:19:35Z</time>
      </trkpt>
      <trkpt lat="43.6509" lon="3.81527">
        <ele>131</ele>
        <time>2015-11-18T12:19:36Z</time>
      </trkpt>
      <trkpt lat="43.65091" lon="3.81529">
        <ele>130.5</ele>
        <time>2015-11-18T12:19:37Z</time>
      </trkpt>
      <trkpt lat="43.65092" lon="3.8153">
        <ele>131</ele>
        <time>2015-11-18T12:19:38Z</time>
      </trkpt>
      <trkpt lat="43.65094" lon="3.81532">
        <ele>131.5</ele>
        <time>2015-11-18T12:19:39Z</time>
      </trkpt>
      <trkpt lat="43.65095" lon="3.81533">
        <ele>132</ele>
        <time>2015-11-18T12:19:40Z</time>
      </trkpt>
      <trkpt lat="43.65096" lon="3.81535">
        <ele>132.5</ele>
        <time>2015-11-18T12:19:41Z</time>
      </trkpt>
      <trkpt lat="43.65097" lon="3.81536">
        <ele>132.5</ele>
        <time>2015-11-18T12:19:42Z</time>
      </trkpt>
      <trkpt lat="43.65099" lon="3.81537">
        <ele>131.5</ele>
        <time>2015-11-18T12:19:43Z</time>
      </trkpt>
      <trkpt lat="43.651" lon="3.81538">
        <ele>133</ele>
        <time>2015-11-18T12:19:44Z</time>
      </trkpt>
      <trkpt lat="43.65102" lon="3.81538">
        <ele>133.5</ele>
        <time>2015-11-18T12:19:45Z</time>
      </trkpt>
      <trkpt lat="43.65104" lon="3.81538">
        <ele>133.5</ele>
        <time>2015-11-18T12:19:46Z</time>
      </trkpt>
      <trkpt lat="43.65107" lon="3.81541">
        <ele>133.5</ele>
        <time>2015-11-18T12:19:47Z</time>
      </trkpt>
      <trkpt lat="43.6511" lon="3.8154">
        <ele>135</ele>
        <time>2015-11-18T12:19:49Z</time>
      </trkpt>
      <trkpt lat="43.65112" lon="3.81541">
        <ele>134.5</ele>
        <time>2015-11-18T12:19:50Z</time>
      </trkpt>
      <trkpt lat="43.65115" lon="3.81544">
        <ele>133</ele>
        <time>2015-11-18T12:19:51Z</time>
      </trkpt>
      <trkpt lat="43.65117" lon="3.81544">
        <ele>133.5</ele>
        <time>2015-11-18T12:19:52Z</time>
      </trkpt>
      <trkpt lat="43.65118" lon="3.81545">
        <ele>133</ele>
        <time>2015-11-18T12:19:53Z</time>
      </trkpt>
      <trkpt lat="43.6512" lon="3.81546">
        <ele>134</ele>
        <time>2015-11-18T12:19:54Z</time>
      </trkpt>
      <trkpt lat="43.65122" lon="3.81547">
        <ele>134</ele>
        <time>2015-11-18T12:19:55Z</time>
      </trkpt>
      <trkpt lat="43.65124" lon="3.81549">
        <ele>134</ele>
        <time>2015-11-18T12:19:56Z</time>
      </trkpt>
      <trkpt lat="43.65126" lon="3.8155">
        <ele>134</ele>
        <time>2015-11-18T12:19:57Z</time>
      </trkpt>
      <trkpt lat="43.65128" lon="3.81551">
        <ele>134</ele>
        <time>2015-11-18T12:19:58Z</time>
      </trkpt>
      <trkpt lat="43.6513" lon="3.81552">
        <ele>134.5</ele>
        <time>2015-11-18T12:19:59Z</time>
      </trkpt>
      <trkpt lat="43.65131" lon="3.81554">
        <ele>134.5</ele>
        <time>2015-11-18T12:19:59Z</time>
      </trkpt>
      <trkpt lat="43.65132" lon="3.81551">
        <ele>136</ele>
        <time>2015-11-18T12:20:01Z</time>
      </trkpt>
      <trkpt lat="43.65133" lon="3.81553">
        <ele>135.5</ele>
        <time>2015-11-18T12:20:01Z</time>
      </trkpt>
      <trkpt lat="43.65134" lon="3.81553">
        <ele>135</ele>
        <time>2015-11-18T12:20:02Z</time>
      </trkpt>
      <trkpt lat="43.65137" lon="3.81553">
        <ele>137</ele>
        <time>2015-11-18T12:20:03Z</time>
      </trkpt>
      <trkpt lat="43.65144" lon="3.81558">
        <ele>138</ele>
        <time>2015-11-18T12:20:05Z</time>
      </trkpt>
      <trkpt lat="43.65145" lon="3.81561">
        <ele>137.5</ele>
        <time>2015-11-18T12:20:06Z</time>
      </trkpt>
      <trkpt lat="43.65147" lon="3.81561">
        <ele>138</ele>
        <time>2015-11-18T12:20:07Z</time>
      </trkpt>
      <trkpt lat="43.65149" lon="3.81562">
        <ele>138</ele>
        <time>2015-11-18T12:20:08Z</time>
      </trkpt>
      <trkpt lat="43.65151" lon="3.81564">
        <ele>138</ele>
        <time>2015-11-18T12:20:10Z</time>
      </trkpt>
      <trkpt lat="43.65153" lon="3.81566">
        <ele>137.5</ele>
        <time>2015-11-18T12:20:10Z</time>
      </trkpt>
      <trkpt lat="43.65153" lon="3.81567">
        <ele>138</ele>
        <time>2015-11-18T12:20:11Z</time>
      </trkpt>
      <trkpt lat="43.65155" lon="3.81568">
        <ele>137</ele>
        <time>2015-11-18T12:20:13Z</time>
      </trkpt>
      <trkpt lat="43.65159" lon="3.8157">
        <ele>138.5</ele>
        <time>2015-11-18T12:20:14Z</time>
      </trkpt>
      <trkpt lat="43.65161" lon="3.81569">
        <ele>140</ele>
        <time>2015-11-18T12:20:15Z</time>
      </trkpt>
      <trkpt lat="43.65162" lon="3.8157">
        <ele>140.5</ele>
        <time>2015-11-18T12:20:16Z</time>
      </trkpt>
      <trkpt lat="43.65164" lon="3.81572">
        <ele>140.5</ele>
        <time>2015-11-18T12:20:17Z</time>
      </trkpt>
      <trkpt lat="43.65166" lon="3.81574">
        <ele>140</ele>
        <time>2015-11-18T12:20:18Z</time>
      </trkpt>
      <trkpt lat="43.65168" lon="3.81577">
        <ele>141</ele>
        <time>2015-11-18T12:20:19Z</time>
      </trkpt>
      <trkpt lat="43.6517" lon="3.8158">
        <ele>141</ele>
        <time>2015-11-18T12:20:20Z</time>
      </trkpt>
      <trkpt lat="43.65172" lon="3.81582">
        <ele>140.5</ele>
        <time>2015-11-18T12:20:21Z</time>
      </trkpt>
      <trkpt lat="43.65175" lon="3.81585">
        <ele>140.5</ele>
        <time>2015-11-18T12:20:22Z</time>
      </trkpt>
      <trkpt lat="43.65178" lon="3.81585">
        <ele>140</ele>
        <time>2015-11-18T12:20:23Z</time>
      </trkpt>
      <trkpt lat="43.65182" lon="3.81585">
        <ele>140.5</ele>
        <time>2015-11-18T12:20:24Z</time>
      </trkpt>
      <trkpt lat="43.65186" lon="3.81585">
        <ele>139</ele>
        <time>2015-11-18T12:20:25Z</time>
      </trkpt>
      <trkpt lat="43.65189" lon="3.81586">
        <ele>138</ele>
        <time>2015-11-18T12:20:26Z</time>
      </trkpt>
      <trkpt lat="43.65192" lon="3.81588">
        <ele>138</ele>
        <time>2015-11-18T12:20:28Z</time>
      </trkpt>
      <trkpt lat="43.65195" lon="3.81594">
        <ele>139.5</ele>
        <time>2015-11-18T12:20:29Z</time>
      </trkpt>
      <trkpt lat="43.65204" lon="3.81597">
        <ele>140.5</ele>
        <time>2015-11-18T12:20:31Z</time>
      </trkpt>
      <trkpt lat="43.65209" lon="3.816">
        <ele>138.5</ele>
        <time>2015-11-18T12:20:32Z</time>
      </trkpt>
      <trkpt lat="43.65214" lon="3.81601">
        <ele>139</ele>
        <time>2015-11-18T12:20:33Z</time>
      </trkpt>
      <trkpt lat="43.65217" lon="3.81604">
        <ele>140</ele>
        <time>2015-11-18T12:20:34Z</time>
      </trkpt>
      <trkpt lat="43.6522" lon="3.81606">
        <ele>142.5</ele>
        <time>2015-11-18T12:20:35Z</time>
      </trkpt>
      <trkpt lat="43.65223" lon="3.81607">
        <ele>143</ele>
        <time>2015-11-18T12:20:36Z</time>
      </trkpt>
      <trkpt lat="43.65227" lon="3.81609">
        <ele>142.5</ele>
        <time>2015-11-18T12:20:37Z</time>
      </trkpt>
      <trkpt lat="43.65227" lon="3.81612">
        <ele>142</ele>
        <time>2015-11-18T12:20:38Z</time>
      </trkpt>
      <trkpt lat="43.6523" lon="3.81614">
        <ele>142.5</ele>
        <time>2015-11-18T12:20:39Z</time>
      </trkpt>
      <trkpt lat="43.65233" lon="3.81625">
        <ele>140.5</ele>
        <time>2015-11-18T12:20:41Z</time>
      </trkpt>
      <trkpt lat="43.65236" lon="3.81631">
        <ele>141</ele>
        <time>2015-11-18T12:20:42Z</time>
      </trkpt>
      <trkpt lat="43.65239" lon="3.81636">
        <ele>140.5</ele>
        <time>2015-11-18T12:20:43Z</time>
      </trkpt>
      <trkpt lat="43.65242" lon="3.81642">
        <ele>138.5</ele>
        <time>2015-11-18T12:20:45Z</time>
      </trkpt>
      <trkpt lat="43.65246" lon="3.81646">
        <ele>138.5</ele>
        <time>2015-11-18T12:20:45Z</time>
      </trkpt>
      <trkpt lat="43.65248" lon="3.8165">
        <ele>139.5</ele>
        <time>2015-11-18T12:20:46Z</time>
      </trkpt>
      <trkpt lat="43.6525" lon="3.81655">
        <ele>139.5</ele>
        <time>2015-11-18T12:20:47Z</time>
      </trkpt>
      <trkpt lat="43.65251" lon="3.81659">
        <ele>139</ele>
        <time>2015-11-18T12:20:48Z</time>
      </trkpt>
      <trkpt lat="43.6525" lon="3.8166">
        <ele>139</ele>
        <time>2015-11-18T12:20:49Z</time>
      </trkpt>
      <trkpt lat="43.65251" lon="3.81662">
        <ele>138.5</ele>
        <time>2015-11-18T12:20:50Z</time>
      </trkpt>
      <trkpt lat="43.65253" lon="3.81665">
        <ele>138.5</ele>
        <time>2015-11-18T12:20:51Z</time>
      </trkpt>
      <trkpt lat="43.65255" lon="3.81666">
        <ele>139.5</ele>
        <time>2015-11-18T12:20:52Z</time>
      </trkpt>
      <trkpt lat="43.65257" lon="3.81667">
        <ele>141</ele>
        <time>2015-11-18T12:20:53Z</time>
      </trkpt>
      <trkpt lat="43.65259" lon="3.81668">
        <ele>141.5</ele>
        <time>2015-11-18T12:20:54Z</time>
      </trkpt>
      <trkpt lat="43.65262" lon="3.81662">
        <ele>141</ele>
        <time>2015-11-18T12:20:56Z</time>
      </trkpt>
      <trkpt lat="43.65268" lon="3.81668">
        <ele>141</ele>
        <time>2015-11-18T12:20:58Z</time>
      </trkpt>
      <trkpt lat="43.6527" lon="3.81669">
        <ele>141.5</ele>
        <time>2015-11-18T12:20:59Z</time>
      </trkpt>
      <trkpt lat="43.65273" lon="3.81672">
        <ele>141</ele>
        <time>2015-11-18T12:21:00Z</time>
      </trkpt>
      <trkpt lat="43.65277" lon="3.81682">
        <ele>140</ele>
        <time>2015-11-18T12:21:02Z</time>
      </trkpt>
      <trkpt lat="43.65279" lon="3.81683">
        <ele>143</ele>
        <time>2015-11-18T12:21:03Z</time>
      </trkpt>
      <trkpt lat="43.65281" lon="3.81687">
        <ele>143</ele>
        <time>2015-11-18T12:21:04Z</time>
      </trkpt>
      <trkpt lat="43.65283" lon="3.81691">
        <ele>142.5</ele>
        <time>2015-11-18T12:21:06Z</time>
      </trkpt>
      <trkpt lat="43.65283" lon="3.8169">
        <ele>143</ele>
        <time>2015-11-18T12:21:06Z</time>
      </trkpt>
      <trkpt lat="43.65284" lon="3.81691">
        <ele>143</ele>
        <time>2015-11-18T12:21:07Z</time>
      </trkpt>
      <trkpt lat="43.65289" lon="3.81699">
        <ele>141</ele>
        <time>2015-11-18T12:21:09Z</time>
      </trkpt>
      <trkpt lat="43.65292" lon="3.81703">
        <ele>141</ele>
        <time>2015-11-18T12:21:10Z</time>
      </trkpt>
      <trkpt lat="43.65298" lon="3.81716">
        <ele>136.5</ele>
        <time>2015-11-18T12:21:12Z</time>
      </trkpt>
      <trkpt lat="43.65301" lon="3.81719">
        <ele>136</ele>
        <time>2015-11-18T12:21:13Z</time>
      </trkpt>
      <trkpt lat="43.65304" lon="3.8172">
        <ele>137</ele>
        <time>2015-11-18T12:21:14Z</time>
      </trkpt>
      <trkpt lat="43.65308" lon="3.8172">
        <ele>136.5</ele>
        <time>2015-11-18T12:21:15Z</time>
      </trkpt>
      <trkpt lat="43.65314" lon="3.81723">
        <ele>136.5</ele>
        <time>2015-11-18T12:21:17Z</time>
      </trkpt>
      <trkpt lat="43.65321" lon="3.8173">
        <ele>137</ele>
        <time>2015-11-18T12:21:19Z</time>
      </trkpt>
      <trkpt lat="43.65328" lon="3.81738">
        <ele>133.5</ele>
        <time>2015-11-18T12:21:21Z</time>
      </trkpt>
      <trkpt lat="43.65338" lon="3.81763">
        <ele>131.5</ele>
        <time>2015-11-18T12:21:26Z</time>
      </trkpt>
      <trkpt lat="43.65344" lon="3.81775">
        <ele>130</ele>
        <time>2015-11-18T12:21:28Z</time>
      </trkpt>
      <trkpt lat="43.65346" lon="3.81779">
        <ele>130</ele>
        <time>2015-11-18T12:21:29Z</time>
      </trkpt>
      <trkpt lat="43.65348" lon="3.81782">
        <ele>128.5</ele>
        <time>2015-11-18T12:21:30Z</time>
      </trkpt>
      <trkpt lat="43.65353" lon="3.81791">
        <ele>124.5</ele>
        <time>2015-11-18T12:21:32Z</time>
      </trkpt>
      <trkpt lat="43.65356" lon="3.81794">
        <ele>123</ele>
        <time>2015-11-18T12:21:33Z</time>
      </trkpt>
      <trkpt lat="43.65357" lon="3.81798">
        <ele>122.5</ele>
        <time>2015-11-18T12:21:34Z</time>
      </trkpt>
      <trkpt lat="43.65359" lon="3.818">
        <ele>122</ele>
        <time>2015-11-18T12:21:35Z</time>
      </trkpt>
      <trkpt lat="43.65361" lon="3.81804">
        <ele>122</ele>
        <time>2015-11-18T12:21:36Z</time>
      </trkpt>
      <trkpt lat="43.65362" lon="3.81807">
        <ele>121.5</ele>
        <time>2015-11-18T12:21:37Z</time>
      </trkpt>
      <trkpt lat="43.65364" lon="3.81811">
        <ele>121.5</ele>
        <time>2015-11-18T12:21:38Z</time>
      </trkpt>
      <trkpt lat="43.65365" lon="3.81814">
        <ele>121</ele>
        <time>2015-11-18T12:21:39Z</time>
      </trkpt>
      <trkpt lat="43.65365" lon="3.81817">
        <ele>121</ele>
        <time>2015-11-18T12:21:40Z</time>
      </trkpt>
      <trkpt lat="43.65366" lon="3.81819">
        <ele>121.5</ele>
        <time>2015-11-18T12:21:41Z</time>
      </trkpt>
      <trkpt lat="43.65367" lon="3.81825">
        <ele>118.5</ele>
        <time>2015-11-18T12:21:43Z</time>
      </trkpt>
      <trkpt lat="43.65368" lon="3.81827">
        <ele>117</ele>
        <time>2015-11-18T12:21:44Z</time>
      </trkpt>
      <trkpt lat="43.65368" lon="3.81829">
        <ele>116</ele>
        <time>2015-11-18T12:21:45Z</time>
      </trkpt>
      <trkpt lat="43.6537" lon="3.81831">
        <ele>117</ele>
        <time>2015-11-18T12:21:46Z</time>
      </trkpt>
      <trkpt lat="43.65373" lon="3.81833">
        <ele>117</ele>
        <time>2015-11-18T12:21:47Z</time>
      </trkpt>
      <trkpt lat="43.65379" lon="3.8184">
        <ele>115</ele>
        <time>2015-11-18T12:21:49Z</time>
      </trkpt>
      <trkpt lat="43.6538" lon="3.81842">
        <ele>115</ele>
        <time>2015-11-18T12:21:50Z</time>
      </trkpt>
      <trkpt lat="43.65382" lon="3.81845">
        <ele>113</ele>
        <time>2015-11-18T12:21:51Z</time>
      </trkpt>
      <trkpt lat="43.65386" lon="3.81854">
        <ele>113.5</ele>
        <time>2015-11-18T12:21:53Z</time>
      </trkpt>
      <trkpt lat="43.65389" lon="3.81859">
        <ele>112.5</ele>
        <time>2015-11-18T12:21:54Z</time>
      </trkpt>
      <trkpt lat="43.65391" lon="3.81864">
        <ele>112</ele>
        <time>2015-11-18T12:21:55Z</time>
      </trkpt>
      <trkpt lat="43.65394" lon="3.8187">
        <ele>113</ele>
        <time>2015-11-18T12:21:56Z</time>
      </trkpt>
      <trkpt lat="43.65395" lon="3.81873">
        <ele>113.5</ele>
        <time>2015-11-18T12:21:57Z</time>
      </trkpt>
      <trkpt lat="43.65396" lon="3.81877">
        <ele>116</ele>
        <time>2015-11-18T12:21:58Z</time>
      </trkpt>
      <trkpt lat="43.65397" lon="3.81882">
        <ele>116.5</ele>
        <time>2015-11-18T12:21:59Z</time>
      </trkpt>
      <trkpt lat="43.65399" lon="3.81887">
        <ele>116</ele>
        <time>2015-11-18T12:22:00Z</time>
      </trkpt>
      <trkpt lat="43.654" lon="3.81892">
        <ele>116</ele>
        <time>2015-11-18T12:22:01Z</time>
      </trkpt>
      <trkpt lat="43.654" lon="3.81897">
        <ele>115.5</ele>
        <time>2015-11-18T12:22:02Z</time>
      </trkpt>
      <trkpt lat="43.65403" lon="3.81903">
        <ele>116</ele>
        <time>2015-11-18T12:22:03Z</time>
      </trkpt>
      <trkpt lat="43.65404" lon="3.81908">
        <ele>116</ele>
        <time>2015-11-18T12:22:04Z</time>
      </trkpt>
      <trkpt lat="43.65406" lon="3.81914">
        <ele>116</ele>
        <time>2015-11-18T12:22:05Z</time>
      </trkpt>
      <trkpt lat="43.65408" lon="3.81919">
        <ele>116.5</ele>
        <time>2015-11-18T12:22:06Z</time>
      </trkpt>
      <trkpt lat="43.65411" lon="3.81924">
        <ele>116.5</ele>
        <time>2015-11-18T12:22:07Z</time>
      </trkpt>
      <trkpt lat="43.65415" lon="3.8193">
        <ele>118.5</ele>
        <time>2015-11-18T12:22:08Z</time>
      </trkpt>
      <trkpt lat="43.65417" lon="3.81935">
        <ele>118</ele>
        <time>2015-11-18T12:22:09Z</time>
      </trkpt>
      <trkpt lat="43.65419" lon="3.8194">
        <ele>118.5</ele>
        <time>2015-11-18T12:22:10Z</time>
      </trkpt>
      <trkpt lat="43.65423" lon="3.81953">
        <ele>117</ele>
        <time>2015-11-18T12:22:12Z</time>
      </trkpt>
      <trkpt lat="43.65423" lon="3.81956">
        <ele>119.5</ele>
        <time>2015-11-18T12:22:13Z</time>
      </trkpt>
      <trkpt lat="43.65423" lon="3.81961">
        <ele>121</ele>
        <time>2015-11-18T12:22:14Z</time>
      </trkpt>
      <trkpt lat="43.65423" lon="3.81965">
        <ele>122.5</ele>
        <time>2015-11-18T12:22:15Z</time>
      </trkpt>
      <trkpt lat="43.65421" lon="3.81965">
        <ele>123.5</ele>
        <time>2015-11-18T12:22:16Z</time>
      </trkpt>
      <trkpt lat="43.65421" lon="3.81966">
        <ele>124</ele>
        <time>2015-11-18T12:22:17Z</time>
      </trkpt>
      <trkpt lat="43.6542" lon="3.81966">
        <ele>125.5</ele>
        <time>2015-11-18T12:22:18Z</time>
      </trkpt>
      <trkpt lat="43.65418" lon="3.81968">
        <ele>125</ele>
        <time>2015-11-18T12:22:19Z</time>
      </trkpt>
      <trkpt lat="43.65416" lon="3.81968">
        <ele>125</ele>
        <time>2015-11-18T12:22:20Z</time>
      </trkpt>
      <trkpt lat="43.65414" lon="3.8197">
        <ele>124.5</ele>
        <time>2015-11-18T12:22:21Z</time>
      </trkpt>
      <trkpt lat="43.65412" lon="3.81973">
        <ele>125</ele>
        <time>2015-11-18T12:22:22Z</time>
      </trkpt>
      <trkpt lat="43.65411" lon="3.81976">
        <ele>126</ele>
        <time>2015-11-18T12:22:23Z</time>
      </trkpt>
      <trkpt lat="43.65411" lon="3.81981">
        <ele>127</ele>
        <time>2015-11-18T12:22:24Z</time>
      </trkpt>
      <trkpt lat="43.65411" lon="3.81988">
        <ele>127</ele>
        <time>2015-11-18T12:22:25Z</time>
      </trkpt>
      <trkpt lat="43.65407" lon="3.8199">
        <ele>127</ele>
        <time>2015-11-18T12:22:26Z</time>
      </trkpt>
      <trkpt lat="43.65406" lon="3.81995">
        <ele>127.5</ele>
        <time>2015-11-18T12:22:27Z</time>
      </trkpt>
      <trkpt lat="43.65405" lon="3.82002">
        <ele>127</ele>
        <time>2015-11-18T12:22:29Z</time>
      </trkpt>
      <trkpt lat="43.65401" lon="3.8201">
        <ele>127.5</ele>
        <time>2015-11-18T12:22:31Z</time>
      </trkpt>
      <trkpt lat="43.65399" lon="3.82012">
        <ele>125.5</ele>
        <time>2015-11-18T12:22:32Z</time>
      </trkpt>
      <trkpt lat="43.65396" lon="3.82016">
        <ele>125.5</ele>
        <time>2015-11-18T12:22:33Z</time>
      </trkpt>
      <trkpt lat="43.65389" lon="3.82026">
        <ele>127.5</ele>
        <time>2015-11-18T12:22:35Z</time>
      </trkpt>
      <trkpt lat="43.65386" lon="3.82039">
        <ele>125.5</ele>
        <time>2015-11-18T12:22:37Z</time>
      </trkpt>
      <trkpt lat="43.65387" lon="3.82046">
        <ele>125.5</ele>
        <time>2015-11-18T12:22:38Z</time>
      </trkpt>
      <trkpt lat="43.65388" lon="3.82052">
        <ele>126</ele>
        <time>2015-11-18T12:22:39Z</time>
      </trkpt>
      <trkpt lat="43.65391" lon="3.82057">
        <ele>128.5</ele>
        <time>2015-11-18T12:22:42Z</time>
      </trkpt>
      <trkpt lat="43.65393" lon="3.82061">
        <ele>129</ele>
        <time>2015-11-18T12:22:43Z</time>
      </trkpt>
      <trkpt lat="43.65394" lon="3.82062">
        <ele>129</ele>
        <time>2015-11-18T12:22:44Z</time>
      </trkpt>
      <trkpt lat="43.65396" lon="3.82063">
        <ele>130.5</ele>
        <time>2015-11-18T12:22:45Z</time>
      </trkpt>
      <trkpt lat="43.65398" lon="3.82075">
        <ele>128.5</ele>
        <time>2015-11-18T12:22:47Z</time>
      </trkpt>
      <trkpt lat="43.65403" lon="3.82079">
        <ele>128.5</ele>
        <time>2015-11-18T12:22:48Z</time>
      </trkpt>
      <trkpt lat="43.65406" lon="3.82083">
        <ele>128</ele>
        <time>2015-11-18T12:22:49Z</time>
      </trkpt>
      <trkpt lat="43.6541" lon="3.82085">
        <ele>128</ele>
        <time>2015-11-18T12:22:50Z</time>
      </trkpt>
      <trkpt lat="43.65409" lon="3.82091">
        <ele>128.5</ele>
        <time>2015-11-18T12:22:51Z</time>
      </trkpt>
      <trkpt lat="43.65407" lon="3.82099">
        <ele>128.5</ele>
        <time>2015-11-18T12:22:52Z</time>
      </trkpt>
      <trkpt lat="43.65407" lon="3.82106">
        <ele>128.5</ele>
        <time>2015-11-18T12:22:53Z</time>
      </trkpt>
      <trkpt lat="43.65405" lon="3.82113">
        <ele>128.5</ele>
        <time>2015-11-18T12:22:54Z</time>
      </trkpt>
      <trkpt lat="43.65405" lon="3.82119">
        <ele>129</ele>
        <time>2015-11-18T12:22:55Z</time>
      </trkpt>
      <trkpt lat="43.65407" lon="3.82124">
        <ele>130</ele>
        <time>2015-11-18T12:22:56Z</time>
      </trkpt>
      <trkpt lat="43.65407" lon="3.82137">
        <ele>132.5</ele>
        <time>2015-11-18T12:22:58Z</time>
      </trkpt>
      <trkpt lat="43.65407" lon="3.82142">
        <ele>132</ele>
        <time>2015-11-18T12:22:59Z</time>
      </trkpt>
      <trkpt lat="43.65407" lon="3.82147">
        <ele>133</ele>
        <time>2015-11-18T12:23:00Z</time>
      </trkpt>
      <trkpt lat="43.65407" lon="3.82152">
        <ele>134</ele>
        <time>2015-11-18T12:23:01Z</time>
      </trkpt>
      <trkpt lat="43.65407" lon="3.82156">
        <ele>134.5</ele>
        <time>2015-11-18T12:23:02Z</time>
      </trkpt>
      <trkpt lat="43.65407" lon="3.82161">
        <ele>135</ele>
        <time>2015-11-18T12:23:03Z</time>
      </trkpt>
      <trkpt lat="43.65407" lon="3.82166">
        <ele>136</ele>
        <time>2015-11-18T12:23:04Z</time>
      </trkpt>
      <trkpt lat="43.65406" lon="3.82169">
        <ele>135.5</ele>
        <time>2015-11-18T12:23:05Z</time>
      </trkpt>
      <trkpt lat="43.65405" lon="3.82172">
        <ele>135.5</ele>
        <time>2015-11-18T12:23:06Z</time>
      </trkpt>
      <trkpt lat="43.65404" lon="3.82177">
        <ele>135.5</ele>
        <time>2015-11-18T12:23:07Z</time>
      </trkpt>
      <trkpt lat="43.65402" lon="3.82182">
        <ele>134.5</ele>
        <time>2015-11-18T12:23:08Z</time>
      </trkpt>
      <trkpt lat="43.654" lon="3.82186">
        <ele>134.5</ele>
        <time>2015-11-18T12:23:09Z</time>
      </trkpt>
      <trkpt lat="43.65397" lon="3.8219">
        <ele>135</ele>
        <time>2015-11-18T12:23:10Z</time>
      </trkpt>
      <trkpt lat="43.65394" lon="3.82193">
        <ele>136</ele>
        <time>2015-11-18T12:23:11Z</time>
      </trkpt>
      <trkpt lat="43.65391" lon="3.82197">
        <ele>136.5</ele>
        <time>2015-11-18T12:23:12Z</time>
      </trkpt>
      <trkpt lat="43.65387" lon="3.822">
        <ele>137</ele>
        <time>2015-11-18T12:23:13Z</time>
      </trkpt>
      <trkpt lat="43.65383" lon="3.82203">
        <ele>138.5</ele>
        <time>2015-11-18T12:23:14Z</time>
      </trkpt>
      <trkpt lat="43.65381" lon="3.82206">
        <ele>139.5</ele>
        <time>2015-11-18T12:23:15Z</time>
      </trkpt>
      <trkpt lat="43.65378" lon="3.82208">
        <ele>140.5</ele>
        <time>2015-11-18T12:23:16Z</time>
      </trkpt>
      <trkpt lat="43.65375" lon="3.82211">
        <ele>140</ele>
        <time>2015-11-18T12:23:17Z</time>
      </trkpt>
      <trkpt lat="43.65374" lon="3.82213">
        <ele>140.5</ele>
        <time>2015-11-18T12:23:18Z</time>
      </trkpt>
      <trkpt lat="43.65372" lon="3.82215">
        <ele>141.5</ele>
        <time>2015-11-18T12:23:19Z</time>
      </trkpt>
      <trkpt lat="43.65371" lon="3.82216">
        <ele>143</ele>
        <time>2015-11-18T12:23:20Z</time>
      </trkpt>
      <trkpt lat="43.6537" lon="3.82219">
        <ele>143.5</ele>
        <time>2015-11-18T12:23:21Z</time>
      </trkpt>
      <trkpt lat="43.65368" lon="3.82221">
        <ele>143.5</ele>
        <time>2015-11-18T12:23:22Z</time>
      </trkpt>
      <trkpt lat="43.65367" lon="3.82223">
        <ele>144</ele>
        <time>2015-11-18T12:23:23Z</time>
      </trkpt>
      <trkpt lat="43.65367" lon="3.82226">
        <ele>144.5</ele>
        <time>2015-11-18T12:23:24Z</time>
      </trkpt>
      <trkpt lat="43.65367" lon="3.82228">
        <ele>144.5</ele>
        <time>2015-11-18T12:23:25Z</time>
      </trkpt>
      <trkpt lat="43.65367" lon="3.8223">
        <ele>144.5</ele>
        <time>2015-11-18T12:23:26Z</time>
      </trkpt>
      <trkpt lat="43.65366" lon="3.82233">
        <ele>144</ele>
        <time>2015-11-18T12:23:27Z</time>
      </trkpt>
      <trkpt lat="43.65364" lon="3.82235">
        <ele>143.5</ele>
        <time>2015-11-18T12:23:28Z</time>
      </trkpt>
      <trkpt lat="43.65363" lon="3.82238">
        <ele>144</ele>
        <time>2015-11-18T12:23:29Z</time>
      </trkpt>
      <trkpt lat="43.65363" lon="3.82239">
        <ele>142.5</ele>
        <time>2015-11-18T12:23:30Z</time>
      </trkpt>
      <trkpt lat="43.65363" lon="3.8224">
        <ele>143.5</ele>
        <time>2015-11-18T12:23:31Z</time>
      </trkpt>
      <trkpt lat="43.65362" lon="3.82242">
        <ele>143</ele>
        <time>2015-11-18T12:23:32Z</time>
      </trkpt>
      <trkpt lat="43.65362" lon="3.82245">
        <ele>142.5</ele>
        <time>2015-11-18T12:23:33Z</time>
      </trkpt>
      <trkpt lat="43.65362" lon="3.82247">
        <ele>140.5</ele>
        <time>2015-11-18T12:23:34Z</time>
      </trkpt>
      <trkpt lat="43.65364" lon="3.82249">
        <ele>141</ele>
        <time>2015-11-18T12:23:35Z</time>
      </trkpt>
      <trkpt lat="43.65363" lon="3.82252">
        <ele>139.5</ele>
        <time>2015-11-18T12:23:36Z</time>
      </trkpt>
      <trkpt lat="43.65362" lon="3.82255">
        <ele>139.5</ele>
        <time>2015-11-18T12:23:37Z</time>
      </trkpt>
      <trkpt lat="43.65361" lon="3.82258">
        <ele>138.5</ele>
        <time>2015-11-18T12:23:38Z</time>
      </trkpt>
      <trkpt lat="43.65361" lon="3.82262">
        <ele>138</ele>
        <time>2015-11-18T12:23:39Z</time>
      </trkpt>
      <trkpt lat="43.6536" lon="3.82266">
        <ele>138.5</ele>
        <time>2015-11-18T12:23:40Z</time>
      </trkpt>
      <trkpt lat="43.6536" lon="3.82269">
        <ele>139</ele>
        <time>2015-11-18T12:23:41Z</time>
      </trkpt>
      <trkpt lat="43.6536" lon="3.82273">
        <ele>139</ele>
        <time>2015-11-18T12:23:42Z</time>
      </trkpt>
      <trkpt lat="43.6536" lon="3.82276">
        <ele>139.5</ele>
        <time>2015-11-18T12:23:43Z</time>
      </trkpt>
      <trkpt lat="43.6536" lon="3.82278">
        <ele>139</ele>
        <time>2015-11-18T12:23:44Z</time>
      </trkpt>
      <trkpt lat="43.6536" lon="3.8228">
        <ele>140.5</ele>
        <time>2015-11-18T12:23:51Z</time>
      </trkpt>
      <trkpt lat="43.6536" lon="3.82282">
        <ele>141</ele>
        <time>2015-11-18T12:23:52Z</time>
      </trkpt>
      <trkpt lat="43.65359" lon="3.82283">
        <ele>141</ele>
        <time>2015-11-18T12:23:53Z</time>
      </trkpt>
      <trkpt lat="43.65359" lon="3.82285">
        <ele>141</ele>
        <time>2015-11-18T12:23:54Z</time>
      </trkpt>
      <trkpt lat="43.65359" lon="3.82286">
        <ele>141.5</ele>
        <time>2015-11-18T12:23:55Z</time>
      </trkpt>
      <trkpt lat="43.65359" lon="3.82288">
        <ele>141.5</ele>
        <time>2015-11-18T12:23:56Z</time>
      </trkpt>
      <trkpt lat="43.65358" lon="3.82289">
        <ele>141.5</ele>
        <time>2015-11-18T12:23:57Z</time>
      </trkpt>
      <trkpt lat="43.65358" lon="3.82291">
        <ele>142</ele>
        <time>2015-11-18T12:23:58Z</time>
      </trkpt>
      <trkpt lat="43.65358" lon="3.82291">
        <ele>142</ele>
        <time>2015-11-18T12:23:59Z</time>
      </trkpt>
      <trkpt lat="43.65358" lon="3.82293">
        <ele>142</ele>
        <time>2015-11-18T12:24:00Z</time>
      </trkpt>
      <trkpt lat="43.65357" lon="3.82294">
        <ele>142</ele>
        <time>2015-11-18T12:24:01Z</time>
      </trkpt>
      <trkpt lat="43.65357" lon="3.82294">
        <ele>142.5</ele>
        <time>2015-11-18T12:24:02Z</time>
      </trkpt>
      <trkpt lat="43.65357" lon="3.82296">
        <ele>142.5</ele>
        <time>2015-11-18T12:24:03Z</time>
      </trkpt>
      <trkpt lat="43.65357" lon="3.82297">
        <ele>141.5</ele>
        <time>2015-11-18T12:24:04Z</time>
      </trkpt>
      <trkpt lat="43.65357" lon="3.82298">
        <ele>141.5</ele>
        <time>2015-11-18T12:24:05Z</time>
      </trkpt>
      <trkpt lat="43.65357" lon="3.82299">
        <ele>141</ele>
        <time>2015-11-18T12:24:06Z</time>
      </trkpt>
      <trkpt lat="43.65357" lon="3.823">
        <ele>141</ele>
        <time>2015-11-18T12:24:07Z</time>
      </trkpt>
      <trkpt lat="43.65357" lon="3.82302">
        <ele>140.5</ele>
        <time>2015-11-18T12:24:08Z</time>
      </trkpt>
      <trkpt lat="43.65357" lon="3.82303">
        <ele>140.5</ele>
        <time>2015-11-18T12:24:09Z</time>
      </trkpt>
      <trkpt lat="43.65357" lon="3.82304">
        <ele>140.5</ele>
        <time>2015-11-18T12:24:10Z</time>
      </trkpt>
      <trkpt lat="43.65357" lon="3.82305">
        <ele>140.5</ele>
        <time>2015-11-18T12:24:11Z</time>
      </trkpt>
      <trkpt lat="43.65357" lon="3.82306">
        <ele>141</ele>
        <time>2015-11-18T12:24:12Z</time>
      </trkpt>
      <trkpt lat="43.65357" lon="3.82307">
        <ele>140.5</ele>
        <time>2015-11-18T12:24:13Z</time>
      </trkpt>
      <trkpt lat="43.65356" lon="3.82308">
        <ele>140.5</ele>
        <time>2015-11-18T12:24:14Z</time>
      </trkpt>
      <trkpt lat="43.65356" lon="3.82309">
        <ele>140.5</ele>
        <time>2015-11-18T12:24:15Z</time>
      </trkpt>
      <trkpt lat="43.65356" lon="3.82311">
        <ele>140.5</ele>
        <time>2015-11-18T12:24:16Z</time>
      </trkpt>
      <trkpt lat="43.65356" lon="3.82312">
        <ele>140</ele>
        <time>2015-11-18T12:24:17Z</time>
      </trkpt>
      <trkpt lat="43.65356" lon="3.82314">
        <ele>140</ele>
        <time>2015-11-18T12:24:18Z</time>
      </trkpt>
      <trkpt lat="43.65355" lon="3.82315">
        <ele>140</ele>
        <time>2015-11-18T12:24:19Z</time>
      </trkpt>
      <trkpt lat="43.65355" lon="3.82316">
        <ele>140</ele>
        <time>2015-11-18T12:24:20Z</time>
      </trkpt>
      <trkpt lat="43.65355" lon="3.82318">
        <ele>140</ele>
        <time>2015-11-18T12:24:21Z</time>
      </trkpt>
      <trkpt lat="43.65354" lon="3.82319">
        <ele>139.5</ele>
        <time>2015-11-18T12:24:22Z</time>
      </trkpt>
      <trkpt lat="43.65354" lon="3.82321">
        <ele>139.5</ele>
        <time>2015-11-18T12:24:23Z</time>
      </trkpt>
      <trkpt lat="43.65354" lon="3.82321">
        <ele>140.5</ele>
        <time>2015-11-18T12:24:24Z</time>
      </trkpt>
      <trkpt lat="43.65354" lon="3.82321">
        <ele>140.5</ele>
        <time>2015-11-18T12:24:25Z</time>
      </trkpt>
      <trkpt lat="43.65353" lon="3.82322">
        <ele>140.5</ele>
        <time>2015-11-18T12:24:29Z</time>
      </trkpt>
      <trkpt lat="43.65353" lon="3.82324">
        <ele>140.5</ele>
        <time>2015-11-18T12:24:30Z</time>
      </trkpt>
      <trkpt lat="43.65352" lon="3.82326">
        <ele>140.5</ele>
        <time>2015-11-18T12:24:30Z</time>
      </trkpt>
      <trkpt lat="43.65352" lon="3.82328">
        <ele>141</ele>
        <time>2015-11-18T12:24:32Z</time>
      </trkpt>
      <trkpt lat="43.65351" lon="3.82331">
        <ele>141</ele>
        <time>2015-11-18T12:24:32Z</time>
      </trkpt>
      <trkpt lat="43.65351" lon="3.82334">
        <ele>140.5</ele>
        <time>2015-11-18T12:24:33Z</time>
      </trkpt>
      <trkpt lat="43.65351" lon="3.82336">
        <ele>140.5</ele>
        <time>2015-11-18T12:24:34Z</time>
      </trkpt>
      <trkpt lat="43.6535" lon="3.8234">
        <ele>140.5</ele>
        <time>2015-11-18T12:24:35Z</time>
      </trkpt>
      <trkpt lat="43.6535" lon="3.82343">
        <ele>140.5</ele>
        <time>2015-11-18T12:24:36Z</time>
      </trkpt>
      <trkpt lat="43.65349" lon="3.82346">
        <ele>141</ele>
        <time>2015-11-18T12:24:37Z</time>
      </trkpt>
      <trkpt lat="43.65349" lon="3.82349">
        <ele>141</ele>
        <time>2015-11-18T12:24:38Z</time>
      </trkpt>
      <trkpt lat="43.6535" lon="3.82352">
        <ele>142</ele>
        <time>2015-11-18T12:24:39Z</time>
      </trkpt>
      <trkpt lat="43.6535" lon="3.82355">
        <ele>141.5</ele>
        <time>2015-11-18T12:24:40Z</time>
      </trkpt>
      <trkpt lat="43.6535" lon="3.82358">
        <ele>141.5</ele>
        <time>2015-11-18T12:24:41Z</time>
      </trkpt>
      <trkpt lat="43.65348" lon="3.82361">
        <ele>141</ele>
        <time>2015-11-18T12:24:42Z</time>
      </trkpt>
      <trkpt lat="43.65348" lon="3.82364">
        <ele>141.5</ele>
        <time>2015-11-18T12:24:43Z</time>
      </trkpt>
      <trkpt lat="43.65348" lon="3.82368">
        <ele>141.5</ele>
        <time>2015-11-18T12:24:44Z</time>
      </trkpt>
      <trkpt lat="43.65348" lon="3.82372">
        <ele>141</ele>
        <time>2015-11-18T12:24:45Z</time>
      </trkpt>
      <trkpt lat="43.65348" lon="3.82375">
        <ele>141</ele>
        <time>2015-11-18T12:24:46Z</time>
      </trkpt>
      <trkpt lat="43.65347" lon="3.82379">
        <ele>140</ele>
        <time>2015-11-18T12:24:47Z</time>
      </trkpt>
      <trkpt lat="43.65346" lon="3.82382">
        <ele>140.5</ele>
        <time>2015-11-18T12:24:48Z</time>
      </trkpt>
      <trkpt lat="43.65346" lon="3.82386">
        <ele>140.5</ele>
        <time>2015-11-18T12:24:49Z</time>
      </trkpt>
      <trkpt lat="43.65346" lon="3.8239">
        <ele>140</ele>
        <time>2015-11-18T12:24:50Z</time>
      </trkpt>
      <trkpt lat="43.65345" lon="3.82393">
        <ele>140</ele>
        <time>2015-11-18T12:24:51Z</time>
      </trkpt>
      <trkpt lat="43.65345" lon="3.82397">
        <ele>140</ele>
        <time>2015-11-18T12:24:52Z</time>
      </trkpt>
      <trkpt lat="43.65344" lon="3.824">
        <ele>140.5</ele>
        <time>2015-11-18T12:24:53Z</time>
      </trkpt>
      <trkpt lat="43.65344" lon="3.82402">
        <ele>141.5</ele>
        <time>2015-11-18T12:24:54Z</time>
      </trkpt>
      <trkpt lat="43.65344" lon="3.82405">
        <ele>142</ele>
        <time>2015-11-18T12:24:55Z</time>
      </trkpt>
      <trkpt lat="43.65343" lon="3.82409">
        <ele>142</ele>
        <time>2015-11-18T12:24:56Z</time>
      </trkpt>
      <trkpt lat="43.65343" lon="3.82412">
        <ele>142</ele>
        <time>2015-11-18T12:24:57Z</time>
      </trkpt>
      <trkpt lat="43.65343" lon="3.82415">
        <ele>143</ele>
        <time>2015-11-18T12:24:58Z</time>
      </trkpt>
      <trkpt lat="43.65344" lon="3.82419">
        <ele>143.5</ele>
        <time>2015-11-18T12:24:59Z</time>
      </trkpt>
      <trkpt lat="43.65344" lon="3.82423">
        <ele>144</ele>
        <time>2015-11-18T12:25:00Z</time>
      </trkpt>
      <trkpt lat="43.65343" lon="3.82426">
        <ele>144</ele>
        <time>2015-11-18T12:25:01Z</time>
      </trkpt>
      <trkpt lat="43.65343" lon="3.82429">
        <ele>144</ele>
        <time>2015-11-18T12:25:02Z</time>
      </trkpt>
      <trkpt lat="43.65343" lon="3.82432">
        <ele>145</ele>
        <time>2015-11-18T12:25:03Z</time>
      </trkpt>
      <trkpt lat="43.65342" lon="3.82434">
        <ele>145</ele>
        <time>2015-11-18T12:25:04Z</time>
      </trkpt>
      <trkpt lat="43.6534" lon="3.82437">
        <ele>145.5</ele>
        <time>2015-11-18T12:25:05Z</time>
      </trkpt>
      <trkpt lat="43.65339" lon="3.82439">
        <ele>146.5</ele>
        <time>2015-11-18T12:25:06Z</time>
      </trkpt>
      <trkpt lat="43.65338" lon="3.82441">
        <ele>147.5</ele>
        <time>2015-11-18T12:25:07Z</time>
      </trkpt>
      <trkpt lat="43.65338" lon="3.82443">
        <ele>148</ele>
        <time>2015-11-18T12:25:08Z</time>
      </trkpt>
      <trkpt lat="43.65337" lon="3.82445">
        <ele>147.5</ele>
        <time>2015-11-18T12:25:09Z</time>
      </trkpt>
      <trkpt lat="43.65337" lon="3.82448">
        <ele>148</ele>
        <time>2015-11-18T12:25:10Z</time>
      </trkpt>
      <trkpt lat="43.65336" lon="3.82451">
        <ele>148</ele>
        <time>2015-11-18T12:25:11Z</time>
      </trkpt>
      <trkpt lat="43.65334" lon="3.82452">
        <ele>148</ele>
        <time>2015-11-18T12:25:12Z</time>
      </trkpt>
      <trkpt lat="43.65333" lon="3.82454">
        <ele>146.5</ele>
        <time>2015-11-18T12:25:13Z</time>
      </trkpt>
      <trkpt lat="43.65332" lon="3.82457">
        <ele>144</ele>
        <time>2015-11-18T12:25:14Z</time>
      </trkpt>
      <trkpt lat="43.65331" lon="3.82459">
        <ele>143.5</ele>
        <time>2015-11-18T12:25:15Z</time>
      </trkpt>
      <trkpt lat="43.6533" lon="3.82461">
        <ele>142.5</ele>
        <time>2015-11-18T12:25:16Z</time>
      </trkpt>
      <trkpt lat="43.65329" lon="3.82464">
        <ele>140.5</ele>
        <time>2015-11-18T12:25:17Z</time>
      </trkpt>
      <trkpt lat="43.6533" lon="3.82467">
        <ele>141.5</ele>
        <time>2015-11-18T12:25:18Z</time>
      </trkpt>
      <trkpt lat="43.6533" lon="3.82469">
        <ele>143.5</ele>
        <time>2015-11-18T12:25:19Z</time>
      </trkpt>
      <trkpt lat="43.6533" lon="3.82472">
        <ele>144</ele>
        <time>2015-11-18T12:25:20Z</time>
      </trkpt>
      <trkpt lat="43.65331" lon="3.82476">
        <ele>146.5</ele>
        <time>2015-11-18T12:25:21Z</time>
      </trkpt>
      <trkpt lat="43.65333" lon="3.8248">
        <ele>147</ele>
        <time>2015-11-18T12:25:22Z</time>
      </trkpt>
      <trkpt lat="43.65333" lon="3.82482">
        <ele>147.5</ele>
        <time>2015-11-18T12:25:23Z</time>
      </trkpt>
      <trkpt lat="43.65333" lon="3.82485">
        <ele>149</ele>
        <time>2015-11-18T12:25:24Z</time>
      </trkpt>
      <trkpt lat="43.65334" lon="3.82488">
        <ele>149.5</ele>
        <time>2015-11-18T12:25:25Z</time>
      </trkpt>
      <trkpt lat="43.65334" lon="3.82491">
        <ele>149.5</ele>
        <time>2015-11-18T12:25:26Z</time>
      </trkpt>
      <trkpt lat="43.65335" lon="3.82494">
        <ele>149.5</ele>
        <time>2015-11-18T12:25:27Z</time>
      </trkpt>
      <trkpt lat="43.65334" lon="3.82497">
        <ele>150</ele>
        <time>2015-11-18T12:25:28Z</time>
      </trkpt>
      <trkpt lat="43.65334" lon="3.82499">
        <ele>150</ele>
        <time>2015-11-18T12:25:29Z</time>
      </trkpt>
      <trkpt lat="43.65332" lon="3.82502">
        <ele>148.5</ele>
        <time>2015-11-18T12:25:30Z</time>
      </trkpt>
      <trkpt lat="43.6533" lon="3.82506">
        <ele>147</ele>
        <time>2015-11-18T12:25:31Z</time>
      </trkpt>
      <trkpt lat="43.6533" lon="3.82508">
        <ele>148</ele>
        <time>2015-11-18T12:25:32Z</time>
      </trkpt>
      <trkpt lat="43.6533" lon="3.8251">
        <ele>148.5</ele>
        <time>2015-11-18T12:25:33Z</time>
      </trkpt>
      <trkpt lat="43.65328" lon="3.82511">
        <ele>147</ele>
        <time>2015-11-18T12:25:34Z</time>
      </trkpt>
      <trkpt lat="43.65327" lon="3.82513">
        <ele>148.5</ele>
        <time>2015-11-18T12:25:35Z</time>
      </trkpt>
      <trkpt lat="43.65326" lon="3.82516">
        <ele>147.5</ele>
        <time>2015-11-18T12:25:36Z</time>
      </trkpt>
      <trkpt lat="43.65326" lon="3.82517">
        <ele>150.5</ele>
        <time>2015-11-18T12:25:37Z</time>
      </trkpt>
      <trkpt lat="43.65326" lon="3.82518">
        <ele>151.5</ele>
        <time>2015-11-18T12:25:38Z</time>
      </trkpt>
      <trkpt lat="43.65326" lon="3.8252">
        <ele>153</ele>
        <time>2015-11-18T12:25:39Z</time>
      </trkpt>
      <trkpt lat="43.65328" lon="3.82521">
        <ele>155</ele>
        <time>2015-11-18T12:25:40Z</time>
      </trkpt>
      <trkpt lat="43.65328" lon="3.82522">
        <ele>156</ele>
        <time>2015-11-18T12:25:41Z</time>
      </trkpt>
      <trkpt lat="43.65328" lon="3.82523">
        <ele>156</ele>
        <time>2015-11-18T12:25:42Z</time>
      </trkpt>
      <trkpt lat="43.65327" lon="3.82525">
        <ele>156.5</ele>
        <time>2015-11-18T12:25:43Z</time>
      </trkpt>
      <trkpt lat="43.65327" lon="3.82526">
        <ele>157</ele>
        <time>2015-11-18T12:25:44Z</time>
      </trkpt>
      <trkpt lat="43.65327" lon="3.82528">
        <ele>157</ele>
        <time>2015-11-18T12:25:45Z</time>
      </trkpt>
      <trkpt lat="43.65327" lon="3.8253">
        <ele>156</ele>
        <time>2015-11-18T12:25:46Z</time>
      </trkpt>
      <trkpt lat="43.65327" lon="3.82532">
        <ele>156.5</ele>
        <time>2015-11-18T12:25:47Z</time>
      </trkpt>
      <trkpt lat="43.65327" lon="3.82533">
        <ele>158</ele>
        <time>2015-11-18T12:25:48Z</time>
      </trkpt>
      <trkpt lat="43.65327" lon="3.82533">
        <ele>157.5</ele>
        <time>2015-11-18T12:25:49Z</time>
      </trkpt>
      <trkpt lat="43.65326" lon="3.82535">
        <ele>156.5</ele>
        <time>2015-11-18T12:25:50Z</time>
      </trkpt>
      <trkpt lat="43.65327" lon="3.82537">
        <ele>158</ele>
        <time>2015-11-18T12:25:51Z</time>
      </trkpt>
      <trkpt lat="43.65326" lon="3.82538">
        <ele>158</ele>
        <time>2015-11-18T12:25:52Z</time>
      </trkpt>
      <trkpt lat="43.65326" lon="3.8254">
        <ele>158</ele>
        <time>2015-11-18T12:25:53Z</time>
      </trkpt>
      <trkpt lat="43.65326" lon="3.82541">
        <ele>158</ele>
        <time>2015-11-18T12:25:54Z</time>
      </trkpt>
      <trkpt lat="43.65327" lon="3.82543">
        <ele>158.5</ele>
        <time>2015-11-18T12:25:55Z</time>
      </trkpt>
      <trkpt lat="43.65327" lon="3.82545">
        <ele>159</ele>
        <time>2015-11-18T12:25:56Z</time>
      </trkpt>
      <trkpt lat="43.65327" lon="3.82545">
        <ele>160</ele>
        <time>2015-11-18T12:25:57Z</time>
      </trkpt>
      <trkpt lat="43.65328" lon="3.82547">
        <ele>160.5</ele>
        <time>2015-11-18T12:25:58Z</time>
      </trkpt>
      <trkpt lat="43.65329" lon="3.82549">
        <ele>162</ele>
        <time>2015-11-18T12:25:59Z</time>
      </trkpt>
      <trkpt lat="43.65328" lon="3.8255">
        <ele>161.5</ele>
        <time>2015-11-18T12:26:00Z</time>
      </trkpt>
      <trkpt lat="43.65327" lon="3.82552">
        <ele>161.5</ele>
        <time>2015-11-18T12:26:01Z</time>
      </trkpt>
      <trkpt lat="43.65326" lon="3.82552">
        <ele>159.5</ele>
        <time>2015-11-18T12:26:02Z</time>
      </trkpt>
      <trkpt lat="43.65325" lon="3.82552">
        <ele>158</ele>
        <time>2015-11-18T12:26:03Z</time>
      </trkpt>
      <trkpt lat="43.65323" lon="3.82552">
        <ele>158.5</ele>
        <time>2015-11-18T12:26:04Z</time>
      </trkpt>
      <trkpt lat="43.65322" lon="3.82552">
        <ele>158</ele>
        <time>2015-11-18T12:26:05Z</time>
      </trkpt>
      <trkpt lat="43.6532" lon="3.82553">
        <ele>156</ele>
        <time>2015-11-18T12:26:06Z</time>
      </trkpt>
      <trkpt lat="43.65319" lon="3.82552">
        <ele>155.5</ele>
        <time>2015-11-18T12:26:07Z</time>
      </trkpt>
      <trkpt lat="43.65319" lon="3.82551">
        <ele>156.5</ele>
        <time>2015-11-18T12:26:08Z</time>
      </trkpt>
      <trkpt lat="43.65317" lon="3.82551">
        <ele>155</ele>
        <time>2015-11-18T12:26:09Z</time>
      </trkpt>
      <trkpt lat="43.65315" lon="3.82551">
        <ele>154.5</ele>
        <time>2015-11-18T12:26:10Z</time>
      </trkpt>
      <trkpt lat="43.65314" lon="3.8255">
        <ele>154</ele>
        <time>2015-11-18T12:26:11Z</time>
      </trkpt>
      <trkpt lat="43.65312" lon="3.8255">
        <ele>154</ele>
        <time>2015-11-18T12:26:12Z</time>
      </trkpt>
      <trkpt lat="43.65311" lon="3.8255">
        <ele>153</ele>
        <time>2015-11-18T12:26:13Z</time>
      </trkpt>
      <trkpt lat="43.65309" lon="3.8255">
        <ele>152</ele>
        <time>2015-11-18T12:26:14Z</time>
      </trkpt>
      <trkpt lat="43.65307" lon="3.82552">
        <ele>150</ele>
        <time>2015-11-18T12:26:15Z</time>
      </trkpt>
      <trkpt lat="43.65306" lon="3.82553">
        <ele>149</ele>
        <time>2015-11-18T12:26:16Z</time>
      </trkpt>
      <trkpt lat="43.65304" lon="3.82553">
        <ele>150</ele>
        <time>2015-11-18T12:26:17Z</time>
      </trkpt>
      <trkpt lat="43.65302" lon="3.82555">
        <ele>152</ele>
        <time>2015-11-18T12:26:18Z</time>
      </trkpt>
      <trkpt lat="43.65301" lon="3.82554">
        <ele>152.5</ele>
        <time>2015-11-18T12:26:19Z</time>
      </trkpt>
      <trkpt lat="43.65299" lon="3.82554">
        <ele>153.5</ele>
        <time>2015-11-18T12:26:20Z</time>
      </trkpt>
      <trkpt lat="43.65297" lon="3.82554">
        <ele>154.5</ele>
        <time>2015-11-18T12:26:21Z</time>
      </trkpt>
      <trkpt lat="43.65296" lon="3.82554">
        <ele>154</ele>
        <time>2015-11-18T12:26:22Z</time>
      </trkpt>
      <trkpt lat="43.65294" lon="3.82554">
        <ele>154</ele>
        <time>2015-11-18T12:26:23Z</time>
      </trkpt>
      <trkpt lat="43.65292" lon="3.82554">
        <ele>155</ele>
        <time>2015-11-18T12:26:24Z</time>
      </trkpt>
      <trkpt lat="43.6529" lon="3.82554">
        <ele>154.5</ele>
        <time>2015-11-18T12:26:25Z</time>
      </trkpt>
      <trkpt lat="43.65287" lon="3.82554">
        <ele>155</ele>
        <time>2015-11-18T12:26:26Z</time>
      </trkpt>
      <trkpt lat="43.65286" lon="3.82555">
        <ele>155.5</ele>
        <time>2015-11-18T12:26:27Z</time>
      </trkpt>
      <trkpt lat="43.65283" lon="3.82557">
        <ele>157</ele>
        <time>2015-11-18T12:26:28Z</time>
      </trkpt>
      <trkpt lat="43.65281" lon="3.82559">
        <ele>158</ele>
        <time>2015-11-18T12:26:29Z</time>
      </trkpt>
      <trkpt lat="43.65279" lon="3.8256">
        <ele>158</ele>
        <time>2015-11-18T12:26:30Z</time>
      </trkpt>
      <trkpt lat="43.65277" lon="3.82561">
        <ele>158.5</ele>
        <time>2015-11-18T12:26:31Z</time>
      </trkpt>
      <trkpt lat="43.65276" lon="3.8256">
        <ele>159</ele>
        <time>2015-11-18T12:26:32Z</time>
      </trkpt>
      <trkpt lat="43.65274" lon="3.82561">
        <ele>159.5</ele>
        <time>2015-11-18T12:26:33Z</time>
      </trkpt>
      <trkpt lat="43.65273" lon="3.82561">
        <ele>159</ele>
        <time>2015-11-18T12:26:34Z</time>
      </trkpt>
      <trkpt lat="43.65271" lon="3.82562">
        <ele>159.5</ele>
        <time>2015-11-18T12:26:35Z</time>
      </trkpt>
      <trkpt lat="43.65268" lon="3.82564">
        <ele>161</ele>
        <time>2015-11-18T12:26:36Z</time>
      </trkpt>
      <trkpt lat="43.65266" lon="3.82564">
        <ele>163</ele>
        <time>2015-11-18T12:26:37Z</time>
      </trkpt>
      <trkpt lat="43.65263" lon="3.82565">
        <ele>164</ele>
        <time>2015-11-18T12:26:38Z</time>
      </trkpt>
      <trkpt lat="43.65261" lon="3.82566">
        <ele>164.5</ele>
        <time>2015-11-18T12:26:39Z</time>
      </trkpt>
      <trkpt lat="43.65259" lon="3.82567">
        <ele>166</ele>
        <time>2015-11-18T12:26:40Z</time>
      </trkpt>
      <trkpt lat="43.65257" lon="3.82567">
        <ele>166</ele>
        <time>2015-11-18T12:26:41Z</time>
      </trkpt>
      <trkpt lat="43.65255" lon="3.82567">
        <ele>167.5</ele>
        <time>2015-11-18T12:26:42Z</time>
      </trkpt>
      <trkpt lat="43.65253" lon="3.82568">
        <ele>169</ele>
        <time>2015-11-18T12:26:43Z</time>
      </trkpt>
      <trkpt lat="43.6525" lon="3.8257">
        <ele>170</ele>
        <time>2015-11-18T12:26:44Z</time>
      </trkpt>
      <trkpt lat="43.65249" lon="3.82571">
        <ele>171.5</ele>
        <time>2015-11-18T12:26:45Z</time>
      </trkpt>
      <trkpt lat="43.65246" lon="3.82573">
        <ele>173.5</ele>
        <time>2015-11-18T12:26:46Z</time>
      </trkpt>
      <trkpt lat="43.65244" lon="3.82574">
        <ele>174.5</ele>
        <time>2015-11-18T12:26:47Z</time>
      </trkpt>
      <trkpt lat="43.65243" lon="3.82577">
        <ele>175</ele>
        <time>2015-11-18T12:26:48Z</time>
      </trkpt>
      <trkpt lat="43.65242" lon="3.82579">
        <ele>175</ele>
        <time>2015-11-18T12:26:49Z</time>
      </trkpt>
      <trkpt lat="43.65242" lon="3.82581">
        <ele>175.5</ele>
        <time>2015-11-18T12:26:50Z</time>
      </trkpt>
      <trkpt lat="43.65242" lon="3.82583">
        <ele>175.5</ele>
        <time>2015-11-18T12:26:51Z</time>
      </trkpt>
      <trkpt lat="43.65242" lon="3.82585">
        <ele>175.5</ele>
        <time>2015-11-18T12:26:52Z</time>
      </trkpt>
      <trkpt lat="43.65242" lon="3.82587">
        <ele>175.5</ele>
        <time>2015-11-18T12:26:53Z</time>
      </trkpt>
      <trkpt lat="43.65241" lon="3.8259">
        <ele>174</ele>
        <time>2015-11-18T12:26:54Z</time>
      </trkpt>
      <trkpt lat="43.6524" lon="3.82592">
        <ele>172.5</ele>
        <time>2015-11-18T12:26:55Z</time>
      </trkpt>
      <trkpt lat="43.6524" lon="3.82594">
        <ele>173</ele>
        <time>2015-11-18T12:26:56Z</time>
      </trkpt>
      <trkpt lat="43.6524" lon="3.82596">
        <ele>174.5</ele>
        <time>2015-11-18T12:26:57Z</time>
      </trkpt>
      <trkpt lat="43.6524" lon="3.82598">
        <ele>174.5</ele>
        <time>2015-11-18T12:26:58Z</time>
      </trkpt>
      <trkpt lat="43.65239" lon="3.826">
        <ele>174</ele>
        <time>2015-11-18T12:26:59Z</time>
      </trkpt>
      <trkpt lat="43.65238" lon="3.82601">
        <ele>175</ele>
        <time>2015-11-18T12:27:00Z</time>
      </trkpt>
      <trkpt lat="43.65238" lon="3.82601">
        <ele>177.5</ele>
        <time>2015-11-18T12:27:01Z</time>
      </trkpt>
      <trkpt lat="43.65237" lon="3.826">
        <ele>178.5</ele>
        <time>2015-11-18T12:27:02Z</time>
      </trkpt>
      <trkpt lat="43.65236" lon="3.82598">
        <ele>177.5</ele>
        <time>2015-11-18T12:27:03Z</time>
      </trkpt>
      <trkpt lat="43.65234" lon="3.82597">
        <ele>177</ele>
        <time>2015-11-18T12:27:04Z</time>
      </trkpt>
      <trkpt lat="43.65232" lon="3.82595">
        <ele>175.5</ele>
        <time>2015-11-18T12:27:05Z</time>
      </trkpt>
      <trkpt lat="43.6523" lon="3.82593">
        <ele>175</ele>
        <time>2015-11-18T12:27:06Z</time>
      </trkpt>
      <trkpt lat="43.65228" lon="3.8259">
        <ele>175.5</ele>
        <time>2015-11-18T12:27:07Z</time>
      </trkpt>
      <trkpt lat="43.65226" lon="3.82589">
        <ele>176</ele>
        <time>2015-11-18T12:27:08Z</time>
      </trkpt>
      <trkpt lat="43.65222" lon="3.82587">
        <ele>175.5</ele>
        <time>2015-11-18T12:27:09Z</time>
      </trkpt>
      <trkpt lat="43.65219" lon="3.82585">
        <ele>174.5</ele>
        <time>2015-11-18T12:27:10Z</time>
      </trkpt>
      <trkpt lat="43.65216" lon="3.82583">
        <ele>173</ele>
        <time>2015-11-18T12:27:11Z</time>
      </trkpt>
      <trkpt lat="43.65214" lon="3.82578">
        <ele>174.5</ele>
        <time>2015-11-18T12:27:12Z</time>
      </trkpt>
      <trkpt lat="43.65212" lon="3.82575">
        <ele>174.5</ele>
        <time>2015-11-18T12:27:13Z</time>
      </trkpt>
      <trkpt lat="43.65209" lon="3.8257">
        <ele>175</ele>
        <time>2015-11-18T12:27:14Z</time>
      </trkpt>
      <trkpt lat="43.65204" lon="3.82565">
        <ele>172</ele>
        <time>2015-11-18T12:27:16Z</time>
      </trkpt>
      <trkpt lat="43.65202" lon="3.82562">
        <ele>171.5</ele>
        <time>2015-11-18T12:27:17Z</time>
      </trkpt>
      <trkpt lat="43.65199" lon="3.82559">
        <ele>170.5</ele>
        <time>2015-11-18T12:27:18Z</time>
      </trkpt>
      <trkpt lat="43.65197" lon="3.82555">
        <ele>170.5</ele>
        <time>2015-11-18T12:27:19Z</time>
      </trkpt>
      <trkpt lat="43.65194" lon="3.82554">
        <ele>170</ele>
        <time>2015-11-18T12:27:20Z</time>
      </trkpt>
      <trkpt lat="43.65191" lon="3.82552">
        <ele>170</ele>
        <time>2015-11-18T12:27:21Z</time>
      </trkpt>
      <trkpt lat="43.65189" lon="3.82549">
        <ele>170.5</ele>
        <time>2015-11-18T12:27:22Z</time>
      </trkpt>
      <trkpt lat="43.65186" lon="3.82546">
        <ele>170</ele>
        <time>2015-11-18T12:27:23Z</time>
      </trkpt>
      <trkpt lat="43.65183" lon="3.82543">
        <ele>169.5</ele>
        <time>2015-11-18T12:27:24Z</time>
      </trkpt>
      <trkpt lat="43.6518" lon="3.8254">
        <ele>170</ele>
        <time>2015-11-18T12:27:25Z</time>
      </trkpt>
      <trkpt lat="43.65177" lon="3.82539">
        <ele>169</ele>
        <time>2015-11-18T12:27:26Z</time>
      </trkpt>
      <trkpt lat="43.65175" lon="3.82537">
        <ele>168.5</ele>
        <time>2015-11-18T12:27:27Z</time>
      </trkpt>
      <trkpt lat="43.65172" lon="3.82536">
        <ele>168.5</ele>
        <time>2015-11-18T12:27:28Z</time>
      </trkpt>
      <trkpt lat="43.6517" lon="3.82535">
        <ele>169.5</ele>
        <time>2015-11-18T12:27:29Z</time>
      </trkpt>
      <trkpt lat="43.65167" lon="3.82533">
        <ele>170</ele>
        <time>2015-11-18T12:27:30Z</time>
      </trkpt>
      <trkpt lat="43.65165" lon="3.82533">
        <ele>170.5</ele>
        <time>2015-11-18T12:27:31Z</time>
      </trkpt>
      <trkpt lat="43.65162" lon="3.82535">
        <ele>170</ele>
        <time>2015-11-18T12:27:32Z</time>
      </trkpt>
      <trkpt lat="43.65161" lon="3.82534">
        <ele>170.5</ele>
        <time>2015-11-18T12:27:33Z</time>
      </trkpt>
      <trkpt lat="43.65159" lon="3.82532">
        <ele>171.5</ele>
        <time>2015-11-18T12:27:34Z</time>
      </trkpt>
      <trkpt lat="43.65157" lon="3.8253">
        <ele>172</ele>
        <time>2015-11-18T12:27:35Z</time>
      </trkpt>
      <trkpt lat="43.65154" lon="3.8253">
        <ele>171.5</ele>
        <time>2015-11-18T12:27:36Z</time>
      </trkpt>
      <trkpt lat="43.65153" lon="3.82528">
        <ele>171.5</ele>
        <time>2015-11-18T12:27:37Z</time>
      </trkpt>
      <trkpt lat="43.65152" lon="3.82526">
        <ele>171.5</ele>
        <time>2015-11-18T12:27:38Z</time>
      </trkpt>
      <trkpt lat="43.65151" lon="3.82522">
        <ele>170.5</ele>
        <time>2015-11-18T12:27:39Z</time>
      </trkpt>
      <trkpt lat="43.6515" lon="3.82519">
        <ele>171</ele>
        <time>2015-11-18T12:27:40Z</time>
      </trkpt>
      <trkpt lat="43.65149" lon="3.82517">
        <ele>172</ele>
        <time>2015-11-18T12:27:41Z</time>
      </trkpt>
      <trkpt lat="43.65148" lon="3.82516">
        <ele>171.5</ele>
        <time>2015-11-18T12:27:42Z</time>
      </trkpt>
      <trkpt lat="43.65148" lon="3.82512">
        <ele>171.5</ele>
        <time>2015-11-18T12:27:43Z</time>
      </trkpt>
      <trkpt lat="43.65148" lon="3.8251">
        <ele>171</ele>
        <time>2015-11-18T12:27:44Z</time>
      </trkpt>
      <trkpt lat="43.65149" lon="3.82506">
        <ele>171.5</ele>
        <time>2015-11-18T12:27:45Z</time>
      </trkpt>
      <trkpt lat="43.65151" lon="3.82503">
        <ele>171.5</ele>
        <time>2015-11-18T12:27:46Z</time>
      </trkpt>
      <trkpt lat="43.65153" lon="3.825">
        <ele>171.5</ele>
        <time>2015-11-18T12:27:47Z</time>
      </trkpt>
      <trkpt lat="43.65154" lon="3.82496">
        <ele>172</ele>
        <time>2015-11-18T12:27:48Z</time>
      </trkpt>
      <trkpt lat="43.65156" lon="3.82492">
        <ele>173</ele>
        <time>2015-11-18T12:27:49Z</time>
      </trkpt>
      <trkpt lat="43.65157" lon="3.82488">
        <ele>173</ele>
        <time>2015-11-18T12:27:50Z</time>
      </trkpt>
      <trkpt lat="43.65156" lon="3.82482">
        <ele>174</ele>
        <time>2015-11-18T12:27:51Z</time>
      </trkpt>
      <trkpt lat="43.65156" lon="3.82477">
        <ele>175</ele>
        <time>2015-11-18T12:27:52Z</time>
      </trkpt>
      <trkpt lat="43.65156" lon="3.82471">
        <ele>175</ele>
        <time>2015-11-18T12:27:53Z</time>
      </trkpt>
      <trkpt lat="43.65156" lon="3.82467">
        <ele>175.5</ele>
        <time>2015-11-18T12:27:54Z</time>
      </trkpt>
      <trkpt lat="43.65155" lon="3.82462">
        <ele>176.5</ele>
        <time>2015-11-18T12:27:55Z</time>
      </trkpt>
      <trkpt lat="43.65153" lon="3.82458">
        <ele>178</ele>
        <time>2015-11-18T12:27:56Z</time>
      </trkpt>
      <trkpt lat="43.65153" lon="3.82454">
        <ele>178.5</ele>
        <time>2015-11-18T12:27:57Z</time>
      </trkpt>
      <trkpt lat="43.65152" lon="3.8245">
        <ele>178</ele>
        <time>2015-11-18T12:27:58Z</time>
      </trkpt>
      <trkpt lat="43.65152" lon="3.82447">
        <ele>178.5</ele>
        <time>2015-11-18T12:27:59Z</time>
      </trkpt>
      <trkpt lat="43.6515" lon="3.82444">
        <ele>179.5</ele>
        <time>2015-11-18T12:28:00Z</time>
      </trkpt>
      <trkpt lat="43.65149" lon="3.82441">
        <ele>179.5</ele>
        <time>2015-11-18T12:28:01Z</time>
      </trkpt>
      <trkpt lat="43.65148" lon="3.82437">
        <ele>179.5</ele>
        <time>2015-11-18T12:28:01Z</time>
      </trkpt>
      <trkpt lat="43.65147" lon="3.82434">
        <ele>180</ele>
        <time>2015-11-18T12:28:02Z</time>
      </trkpt>
      <trkpt lat="43.65145" lon="3.82431">
        <ele>180.5</ele>
        <time>2015-11-18T12:28:03Z</time>
      </trkpt>
      <trkpt lat="43.65144" lon="3.82428">
        <ele>180.5</ele>
        <time>2015-11-18T12:28:04Z</time>
      </trkpt>
      <trkpt lat="43.65142" lon="3.82425">
        <ele>180.5</ele>
        <time>2015-11-18T12:28:05Z</time>
      </trkpt>
      <trkpt lat="43.65141" lon="3.82422">
        <ele>180.5</ele>
        <time>2015-11-18T12:28:06Z</time>
      </trkpt>
      <trkpt lat="43.6514" lon="3.82419">
        <ele>180.5</ele>
        <time>2015-11-18T12:28:07Z</time>
      </trkpt>
      <trkpt lat="43.65139" lon="3.82416">
        <ele>180.5</ele>
        <time>2015-11-18T12:28:08Z</time>
      </trkpt>
      <trkpt lat="43.65139" lon="3.82413">
        <ele>180</ele>
        <time>2015-11-18T12:28:09Z</time>
      </trkpt>
      <trkpt lat="43.65138" lon="3.82409">
        <ele>179.5</ele>
        <time>2015-11-18T12:28:10Z</time>
      </trkpt>
      <trkpt lat="43.65137" lon="3.82407">
        <ele>179</ele>
        <time>2015-11-18T12:28:11Z</time>
      </trkpt>
      <trkpt lat="43.65136" lon="3.82404">
        <ele>178.5</ele>
        <time>2015-11-18T12:28:12Z</time>
      </trkpt>
      <trkpt lat="43.65135" lon="3.82401">
        <ele>178.5</ele>
        <time>2015-11-18T12:28:13Z</time>
      </trkpt>
      <trkpt lat="43.65133" lon="3.82399">
        <ele>178.5</ele>
        <time>2015-11-18T12:28:14Z</time>
      </trkpt>
      <trkpt lat="43.65132" lon="3.82396">
        <ele>179</ele>
        <time>2015-11-18T12:28:15Z</time>
      </trkpt>
      <trkpt lat="43.6513" lon="3.82394">
        <ele>179</ele>
        <time>2015-11-18T12:28:16Z</time>
      </trkpt>
      <trkpt lat="43.65128" lon="3.82391">
        <ele>179</ele>
        <time>2015-11-18T12:28:17Z</time>
      </trkpt>
      <trkpt lat="43.65126" lon="3.82388">
        <ele>179</ele>
        <time>2015-11-18T12:28:18Z</time>
      </trkpt>
      <trkpt lat="43.65124" lon="3.82386">
        <ele>179</ele>
        <time>2015-11-18T12:28:19Z</time>
      </trkpt>
      <trkpt lat="43.65122" lon="3.82383">
        <ele>179</ele>
        <time>2015-11-18T12:28:20Z</time>
      </trkpt>
      <trkpt lat="43.6512" lon="3.82381">
        <ele>179</ele>
        <time>2015-11-18T12:28:21Z</time>
      </trkpt>
      <trkpt lat="43.65118" lon="3.82379">
        <ele>179</ele>
        <time>2015-11-18T12:28:22Z</time>
      </trkpt>
      <trkpt lat="43.65116" lon="3.82378">
        <ele>179.5</ele>
        <time>2015-11-18T12:28:23Z</time>
      </trkpt>
      <trkpt lat="43.65114" lon="3.82376">
        <ele>179.5</ele>
        <time>2015-11-18T12:28:24Z</time>
      </trkpt>
      <trkpt lat="43.65111" lon="3.82374">
        <ele>179.5</ele>
        <time>2015-11-18T12:28:25Z</time>
      </trkpt>
      <trkpt lat="43.65109" lon="3.82372">
        <ele>179.5</ele>
        <time>2015-11-18T12:28:26Z</time>
      </trkpt>
      <trkpt lat="43.65105" lon="3.82372">
        <ele>181</ele>
        <time>2015-11-18T12:28:27Z</time>
      </trkpt>
      <trkpt lat="43.65102" lon="3.82371">
        <ele>181.5</ele>
        <time>2015-11-18T12:28:28Z</time>
      </trkpt>
      <trkpt lat="43.65098" lon="3.82369">
        <ele>181</ele>
        <time>2015-11-18T12:28:29Z</time>
      </trkpt>
      <trkpt lat="43.65095" lon="3.82366">
        <ele>180.5</ele>
        <time>2015-11-18T12:28:30Z</time>
      </trkpt>
      <trkpt lat="43.65092" lon="3.82367">
        <ele>179</ele>
        <time>2015-11-18T12:28:31Z</time>
      </trkpt>
      <trkpt lat="43.65088" lon="3.82368">
        <ele>179</ele>
        <time>2015-11-18T12:28:32Z</time>
      </trkpt>
      <trkpt lat="43.65084" lon="3.82366">
        <ele>178.5</ele>
        <time>2015-11-18T12:28:33Z</time>
      </trkpt>
      <trkpt lat="43.65082" lon="3.82364">
        <ele>179</ele>
        <time>2015-11-18T12:28:34Z</time>
      </trkpt>
      <trkpt lat="43.65079" lon="3.82366">
        <ele>180.5</ele>
        <time>2015-11-18T12:28:35Z</time>
      </trkpt>
      <trkpt lat="43.6508" lon="3.82363">
        <ele>181</ele>
        <time>2015-11-18T12:28:36Z</time>
      </trkpt>
      <trkpt lat="43.65081" lon="3.8236">
        <ele>180.5</ele>
        <time>2015-11-18T12:28:37Z</time>
      </trkpt>
      <trkpt lat="43.65082" lon="3.82355">
        <ele>179.5</ele>
        <time>2015-11-18T12:28:38Z</time>
      </trkpt>
      <trkpt lat="43.65082" lon="3.82347">
        <ele>178</ele>
        <time>2015-11-18T12:28:39Z</time>
      </trkpt>
      <trkpt lat="43.65081" lon="3.8234">
        <ele>178</ele>
        <time>2015-11-18T12:28:40Z</time>
      </trkpt>
      <trkpt lat="43.65082" lon="3.82334">
        <ele>177</ele>
        <time>2015-11-18T12:28:41Z</time>
      </trkpt>
      <trkpt lat="43.65083" lon="3.82329">
        <ele>175</ele>
        <time>2015-11-18T12:28:42Z</time>
      </trkpt>
      <trkpt lat="43.65083" lon="3.82325">
        <ele>174</ele>
        <time>2015-11-18T12:28:43Z</time>
      </trkpt>
      <trkpt lat="43.65082" lon="3.82321">
        <ele>173</ele>
        <time>2015-11-18T12:28:44Z</time>
      </trkpt>
      <trkpt lat="43.65082" lon="3.82318">
        <ele>172.5</ele>
        <time>2015-11-18T12:28:45Z</time>
      </trkpt>
      <trkpt lat="43.65082" lon="3.82315">
        <ele>172</ele>
        <time>2015-11-18T12:28:46Z</time>
      </trkpt>
      <trkpt lat="43.65084" lon="3.82311">
        <ele>170.5</ele>
        <time>2015-11-18T12:28:47Z</time>
      </trkpt>
      <trkpt lat="43.65085" lon="3.82307">
        <ele>169</ele>
        <time>2015-11-18T12:28:48Z</time>
      </trkpt>
      <trkpt lat="43.65087" lon="3.82302">
        <ele>167.5</ele>
        <time>2015-11-18T12:28:49Z</time>
      </trkpt>
      <trkpt lat="43.65088" lon="3.82298">
        <ele>166</ele>
        <time>2015-11-18T12:28:50Z</time>
      </trkpt>
      <trkpt lat="43.65094" lon="3.82283">
        <ele>159.5</ele>
        <time>2015-11-18T12:28:52Z</time>
      </trkpt>
      <trkpt lat="43.65097" lon="3.82275">
        <ele>156</ele>
        <time>2015-11-18T12:28:53Z</time>
      </trkpt>
      <trkpt lat="43.65099" lon="3.82268">
        <ele>154.5</ele>
        <time>2015-11-18T12:28:54Z</time>
      </trkpt>
      <trkpt lat="43.65101" lon="3.82263">
        <ele>151</ele>
        <time>2015-11-18T12:28:56Z</time>
      </trkpt>
      <trkpt lat="43.65099" lon="3.82262">
        <ele>152</ele>
        <time>2015-11-18T12:28:57Z</time>
      </trkpt>
      <trkpt lat="43.65097" lon="3.82261">
        <ele>152</ele>
        <time>2015-11-18T12:28:58Z</time>
      </trkpt>
      <trkpt lat="43.65095" lon="3.8226">
        <ele>152</ele>
        <time>2015-11-18T12:28:59Z</time>
      </trkpt>
      <trkpt lat="43.65093" lon="3.8226">
        <ele>151.5</ele>
        <time>2015-11-18T12:29:00Z</time>
      </trkpt>
      <trkpt lat="43.65091" lon="3.8226">
        <ele>151.5</ele>
        <time>2015-11-18T12:29:01Z</time>
      </trkpt>
      <trkpt lat="43.65089" lon="3.8226">
        <ele>151.5</ele>
        <time>2015-11-18T12:29:02Z</time>
      </trkpt>
      <trkpt lat="43.65086" lon="3.8226">
        <ele>151.5</ele>
        <time>2015-11-18T12:29:03Z</time>
      </trkpt>
      <trkpt lat="43.65082" lon="3.82261">
        <ele>151.5</ele>
        <time>2015-11-18T12:29:04Z</time>
      </trkpt>
      <trkpt lat="43.6508" lon="3.82261">
        <ele>151</ele>
        <time>2015-11-18T12:29:05Z</time>
      </trkpt>
      <trkpt lat="43.65077" lon="3.8226">
        <ele>150.5</ele>
        <time>2015-11-18T12:29:06Z</time>
      </trkpt>
      <trkpt lat="43.65075" lon="3.82257">
        <ele>150</ele>
        <time>2015-11-18T12:29:07Z</time>
      </trkpt>
      <trkpt lat="43.65071" lon="3.82255">
        <ele>150</ele>
        <time>2015-11-18T12:29:08Z</time>
      </trkpt>
      <trkpt lat="43.65066" lon="3.82256">
        <ele>150</ele>
        <time>2015-11-18T12:29:09Z</time>
      </trkpt>
      <trkpt lat="43.65062" lon="3.82258">
        <ele>150</ele>
        <time>2015-11-18T12:29:10Z</time>
      </trkpt>
      <trkpt lat="43.65057" lon="3.8226">
        <ele>150</ele>
        <time>2015-11-18T12:29:11Z</time>
      </trkpt>
      <trkpt lat="43.65054" lon="3.82261">
        <ele>150</ele>
        <time>2015-11-18T12:29:12Z</time>
      </trkpt>
      <trkpt lat="43.6505" lon="3.82263">
        <ele>150</ele>
        <time>2015-11-18T12:29:13Z</time>
      </trkpt>
      <trkpt lat="43.65048" lon="3.82263">
        <ele>149.5</ele>
        <time>2015-11-18T12:29:14Z</time>
      </trkpt>
      <trkpt lat="43.65045" lon="3.82262">
        <ele>149.5</ele>
        <time>2015-11-18T12:29:15Z</time>
      </trkpt>
      <trkpt lat="43.65041" lon="3.82265">
        <ele>148</ele>
        <time>2015-11-18T12:29:16Z</time>
      </trkpt>
      <trkpt lat="43.65038" lon="3.82265">
        <ele>148.5</ele>
        <time>2015-11-18T12:29:17Z</time>
      </trkpt>
      <trkpt lat="43.65036" lon="3.82264">
        <ele>149</ele>
        <time>2015-11-18T12:29:18Z</time>
      </trkpt>
      <trkpt lat="43.65033" lon="3.82263">
        <ele>149.5</ele>
        <time>2015-11-18T12:29:19Z</time>
      </trkpt>
      <trkpt lat="43.65031" lon="3.82263">
        <ele>150</ele>
        <time>2015-11-18T12:29:20Z</time>
      </trkpt>
      <trkpt lat="43.65029" lon="3.82262">
        <ele>150.5</ele>
        <time>2015-11-18T12:29:21Z</time>
      </trkpt>
      <trkpt lat="43.65027" lon="3.82262">
        <ele>150.5</ele>
        <time>2015-11-18T12:29:22Z</time>
      </trkpt>
      <trkpt lat="43.65025" lon="3.82263">
        <ele>151.5</ele>
        <time>2015-11-18T12:29:23Z</time>
      </trkpt>
      <trkpt lat="43.65023" lon="3.82262">
        <ele>151.5</ele>
        <time>2015-11-18T12:29:24Z</time>
      </trkpt>
      <trkpt lat="43.65021" lon="3.82263">
        <ele>151.5</ele>
        <time>2015-11-18T12:29:25Z</time>
      </trkpt>
      <trkpt lat="43.65019" lon="3.82263">
        <ele>151</ele>
        <time>2015-11-18T12:29:26Z</time>
      </trkpt>
      <trkpt lat="43.65017" lon="3.82262">
        <ele>150.5</ele>
        <time>2015-11-18T12:29:27Z</time>
      </trkpt>
      <trkpt lat="43.65015" lon="3.82261">
        <ele>150.5</ele>
        <time>2015-11-18T12:29:28Z</time>
      </trkpt>
      <trkpt lat="43.65013" lon="3.82258">
        <ele>150</ele>
        <time>2015-11-18T12:29:29Z</time>
      </trkpt>
      <trkpt lat="43.65013" lon="3.82254">
        <ele>149</ele>
        <time>2015-11-18T12:29:30Z</time>
      </trkpt>
      <trkpt lat="43.65012" lon="3.82248">
        <ele>147.5</ele>
        <time>2015-11-18T12:29:31Z</time>
      </trkpt>
      <trkpt lat="43.65006" lon="3.82237">
        <ele>146.5</ele>
        <time>2015-11-18T12:29:33Z</time>
      </trkpt>
      <trkpt lat="43.65005" lon="3.8223">
        <ele>145.5</ele>
        <time>2015-11-18T12:29:34Z</time>
      </trkpt>
      <trkpt lat="43.65004" lon="3.82224">
        <ele>144.5</ele>
        <time>2015-11-18T12:29:35Z</time>
      </trkpt>
      <trkpt lat="43.65002" lon="3.82219">
        <ele>144</ele>
        <time>2015-11-18T12:29:36Z</time>
      </trkpt>
      <trkpt lat="43.64999" lon="3.82216">
        <ele>142.5</ele>
        <time>2015-11-18T12:29:37Z</time>
      </trkpt>
      <trkpt lat="43.64995" lon="3.82212">
        <ele>142</ele>
        <time>2015-11-18T12:29:38Z</time>
      </trkpt>
      <trkpt lat="43.64991" lon="3.8221">
        <ele>141.5</ele>
        <time>2015-11-18T12:29:39Z</time>
      </trkpt>
      <trkpt lat="43.64986" lon="3.82208">
        <ele>141</ele>
        <time>2015-11-18T12:29:40Z</time>
      </trkpt>
      <trkpt lat="43.64981" lon="3.82206">
        <ele>141</ele>
        <time>2015-11-18T12:29:41Z</time>
      </trkpt>
      <trkpt lat="43.64978" lon="3.822">
        <ele>140.5</ele>
        <time>2015-11-18T12:29:42Z</time>
      </trkpt>
      <trkpt lat="43.64974" lon="3.82195">
        <ele>139.5</ele>
        <time>2015-11-18T12:29:43Z</time>
      </trkpt>
      <trkpt lat="43.64972" lon="3.8219">
        <ele>139</ele>
        <time>2015-11-18T12:29:44Z</time>
      </trkpt>
      <trkpt lat="43.6497" lon="3.82188">
        <ele>138.5</ele>
        <time>2015-11-18T12:29:45Z</time>
      </trkpt>
      <trkpt lat="43.64968" lon="3.82187">
        <ele>138.5</ele>
        <time>2015-11-18T12:29:46Z</time>
      </trkpt>
      <trkpt lat="43.64966" lon="3.82189">
        <ele>139</ele>
        <time>2015-11-18T12:29:47Z</time>
      </trkpt>
      <trkpt lat="43.64964" lon="3.82191">
        <ele>139</ele>
        <time>2015-11-18T12:29:48Z</time>
      </trkpt>
      <trkpt lat="43.64962" lon="3.82193">
        <ele>138.5</ele>
        <time>2015-11-18T12:29:49Z</time>
      </trkpt>
      <trkpt lat="43.6496" lon="3.82195">
        <ele>138.5</ele>
        <time>2015-11-18T12:29:50Z</time>
      </trkpt>
      <trkpt lat="43.64958" lon="3.82196">
        <ele>138.5</ele>
        <time>2015-11-18T12:29:51Z</time>
      </trkpt>
      <trkpt lat="43.64955" lon="3.82198">
        <ele>138.5</ele>
        <time>2015-11-18T12:29:52Z</time>
      </trkpt>
      <trkpt lat="43.64953" lon="3.82199">
        <ele>138.5</ele>
        <time>2015-11-18T12:29:53Z</time>
      </trkpt>
      <trkpt lat="43.6495" lon="3.82201">
        <ele>138</ele>
        <time>2015-11-18T12:29:54Z</time>
      </trkpt>
      <trkpt lat="43.64947" lon="3.82203">
        <ele>138</ele>
        <time>2015-11-18T12:29:55Z</time>
      </trkpt>
      <trkpt lat="43.64944" lon="3.82205">
        <ele>138</ele>
        <time>2015-11-18T12:29:56Z</time>
      </trkpt>
      <trkpt lat="43.64941" lon="3.82207">
        <ele>137</ele>
        <time>2015-11-18T12:29:57Z</time>
      </trkpt>
      <trkpt lat="43.64939" lon="3.82209">
        <ele>137.5</ele>
        <time>2015-11-18T12:29:58Z</time>
      </trkpt>
      <trkpt lat="43.64936" lon="3.82211">
        <ele>137.5</ele>
        <time>2015-11-18T12:29:59Z</time>
      </trkpt>
      <trkpt lat="43.64933" lon="3.82213">
        <ele>137</ele>
        <time>2015-11-18T12:30:00Z</time>
      </trkpt>
      <trkpt lat="43.6493" lon="3.82215">
        <ele>136.5</ele>
        <time>2015-11-18T12:30:01Z</time>
      </trkpt>
      <trkpt lat="43.64927" lon="3.82216">
        <ele>136.5</ele>
        <time>2015-11-18T12:30:02Z</time>
      </trkpt>
      <trkpt lat="43.64925" lon="3.82218">
        <ele>136</ele>
        <time>2015-11-18T12:30:03Z</time>
      </trkpt>
      <trkpt lat="43.64921" lon="3.8222">
        <ele>136</ele>
        <time>2015-11-18T12:30:04Z</time>
      </trkpt>
      <trkpt lat="43.64918" lon="3.82222">
        <ele>136</ele>
        <time>2015-11-18T12:30:05Z</time>
      </trkpt>
      <trkpt lat="43.64915" lon="3.82225">
        <ele>135.5</ele>
        <time>2015-11-18T12:30:06Z</time>
      </trkpt>
      <trkpt lat="43.64911" lon="3.82227">
        <ele>136</ele>
        <time>2015-11-18T12:30:07Z</time>
      </trkpt>
      <trkpt lat="43.64908" lon="3.82229">
        <ele>135.5</ele>
        <time>2015-11-18T12:30:08Z</time>
      </trkpt>
      <trkpt lat="43.64905" lon="3.82232">
        <ele>135.5</ele>
        <time>2015-11-18T12:30:09Z</time>
      </trkpt>
      <trkpt lat="43.64902" lon="3.82234">
        <ele>136</ele>
        <time>2015-11-18T12:30:10Z</time>
      </trkpt>
      <trkpt lat="43.64899" lon="3.82236">
        <ele>136</ele>
        <time>2015-11-18T12:30:11Z</time>
      </trkpt>
      <trkpt lat="43.64896" lon="3.82239">
        <ele>136</ele>
        <time>2015-11-18T12:30:12Z</time>
      </trkpt>
      <trkpt lat="43.64893" lon="3.82241">
        <ele>136</ele>
        <time>2015-11-18T12:30:13Z</time>
      </trkpt>
      <trkpt lat="43.6489" lon="3.82243">
        <ele>136</ele>
        <time>2015-11-18T12:30:14Z</time>
      </trkpt>
      <trkpt lat="43.64887" lon="3.82246">
        <ele>136.5</ele>
        <time>2015-11-18T12:30:15Z</time>
      </trkpt>
      <trkpt lat="43.64884" lon="3.82249">
        <ele>136.5</ele>
        <time>2015-11-18T12:30:16Z</time>
      </trkpt>
      <trkpt lat="43.64881" lon="3.82252">
        <ele>137</ele>
        <time>2015-11-18T12:30:17Z</time>
      </trkpt>
      <trkpt lat="43.64879" lon="3.82254">
        <ele>136.5</ele>
        <time>2015-11-18T12:30:18Z</time>
      </trkpt>
      <trkpt lat="43.64876" lon="3.82257">
        <ele>136.5</ele>
        <time>2015-11-18T12:30:19Z</time>
      </trkpt>
      <trkpt lat="43.64876" lon="3.82261">
        <ele>137</ele>
        <time>2015-11-18T12:30:20Z</time>
      </trkpt>
      <trkpt lat="43.64873" lon="3.82264">
        <ele>136.5</ele>
        <time>2015-11-18T12:30:21Z</time>
      </trkpt>
      <trkpt lat="43.6487" lon="3.82267">
        <ele>136</ele>
        <time>2015-11-18T12:30:22Z</time>
      </trkpt>
      <trkpt lat="43.64867" lon="3.82269">
        <ele>136</ele>
        <time>2015-11-18T12:30:23Z</time>
      </trkpt>
      <trkpt lat="43.64865" lon="3.82272">
        <ele>135.5</ele>
        <time>2015-11-18T12:30:24Z</time>
      </trkpt>
      <trkpt lat="43.64863" lon="3.82274">
        <ele>134</ele>
        <time>2015-11-18T12:30:25Z</time>
      </trkpt>
      <trkpt lat="43.6486" lon="3.82276">
        <ele>133.5</ele>
        <time>2015-11-18T12:30:26Z</time>
      </trkpt>
      <trkpt lat="43.64857" lon="3.82277">
        <ele>133.5</ele>
        <time>2015-11-18T12:30:27Z</time>
      </trkpt>
      <trkpt lat="43.64854" lon="3.82279">
        <ele>133</ele>
        <time>2015-11-18T12:30:28Z</time>
      </trkpt>
      <trkpt lat="43.64851" lon="3.8228">
        <ele>133</ele>
        <time>2015-11-18T12:30:29Z</time>
      </trkpt>
      <trkpt lat="43.64848" lon="3.82282">
        <ele>133</ele>
        <time>2015-11-18T12:30:30Z</time>
      </trkpt>
      <trkpt lat="43.64844" lon="3.82283">
        <ele>133</ele>
        <time>2015-11-18T12:30:31Z</time>
      </trkpt>
      <trkpt lat="43.6484" lon="3.82285">
        <ele>134</ele>
        <time>2015-11-18T12:30:32Z</time>
      </trkpt>
      <trkpt lat="43.64837" lon="3.82286">
        <ele>133</ele>
        <time>2015-11-18T12:30:33Z</time>
      </trkpt>
      <trkpt lat="43.64833" lon="3.82287">
        <ele>134</ele>
        <time>2015-11-18T12:30:34Z</time>
      </trkpt>
      <trkpt lat="43.6483" lon="3.82288">
        <ele>134</ele>
        <time>2015-11-18T12:30:35Z</time>
      </trkpt>
      <trkpt lat="43.64826" lon="3.82289">
        <ele>134</ele>
        <time>2015-11-18T12:30:36Z</time>
      </trkpt>
      <trkpt lat="43.64823" lon="3.82291">
        <ele>134</ele>
        <time>2015-11-18T12:30:37Z</time>
      </trkpt>
      <trkpt lat="43.64819" lon="3.82292">
        <ele>134.5</ele>
        <time>2015-11-18T12:30:38Z</time>
      </trkpt>
      <trkpt lat="43.64815" lon="3.82294">
        <ele>134</ele>
        <time>2015-11-18T12:30:39Z</time>
      </trkpt>
      <trkpt lat="43.64811" lon="3.82296">
        <ele>134</ele>
        <time>2015-11-18T12:30:40Z</time>
      </trkpt>
      <trkpt lat="43.64807" lon="3.82298">
        <ele>134.5</ele>
        <time>2015-11-18T12:30:41Z</time>
      </trkpt>
      <trkpt lat="43.64804" lon="3.823">
        <ele>135</ele>
        <time>2015-11-18T12:30:42Z</time>
      </trkpt>
      <trkpt lat="43.64801" lon="3.82303">
        <ele>135.5</ele>
        <time>2015-11-18T12:30:43Z</time>
      </trkpt>
      <trkpt lat="43.64798" lon="3.82305">
        <ele>136</ele>
        <time>2015-11-18T12:30:44Z</time>
      </trkpt>
      <trkpt lat="43.64794" lon="3.82307">
        <ele>136.5</ele>
        <time>2015-11-18T12:30:45Z</time>
      </trkpt>
      <trkpt lat="43.64791" lon="3.82309">
        <ele>137</ele>
        <time>2015-11-18T12:30:46Z</time>
      </trkpt>
      <trkpt lat="43.64788" lon="3.82311">
        <ele>138</ele>
        <time>2015-11-18T12:30:47Z</time>
      </trkpt>
      <trkpt lat="43.64784" lon="3.82312">
        <ele>138</ele>
        <time>2015-11-18T12:30:48Z</time>
      </trkpt>
      <trkpt lat="43.64781" lon="3.82313">
        <ele>139</ele>
        <time>2015-11-18T12:30:49Z</time>
      </trkpt>
      <trkpt lat="43.64778" lon="3.82315">
        <ele>139</ele>
        <time>2015-11-18T12:30:50Z</time>
      </trkpt>
      <trkpt lat="43.64774" lon="3.82315">
        <ele>139</ele>
        <time>2015-11-18T12:30:51Z</time>
      </trkpt>
      <trkpt lat="43.64771" lon="3.82316">
        <ele>139</ele>
        <time>2015-11-18T12:30:52Z</time>
      </trkpt>
      <trkpt lat="43.64768" lon="3.82317">
        <ele>139</ele>
        <time>2015-11-18T12:30:53Z</time>
      </trkpt>
      <trkpt lat="43.64764" lon="3.82319">
        <ele>139</ele>
        <time>2015-11-18T12:30:54Z</time>
      </trkpt>
      <trkpt lat="43.64761" lon="3.8232">
        <ele>139</ele>
        <time>2015-11-18T12:30:55Z</time>
      </trkpt>
      <trkpt lat="43.64757" lon="3.8232">
        <ele>139</ele>
        <time>2015-11-18T12:30:56Z</time>
      </trkpt>
      <trkpt lat="43.64753" lon="3.82322">
        <ele>138.5</ele>
        <time>2015-11-18T12:30:57Z</time>
      </trkpt>
      <trkpt lat="43.6475" lon="3.82323">
        <ele>138.5</ele>
        <time>2015-11-18T12:30:58Z</time>
      </trkpt>
      <trkpt lat="43.64747" lon="3.82324">
        <ele>138.5</ele>
        <time>2015-11-18T12:30:59Z</time>
      </trkpt>
      <trkpt lat="43.64743" lon="3.82326">
        <ele>139</ele>
        <time>2015-11-18T12:31:00Z</time>
      </trkpt>
      <trkpt lat="43.6474" lon="3.82327">
        <ele>139</ele>
        <time>2015-11-18T12:31:01Z</time>
      </trkpt>
      <trkpt lat="43.64737" lon="3.82327">
        <ele>140.5</ele>
        <time>2015-11-18T12:31:02Z</time>
      </trkpt>
      <trkpt lat="43.64734" lon="3.82328">
        <ele>141</ele>
        <time>2015-11-18T12:31:03Z</time>
      </trkpt>
      <trkpt lat="43.64731" lon="3.82329">
        <ele>141.5</ele>
        <time>2015-11-18T12:31:04Z</time>
      </trkpt>
      <trkpt lat="43.64727" lon="3.8233">
        <ele>142</ele>
        <time>2015-11-18T12:31:05Z</time>
      </trkpt>
      <trkpt lat="43.64724" lon="3.8233">
        <ele>141.5</ele>
        <time>2015-11-18T12:31:06Z</time>
      </trkpt>
      <trkpt lat="43.64721" lon="3.8233">
        <ele>141.5</ele>
        <time>2015-11-18T12:31:07Z</time>
      </trkpt>
      <trkpt lat="43.64717" lon="3.82331">
        <ele>141</ele>
        <time>2015-11-18T12:31:08Z</time>
      </trkpt>
      <trkpt lat="43.64714" lon="3.82331">
        <ele>141.5</ele>
        <time>2015-11-18T12:31:09Z</time>
      </trkpt>
      <trkpt lat="43.64711" lon="3.82331">
        <ele>141</ele>
        <time>2015-11-18T12:31:10Z</time>
      </trkpt>
      <trkpt lat="43.64707" lon="3.82331">
        <ele>142</ele>
        <time>2015-11-18T12:31:11Z</time>
      </trkpt>
      <trkpt lat="43.64703" lon="3.82331">
        <ele>142.5</ele>
        <time>2015-11-18T12:31:12Z</time>
      </trkpt>
      <trkpt lat="43.647" lon="3.82329">
        <ele>141</ele>
        <time>2015-11-18T12:31:13Z</time>
      </trkpt>
      <trkpt lat="43.64697" lon="3.82327">
        <ele>141</ele>
        <time>2015-11-18T12:31:14Z</time>
      </trkpt>
      <trkpt lat="43.64693" lon="3.82325">
        <ele>141</ele>
        <time>2015-11-18T12:31:15Z</time>
      </trkpt>
      <trkpt lat="43.6469" lon="3.82323">
        <ele>142</ele>
        <time>2015-11-18T12:31:16Z</time>
      </trkpt>
      <trkpt lat="43.64687" lon="3.82319">
        <ele>142.5</ele>
        <time>2015-11-18T12:31:17Z</time>
      </trkpt>
      <trkpt lat="43.64684" lon="3.82317">
        <ele>142.5</ele>
        <time>2015-11-18T12:31:18Z</time>
      </trkpt>
      <trkpt lat="43.64681" lon="3.82316">
        <ele>143</ele>
        <time>2015-11-18T12:31:18Z</time>
      </trkpt>
      <trkpt lat="43.64678" lon="3.82315">
        <ele>142.5</ele>
        <time>2015-11-18T12:31:19Z</time>
      </trkpt>
      <trkpt lat="43.64675" lon="3.82314">
        <ele>142.5</ele>
        <time>2015-11-18T12:31:21Z</time>
      </trkpt>
      <trkpt lat="43.64672" lon="3.82315">
        <ele>143</ele>
        <time>2015-11-18T12:31:21Z</time>
      </trkpt>
      <trkpt lat="43.64668" lon="3.82315">
        <ele>143.5</ele>
        <time>2015-11-18T12:31:23Z</time>
      </trkpt>
      <trkpt lat="43.64665" lon="3.82317">
        <ele>143.5</ele>
        <time>2015-11-18T12:31:23Z</time>
      </trkpt>
      <trkpt lat="43.64662" lon="3.82318">
        <ele>144</ele>
        <time>2015-11-18T12:31:24Z</time>
      </trkpt>
      <trkpt lat="43.6466" lon="3.82319">
        <ele>143</ele>
        <time>2015-11-18T12:31:25Z</time>
      </trkpt>
      <trkpt lat="43.64657" lon="3.8232">
        <ele>143.5</ele>
        <time>2015-11-18T12:31:26Z</time>
      </trkpt>
      <trkpt lat="43.64655" lon="3.82321">
        <ele>144</ele>
        <time>2015-11-18T12:31:28Z</time>
      </trkpt>
      <trkpt lat="43.64653" lon="3.82323">
        <ele>145</ele>
        <time>2015-11-18T12:31:28Z</time>
      </trkpt>
      <trkpt lat="43.6465" lon="3.82324">
        <ele>145.5</ele>
        <time>2015-11-18T12:31:29Z</time>
      </trkpt>
      <trkpt lat="43.64647" lon="3.82325">
        <ele>147</ele>
        <time>2015-11-18T12:31:30Z</time>
      </trkpt>
      <trkpt lat="43.64645" lon="3.82325">
        <ele>147</ele>
        <time>2015-11-18T12:31:31Z</time>
      </trkpt>
      <trkpt lat="43.64643" lon="3.82324">
        <ele>145.5</ele>
        <time>2015-11-18T12:31:32Z</time>
      </trkpt>
      <trkpt lat="43.6464" lon="3.82324">
        <ele>145.5</ele>
        <time>2015-11-18T12:31:34Z</time>
      </trkpt>
      <trkpt lat="43.64637" lon="3.82325">
        <ele>146.5</ele>
        <time>2015-11-18T12:31:34Z</time>
      </trkpt>
      <trkpt lat="43.64634" lon="3.82325">
        <ele>147.5</ele>
        <time>2015-11-18T12:31:35Z</time>
      </trkpt>
      <trkpt lat="43.64631" lon="3.82325">
        <ele>147.5</ele>
        <time>2015-11-18T12:31:36Z</time>
      </trkpt>
      <trkpt lat="43.64628" lon="3.82325">
        <ele>148.5</ele>
        <time>2015-11-18T12:31:37Z</time>
      </trkpt>
      <trkpt lat="43.64625" lon="3.82326">
        <ele>149</ele>
        <time>2015-11-18T12:31:38Z</time>
      </trkpt>
      <trkpt lat="43.64622" lon="3.82327">
        <ele>149.5</ele>
        <time>2015-11-18T12:31:39Z</time>
      </trkpt>
      <trkpt lat="43.64619" lon="3.82327">
        <ele>150.5</ele>
        <time>2015-11-18T12:31:40Z</time>
      </trkpt>
      <trkpt lat="43.64616" lon="3.82326">
        <ele>151</ele>
        <time>2015-11-18T12:31:41Z</time>
      </trkpt>
      <trkpt lat="43.64613" lon="3.82326">
        <ele>151</ele>
        <time>2015-11-18T12:31:42Z</time>
      </trkpt>
      <trkpt lat="43.6461" lon="3.82326">
        <ele>151.5</ele>
        <time>2015-11-18T12:31:44Z</time>
      </trkpt>
      <trkpt lat="43.64607" lon="3.82325">
        <ele>152</ele>
        <time>2015-11-18T12:31:44Z</time>
      </trkpt>
      <trkpt lat="43.64605" lon="3.82325">
        <ele>152</ele>
        <time>2015-11-18T12:31:45Z</time>
      </trkpt>
      <trkpt lat="43.64602" lon="3.82324">
        <ele>152.5</ele>
        <time>2015-11-18T12:31:46Z</time>
      </trkpt>
      <trkpt lat="43.64599" lon="3.82324">
        <ele>152.5</ele>
        <time>2015-11-18T12:31:48Z</time>
      </trkpt>
      <trkpt lat="43.64596" lon="3.82324">
        <ele>153</ele>
        <time>2015-11-18T12:31:48Z</time>
      </trkpt>
      <trkpt lat="43.64593" lon="3.82324">
        <ele>153.5</ele>
        <time>2015-11-18T12:31:49Z</time>
      </trkpt>
      <trkpt lat="43.6459" lon="3.82323">
        <ele>153.5</ele>
        <time>2015-11-18T12:31:50Z</time>
      </trkpt>
      <trkpt lat="43.64586" lon="3.82324">
        <ele>154</ele>
        <time>2015-11-18T12:31:51Z</time>
      </trkpt>
      <trkpt lat="43.64583" lon="3.82323">
        <ele>154.5</ele>
        <time>2015-11-18T12:31:52Z</time>
      </trkpt>
      <trkpt lat="43.6458" lon="3.82323">
        <ele>155</ele>
        <time>2015-11-18T12:31:53Z</time>
      </trkpt>
      <trkpt lat="43.64577" lon="3.82322">
        <ele>155</ele>
        <time>2015-11-18T12:31:54Z</time>
      </trkpt>
      <trkpt lat="43.64574" lon="3.82321">
        <ele>155.5</ele>
        <time>2015-11-18T12:31:55Z</time>
      </trkpt>
      <trkpt lat="43.64572" lon="3.82321">
        <ele>155.5</ele>
        <time>2015-11-18T12:31:56Z</time>
      </trkpt>
      <trkpt lat="43.64569" lon="3.82319">
        <ele>155.5</ele>
        <time>2015-11-18T12:31:57Z</time>
      </trkpt>
      <trkpt lat="43.64566" lon="3.82318">
        <ele>155.5</ele>
        <time>2015-11-18T12:31:58Z</time>
      </trkpt>
      <trkpt lat="43.64563" lon="3.82317">
        <ele>155.5</ele>
        <time>2015-11-18T12:31:59Z</time>
      </trkpt>
      <trkpt lat="43.6456" lon="3.82316">
        <ele>155.5</ele>
        <time>2015-11-18T12:32:00Z</time>
      </trkpt>
      <trkpt lat="43.64558" lon="3.82315">
        <ele>155.5</ele>
        <time>2015-11-18T12:32:01Z</time>
      </trkpt>
      <trkpt lat="43.64555" lon="3.82314">
        <ele>155.5</ele>
        <time>2015-11-18T12:32:02Z</time>
      </trkpt>
      <trkpt lat="43.64552" lon="3.82313">
        <ele>155.5</ele>
        <time>2015-11-18T12:32:03Z</time>
      </trkpt>
      <trkpt lat="43.64549" lon="3.82312">
        <ele>155.5</ele>
        <time>2015-11-18T12:32:04Z</time>
      </trkpt>
      <trkpt lat="43.64545" lon="3.82312">
        <ele>156</ele>
        <time>2015-11-18T12:32:06Z</time>
      </trkpt>
      <trkpt lat="43.64542" lon="3.82312">
        <ele>156</ele>
        <time>2015-11-18T12:32:06Z</time>
      </trkpt>
      <trkpt lat="43.64539" lon="3.82312">
        <ele>156</ele>
        <time>2015-11-18T12:32:07Z</time>
      </trkpt>
      <trkpt lat="43.64535" lon="3.82311">
        <ele>156</ele>
        <time>2015-11-18T12:32:08Z</time>
      </trkpt>
      <trkpt lat="43.64532" lon="3.8231">
        <ele>156</ele>
        <time>2015-11-18T12:32:09Z</time>
      </trkpt>
      <trkpt lat="43.64527" lon="3.8231">
        <ele>156</ele>
        <time>2015-11-18T12:32:10Z</time>
      </trkpt>
      <trkpt lat="43.64524" lon="3.82308">
        <ele>155.5</ele>
        <time>2015-11-18T12:32:11Z</time>
      </trkpt>
      <trkpt lat="43.6452" lon="3.82308">
        <ele>156</ele>
        <time>2015-11-18T12:32:12Z</time>
      </trkpt>
      <trkpt lat="43.64516" lon="3.82307">
        <ele>156</ele>
        <time>2015-11-18T12:32:14Z</time>
      </trkpt>
      <trkpt lat="43.64512" lon="3.82307">
        <ele>156.5</ele>
        <time>2015-11-18T12:32:14Z</time>
      </trkpt>
      <trkpt lat="43.64509" lon="3.82306">
        <ele>157</ele>
        <time>2015-11-18T12:32:15Z</time>
      </trkpt>
      <trkpt lat="43.64504" lon="3.82305">
        <ele>157.5</ele>
        <time>2015-11-18T12:32:16Z</time>
      </trkpt>
      <trkpt lat="43.64501" lon="3.82304">
        <ele>158</ele>
        <time>2015-11-18T12:32:17Z</time>
      </trkpt>
      <trkpt lat="43.64492" lon="3.82296">
        <ele>157.5</ele>
        <time>2015-11-18T12:32:19Z</time>
      </trkpt>
      <trkpt lat="43.64486" lon="3.82293">
        <ele>157.5</ele>
        <time>2015-11-18T12:32:20Z</time>
      </trkpt>
      <trkpt lat="43.64481" lon="3.82291">
        <ele>155</ele>
        <time>2015-11-18T12:32:21Z</time>
      </trkpt>
      <trkpt lat="43.64476" lon="3.82294">
        <ele>155</ele>
        <time>2015-11-18T12:32:22Z</time>
      </trkpt>
      <trkpt lat="43.64473" lon="3.82299">
        <ele>154.5</ele>
        <time>2015-11-18T12:32:23Z</time>
      </trkpt>
      <trkpt lat="43.6447" lon="3.823">
        <ele>154.5</ele>
        <time>2015-11-18T12:32:25Z</time>
      </trkpt>
      <trkpt lat="43.64469" lon="3.823">
        <ele>154.5</ele>
        <time>2015-11-18T12:32:26Z</time>
      </trkpt>
      <trkpt lat="43.64468" lon="3.823">
        <ele>154</ele>
        <time>2015-11-18T12:32:27Z</time>
      </trkpt>
      <trkpt lat="43.64467" lon="3.82299">
        <ele>154</ele>
        <time>2015-11-18T12:32:28Z</time>
      </trkpt>
      <trkpt lat="43.64466" lon="3.82297">
        <ele>154</ele>
        <time>2015-11-18T12:32:29Z</time>
      </trkpt>
      <trkpt lat="43.64465" lon="3.82294">
        <ele>154</ele>
        <time>2015-11-18T12:32:30Z</time>
      </trkpt>
      <trkpt lat="43.64464" lon="3.82292">
        <ele>154</ele>
        <time>2015-11-18T12:32:31Z</time>
      </trkpt>
      <trkpt lat="43.64463" lon="3.82288">
        <ele>154</ele>
        <time>2015-11-18T12:32:32Z</time>
      </trkpt>
      <trkpt lat="43.64461" lon="3.82285">
        <ele>154</ele>
        <time>2015-11-18T12:32:33Z</time>
      </trkpt>
      <trkpt lat="43.64453" lon="3.82278">
        <ele>152</ele>
        <time>2015-11-18T12:32:35Z</time>
      </trkpt>
      <trkpt lat="43.64449" lon="3.82277">
        <ele>153</ele>
        <time>2015-11-18T12:32:36Z</time>
      </trkpt>
      <trkpt lat="43.64445" lon="3.82274">
        <ele>153</ele>
        <time>2015-11-18T12:32:37Z</time>
      </trkpt>
      <trkpt lat="43.64441" lon="3.8227">
        <ele>153</ele>
        <time>2015-11-18T12:32:38Z</time>
      </trkpt>
      <trkpt lat="43.64438" lon="3.82267">
        <ele>153</ele>
        <time>2015-11-18T12:32:39Z</time>
      </trkpt>
      <trkpt lat="43.64434" lon="3.82264">
        <ele>153</ele>
        <time>2015-11-18T12:32:40Z</time>
      </trkpt>
      <trkpt lat="43.6443" lon="3.82261">
        <ele>153.5</ele>
        <time>2015-11-18T12:32:41Z</time>
      </trkpt>
      <trkpt lat="43.64427" lon="3.82257">
        <ele>153</ele>
        <time>2015-11-18T12:32:42Z</time>
      </trkpt>
      <trkpt lat="43.64424" lon="3.82253">
        <ele>153.5</ele>
        <time>2015-11-18T12:32:43Z</time>
      </trkpt>
      <trkpt lat="43.64422" lon="3.82248">
        <ele>153.5</ele>
        <time>2015-11-18T12:32:44Z</time>
      </trkpt>
      <trkpt lat="43.6442" lon="3.82244">
        <ele>154</ele>
        <time>2015-11-18T12:32:45Z</time>
      </trkpt>
      <trkpt lat="43.64414" lon="3.82246">
        <ele>154</ele>
        <time>2015-11-18T12:32:46Z</time>
      </trkpt>
      <trkpt lat="43.64408" lon="3.82247">
        <ele>153</ele>
        <time>2015-11-18T12:32:48Z</time>
      </trkpt>
      <trkpt lat="43.64406" lon="3.82249">
        <ele>155</ele>
        <time>2015-11-18T12:32:50Z</time>
      </trkpt>
      <trkpt lat="43.64406" lon="3.82252">
        <ele>156.5</ele>
        <time>2015-11-18T12:32:51Z</time>
      </trkpt>
      <trkpt lat="43.64404" lon="3.82253">
        <ele>156.5</ele>
        <time>2015-11-18T12:32:52Z</time>
      </trkpt>
      <trkpt lat="43.64401" lon="3.82255">
        <ele>157.5</ele>
        <time>2015-11-18T12:32:53Z</time>
      </trkpt>
      <trkpt lat="43.64398" lon="3.82256">
        <ele>158</ele>
        <time>2015-11-18T12:32:54Z</time>
      </trkpt>
      <trkpt lat="43.64395" lon="3.82257">
        <ele>157.5</ele>
        <time>2015-11-18T12:32:55Z</time>
      </trkpt>
      <trkpt lat="43.64391" lon="3.82259">
        <ele>157.5</ele>
        <time>2015-11-18T12:32:56Z</time>
      </trkpt>
      <trkpt lat="43.64388" lon="3.8226">
        <ele>157.5</ele>
        <time>2015-11-18T12:32:57Z</time>
      </trkpt>
      <trkpt lat="43.64383" lon="3.82263">
        <ele>158</ele>
        <time>2015-11-18T12:32:58Z</time>
      </trkpt>
      <trkpt lat="43.64379" lon="3.82264">
        <ele>159</ele>
        <time>2015-11-18T12:32:59Z</time>
      </trkpt>
      <trkpt lat="43.64377" lon="3.82262">
        <ele>157</ele>
        <time>2015-11-18T12:33:00Z</time>
      </trkpt>
      <trkpt lat="43.64372" lon="3.82263">
        <ele>157</ele>
        <time>2015-11-18T12:33:01Z</time>
      </trkpt>
      <trkpt lat="43.64369" lon="3.82266">
        <ele>156</ele>
        <time>2015-11-18T12:33:02Z</time>
      </trkpt>
      <trkpt lat="43.64366" lon="3.82268">
        <ele>157</ele>
        <time>2015-11-18T12:33:03Z</time>
      </trkpt>
      <trkpt lat="43.64362" lon="3.82269">
        <ele>158</ele>
        <time>2015-11-18T12:33:04Z</time>
      </trkpt>
      <trkpt lat="43.64358" lon="3.82269">
        <ele>158</ele>
        <time>2015-11-18T12:33:05Z</time>
      </trkpt>
      <trkpt lat="43.64353" lon="3.82274">
        <ele>158</ele>
        <time>2015-11-18T12:33:06Z</time>
      </trkpt>
      <trkpt lat="43.6435" lon="3.82277">
        <ele>158</ele>
        <time>2015-11-18T12:33:07Z</time>
      </trkpt>
      <trkpt lat="43.64348" lon="3.8228">
        <ele>157.5</ele>
        <time>2015-11-18T12:33:08Z</time>
      </trkpt>
      <trkpt lat="43.64345" lon="3.82282">
        <ele>159</ele>
        <time>2015-11-18T12:33:09Z</time>
      </trkpt>
      <trkpt lat="43.64343" lon="3.82285">
        <ele>159.5</ele>
        <time>2015-11-18T12:33:10Z</time>
      </trkpt>
      <trkpt lat="43.64341" lon="3.82288">
        <ele>159.5</ele>
        <time>2015-11-18T12:33:11Z</time>
      </trkpt>
      <trkpt lat="43.64338" lon="3.82291">
        <ele>159</ele>
        <time>2015-11-18T12:33:12Z</time>
      </trkpt>
      <trkpt lat="43.64335" lon="3.82294">
        <ele>159</ele>
        <time>2015-11-18T12:33:13Z</time>
      </trkpt>
      <trkpt lat="43.64331" lon="3.82296">
        <ele>158.5</ele>
        <time>2015-11-18T12:33:14Z</time>
      </trkpt>
      <trkpt lat="43.64327" lon="3.82297">
        <ele>158.5</ele>
        <time>2015-11-18T12:33:15Z</time>
      </trkpt>
      <trkpt lat="43.64323" lon="3.82297">
        <ele>158</ele>
        <time>2015-11-18T12:33:16Z</time>
      </trkpt>
      <trkpt lat="43.64319" lon="3.82298">
        <ele>157</ele>
        <time>2015-11-18T12:33:17Z</time>
      </trkpt>
      <trkpt lat="43.64315" lon="3.82299">
        <ele>156.5</ele>
        <time>2015-11-18T12:33:18Z</time>
      </trkpt>
      <trkpt lat="43.6431" lon="3.823">
        <ele>156.5</ele>
        <time>2015-11-18T12:33:19Z</time>
      </trkpt>
      <trkpt lat="43.64306" lon="3.823">
        <ele>157</ele>
        <time>2015-11-18T12:33:20Z</time>
      </trkpt>
      <trkpt lat="43.64301" lon="3.82299">
        <ele>157</ele>
        <time>2015-11-18T12:33:21Z</time>
      </trkpt>
      <trkpt lat="43.64297" lon="3.823">
        <ele>157.5</ele>
        <time>2015-11-18T12:33:22Z</time>
      </trkpt>
      <trkpt lat="43.64293" lon="3.82304">
        <ele>157</ele>
        <time>2015-11-18T12:33:23Z</time>
      </trkpt>
      <trkpt lat="43.6429" lon="3.82309">
        <ele>155.5</ele>
        <time>2015-11-18T12:33:24Z</time>
      </trkpt>
      <trkpt lat="43.64287" lon="3.82313">
        <ele>155</ele>
        <time>2015-11-18T12:33:25Z</time>
      </trkpt>
      <trkpt lat="43.64283" lon="3.82315">
        <ele>156</ele>
        <time>2015-11-18T12:33:26Z</time>
      </trkpt>
      <trkpt lat="43.64279" lon="3.82316">
        <ele>155.5</ele>
        <time>2015-11-18T12:33:27Z</time>
      </trkpt>
      <trkpt lat="43.6427" lon="3.82316">
        <ele>155.5</ele>
        <time>2015-11-18T12:33:29Z</time>
      </trkpt>
      <trkpt lat="43.64267" lon="3.82312">
        <ele>157</ele>
        <time>2015-11-18T12:33:30Z</time>
      </trkpt>
      <trkpt lat="43.64264" lon="3.8231">
        <ele>157.5</ele>
        <time>2015-11-18T12:33:31Z</time>
      </trkpt>
      <trkpt lat="43.64261" lon="3.82309">
        <ele>157</ele>
        <time>2015-11-18T12:33:32Z</time>
      </trkpt>
      <trkpt lat="43.64257" lon="3.82308">
        <ele>157</ele>
        <time>2015-11-18T12:33:33Z</time>
      </trkpt>
      <trkpt lat="43.64254" lon="3.82307">
        <ele>157</ele>
        <time>2015-11-18T12:33:34Z</time>
      </trkpt>
      <trkpt lat="43.6425" lon="3.82307">
        <ele>156</ele>
        <time>2015-11-18T12:33:35Z</time>
      </trkpt>
      <trkpt lat="43.64246" lon="3.82309">
        <ele>156.5</ele>
        <time>2015-11-18T12:33:36Z</time>
      </trkpt>
      <trkpt lat="43.64243" lon="3.82309">
        <ele>156.5</ele>
        <time>2015-11-18T12:33:37Z</time>
      </trkpt>
      <trkpt lat="43.64239" lon="3.82309">
        <ele>157.5</ele>
        <time>2015-11-18T12:33:38Z</time>
      </trkpt>
      <trkpt lat="43.64236" lon="3.82308">
        <ele>155.5</ele>
        <time>2015-11-18T12:33:39Z</time>
      </trkpt>
      <trkpt lat="43.64233" lon="3.82308">
        <ele>155.5</ele>
        <time>2015-11-18T12:33:40Z</time>
      </trkpt>
      <trkpt lat="43.64229" lon="3.82309">
        <ele>156</ele>
        <time>2015-11-18T12:33:41Z</time>
      </trkpt>
      <trkpt lat="43.64225" lon="3.82309">
        <ele>158</ele>
        <time>2015-11-18T12:33:42Z</time>
      </trkpt>
      <trkpt lat="43.64222" lon="3.82308">
        <ele>158</ele>
        <time>2015-11-18T12:33:43Z</time>
      </trkpt>
      <trkpt lat="43.64218" lon="3.82309">
        <ele>158</ele>
        <time>2015-11-18T12:33:44Z</time>
      </trkpt>
      <trkpt lat="43.64215" lon="3.8231">
        <ele>159</ele>
        <time>2015-11-18T12:33:45Z</time>
      </trkpt>
      <trkpt lat="43.64212" lon="3.82312">
        <ele>158.5</ele>
        <time>2015-11-18T12:33:46Z</time>
      </trkpt>
      <trkpt lat="43.64208" lon="3.82316">
        <ele>157</ele>
        <time>2015-11-18T12:33:47Z</time>
      </trkpt>
      <trkpt lat="43.64205" lon="3.82319">
        <ele>157</ele>
        <time>2015-11-18T12:33:48Z</time>
      </trkpt>
      <trkpt lat="43.64202" lon="3.8232">
        <ele>156.5</ele>
        <time>2015-11-18T12:33:49Z</time>
      </trkpt>
      <trkpt lat="43.64199" lon="3.82323">
        <ele>157</ele>
        <time>2015-11-18T12:33:50Z</time>
      </trkpt>
      <trkpt lat="43.64197" lon="3.82327">
        <ele>156.5</ele>
        <time>2015-11-18T12:33:51Z</time>
      </trkpt>
      <trkpt lat="43.64194" lon="3.82328">
        <ele>155.5</ele>
        <time>2015-11-18T12:33:52Z</time>
      </trkpt>
      <trkpt lat="43.64191" lon="3.82331">
        <ele>154</ele>
        <time>2015-11-18T12:33:53Z</time>
      </trkpt>
      <trkpt lat="43.64189" lon="3.82334">
        <ele>153.5</ele>
        <time>2015-11-18T12:33:54Z</time>
      </trkpt>
      <trkpt lat="43.64187" lon="3.82338">
        <ele>152.5</ele>
        <time>2015-11-18T12:33:55Z</time>
      </trkpt>
      <trkpt lat="43.64185" lon="3.82343">
        <ele>152.5</ele>
        <time>2015-11-18T12:33:56Z</time>
      </trkpt>
      <trkpt lat="43.64186" lon="3.82354">
        <ele>150.5</ele>
        <time>2015-11-18T12:33:58Z</time>
      </trkpt>
      <trkpt lat="43.64185" lon="3.82359">
        <ele>151</ele>
        <time>2015-11-18T12:33:59Z</time>
      </trkpt>
      <trkpt lat="43.64186" lon="3.82362">
        <ele>151</ele>
        <time>2015-11-18T12:34:00Z</time>
      </trkpt>
      <trkpt lat="43.64186" lon="3.82367">
        <ele>151.5</ele>
        <time>2015-11-18T12:34:01Z</time>
      </trkpt>
      <trkpt lat="43.64185" lon="3.82371">
        <ele>153</ele>
        <time>2015-11-18T12:34:02Z</time>
      </trkpt>
      <trkpt lat="43.64184" lon="3.82374">
        <ele>154.5</ele>
        <time>2015-11-18T12:34:03Z</time>
      </trkpt>
      <trkpt lat="43.64183" lon="3.82376">
        <ele>156</ele>
        <time>2015-11-18T12:34:04Z</time>
      </trkpt>
      <trkpt lat="43.64182" lon="3.82375">
        <ele>155</ele>
        <time>2015-11-18T12:34:05Z</time>
      </trkpt>
      <trkpt lat="43.64181" lon="3.82375">
        <ele>154.5</ele>
        <time>2015-11-18T12:34:06Z</time>
      </trkpt>
      <trkpt lat="43.64179" lon="3.82377">
        <ele>156</ele>
        <time>2015-11-18T12:34:07Z</time>
      </trkpt>
      <trkpt lat="43.64176" lon="3.82381">
        <ele>157</ele>
        <time>2015-11-18T12:34:08Z</time>
      </trkpt>
      <trkpt lat="43.64175" lon="3.82385">
        <ele>158.5</ele>
        <time>2015-11-18T12:34:09Z</time>
      </trkpt>
      <trkpt lat="43.64173" lon="3.82389">
        <ele>159</ele>
        <time>2015-11-18T12:34:10Z</time>
      </trkpt>
      <trkpt lat="43.64174" lon="3.82395">
        <ele>158.5</ele>
        <time>2015-11-18T12:34:11Z</time>
      </trkpt>
      <trkpt lat="43.64172" lon="3.824">
        <ele>158</ele>
        <time>2015-11-18T12:34:12Z</time>
      </trkpt>
      <trkpt lat="43.64169" lon="3.82405">
        <ele>158</ele>
        <time>2015-11-18T12:34:13Z</time>
      </trkpt>
      <trkpt lat="43.64167" lon="3.8241">
        <ele>157.5</ele>
        <time>2015-11-18T12:34:14Z</time>
      </trkpt>
      <trkpt lat="43.64165" lon="3.82416">
        <ele>157</ele>
        <time>2015-11-18T12:34:15Z</time>
      </trkpt>
      <trkpt lat="43.64163" lon="3.82421">
        <ele>156.5</ele>
        <time>2015-11-18T12:34:16Z</time>
      </trkpt>
      <trkpt lat="43.64163" lon="3.82427">
        <ele>156.5</ele>
        <time>2015-11-18T12:34:17Z</time>
      </trkpt>
      <trkpt lat="43.6416" lon="3.82431">
        <ele>156</ele>
        <time>2015-11-18T12:34:18Z</time>
      </trkpt>
      <trkpt lat="43.64158" lon="3.82433">
        <ele>156.5</ele>
        <time>2015-11-18T12:34:19Z</time>
      </trkpt>
      <trkpt lat="43.64157" lon="3.82436">
        <ele>155.5</ele>
        <time>2015-11-18T12:34:20Z</time>
      </trkpt>
      <trkpt lat="43.64156" lon="3.8244">
        <ele>154</ele>
        <time>2015-11-18T12:34:21Z</time>
      </trkpt>
      <trkpt lat="43.64156" lon="3.82446">
        <ele>154.5</ele>
        <time>2015-11-18T12:34:22Z</time>
      </trkpt>
      <trkpt lat="43.64154" lon="3.82451">
        <ele>154.5</ele>
        <time>2015-11-18T12:34:23Z</time>
      </trkpt>
      <trkpt lat="43.64152" lon="3.82457">
        <ele>154.5</ele>
        <time>2015-11-18T12:34:24Z</time>
      </trkpt>
      <trkpt lat="43.6415" lon="3.82463">
        <ele>154</ele>
        <time>2015-11-18T12:34:25Z</time>
      </trkpt>
      <trkpt lat="43.6415" lon="3.82469">
        <ele>153</ele>
        <time>2015-11-18T12:34:26Z</time>
      </trkpt>
      <trkpt lat="43.64148" lon="3.82475">
        <ele>152</ele>
        <time>2015-11-18T12:34:27Z</time>
      </trkpt>
      <trkpt lat="43.64148" lon="3.82482">
        <ele>152.5</ele>
        <time>2015-11-18T12:34:28Z</time>
      </trkpt>
      <trkpt lat="43.64145" lon="3.82489">
        <ele>152.5</ele>
        <time>2015-11-18T12:34:29Z</time>
      </trkpt>
      <trkpt lat="43.64144" lon="3.82496">
        <ele>153</ele>
        <time>2015-11-18T12:34:30Z</time>
      </trkpt>
      <trkpt lat="43.64142" lon="3.82502">
        <ele>153</ele>
        <time>2015-11-18T12:34:31Z</time>
      </trkpt>
      <trkpt lat="43.64139" lon="3.82507">
        <ele>152.5</ele>
        <time>2015-11-18T12:34:32Z</time>
      </trkpt>
      <trkpt lat="43.64136" lon="3.82514">
        <ele>151.5</ele>
        <time>2015-11-18T12:34:33Z</time>
      </trkpt>
      <trkpt lat="43.64136" lon="3.82521">
        <ele>153.5</ele>
        <time>2015-11-18T12:34:34Z</time>
      </trkpt>
      <trkpt lat="43.64132" lon="3.82528">
        <ele>154</ele>
        <time>2015-11-18T12:34:35Z</time>
      </trkpt>
      <trkpt lat="43.6413" lon="3.82535">
        <ele>153.5</ele>
        <time>2015-11-18T12:34:36Z</time>
      </trkpt>
      <trkpt lat="43.64129" lon="3.82543">
        <ele>153.5</ele>
        <time>2015-11-18T12:34:37Z</time>
      </trkpt>
      <trkpt lat="43.64126" lon="3.82551">
        <ele>153</ele>
        <time>2015-11-18T12:34:38Z</time>
      </trkpt>
      <trkpt lat="43.64123" lon="3.82559">
        <ele>153.5</ele>
        <time>2015-11-18T12:34:39Z</time>
      </trkpt>
      <trkpt lat="43.6412" lon="3.82567">
        <ele>154</ele>
        <time>2015-11-18T12:34:40Z</time>
      </trkpt>
      <trkpt lat="43.64116" lon="3.82574">
        <ele>153</ele>
        <time>2015-11-18T12:34:41Z</time>
      </trkpt>
      <trkpt lat="43.64113" lon="3.82581">
        <ele>151</ele>
        <time>2015-11-18T12:34:42Z</time>
      </trkpt>
      <trkpt lat="43.64112" lon="3.82589">
        <ele>149.5</ele>
        <time>2015-11-18T12:34:43Z</time>
      </trkpt>
      <trkpt lat="43.64104" lon="3.82605">
        <ele>148.5</ele>
        <time>2015-11-18T12:34:45Z</time>
      </trkpt>
      <trkpt lat="43.64102" lon="3.82614">
        <ele>148.5</ele>
        <time>2015-11-18T12:34:46Z</time>
      </trkpt>
      <trkpt lat="43.64101" lon="3.82623">
        <ele>149</ele>
        <time>2015-11-18T12:34:47Z</time>
      </trkpt>
      <trkpt lat="43.64098" lon="3.82633">
        <ele>148.5</ele>
        <time>2015-11-18T12:34:48Z</time>
      </trkpt>
      <trkpt lat="43.64094" lon="3.82642">
        <ele>147</ele>
        <time>2015-11-18T12:34:49Z</time>
      </trkpt>
      <trkpt lat="43.64091" lon="3.8265">
        <ele>148</ele>
        <time>2015-11-18T12:34:50Z</time>
      </trkpt>
      <trkpt lat="43.64086" lon="3.82659">
        <ele>147</ele>
        <time>2015-11-18T12:34:51Z</time>
      </trkpt>
      <trkpt lat="43.6408" lon="3.82668">
        <ele>146</ele>
        <time>2015-11-18T12:34:51Z</time>
      </trkpt>
      <trkpt lat="43.64076" lon="3.82677">
        <ele>144.5</ele>
        <time>2015-11-18T12:34:52Z</time>
      </trkpt>
      <trkpt lat="43.64075" lon="3.82688">
        <ele>144</ele>
        <time>2015-11-18T12:34:54Z</time>
      </trkpt>
      <trkpt lat="43.64073" lon="3.82697">
        <ele>144.5</ele>
        <time>2015-11-18T12:34:54Z</time>
      </trkpt>
      <trkpt lat="43.6407" lon="3.82706">
        <ele>144</ele>
        <time>2015-11-18T12:34:55Z</time>
      </trkpt>
      <trkpt lat="43.64065" lon="3.82714">
        <ele>143.5</ele>
        <time>2015-11-18T12:34:56Z</time>
      </trkpt>
      <trkpt lat="43.64059" lon="3.82723">
        <ele>141.5</ele>
        <time>2015-11-18T12:34:57Z</time>
      </trkpt>
      <trkpt lat="43.64057" lon="3.82732">
        <ele>143</ele>
        <time>2015-11-18T12:34:58Z</time>
      </trkpt>
      <trkpt lat="43.64053" lon="3.82742">
        <ele>142</ele>
        <time>2015-11-18T12:34:59Z</time>
      </trkpt>
      <trkpt lat="43.64047" lon="3.82751">
        <ele>140.5</ele>
        <time>2015-11-18T12:35:00Z</time>
      </trkpt>
      <trkpt lat="43.64042" lon="3.82759">
        <ele>140</ele>
        <time>2015-11-18T12:35:02Z</time>
      </trkpt>
      <trkpt lat="43.6404" lon="3.82767">
        <ele>137</ele>
        <time>2015-11-18T12:35:02Z</time>
      </trkpt>
      <trkpt lat="43.64025" lon="3.82781">
        <ele>136</ele>
        <time>2015-11-18T12:35:05Z</time>
      </trkpt>
      <trkpt lat="43.64006" lon="3.82786">
        <ele>133</ele>
        <time>2015-11-18T12:35:06Z</time>
      </trkpt>
      <trkpt lat="43.63999" lon="3.82785">
        <ele>130.5</ele>
        <time>2015-11-18T12:35:08Z</time>
      </trkpt>
      <trkpt lat="43.63982" lon="3.8279">
        <ele>130</ele>
        <time>2015-11-18T12:35:09Z</time>
      </trkpt>
      <trkpt lat="43.63966" lon="3.82801">
        <ele>129</ele>
        <time>2015-11-18T12:35:11Z</time>
      </trkpt>
      <trkpt lat="43.63961" lon="3.82808">
        <ele>129.5</ele>
        <time>2015-11-18T12:35:12Z</time>
      </trkpt>
      <trkpt lat="43.63956" lon="3.82813">
        <ele>130</ele>
        <time>2015-11-18T12:35:13Z</time>
      </trkpt>
      <trkpt lat="43.63951" lon="3.82817">
        <ele>131</ele>
        <time>2015-11-18T12:35:14Z</time>
      </trkpt>
      <trkpt lat="43.63936" lon="3.82829">
        <ele>134.5</ele>
        <time>2015-11-18T12:35:30Z</time>
      </trkpt>
      <trkpt lat="43.63928" lon="3.82825">
        <ele>136.5</ele>
        <time>2015-11-18T12:35:32Z</time>
      </trkpt>
      <trkpt lat="43.63924" lon="3.82822">
        <ele>137</ele>
        <time>2015-11-18T12:35:33Z</time>
      </trkpt>
      <trkpt lat="43.63921" lon="3.82818">
        <ele>137.5</ele>
        <time>2015-11-18T12:35:34Z</time>
      </trkpt>
      <trkpt lat="43.63917" lon="3.82814">
        <ele>137.5</ele>
        <time>2015-11-18T12:35:35Z</time>
      </trkpt>
      <trkpt lat="43.63912" lon="3.82812">
        <ele>139</ele>
        <time>2015-11-18T12:35:36Z</time>
      </trkpt>
      <trkpt lat="43.63908" lon="3.82811">
        <ele>139.5</ele>
        <time>2015-11-18T12:35:37Z</time>
      </trkpt>
      <trkpt lat="43.63903" lon="3.8281">
        <ele>140.5</ele>
        <time>2015-11-18T12:35:38Z</time>
      </trkpt>
      <trkpt lat="43.63897" lon="3.82807">
        <ele>141</ele>
        <time>2015-11-18T12:35:39Z</time>
      </trkpt>
      <trkpt lat="43.63893" lon="3.82804">
        <ele>141</ele>
        <time>2015-11-18T12:35:40Z</time>
      </trkpt>
      <trkpt lat="43.63892" lon="3.82803">
        <ele>139</ele>
        <time>2015-11-18T12:35:42Z</time>
      </trkpt>
      <trkpt lat="43.63891" lon="3.82802">
        <ele>139</ele>
        <time>2015-11-18T12:35:43Z</time>
      </trkpt>
      <trkpt lat="43.6389" lon="3.82801">
        <ele>139.5</ele>
        <time>2015-11-18T12:35:44Z</time>
      </trkpt>
      <trkpt lat="43.63888" lon="3.828">
        <ele>140</ele>
        <time>2015-11-18T12:35:45Z</time>
      </trkpt>
      <trkpt lat="43.63886" lon="3.82796">
        <ele>140</ele>
        <time>2015-11-18T12:35:46Z</time>
      </trkpt>
      <trkpt lat="43.63884" lon="3.82792">
        <ele>140</ele>
        <time>2015-11-18T12:35:47Z</time>
      </trkpt>
      <trkpt lat="43.63879" lon="3.82784">
        <ele>138.5</ele>
        <time>2015-11-18T12:35:49Z</time>
      </trkpt>
      <trkpt lat="43.63876" lon="3.82785">
        <ele>138.5</ele>
        <time>2015-11-18T12:35:50Z</time>
      </trkpt>
      <trkpt lat="43.63868" lon="3.82794">
        <ele>136</ele>
        <time>2015-11-18T12:35:52Z</time>
      </trkpt>
      <trkpt lat="43.63865" lon="3.82797">
        <ele>136</ele>
        <time>2015-11-18T12:35:53Z</time>
      </trkpt>
      <trkpt lat="43.6386" lon="3.82799">
        <ele>136</ele>
        <time>2015-11-18T12:35:54Z</time>
      </trkpt>
      <trkpt lat="43.63856" lon="3.82802">
        <ele>136</ele>
        <time>2015-11-18T12:35:55Z</time>
      </trkpt>
      <trkpt lat="43.63851" lon="3.82805">
        <ele>136.5</ele>
        <time>2015-11-18T12:35:56Z</time>
      </trkpt>
      <trkpt lat="43.63845" lon="3.82807">
        <ele>138</ele>
        <time>2015-11-18T12:35:57Z</time>
      </trkpt>
      <trkpt lat="43.63838" lon="3.82805">
        <ele>137</ele>
        <time>2015-11-18T12:35:58Z</time>
      </trkpt>
      <trkpt lat="43.63832" lon="3.82801">
        <ele>135.5</ele>
        <time>2015-11-18T12:35:59Z</time>
      </trkpt>
      <trkpt lat="43.63826" lon="3.82801">
        <ele>135</ele>
        <time>2015-11-18T12:36:00Z</time>
      </trkpt>
      <trkpt lat="43.63819" lon="3.82804">
        <ele>135.5</ele>
        <time>2015-11-18T12:36:01Z</time>
      </trkpt>
      <trkpt lat="43.63813" lon="3.82806">
        <ele>135</ele>
        <time>2015-11-18T12:36:02Z</time>
      </trkpt>
      <trkpt lat="43.63807" lon="3.82808">
        <ele>134.5</ele>
        <time>2015-11-18T12:36:03Z</time>
      </trkpt>
      <trkpt lat="43.63801" lon="3.82811">
        <ele>134</ele>
        <time>2015-11-18T12:36:04Z</time>
      </trkpt>
      <trkpt lat="43.63795" lon="3.82814">
        <ele>134</ele>
        <time>2015-11-18T12:36:05Z</time>
      </trkpt>
      <trkpt lat="43.6379" lon="3.82816">
        <ele>133.5</ele>
        <time>2015-11-18T12:36:06Z</time>
      </trkpt>
      <trkpt lat="43.63785" lon="3.82818">
        <ele>132.5</ele>
        <time>2015-11-18T12:36:07Z</time>
      </trkpt>
      <trkpt lat="43.63782" lon="3.82822">
        <ele>134</ele>
        <time>2015-11-18T12:36:09Z</time>
      </trkpt>
      <trkpt lat="43.63784" lon="3.82831">
        <ele>133.5</ele>
        <time>2015-11-18T12:36:11Z</time>
      </trkpt>
      <trkpt lat="43.63784" lon="3.82836">
        <ele>132.5</ele>
        <time>2015-11-18T12:36:12Z</time>
      </trkpt>
      <trkpt lat="43.63786" lon="3.82839">
        <ele>131</ele>
        <time>2015-11-18T12:36:13Z</time>
      </trkpt>
      <trkpt lat="43.63788" lon="3.82842">
        <ele>130.5</ele>
        <time>2015-11-18T12:36:14Z</time>
      </trkpt>
      <trkpt lat="43.63787" lon="3.82846">
        <ele>129</ele>
        <time>2015-11-18T12:36:15Z</time>
      </trkpt>
      <trkpt lat="43.63786" lon="3.8285">
        <ele>128</ele>
        <time>2015-11-18T12:36:16Z</time>
      </trkpt>
      <trkpt lat="43.63777" lon="3.82849">
        <ele>126.5</ele>
        <time>2015-11-18T12:36:18Z</time>
      </trkpt>
      <trkpt lat="43.63775" lon="3.82847">
        <ele>126.5</ele>
        <time>2015-11-18T12:36:19Z</time>
      </trkpt>
      <trkpt lat="43.63773" lon="3.82845">
        <ele>126</ele>
        <time>2015-11-18T12:36:20Z</time>
      </trkpt>
      <trkpt lat="43.63771" lon="3.82846">
        <ele>126</ele>
        <time>2015-11-18T12:36:21Z</time>
      </trkpt>
      <trkpt lat="43.63769" lon="3.82846">
        <ele>125.5</ele>
        <time>2015-11-18T12:36:22Z</time>
      </trkpt>
      <trkpt lat="43.63774" lon="3.82848">
        <ele>127</ele>
        <time>2015-11-18T12:36:24Z</time>
      </trkpt>
      <trkpt lat="43.63771" lon="3.8285">
        <ele>128.5</ele>
        <time>2015-11-18T12:36:28Z</time>
      </trkpt>
      <trkpt lat="43.6377" lon="3.82851">
        <ele>129</ele>
        <time>2015-11-18T12:36:31Z</time>
      </trkpt>
      <trkpt lat="43.63769" lon="3.82851">
        <ele>129</ele>
        <time>2015-11-18T12:36:34Z</time>
      </trkpt>
      <trkpt lat="43.63769" lon="3.82852">
        <ele>128.5</ele>
        <time>2015-11-18T12:36:36Z</time>
      </trkpt>
      <trkpt lat="43.63769" lon="3.82853">
        <ele>128.5</ele>
        <time>2015-11-18T12:36:37Z</time>
      </trkpt>
      <trkpt lat="43.63769" lon="3.82853">
        <ele>128</ele>
        <time>2015-11-18T12:36:38Z</time>
      </trkpt>
      <trkpt lat="43.63768" lon="3.82854">
        <ele>126</ele>
        <time>2015-11-18T12:36:44Z</time>
      </trkpt>
      <trkpt lat="43.63768" lon="3.82854">
        <ele>125.5</ele>
        <time>2015-11-18T12:36:46Z</time>
      </trkpt>
      <trkpt lat="43.63767" lon="3.82856">
        <ele>126</ele>
        <time>2015-11-18T12:37:06Z</time>
      </trkpt>
      <trkpt lat="43.63768" lon="3.82856">
        <ele>125</ele>
        <time>2015-11-18T12:37:21Z</time>
      </trkpt>
      <trkpt lat="43.63768" lon="3.82855">
        <ele>124.5</ele>
        <time>2015-11-18T12:37:25Z</time>
      </trkpt>
      <trkpt lat="43.63769" lon="3.82858">
        <ele>127.5</ele>
        <time>2015-11-18T12:37:39Z</time>
      </trkpt>
      <trkpt lat="43.63769" lon="3.82859">
        <ele>128</ele>
        <time>2015-11-18T12:37:41Z</time>
      </trkpt>
      <trkpt lat="43.63769" lon="3.82859">
        <ele>128.5</ele>
        <time>2015-11-18T12:37:45Z</time>
      </trkpt>
      <trkpt lat="43.63768" lon="3.8286">
        <ele>128.5</ele>
        <time>2015-11-18T12:37:47Z</time>
      </trkpt>
      <trkpt lat="43.63768" lon="3.82861">
        <ele>128.5</ele>
        <time>2015-11-18T12:37:48Z</time>
      </trkpt>
      <trkpt lat="43.63767" lon="3.82861">
        <ele>128</ele>
        <time>2015-11-18T12:37:50Z</time>
      </trkpt>
      <trkpt lat="43.63765" lon="3.82861">
        <ele>127</ele>
        <time>2015-11-18T12:37:57Z</time>
      </trkpt>
      <trkpt lat="43.63762" lon="3.82862">
        <ele>125.5</ele>
        <time>2015-11-18T12:38:17Z</time>
      </trkpt>
      <trkpt lat="43.63761" lon="3.82861">
        <ele>125.5</ele>
        <time>2015-11-18T12:38:18Z</time>
      </trkpt>
      <trkpt lat="43.63761" lon="3.82862">
        <ele>125.5</ele>
        <time>2015-11-18T12:38:19Z</time>
      </trkpt>
      <trkpt lat="43.63761" lon="3.82862">
        <ele>125.5</ele>
        <time>2015-11-18T12:38:20Z</time>
      </trkpt>
      <trkpt lat="43.63763" lon="3.82863">
        <ele>126.5</ele>
        <time>2015-11-18T12:38:39Z</time>
      </trkpt>
      <trkpt lat="43.63763" lon="3.82864">
        <ele>126</ele>
        <time>2015-11-18T12:38:42Z</time>
      </trkpt>
      <trkpt lat="43.63763" lon="3.82864">
        <ele>125.5</ele>
        <time>2015-11-18T12:38:44Z</time>
      </trkpt>
      <trkpt lat="43.63763" lon="3.82864">
        <ele>125.5</ele>
        <time>2015-11-18T12:38:46Z</time>
      </trkpt>
      <trkpt lat="43.63764" lon="3.82863">
        <ele>126</ele>
        <time>2015-11-18T12:38:55Z</time>
      </trkpt>
      <trkpt lat="43.63767" lon="3.82865">
        <ele>126</ele>
        <time>2015-11-18T12:38:57Z</time>
      </trkpt>
    </trkseg>
  </trk>
</gpx>